<?xml version="1.0" encoding="UTF-8" standalone="no" ?>
<gpx xmlns="http://www.topografix.com/GPX/1/1" xmlns:xsi="http://www.w3.org/2001/XMLSchema-instance" xsi:schemaLocation="http://www.topografix.com/GPX/1/1 http://www.topografix.com/GPX/1/1/gpx.xsd" version="1.1" creator="VisuGPX - https://www.visugpx.com">
  <metadata>
    <name>Floressas (46700) boucle VTT 41,76 km</name>
    <desc><![CDATA[Boucle avec beaucoup de dénivelés au milieu des bois, paysages de causse, vignoble, combe. ]]></desc>
  </metadata>
  <trk>
    <name><![CDATA[001-2009-06-21-07-49-36-MNT]]></name>
    <trkseg>
      <trkpt lat="44.44445" lon="1.1212">
        <ele>257.126068</ele>
        <time>2009-06-21T05:49:36Z</time>
      </trkpt>
      <trkpt lat="44.44418" lon="1.12121">
        <ele>257.483002</ele>
        <time>2009-06-21T05:50:51Z</time>
      </trkpt>
      <trkpt lat="44.44415" lon="1.12122">
        <ele>257.402252</ele>
        <time>2009-06-21T05:50:54Z</time>
      </trkpt>
      <trkpt lat="44.44413" lon="1.12119">
        <ele>257.601105</ele>
        <time>2009-06-21T05:50:58Z</time>
      </trkpt>
      <trkpt lat="44.44413" lon="1.12111">
        <ele>258.059204</ele>
        <time>2009-06-21T05:51:01Z</time>
      </trkpt>
      <trkpt lat="44.44418" lon="1.121">
        <ele>258.626862</ele>
        <time>2009-06-21T05:51:05Z</time>
      </trkpt>
      <trkpt lat="44.44422" lon="1.12096">
        <ele>258.71579</ele>
        <time>2009-06-21T05:51:08Z</time>
      </trkpt>
      <trkpt lat="44.44424" lon="1.12099">
        <ele>258.524109</ele>
        <time>2009-06-21T05:51:11Z</time>
      </trkpt>
      <trkpt lat="44.44415" lon="1.12106">
        <ele>258.358582</ele>
        <time>2009-06-21T05:51:15Z</time>
      </trkpt>
      <trkpt lat="44.44407" lon="1.12109">
        <ele>258.221863</ele>
        <time>2009-06-21T05:51:18Z</time>
      </trkpt>
      <trkpt lat="44.44398" lon="1.1211">
        <ele>258.290436</ele>
        <time>2009-06-21T05:51:21Z</time>
      </trkpt>
      <trkpt lat="44.44391" lon="1.1211">
        <ele>258.188721</ele>
        <time>2009-06-21T05:51:24Z</time>
      </trkpt>
      <trkpt lat="44.44389" lon="1.12114">
        <ele>257.750092</ele>
        <time>2009-06-21T05:51:27Z</time>
      </trkpt>
      <trkpt lat="44.44384" lon="1.12119">
        <ele>257.109314</ele>
        <time>2009-06-21T05:51:31Z</time>
      </trkpt>
      <trkpt lat="44.44381" lon="1.12115">
        <ele>257.22229</ele>
        <time>2009-06-21T05:51:35Z</time>
      </trkpt>
      <trkpt lat="44.44384" lon="1.1212">
        <ele>256.991608</ele>
        <time>2009-06-21T05:51:38Z</time>
      </trkpt>
      <trkpt lat="44.44392" lon="1.12135">
        <ele>256.182404</ele>
        <time>2009-06-21T05:51:42Z</time>
      </trkpt>
      <trkpt lat="44.44398" lon="1.12151">
        <ele>255.172348</ele>
        <time>2009-06-21T05:51:45Z</time>
      </trkpt>
      <trkpt lat="44.44406" lon="1.12167">
        <ele>254.149048</ele>
        <time>2009-06-21T05:51:48Z</time>
      </trkpt>
      <trkpt lat="44.44416" lon="1.12186">
        <ele>253.06839</ele>
        <time>2009-06-21T05:51:51Z</time>
      </trkpt>
      <trkpt lat="44.44427" lon="1.12211">
        <ele>251.927307</ele>
        <time>2009-06-21T05:51:54Z</time>
      </trkpt>
      <trkpt lat="44.44438" lon="1.12236">
        <ele>251.26593</ele>
        <time>2009-06-21T05:51:57Z</time>
      </trkpt>
      <trkpt lat="44.44448" lon="1.12258">
        <ele>250.431244</ele>
        <time>2009-06-21T05:52:00Z</time>
      </trkpt>
      <trkpt lat="44.44456" lon="1.12277">
        <ele>249.612396</ele>
        <time>2009-06-21T05:52:03Z</time>
      </trkpt>
      <trkpt lat="44.44462" lon="1.123">
        <ele>248.421555</ele>
        <time>2009-06-21T05:52:06Z</time>
      </trkpt>
      <trkpt lat="44.4448" lon="1.12332">
        <ele>246.709946</ele>
        <time>2009-06-21T05:52:10Z</time>
      </trkpt>
      <trkpt lat="44.44497" lon="1.12353">
        <ele>244.857956</ele>
        <time>2009-06-21T05:52:13Z</time>
      </trkpt>
      <trkpt lat="44.445" lon="1.12389">
        <ele>242.706253</ele>
        <time>2009-06-21T05:52:16Z</time>
      </trkpt>
      <trkpt lat="44.44492" lon="1.12429">
        <ele>242.207504</ele>
        <time>2009-06-21T05:52:19Z</time>
      </trkpt>
      <trkpt lat="44.44488" lon="1.12462">
        <ele>241.782501</ele>
        <time>2009-06-21T05:52:22Z</time>
      </trkpt>
      <trkpt lat="44.44488" lon="1.12499">
        <ele>241.218124</ele>
        <time>2009-06-21T05:52:25Z</time>
      </trkpt>
      <trkpt lat="44.44488" lon="1.12535">
        <ele>241.313751</ele>
        <time>2009-06-21T05:52:28Z</time>
      </trkpt>
      <trkpt lat="44.44493" lon="1.12578">
        <ele>241.648087</ele>
        <time>2009-06-21T05:52:31Z</time>
      </trkpt>
      <trkpt lat="44.44499" lon="1.12607">
        <ele>241.820206</ele>
        <time>2009-06-21T05:52:35Z</time>
      </trkpt>
      <trkpt lat="44.44509" lon="1.1264">
        <ele>242.148987</ele>
        <time>2009-06-21T05:52:39Z</time>
      </trkpt>
      <trkpt lat="44.44517" lon="1.12664">
        <ele>242.672165</ele>
        <time>2009-06-21T05:52:42Z</time>
      </trkpt>
      <trkpt lat="44.44525" lon="1.12686">
        <ele>243.377579</ele>
        <time>2009-06-21T05:52:45Z</time>
      </trkpt>
      <trkpt lat="44.44534" lon="1.12714">
        <ele>244</ele>
        <time>2009-06-21T05:52:48Z</time>
      </trkpt>
      <trkpt lat="44.44541" lon="1.12734">
        <ele>243.819153</ele>
        <time>2009-06-21T05:52:51Z</time>
      </trkpt>
      <trkpt lat="44.44547" lon="1.12754">
        <ele>243.702911</ele>
        <time>2009-06-21T05:52:54Z</time>
      </trkpt>
      <trkpt lat="44.44552" lon="1.12776">
        <ele>243.177811</ele>
        <time>2009-06-21T05:52:57Z</time>
      </trkpt>
      <trkpt lat="44.4456" lon="1.12797">
        <ele>242.440308</ele>
        <time>2009-06-21T05:53:00Z</time>
      </trkpt>
      <trkpt lat="44.44567" lon="1.12817">
        <ele>241.928452</ele>
        <time>2009-06-21T05:53:03Z</time>
      </trkpt>
      <trkpt lat="44.44575" lon="1.12836">
        <ele>241.369995</ele>
        <time>2009-06-21T05:53:06Z</time>
      </trkpt>
      <trkpt lat="44.44582" lon="1.12857">
        <ele>240.459366</ele>
        <time>2009-06-21T05:53:09Z</time>
      </trkpt>
      <trkpt lat="44.44589" lon="1.12879">
        <ele>239.11438</ele>
        <time>2009-06-21T05:53:12Z</time>
      </trkpt>
      <trkpt lat="44.44597" lon="1.129">
        <ele>237.421921</ele>
        <time>2009-06-21T05:53:15Z</time>
      </trkpt>
      <trkpt lat="44.44604" lon="1.12925">
        <ele>235.339294</ele>
        <time>2009-06-21T05:53:18Z</time>
      </trkpt>
      <trkpt lat="44.44612" lon="1.12954">
        <ele>233.138275</ele>
        <time>2009-06-21T05:53:21Z</time>
      </trkpt>
      <trkpt lat="44.44621" lon="1.12985">
        <ele>231.388596</ele>
        <time>2009-06-21T05:53:24Z</time>
      </trkpt>
      <trkpt lat="44.44632" lon="1.13019">
        <ele>229.546677</ele>
        <time>2009-06-21T05:53:27Z</time>
      </trkpt>
      <trkpt lat="44.44645" lon="1.13053">
        <ele>228.077728</ele>
        <time>2009-06-21T05:53:30Z</time>
      </trkpt>
      <trkpt lat="44.44659" lon="1.13088">
        <ele>226.865036</ele>
        <time>2009-06-21T05:53:34Z</time>
      </trkpt>
      <trkpt lat="44.44673" lon="1.13118">
        <ele>226.259811</ele>
        <time>2009-06-21T05:53:37Z</time>
      </trkpt>
      <trkpt lat="44.44686" lon="1.13147">
        <ele>226.468384</ele>
        <time>2009-06-21T05:53:40Z</time>
      </trkpt>
      <trkpt lat="44.44697" lon="1.13171">
        <ele>226.93866</ele>
        <time>2009-06-21T05:53:43Z</time>
      </trkpt>
      <trkpt lat="44.44702" lon="1.13193">
        <ele>227.249222</ele>
        <time>2009-06-21T05:53:46Z</time>
      </trkpt>
      <trkpt lat="44.44701" lon="1.13224">
        <ele>227.640732</ele>
        <time>2009-06-21T05:53:49Z</time>
      </trkpt>
      <trkpt lat="44.447" lon="1.13248">
        <ele>228.05983</ele>
        <time>2009-06-21T05:53:53Z</time>
      </trkpt>
      <trkpt lat="44.44696" lon="1.13274">
        <ele>228.390457</ele>
        <time>2009-06-21T05:53:56Z</time>
      </trkpt>
      <trkpt lat="44.44689" lon="1.133">
        <ele>228.996002</ele>
        <time>2009-06-21T05:53:59Z</time>
      </trkpt>
      <trkpt lat="44.4468" lon="1.13319">
        <ele>229.050964</ele>
        <time>2009-06-21T05:54:02Z</time>
      </trkpt>
      <trkpt lat="44.44666" lon="1.13338">
        <ele>228.447891</ele>
        <time>2009-06-21T05:54:05Z</time>
      </trkpt>
      <trkpt lat="44.4465" lon="1.13354">
        <ele>227.701004</ele>
        <time>2009-06-21T05:54:08Z</time>
      </trkpt>
      <trkpt lat="44.44634" lon="1.13371">
        <ele>227.470978</ele>
        <time>2009-06-21T05:54:11Z</time>
      </trkpt>
      <trkpt lat="44.44622" lon="1.13387">
        <ele>228.302505</ele>
        <time>2009-06-21T05:54:14Z</time>
      </trkpt>
      <trkpt lat="44.44614" lon="1.13402">
        <ele>227.985001</ele>
        <time>2009-06-21T05:54:17Z</time>
      </trkpt>
      <trkpt lat="44.44608" lon="1.13422">
        <ele>227.413132</ele>
        <time>2009-06-21T05:54:21Z</time>
      </trkpt>
      <trkpt lat="44.44605" lon="1.13436">
        <ele>227.036255</ele>
        <time>2009-06-21T05:54:24Z</time>
      </trkpt>
      <trkpt lat="44.44601" lon="1.13452">
        <ele>226.612503</ele>
        <time>2009-06-21T05:54:27Z</time>
      </trkpt>
      <trkpt lat="44.44597" lon="1.13469">
        <ele>224.315002</ele>
        <time>2009-06-21T05:54:30Z</time>
      </trkpt>
      <trkpt lat="44.44592" lon="1.13488">
        <ele>221.740005</ele>
        <time>2009-06-21T05:54:33Z</time>
      </trkpt>
      <trkpt lat="44.44586" lon="1.13502">
        <ele>219.690979</ele>
        <time>2009-06-21T05:54:36Z</time>
      </trkpt>
      <trkpt lat="44.44578" lon="1.13518">
        <ele>217.316483</ele>
        <time>2009-06-21T05:54:39Z</time>
      </trkpt>
      <trkpt lat="44.44562" lon="1.13537">
        <ele>213.947601</ele>
        <time>2009-06-21T05:54:42Z</time>
      </trkpt>
      <trkpt lat="44.44546" lon="1.1356">
        <ele>211.380371</ele>
        <time>2009-06-21T05:54:45Z</time>
      </trkpt>
      <trkpt lat="44.44518" lon="1.13586">
        <ele>206.987762</ele>
        <time>2009-06-21T05:54:49Z</time>
      </trkpt>
      <trkpt lat="44.44489" lon="1.13604">
        <ele>202.904312</ele>
        <time>2009-06-21T05:54:52Z</time>
      </trkpt>
      <trkpt lat="44.44465" lon="1.13613">
        <ele>198.800964</ele>
        <time>2009-06-21T05:54:55Z</time>
      </trkpt>
      <trkpt lat="44.44447" lon="1.13621">
        <ele>195.3284</ele>
        <time>2009-06-21T05:54:58Z</time>
      </trkpt>
      <trkpt lat="44.44433" lon="1.13626">
        <ele>191.973145</ele>
        <time>2009-06-21T05:55:01Z</time>
      </trkpt>
      <trkpt lat="44.44427" lon="1.13634">
        <ele>190.487061</ele>
        <time>2009-06-21T05:55:04Z</time>
      </trkpt>
      <trkpt lat="44.44417" lon="1.13637">
        <ele>188.295502</ele>
        <time>2009-06-21T05:55:07Z</time>
      </trkpt>
      <trkpt lat="44.44397" lon="1.13642">
        <ele>184.305206</ele>
        <time>2009-06-21T05:55:10Z</time>
      </trkpt>
      <trkpt lat="44.44373" lon="1.13659">
        <ele>180.337082</ele>
        <time>2009-06-21T05:55:14Z</time>
      </trkpt>
      <trkpt lat="44.44356" lon="1.1368">
        <ele>178.545792</ele>
        <time>2009-06-21T05:55:17Z</time>
      </trkpt>
      <trkpt lat="44.4433" lon="1.13698">
        <ele>174.638199</ele>
        <time>2009-06-21T05:55:21Z</time>
      </trkpt>
      <trkpt lat="44.44311" lon="1.13703">
        <ele>170.690659</ele>
        <time>2009-06-21T05:55:24Z</time>
      </trkpt>
      <trkpt lat="44.44295" lon="1.13705">
        <ele>166.655304</ele>
        <time>2009-06-21T05:55:27Z</time>
      </trkpt>
      <trkpt lat="44.44282" lon="1.13702">
        <ele>162.906586</ele>
        <time>2009-06-21T05:55:30Z</time>
      </trkpt>
      <trkpt lat="44.44274" lon="1.13698">
        <ele>160.252182</ele>
        <time>2009-06-21T05:55:33Z</time>
      </trkpt>
      <trkpt lat="44.44264" lon="1.137">
        <ele>156.948486</ele>
        <time>2009-06-21T05:55:37Z</time>
      </trkpt>
      <trkpt lat="44.44252" lon="1.13705">
        <ele>153.397766</ele>
        <time>2009-06-21T05:55:41Z</time>
      </trkpt>
      <trkpt lat="44.4424" lon="1.13709">
        <ele>149.63266</ele>
        <time>2009-06-21T05:55:45Z</time>
      </trkpt>
      <trkpt lat="44.44234" lon="1.13712">
        <ele>148.121826</ele>
        <time>2009-06-21T05:55:48Z</time>
      </trkpt>
      <trkpt lat="44.4423" lon="1.13717">
        <ele>146.457779</ele>
        <time>2009-06-21T05:55:52Z</time>
      </trkpt>
      <trkpt lat="44.4422" lon="1.13721">
        <ele>143.155884</ele>
        <time>2009-06-21T05:55:56Z</time>
      </trkpt>
      <trkpt lat="44.44214" lon="1.13723">
        <ele>141.41626</ele>
        <time>2009-06-21T05:55:59Z</time>
      </trkpt>
      <trkpt lat="44.44206" lon="1.13721">
        <ele>139.441147</ele>
        <time>2009-06-21T05:56:03Z</time>
      </trkpt>
      <trkpt lat="44.44198" lon="1.13731">
        <ele>136.59494</ele>
        <time>2009-06-21T05:56:06Z</time>
      </trkpt>
      <trkpt lat="44.44185" lon="1.13739">
        <ele>133.090912</ele>
        <time>2009-06-21T05:56:09Z</time>
      </trkpt>
      <trkpt lat="44.44174" lon="1.13747">
        <ele>132.238449</ele>
        <time>2009-06-21T05:56:13Z</time>
      </trkpt>
      <trkpt lat="44.44167" lon="1.1375">
        <ele>131.699829</ele>
        <time>2009-06-21T05:56:16Z</time>
      </trkpt>
      <trkpt lat="44.44165" lon="1.13751">
        <ele>131.554504</ele>
        <time>2009-06-21T05:56:20Z</time>
      </trkpt>
      <trkpt lat="44.44162" lon="1.13753">
        <ele>131.339066</ele>
        <time>2009-06-21T05:56:24Z</time>
      </trkpt>
      <trkpt lat="44.4416" lon="1.13751">
        <ele>131.236755</ele>
        <time>2009-06-21T05:56:28Z</time>
      </trkpt>
      <trkpt lat="44.44154" lon="1.1375">
        <ele>130.956985</ele>
        <time>2009-06-21T05:56:31Z</time>
      </trkpt>
      <trkpt lat="44.44142" lon="1.13742">
        <ele>130.66362</ele>
        <time>2009-06-21T05:56:34Z</time>
      </trkpt>
      <trkpt lat="44.44132" lon="1.1373">
        <ele>130.979996</ele>
        <time>2009-06-21T05:56:37Z</time>
      </trkpt>
      <trkpt lat="44.44128" lon="1.1372">
        <ele>131.38237</ele>
        <time>2009-06-21T05:56:40Z</time>
      </trkpt>
      <trkpt lat="44.44125" lon="1.13714">
        <ele>131.673935</ele>
        <time>2009-06-21T05:56:44Z</time>
      </trkpt>
      <trkpt lat="44.44119" lon="1.13716">
        <ele>131.41481</ele>
        <time>2009-06-21T05:56:48Z</time>
      </trkpt>
      <trkpt lat="44.44117" lon="1.13713">
        <ele>131.609146</ele>
        <time>2009-06-21T05:56:53Z</time>
      </trkpt>
      <trkpt lat="44.44116" lon="1.13712">
        <ele>131.645706</ele>
        <time>2009-06-21T05:56:56Z</time>
      </trkpt>
      <trkpt lat="44.44112" lon="1.13706">
        <ele>132.043091</ele>
        <time>2009-06-21T05:57:00Z</time>
      </trkpt>
      <trkpt lat="44.44109" lon="1.13701">
        <ele>132.425797</ele>
        <time>2009-06-21T05:57:04Z</time>
      </trkpt>
      <trkpt lat="44.44102" lon="1.13702">
        <ele>132.276505</ele>
        <time>2009-06-21T05:57:07Z</time>
      </trkpt>
      <trkpt lat="44.44098" lon="1.137">
        <ele>132.438599</ele>
        <time>2009-06-21T05:57:11Z</time>
      </trkpt>
      <trkpt lat="44.44093" lon="1.13696">
        <ele>132.692978</ele>
        <time>2009-06-21T05:57:15Z</time>
      </trkpt>
      <trkpt lat="44.44091" lon="1.13691">
        <ele>133.074783</ele>
        <time>2009-06-21T05:57:20Z</time>
      </trkpt>
      <trkpt lat="44.44093" lon="1.13685">
        <ele>133.71698</ele>
        <time>2009-06-21T05:57:25Z</time>
      </trkpt>
      <trkpt lat="44.44097" lon="1.13685">
        <ele>133.807266</ele>
        <time>2009-06-21T05:57:29Z</time>
      </trkpt>
      <trkpt lat="44.441" lon="1.13687">
        <ele>133.676254</ele>
        <time>2009-06-21T05:57:34Z</time>
      </trkpt>
      <trkpt lat="44.44104" lon="1.13682">
        <ele>134.084824</ele>
        <time>2009-06-21T05:57:37Z</time>
      </trkpt>
      <trkpt lat="44.44107" lon="1.13677">
        <ele>134.544571</ele>
        <time>2009-06-21T05:57:42Z</time>
      </trkpt>
      <trkpt lat="44.44112" lon="1.13671">
        <ele>135.027649</ele>
        <time>2009-06-21T05:57:46Z</time>
      </trkpt>
      <trkpt lat="44.44118" lon="1.13668">
        <ele>135.202866</ele>
        <time>2009-06-21T05:57:49Z</time>
      </trkpt>
      <trkpt lat="44.44123" lon="1.13661">
        <ele>135.646896</ele>
        <time>2009-06-21T05:57:54Z</time>
      </trkpt>
      <trkpt lat="44.44128" lon="1.13654">
        <ele>136.094193</ele>
        <time>2009-06-21T05:57:57Z</time>
      </trkpt>
      <trkpt lat="44.4413" lon="1.13648">
        <ele>136.404037</ele>
        <time>2009-06-21T05:58:02Z</time>
      </trkpt>
      <trkpt lat="44.44133" lon="1.1364">
        <ele>136.767883</ele>
        <time>2009-06-21T05:58:06Z</time>
      </trkpt>
      <trkpt lat="44.44137" lon="1.13632">
        <ele>137.043213</ele>
        <time>2009-06-21T05:58:09Z</time>
      </trkpt>
      <trkpt lat="44.44139" lon="1.13628">
        <ele>137.172211</ele>
        <time>2009-06-21T05:58:12Z</time>
      </trkpt>
      <trkpt lat="44.44139" lon="1.13621">
        <ele>137.46553</ele>
        <time>2009-06-21T05:58:16Z</time>
      </trkpt>
      <trkpt lat="44.44142" lon="1.13613">
        <ele>137.619675</ele>
        <time>2009-06-21T05:58:19Z</time>
      </trkpt>
      <trkpt lat="44.44141" lon="1.13611">
        <ele>137.789764</ele>
        <time>2009-06-21T05:58:22Z</time>
      </trkpt>
      <trkpt lat="44.44146" lon="1.13599">
        <ele>137.86261</ele>
        <time>2009-06-21T05:58:25Z</time>
      </trkpt>
      <trkpt lat="44.44143" lon="1.13594">
        <ele>138.356827</ele>
        <time>2009-06-21T05:58:29Z</time>
      </trkpt>
      <trkpt lat="44.44141" lon="1.13586">
        <ele>139.007889</ele>
        <time>2009-06-21T05:58:34Z</time>
      </trkpt>
      <trkpt lat="44.44147" lon="1.13577">
        <ele>139.037933</ele>
        <time>2009-06-21T05:58:38Z</time>
      </trkpt>
      <trkpt lat="44.44149" lon="1.13568">
        <ele>139.479431</ele>
        <time>2009-06-21T05:58:41Z</time>
      </trkpt>
      <trkpt lat="44.44153" lon="1.13557">
        <ele>139.77356</ele>
        <time>2009-06-21T05:58:44Z</time>
      </trkpt>
      <trkpt lat="44.44156" lon="1.13548">
        <ele>140.104141</ele>
        <time>2009-06-21T05:58:48Z</time>
      </trkpt>
      <trkpt lat="44.44158" lon="1.13539">
        <ele>140.513077</ele>
        <time>2009-06-21T05:58:52Z</time>
      </trkpt>
      <trkpt lat="44.44161" lon="1.13528">
        <ele>140.828857</ele>
        <time>2009-06-21T05:58:55Z</time>
      </trkpt>
      <trkpt lat="44.44163" lon="1.13521">
        <ele>141.272705</ele>
        <time>2009-06-21T05:58:59Z</time>
      </trkpt>
      <trkpt lat="44.44166" lon="1.13516">
        <ele>141.261642</ele>
        <time>2009-06-21T05:59:02Z</time>
      </trkpt>
      <trkpt lat="44.44171" lon="1.13506">
        <ele>141.450775</ele>
        <time>2009-06-21T05:59:05Z</time>
      </trkpt>
      <trkpt lat="44.44178" lon="1.13495">
        <ele>141.313202</ele>
        <time>2009-06-21T05:59:08Z</time>
      </trkpt>
      <trkpt lat="44.44184" lon="1.13484">
        <ele>141.1987</ele>
        <time>2009-06-21T05:59:11Z</time>
      </trkpt>
      <trkpt lat="44.44187" lon="1.13474">
        <ele>141.780746</ele>
        <time>2009-06-21T05:59:14Z</time>
      </trkpt>
      <trkpt lat="44.44189" lon="1.13467">
        <ele>142.029694</ele>
        <time>2009-06-21T05:59:17Z</time>
      </trkpt>
      <trkpt lat="44.44195" lon="1.13453">
        <ele>142.270004</ele>
        <time>2009-06-21T05:59:21Z</time>
      </trkpt>
      <trkpt lat="44.44198" lon="1.13447">
        <ele>142.304108</ele>
        <time>2009-06-21T05:59:24Z</time>
      </trkpt>
      <trkpt lat="44.44204" lon="1.13437">
        <ele>142.041397</ele>
        <time>2009-06-21T05:59:27Z</time>
      </trkpt>
      <trkpt lat="44.44204" lon="1.13428">
        <ele>142.503281</ele>
        <time>2009-06-21T05:59:30Z</time>
      </trkpt>
      <trkpt lat="44.44203" lon="1.13422">
        <ele>143.047226</ele>
        <time>2009-06-21T05:59:34Z</time>
      </trkpt>
      <trkpt lat="44.44202" lon="1.13414">
        <ele>143.676559</ele>
        <time>2009-06-21T05:59:37Z</time>
      </trkpt>
      <trkpt lat="44.442" lon="1.13405">
        <ele>144.458633</ele>
        <time>2009-06-21T05:59:42Z</time>
      </trkpt>
      <trkpt lat="44.442" lon="1.13399">
        <ele>144.816162</ele>
        <time>2009-06-21T05:59:45Z</time>
      </trkpt>
      <trkpt lat="44.44202" lon="1.13387">
        <ele>145.317062</ele>
        <time>2009-06-21T05:59:49Z</time>
      </trkpt>
      <trkpt lat="44.44204" lon="1.13377">
        <ele>145.404099</ele>
        <time>2009-06-21T05:59:52Z</time>
      </trkpt>
      <trkpt lat="44.44206" lon="1.13369">
        <ele>145.433273</ele>
        <time>2009-06-21T05:59:56Z</time>
      </trkpt>
      <trkpt lat="44.44206" lon="1.13357">
        <ele>146.1147</ele>
        <time>2009-06-21T06:00:00Z</time>
      </trkpt>
      <trkpt lat="44.44204" lon="1.13349">
        <ele>146.855988</ele>
        <time>2009-06-21T06:00:04Z</time>
      </trkpt>
      <trkpt lat="44.44207" lon="1.13337">
        <ele>146.840805</ele>
        <time>2009-06-21T06:00:07Z</time>
      </trkpt>
      <trkpt lat="44.44204" lon="1.13326">
        <ele>148.003677</ele>
        <time>2009-06-21T06:00:12Z</time>
      </trkpt>
      <trkpt lat="44.44205" lon="1.13316">
        <ele>148.332657</ele>
        <time>2009-06-21T06:00:16Z</time>
      </trkpt>
      <trkpt lat="44.44205" lon="1.13308">
        <ele>148.9496</ele>
        <time>2009-06-21T06:00:19Z</time>
      </trkpt>
      <trkpt lat="44.44204" lon="1.13299">
        <ele>149.5896</ele>
        <time>2009-06-21T06:00:22Z</time>
      </trkpt>
      <trkpt lat="44.44201" lon="1.13288">
        <ele>151.018906</ele>
        <time>2009-06-21T06:00:26Z</time>
      </trkpt>
      <trkpt lat="44.44198" lon="1.13277">
        <ele>152.273026</ele>
        <time>2009-06-21T06:00:29Z</time>
      </trkpt>
      <trkpt lat="44.44202" lon="1.13263">
        <ele>151.861298</ele>
        <time>2009-06-21T06:00:32Z</time>
      </trkpt>
      <trkpt lat="44.44203" lon="1.13253">
        <ele>151.873993</ele>
        <time>2009-06-21T06:00:36Z</time>
      </trkpt>
      <trkpt lat="44.44205" lon="1.13243">
        <ele>151.772751</ele>
        <time>2009-06-21T06:00:39Z</time>
      </trkpt>
      <trkpt lat="44.44207" lon="1.13234">
        <ele>151.737808</ele>
        <time>2009-06-21T06:00:42Z</time>
      </trkpt>
      <trkpt lat="44.44205" lon="1.13222">
        <ele>152.574844</ele>
        <time>2009-06-21T06:00:48Z</time>
      </trkpt>
      <trkpt lat="44.44205" lon="1.13211">
        <ele>153.036194</ele>
        <time>2009-06-21T06:00:51Z</time>
      </trkpt>
      <trkpt lat="44.44207" lon="1.13202">
        <ele>152.946701</ele>
        <time>2009-06-21T06:00:55Z</time>
      </trkpt>
      <trkpt lat="44.44207" lon="1.13192">
        <ele>153.24617</ele>
        <time>2009-06-21T06:00:59Z</time>
      </trkpt>
      <trkpt lat="44.44207" lon="1.13182">
        <ele>153.468002</ele>
        <time>2009-06-21T06:01:03Z</time>
      </trkpt>
      <trkpt lat="44.44205" lon="1.13174">
        <ele>154.246048</ele>
        <time>2009-06-21T06:01:07Z</time>
      </trkpt>
      <trkpt lat="44.44205" lon="1.13167">
        <ele>154.694351</ele>
        <time>2009-06-21T06:01:10Z</time>
      </trkpt>
      <trkpt lat="44.44203" lon="1.13159">
        <ele>155.392914</ele>
        <time>2009-06-21T06:01:13Z</time>
      </trkpt>
      <trkpt lat="44.44202" lon="1.13153">
        <ele>155.876862</ele>
        <time>2009-06-21T06:01:16Z</time>
      </trkpt>
      <trkpt lat="44.442" lon="1.13147">
        <ele>156.547165</ele>
        <time>2009-06-21T06:01:20Z</time>
      </trkpt>
      <trkpt lat="44.442" lon="1.13141">
        <ele>156.788818</ele>
        <time>2009-06-21T06:01:23Z</time>
      </trkpt>
      <trkpt lat="44.44199" lon="1.13133">
        <ele>157.271286</ele>
        <time>2009-06-21T06:01:27Z</time>
      </trkpt>
      <trkpt lat="44.44198" lon="1.13127">
        <ele>157.634201</ele>
        <time>2009-06-21T06:01:30Z</time>
      </trkpt>
      <trkpt lat="44.44195" lon="1.13121">
        <ele>158.526749</ele>
        <time>2009-06-21T06:01:33Z</time>
      </trkpt>
      <trkpt lat="44.44192" lon="1.13116">
        <ele>159.365005</ele>
        <time>2009-06-21T06:01:37Z</time>
      </trkpt>
      <trkpt lat="44.44193" lon="1.13118">
        <ele>159.105759</ele>
        <time>2009-06-21T06:01:41Z</time>
      </trkpt>
      <trkpt lat="44.44193" lon="1.13122">
        <ele>158.963058</ele>
        <time>2009-06-21T06:01:45Z</time>
      </trkpt>
      <trkpt lat="44.44193" lon="1.13128">
        <ele>158.987289</ele>
        <time>2009-06-21T06:01:48Z</time>
      </trkpt>
      <trkpt lat="44.44191" lon="1.13134">
        <ele>159.204895</ele>
        <time>2009-06-21T06:01:51Z</time>
      </trkpt>
      <trkpt lat="44.44191" lon="1.13141">
        <ele>159.290207</ele>
        <time>2009-06-21T06:01:54Z</time>
      </trkpt>
      <trkpt lat="44.44189" lon="1.13149">
        <ele>159.626831</ele>
        <time>2009-06-21T06:01:57Z</time>
      </trkpt>
      <trkpt lat="44.44187" lon="1.13155">
        <ele>159.770676</ele>
        <time>2009-06-21T06:02:01Z</time>
      </trkpt>
      <trkpt lat="44.44185" lon="1.13162">
        <ele>159.933609</ele>
        <time>2009-06-21T06:02:04Z</time>
      </trkpt>
      <trkpt lat="44.44183" lon="1.13167">
        <ele>160.277344</ele>
        <time>2009-06-21T06:02:07Z</time>
      </trkpt>
      <trkpt lat="44.44181" lon="1.13172">
        <ele>160.618286</ele>
        <time>2009-06-21T06:02:10Z</time>
      </trkpt>
      <trkpt lat="44.44179" lon="1.13177">
        <ele>160.974197</ele>
        <time>2009-06-21T06:02:13Z</time>
      </trkpt>
      <trkpt lat="44.44176" lon="1.13182">
        <ele>161.359879</ele>
        <time>2009-06-21T06:02:16Z</time>
      </trkpt>
      <trkpt lat="44.44174" lon="1.13188">
        <ele>161.696838</ele>
        <time>2009-06-21T06:02:20Z</time>
      </trkpt>
      <trkpt lat="44.44172" lon="1.13197">
        <ele>161.849777</ele>
        <time>2009-06-21T06:02:24Z</time>
      </trkpt>
      <trkpt lat="44.44169" lon="1.13203">
        <ele>162.144669</ele>
        <time>2009-06-21T06:02:27Z</time>
      </trkpt>
      <trkpt lat="44.44168" lon="1.13209">
        <ele>162.212128</ele>
        <time>2009-06-21T06:02:30Z</time>
      </trkpt>
      <trkpt lat="44.44166" lon="1.13216">
        <ele>162.508423</ele>
        <time>2009-06-21T06:02:33Z</time>
      </trkpt>
      <trkpt lat="44.44163" lon="1.13221">
        <ele>163.049103</ele>
        <time>2009-06-21T06:02:37Z</time>
      </trkpt>
      <trkpt lat="44.44156" lon="1.13219">
        <ele>164.638382</ele>
        <time>2009-06-21T06:02:41Z</time>
      </trkpt>
      <trkpt lat="44.44154" lon="1.13214">
        <ele>165.50087</ele>
        <time>2009-06-21T06:02:46Z</time>
      </trkpt>
      <trkpt lat="44.44155" lon="1.13205">
        <ele>165.710251</ele>
        <time>2009-06-21T06:02:49Z</time>
      </trkpt>
      <trkpt lat="44.44155" lon="1.13196">
        <ele>166.09201</ele>
        <time>2009-06-21T06:02:52Z</time>
      </trkpt>
      <trkpt lat="44.44155" lon="1.1319">
        <ele>166.433151</ele>
        <time>2009-06-21T06:02:55Z</time>
      </trkpt>
      <trkpt lat="44.44155" lon="1.13187">
        <ele>166.690781</ele>
        <time>2009-06-21T06:02:59Z</time>
      </trkpt>
      <trkpt lat="44.44155" lon="1.13174">
        <ele>167.291595</ele>
        <time>2009-06-21T06:03:02Z</time>
      </trkpt>
      <trkpt lat="44.44155" lon="1.13168">
        <ele>167.582397</ele>
        <time>2009-06-21T06:03:06Z</time>
      </trkpt>
      <trkpt lat="44.44156" lon="1.13157">
        <ele>167.830734</ele>
        <time>2009-06-21T06:03:09Z</time>
      </trkpt>
      <trkpt lat="44.44156" lon="1.1315">
        <ele>168.262924</ele>
        <time>2009-06-21T06:03:12Z</time>
      </trkpt>
      <trkpt lat="44.44156" lon="1.13143">
        <ele>168.5625</ele>
        <time>2009-06-21T06:03:16Z</time>
      </trkpt>
      <trkpt lat="44.44155" lon="1.13134">
        <ele>168.946259</ele>
        <time>2009-06-21T06:03:19Z</time>
      </trkpt>
      <trkpt lat="44.44153" lon="1.13128">
        <ele>169.372498</ele>
        <time>2009-06-21T06:03:23Z</time>
      </trkpt>
      <trkpt lat="44.44152" lon="1.13119">
        <ele>169.85437</ele>
        <time>2009-06-21T06:03:26Z</time>
      </trkpt>
      <trkpt lat="44.4415" lon="1.13113">
        <ele>170.554993</ele>
        <time>2009-06-21T06:03:31Z</time>
      </trkpt>
      <trkpt lat="44.44148" lon="1.13115">
        <ele>170.973755</ele>
        <time>2009-06-21T06:03:34Z</time>
      </trkpt>
      <trkpt lat="44.44149" lon="1.13123">
        <ele>170.696243</ele>
        <time>2009-06-21T06:03:38Z</time>
      </trkpt>
      <trkpt lat="44.44149" lon="1.13128">
        <ele>170.43187</ele>
        <time>2009-06-21T06:03:41Z</time>
      </trkpt>
      <trkpt lat="44.44149" lon="1.13138">
        <ele>170.273758</ele>
        <time>2009-06-21T06:03:45Z</time>
      </trkpt>
      <trkpt lat="44.4415" lon="1.13146">
        <ele>169.991241</ele>
        <time>2009-06-21T06:03:48Z</time>
      </trkpt>
      <trkpt lat="44.44149" lon="1.13157">
        <ele>169.82962</ele>
        <time>2009-06-21T06:03:52Z</time>
      </trkpt>
      <trkpt lat="44.44147" lon="1.13166">
        <ele>169.805832</ele>
        <time>2009-06-21T06:03:55Z</time>
      </trkpt>
      <trkpt lat="44.44141" lon="1.13176">
        <ele>170.706024</ele>
        <time>2009-06-21T06:04:00Z</time>
      </trkpt>
      <trkpt lat="44.44137" lon="1.13182">
        <ele>171.373734</ele>
        <time>2009-06-21T06:04:03Z</time>
      </trkpt>
      <trkpt lat="44.44136" lon="1.13186">
        <ele>171.508438</ele>
        <time>2009-06-21T06:04:06Z</time>
      </trkpt>
      <trkpt lat="44.44135" lon="1.13191">
        <ele>171.371582</ele>
        <time>2009-06-21T06:04:10Z</time>
      </trkpt>
      <trkpt lat="44.44131" lon="1.13199">
        <ele>171.307007</ele>
        <time>2009-06-21T06:04:13Z</time>
      </trkpt>
      <trkpt lat="44.44128" lon="1.13206">
        <ele>171.284973</ele>
        <time>2009-06-21T06:04:16Z</time>
      </trkpt>
      <trkpt lat="44.44124" lon="1.13207">
        <ele>171.634857</ele>
        <time>2009-06-21T06:04:20Z</time>
      </trkpt>
      <trkpt lat="44.44114" lon="1.13208">
        <ele>172.692352</ele>
        <time>2009-06-21T06:04:25Z</time>
      </trkpt>
      <trkpt lat="44.4411" lon="1.132">
        <ele>173.788437</ele>
        <time>2009-06-21T06:04:29Z</time>
      </trkpt>
      <trkpt lat="44.44109" lon="1.13192">
        <ele>174.440918</ele>
        <time>2009-06-21T06:04:32Z</time>
      </trkpt>
      <trkpt lat="44.4411" lon="1.13183">
        <ele>174.881683</ele>
        <time>2009-06-21T06:04:35Z</time>
      </trkpt>
      <trkpt lat="44.4411" lon="1.13177">
        <ele>175.365662</ele>
        <time>2009-06-21T06:04:38Z</time>
      </trkpt>
      <trkpt lat="44.4411" lon="1.13171">
        <ele>175.772903</ele>
        <time>2009-06-21T06:04:41Z</time>
      </trkpt>
      <trkpt lat="44.44112" lon="1.13165">
        <ele>176.049606</ele>
        <time>2009-06-21T06:04:45Z</time>
      </trkpt>
      <trkpt lat="44.44111" lon="1.13156">
        <ele>176.699265</ele>
        <time>2009-06-21T06:04:49Z</time>
      </trkpt>
      <trkpt lat="44.44108" lon="1.13151">
        <ele>177.445923</ele>
        <time>2009-06-21T06:04:52Z</time>
      </trkpt>
      <trkpt lat="44.44106" lon="1.13147">
        <ele>177.901505</ele>
        <time>2009-06-21T06:04:55Z</time>
      </trkpt>
      <trkpt lat="44.44105" lon="1.1314">
        <ele>178.290054</ele>
        <time>2009-06-21T06:04:59Z</time>
      </trkpt>
      <trkpt lat="44.44104" lon="1.1313">
        <ele>178.567154</ele>
        <time>2009-06-21T06:05:02Z</time>
      </trkpt>
      <trkpt lat="44.44101" lon="1.13124">
        <ele>179.15123</ele>
        <time>2009-06-21T06:05:06Z</time>
      </trkpt>
      <trkpt lat="44.441" lon="1.13118">
        <ele>179.570419</ele>
        <time>2009-06-21T06:05:10Z</time>
      </trkpt>
      <trkpt lat="44.44099" lon="1.13109">
        <ele>179.964615</ele>
        <time>2009-06-21T06:05:13Z</time>
      </trkpt>
      <trkpt lat="44.44098" lon="1.13102">
        <ele>180.263733</ele>
        <time>2009-06-21T06:05:16Z</time>
      </trkpt>
      <trkpt lat="44.44097" lon="1.13094">
        <ele>180.578918</ele>
        <time>2009-06-21T06:05:19Z</time>
      </trkpt>
      <trkpt lat="44.44096" lon="1.13088">
        <ele>180.885025</ele>
        <time>2009-06-21T06:05:22Z</time>
      </trkpt>
      <trkpt lat="44.44095" lon="1.13083">
        <ele>181.273972</ele>
        <time>2009-06-21T06:05:25Z</time>
      </trkpt>
      <trkpt lat="44.44094" lon="1.13078">
        <ele>181.582657</ele>
        <time>2009-06-21T06:05:29Z</time>
      </trkpt>
      <trkpt lat="44.44093" lon="1.13073">
        <ele>181.843063</ele>
        <time>2009-06-21T06:05:32Z</time>
      </trkpt>
      <trkpt lat="44.44091" lon="1.13066">
        <ele>182.34848</ele>
        <time>2009-06-21T06:05:35Z</time>
      </trkpt>
      <trkpt lat="44.44088" lon="1.13059">
        <ele>182.917313</ele>
        <time>2009-06-21T06:05:40Z</time>
      </trkpt>
      <trkpt lat="44.44087" lon="1.1305">
        <ele>183.247467</ele>
        <time>2009-06-21T06:05:44Z</time>
      </trkpt>
      <trkpt lat="44.44086" lon="1.13042">
        <ele>183.524277</ele>
        <time>2009-06-21T06:05:47Z</time>
      </trkpt>
      <trkpt lat="44.44086" lon="1.13034">
        <ele>183.807571</ele>
        <time>2009-06-21T06:05:51Z</time>
      </trkpt>
      <trkpt lat="44.44085" lon="1.13025">
        <ele>184.125366</ele>
        <time>2009-06-21T06:05:54Z</time>
      </trkpt>
      <trkpt lat="44.44084" lon="1.13019">
        <ele>184.578003</ele>
        <time>2009-06-21T06:05:57Z</time>
      </trkpt>
      <trkpt lat="44.44083" lon="1.13011">
        <ele>185.184006</ele>
        <time>2009-06-21T06:06:02Z</time>
      </trkpt>
      <trkpt lat="44.44081" lon="1.13004">
        <ele>185.791824</ele>
        <time>2009-06-21T06:06:05Z</time>
      </trkpt>
      <trkpt lat="44.4408" lon="1.12998">
        <ele>186.305511</ele>
        <time>2009-06-21T06:06:09Z</time>
      </trkpt>
      <trkpt lat="44.44078" lon="1.1299">
        <ele>187.101852</ele>
        <time>2009-06-21T06:06:14Z</time>
      </trkpt>
      <trkpt lat="44.44075" lon="1.12983">
        <ele>187.782532</ele>
        <time>2009-06-21T06:06:18Z</time>
      </trkpt>
      <trkpt lat="44.44072" lon="1.12976">
        <ele>188.690063</ele>
        <time>2009-06-21T06:06:23Z</time>
      </trkpt>
      <trkpt lat="44.4407" lon="1.12971">
        <ele>189.309479</ele>
        <time>2009-06-21T06:06:26Z</time>
      </trkpt>
      <trkpt lat="44.44066" lon="1.12965">
        <ele>190.224365</ele>
        <time>2009-06-21T06:06:29Z</time>
      </trkpt>
      <trkpt lat="44.44063" lon="1.12959">
        <ele>191.104279</ele>
        <time>2009-06-21T06:06:33Z</time>
      </trkpt>
      <trkpt lat="44.44061" lon="1.12949">
        <ele>192.185822</ele>
        <time>2009-06-21T06:06:37Z</time>
      </trkpt>
      <trkpt lat="44.4406" lon="1.12938">
        <ele>193.300995</ele>
        <time>2009-06-21T06:06:42Z</time>
      </trkpt>
      <trkpt lat="44.44059" lon="1.1293">
        <ele>194.206573</ele>
        <time>2009-06-21T06:06:45Z</time>
      </trkpt>
      <trkpt lat="44.44057" lon="1.12924">
        <ele>195.016098</ele>
        <time>2009-06-21T06:06:48Z</time>
      </trkpt>
      <trkpt lat="44.44056" lon="1.1292">
        <ele>195.538223</ele>
        <time>2009-06-21T06:06:51Z</time>
      </trkpt>
      <trkpt lat="44.44055" lon="1.12914">
        <ele>196.307556</ele>
        <time>2009-06-21T06:06:55Z</time>
      </trkpt>
      <trkpt lat="44.44055" lon="1.12904">
        <ele>197.305695</ele>
        <time>2009-06-21T06:06:59Z</time>
      </trkpt>
      <trkpt lat="44.44054" lon="1.12895">
        <ele>197.974075</ele>
        <time>2009-06-21T06:07:04Z</time>
      </trkpt>
      <trkpt lat="44.44053" lon="1.12888">
        <ele>198.337646</ele>
        <time>2009-06-21T06:07:07Z</time>
      </trkpt>
      <trkpt lat="44.44052" lon="1.12884">
        <ele>198.667709</ele>
        <time>2009-06-21T06:07:11Z</time>
      </trkpt>
      <trkpt lat="44.44052" lon="1.12876">
        <ele>198.867844</ele>
        <time>2009-06-21T06:07:15Z</time>
      </trkpt>
      <trkpt lat="44.44051" lon="1.1287">
        <ele>199.244873</ele>
        <time>2009-06-21T06:07:18Z</time>
      </trkpt>
      <trkpt lat="44.4405" lon="1.12863">
        <ele>199.59642</ele>
        <time>2009-06-21T06:07:21Z</time>
      </trkpt>
      <trkpt lat="44.44051" lon="1.12851">
        <ele>199.81694</ele>
        <time>2009-06-21T06:07:24Z</time>
      </trkpt>
      <trkpt lat="44.4405" lon="1.12844">
        <ele>200.06868</ele>
        <time>2009-06-21T06:07:28Z</time>
      </trkpt>
      <trkpt lat="44.44048" lon="1.12834">
        <ele>200.796814</ele>
        <time>2009-06-21T06:07:33Z</time>
      </trkpt>
      <trkpt lat="44.44046" lon="1.12823">
        <ele>201.057983</ele>
        <time>2009-06-21T06:07:36Z</time>
      </trkpt>
      <trkpt lat="44.44046" lon="1.12815">
        <ele>201.066956</ele>
        <time>2009-06-21T06:07:39Z</time>
      </trkpt>
      <trkpt lat="44.44046" lon="1.12807">
        <ele>201.175385</ele>
        <time>2009-06-21T06:07:43Z</time>
      </trkpt>
      <trkpt lat="44.44045" lon="1.12798">
        <ele>201.359283</ele>
        <time>2009-06-21T06:07:46Z</time>
      </trkpt>
      <trkpt lat="44.44046" lon="1.12788">
        <ele>201.219849</ele>
        <time>2009-06-21T06:07:49Z</time>
      </trkpt>
      <trkpt lat="44.44046" lon="1.12777">
        <ele>201.151306</ele>
        <time>2009-06-21T06:07:52Z</time>
      </trkpt>
      <trkpt lat="44.44045" lon="1.12768">
        <ele>201.407516</ele>
        <time>2009-06-21T06:07:55Z</time>
      </trkpt>
      <trkpt lat="44.44046" lon="1.12755">
        <ele>201.56189</ele>
        <time>2009-06-21T06:07:59Z</time>
      </trkpt>
      <trkpt lat="44.44046" lon="1.12744">
        <ele>201.696381</ele>
        <time>2009-06-21T06:08:02Z</time>
      </trkpt>
      <trkpt lat="44.44046" lon="1.12734">
        <ele>201.889221</ele>
        <time>2009-06-21T06:08:05Z</time>
      </trkpt>
      <trkpt lat="44.44046" lon="1.12724">
        <ele>202.067032</ele>
        <time>2009-06-21T06:08:08Z</time>
      </trkpt>
      <trkpt lat="44.44046" lon="1.12715">
        <ele>202.252777</ele>
        <time>2009-06-21T06:08:11Z</time>
      </trkpt>
      <trkpt lat="44.44046" lon="1.12706">
        <ele>202.486923</ele>
        <time>2009-06-21T06:08:14Z</time>
      </trkpt>
      <trkpt lat="44.44046" lon="1.12697">
        <ele>202.692108</ele>
        <time>2009-06-21T06:08:17Z</time>
      </trkpt>
      <trkpt lat="44.44045" lon="1.12688">
        <ele>202.891769</ele>
        <time>2009-06-21T06:08:20Z</time>
      </trkpt>
      <trkpt lat="44.44045" lon="1.1268">
        <ele>203.084061</ele>
        <time>2009-06-21T06:08:23Z</time>
      </trkpt>
      <trkpt lat="44.44046" lon="1.1267">
        <ele>203.261322</ele>
        <time>2009-06-21T06:08:26Z</time>
      </trkpt>
      <trkpt lat="44.44045" lon="1.12663">
        <ele>203.477432</ele>
        <time>2009-06-21T06:08:29Z</time>
      </trkpt>
      <trkpt lat="44.44044" lon="1.12652">
        <ele>203.737946</ele>
        <time>2009-06-21T06:08:32Z</time>
      </trkpt>
      <trkpt lat="44.44043" lon="1.12643">
        <ele>203.952072</ele>
        <time>2009-06-21T06:08:35Z</time>
      </trkpt>
      <trkpt lat="44.44042" lon="1.12634">
        <ele>204.152008</ele>
        <time>2009-06-21T06:08:38Z</time>
      </trkpt>
      <trkpt lat="44.4404" lon="1.12627">
        <ele>204.331909</ele>
        <time>2009-06-21T06:08:41Z</time>
      </trkpt>
      <trkpt lat="44.44038" lon="1.12619">
        <ele>204.345734</ele>
        <time>2009-06-21T06:08:44Z</time>
      </trkpt>
      <trkpt lat="44.44036" lon="1.12612">
        <ele>204.385162</ele>
        <time>2009-06-21T06:08:47Z</time>
      </trkpt>
      <trkpt lat="44.44035" lon="1.12603">
        <ele>204.501328</ele>
        <time>2009-06-21T06:08:50Z</time>
      </trkpt>
      <trkpt lat="44.44034" lon="1.12594">
        <ele>204.631805</ele>
        <time>2009-06-21T06:08:53Z</time>
      </trkpt>
      <trkpt lat="44.44034" lon="1.12585">
        <ele>204.78302</ele>
        <time>2009-06-21T06:08:56Z</time>
      </trkpt>
      <trkpt lat="44.44033" lon="1.12577">
        <ele>204.770844</ele>
        <time>2009-06-21T06:08:59Z</time>
      </trkpt>
      <trkpt lat="44.44032" lon="1.12568">
        <ele>204.782501</ele>
        <time>2009-06-21T06:09:02Z</time>
      </trkpt>
      <trkpt lat="44.4403" lon="1.1256">
        <ele>204.789398</ele>
        <time>2009-06-21T06:09:05Z</time>
      </trkpt>
      <trkpt lat="44.44029" lon="1.12552">
        <ele>204.804886</ele>
        <time>2009-06-21T06:09:09Z</time>
      </trkpt>
      <trkpt lat="44.44029" lon="1.12544">
        <ele>204.864288</ele>
        <time>2009-06-21T06:09:12Z</time>
      </trkpt>
      <trkpt lat="44.44028" lon="1.12533">
        <ele>204.930679</ele>
        <time>2009-06-21T06:09:15Z</time>
      </trkpt>
      <trkpt lat="44.44026" lon="1.12525">
        <ele>204.987976</ele>
        <time>2009-06-21T06:09:18Z</time>
      </trkpt>
      <trkpt lat="44.44025" lon="1.12518">
        <ele>205.083557</ele>
        <time>2009-06-21T06:09:21Z</time>
      </trkpt>
      <trkpt lat="44.44024" lon="1.1251">
        <ele>205.212997</ele>
        <time>2009-06-21T06:09:24Z</time>
      </trkpt>
      <trkpt lat="44.44023" lon="1.125">
        <ele>205.384415</ele>
        <time>2009-06-21T06:09:28Z</time>
      </trkpt>
      <trkpt lat="44.44021" lon="1.12489">
        <ele>205.595413</ele>
        <time>2009-06-21T06:09:31Z</time>
      </trkpt>
      <trkpt lat="44.44021" lon="1.12477">
        <ele>205.8423</ele>
        <time>2009-06-21T06:09:34Z</time>
      </trkpt>
      <trkpt lat="44.44018" lon="1.12467">
        <ele>206.158661</ele>
        <time>2009-06-21T06:09:37Z</time>
      </trkpt>
      <trkpt lat="44.44017" lon="1.12458">
        <ele>206.534653</ele>
        <time>2009-06-21T06:09:40Z</time>
      </trkpt>
      <trkpt lat="44.44016" lon="1.12448">
        <ele>207.072006</ele>
        <time>2009-06-21T06:09:43Z</time>
      </trkpt>
      <trkpt lat="44.44014" lon="1.1244">
        <ele>207.623444</ele>
        <time>2009-06-21T06:09:46Z</time>
      </trkpt>
      <trkpt lat="44.44011" lon="1.1243">
        <ele>208.252518</ele>
        <time>2009-06-21T06:09:49Z</time>
      </trkpt>
      <trkpt lat="44.44009" lon="1.12422">
        <ele>208.892029</ele>
        <time>2009-06-21T06:09:52Z</time>
      </trkpt>
      <trkpt lat="44.44009" lon="1.12413">
        <ele>209.418533</ele>
        <time>2009-06-21T06:09:55Z</time>
      </trkpt>
      <trkpt lat="44.44006" lon="1.12404">
        <ele>210.091843</ele>
        <time>2009-06-21T06:09:58Z</time>
      </trkpt>
      <trkpt lat="44.44002" lon="1.12398">
        <ele>210.904617</ele>
        <time>2009-06-21T06:10:01Z</time>
      </trkpt>
      <trkpt lat="44.43998" lon="1.12393">
        <ele>211.865967</ele>
        <time>2009-06-21T06:10:04Z</time>
      </trkpt>
      <trkpt lat="44.43995" lon="1.12387">
        <ele>212.813324</ele>
        <time>2009-06-21T06:10:07Z</time>
      </trkpt>
      <trkpt lat="44.43992" lon="1.1238">
        <ele>213.741196</ele>
        <time>2009-06-21T06:10:10Z</time>
      </trkpt>
      <trkpt lat="44.43989" lon="1.12372">
        <ele>214.851257</ele>
        <time>2009-06-21T06:10:13Z</time>
      </trkpt>
      <trkpt lat="44.43988" lon="1.12362">
        <ele>215.912506</ele>
        <time>2009-06-21T06:10:16Z</time>
      </trkpt>
      <trkpt lat="44.43987" lon="1.12352">
        <ele>216.949997</ele>
        <time>2009-06-21T06:10:19Z</time>
      </trkpt>
      <trkpt lat="44.43989" lon="1.12338">
        <ele>218.041245</ele>
        <time>2009-06-21T06:10:23Z</time>
      </trkpt>
      <trkpt lat="44.43997" lon="1.12326">
        <ele>219.129379</ele>
        <time>2009-06-21T06:10:26Z</time>
      </trkpt>
      <trkpt lat="44.44002" lon="1.12318">
        <ele>220.018753</ele>
        <time>2009-06-21T06:10:29Z</time>
      </trkpt>
      <trkpt lat="44.44008" lon="1.12312">
        <ele>220.709991</ele>
        <time>2009-06-21T06:10:32Z</time>
      </trkpt>
      <trkpt lat="44.44013" lon="1.12306">
        <ele>221.240631</ele>
        <time>2009-06-21T06:10:35Z</time>
      </trkpt>
      <trkpt lat="44.44018" lon="1.123">
        <ele>221.942505</ele>
        <time>2009-06-21T06:10:38Z</time>
      </trkpt>
      <trkpt lat="44.44023" lon="1.12294">
        <ele>222.561249</ele>
        <time>2009-06-21T06:10:41Z</time>
      </trkpt>
      <trkpt lat="44.44028" lon="1.12289">
        <ele>222.986252</ele>
        <time>2009-06-21T06:10:44Z</time>
      </trkpt>
      <trkpt lat="44.44033" lon="1.12284">
        <ele>223.391251</ele>
        <time>2009-06-21T06:10:47Z</time>
      </trkpt>
      <trkpt lat="44.44038" lon="1.12278">
        <ele>223.813919</ele>
        <time>2009-06-21T06:10:50Z</time>
      </trkpt>
      <trkpt lat="44.44043" lon="1.12271">
        <ele>224.297501</ele>
        <time>2009-06-21T06:10:53Z</time>
      </trkpt>
      <trkpt lat="44.44048" lon="1.12265">
        <ele>224.572495</ele>
        <time>2009-06-21T06:10:56Z</time>
      </trkpt>
      <trkpt lat="44.44054" lon="1.12257">
        <ele>225.042496</ele>
        <time>2009-06-21T06:10:59Z</time>
      </trkpt>
      <trkpt lat="44.44059" lon="1.1225">
        <ele>225.471878</ele>
        <time>2009-06-21T06:11:02Z</time>
      </trkpt>
      <trkpt lat="44.44064" lon="1.12244">
        <ele>225.801254</ele>
        <time>2009-06-21T06:11:06Z</time>
      </trkpt>
      <trkpt lat="44.44069" lon="1.12232">
        <ele>226.916245</ele>
        <time>2009-06-21T06:11:10Z</time>
      </trkpt>
      <trkpt lat="44.44074" lon="1.12224">
        <ele>227.423752</ele>
        <time>2009-06-21T06:11:13Z</time>
      </trkpt>
      <trkpt lat="44.44079" lon="1.12218">
        <ele>227.642502</ele>
        <time>2009-06-21T06:11:16Z</time>
      </trkpt>
      <trkpt lat="44.44086" lon="1.12212">
        <ele>228.651886</ele>
        <time>2009-06-21T06:11:19Z</time>
      </trkpt>
      <trkpt lat="44.44091" lon="1.12207">
        <ele>229.47937</ele>
        <time>2009-06-21T06:11:22Z</time>
      </trkpt>
      <trkpt lat="44.44097" lon="1.12205">
        <ele>229.914383</ele>
        <time>2009-06-21T06:11:25Z</time>
      </trkpt>
      <trkpt lat="44.44103" lon="1.12203">
        <ele>230.203751</ele>
        <time>2009-06-21T06:11:28Z</time>
      </trkpt>
      <trkpt lat="44.44109" lon="1.12203">
        <ele>230.439377</ele>
        <time>2009-06-21T06:11:31Z</time>
      </trkpt>
      <trkpt lat="44.44118" lon="1.12203">
        <ele>230.616257</ele>
        <time>2009-06-21T06:11:34Z</time>
      </trkpt>
      <trkpt lat="44.44125" lon="1.12203">
        <ele>230.738754</ele>
        <time>2009-06-21T06:11:37Z</time>
      </trkpt>
      <trkpt lat="44.44133" lon="1.12202">
        <ele>231.353745</ele>
        <time>2009-06-21T06:11:40Z</time>
      </trkpt>
      <trkpt lat="44.4414" lon="1.122">
        <ele>232.039993</ele>
        <time>2009-06-21T06:11:43Z</time>
      </trkpt>
      <trkpt lat="44.4415" lon="1.122">
        <ele>232.737503</ele>
        <time>2009-06-21T06:11:47Z</time>
      </trkpt>
      <trkpt lat="44.44157" lon="1.12199">
        <ele>233.268127</ele>
        <time>2009-06-21T06:11:50Z</time>
      </trkpt>
      <trkpt lat="44.44163" lon="1.12197">
        <ele>233.967499</ele>
        <time>2009-06-21T06:11:53Z</time>
      </trkpt>
      <trkpt lat="44.44172" lon="1.12195">
        <ele>234.745499</ele>
        <time>2009-06-21T06:11:57Z</time>
      </trkpt>
      <trkpt lat="44.4418" lon="1.12194">
        <ele>234.824402</ele>
        <time>2009-06-21T06:12:00Z</time>
      </trkpt>
      <trkpt lat="44.44187" lon="1.12192">
        <ele>235.209595</ele>
        <time>2009-06-21T06:12:03Z</time>
      </trkpt>
      <trkpt lat="44.44193" lon="1.12188">
        <ele>235.797974</ele>
        <time>2009-06-21T06:12:06Z</time>
      </trkpt>
      <trkpt lat="44.44198" lon="1.12182">
        <ele>236.689499</ele>
        <time>2009-06-21T06:12:09Z</time>
      </trkpt>
      <trkpt lat="44.44203" lon="1.12177">
        <ele>237.459488</ele>
        <time>2009-06-21T06:12:12Z</time>
      </trkpt>
      <trkpt lat="44.44207" lon="1.12171">
        <ele>238.414749</ele>
        <time>2009-06-21T06:12:15Z</time>
      </trkpt>
      <trkpt lat="44.44212" lon="1.12167">
        <ele>239.145615</ele>
        <time>2009-06-21T06:12:19Z</time>
      </trkpt>
      <trkpt lat="44.44219" lon="1.12161">
        <ele>240.224258</ele>
        <time>2009-06-21T06:12:23Z</time>
      </trkpt>
      <trkpt lat="44.44226" lon="1.12156">
        <ele>241.358246</ele>
        <time>2009-06-21T06:12:27Z</time>
      </trkpt>
      <trkpt lat="44.44232" lon="1.12151">
        <ele>242.387299</ele>
        <time>2009-06-21T06:12:30Z</time>
      </trkpt>
      <trkpt lat="44.4424" lon="1.12146">
        <ele>243.614014</ele>
        <time>2009-06-21T06:12:34Z</time>
      </trkpt>
      <trkpt lat="44.44247" lon="1.12142">
        <ele>244.545776</ele>
        <time>2009-06-21T06:12:37Z</time>
      </trkpt>
      <trkpt lat="44.44253" lon="1.12137">
        <ele>245.26384</ele>
        <time>2009-06-21T06:12:40Z</time>
      </trkpt>
      <trkpt lat="44.44259" lon="1.12134">
        <ele>245.938461</ele>
        <time>2009-06-21T06:12:43Z</time>
      </trkpt>
      <trkpt lat="44.44265" lon="1.1213">
        <ele>246.79509</ele>
        <time>2009-06-21T06:12:46Z</time>
      </trkpt>
      <trkpt lat="44.44271" lon="1.12127">
        <ele>247.600845</ele>
        <time>2009-06-21T06:12:49Z</time>
      </trkpt>
      <trkpt lat="44.44277" lon="1.12123">
        <ele>248.432877</ele>
        <time>2009-06-21T06:12:52Z</time>
      </trkpt>
      <trkpt lat="44.44283" lon="1.1212">
        <ele>249.224945</ele>
        <time>2009-06-21T06:12:55Z</time>
      </trkpt>
      <trkpt lat="44.44289" lon="1.12117">
        <ele>250.060623</ele>
        <time>2009-06-21T06:12:58Z</time>
      </trkpt>
      <trkpt lat="44.44296" lon="1.12115">
        <ele>250.838547</ele>
        <time>2009-06-21T06:13:01Z</time>
      </trkpt>
      <trkpt lat="44.44302" lon="1.12113">
        <ele>251.540009</ele>
        <time>2009-06-21T06:13:04Z</time>
      </trkpt>
      <trkpt lat="44.44307" lon="1.12111">
        <ele>252.198715</ele>
        <time>2009-06-21T06:13:07Z</time>
      </trkpt>
      <trkpt lat="44.44314" lon="1.12108">
        <ele>253.067062</ele>
        <time>2009-06-21T06:13:10Z</time>
      </trkpt>
      <trkpt lat="44.44321" lon="1.12106">
        <ele>253.962311</ele>
        <time>2009-06-21T06:13:13Z</time>
      </trkpt>
      <trkpt lat="44.44328" lon="1.12103">
        <ele>254.852005</ele>
        <time>2009-06-21T06:13:16Z</time>
      </trkpt>
      <trkpt lat="44.44336" lon="1.121">
        <ele>255.87648</ele>
        <time>2009-06-21T06:13:19Z</time>
      </trkpt>
      <trkpt lat="44.44343" lon="1.12099">
        <ele>256.527588</ele>
        <time>2009-06-21T06:13:22Z</time>
      </trkpt>
      <trkpt lat="44.4435" lon="1.12099">
        <ele>257.063171</ele>
        <time>2009-06-21T06:13:25Z</time>
      </trkpt>
      <trkpt lat="44.44358" lon="1.12099">
        <ele>257.393494</ele>
        <time>2009-06-21T06:13:28Z</time>
      </trkpt>
      <trkpt lat="44.44365" lon="1.12101">
        <ele>257.627899</ele>
        <time>2009-06-21T06:13:31Z</time>
      </trkpt>
      <trkpt lat="44.44372" lon="1.12102">
        <ele>257.899353</ele>
        <time>2009-06-21T06:13:34Z</time>
      </trkpt>
      <trkpt lat="44.44378" lon="1.12103">
        <ele>258.117249</ele>
        <time>2009-06-21T06:13:38Z</time>
      </trkpt>
      <trkpt lat="44.44385" lon="1.12104">
        <ele>258.376221</ele>
        <time>2009-06-21T06:13:41Z</time>
      </trkpt>
      <trkpt lat="44.44392" lon="1.12107">
        <ele>258.513123</ele>
        <time>2009-06-21T06:13:44Z</time>
      </trkpt>
      <trkpt lat="44.44398" lon="1.12108">
        <ele>258.445404</ele>
        <time>2009-06-21T06:13:47Z</time>
      </trkpt>
      <trkpt lat="44.44407" lon="1.12106">
        <ele>258.417816</ele>
        <time>2009-06-21T06:13:51Z</time>
      </trkpt>
      <trkpt lat="44.44416" lon="1.12109">
        <ele>258.151794</ele>
        <time>2009-06-21T06:13:55Z</time>
      </trkpt>
      <trkpt lat="44.44424" lon="1.1211">
        <ele>258.041595</ele>
        <time>2009-06-21T06:13:58Z</time>
      </trkpt>
      <trkpt lat="44.44432" lon="1.12108">
        <ele>258.034058</ele>
        <time>2009-06-21T06:14:01Z</time>
      </trkpt>
      <trkpt lat="44.44435" lon="1.12106">
        <ele>258.084808</ele>
        <time>2009-06-21T06:14:05Z</time>
      </trkpt>
      <trkpt lat="44.44434" lon="1.12107">
        <ele>258.03894</ele>
        <time>2009-06-21T06:14:25Z</time>
      </trkpt>
      <trkpt lat="44.44433" lon="1.12108">
        <ele>258.021637</ele>
        <time>2009-06-21T06:14:38Z</time>
      </trkpt>
      <trkpt lat="44.44431" lon="1.12109">
        <ele>258.002533</ele>
        <time>2009-06-21T06:14:56Z</time>
      </trkpt>
      <trkpt lat="44.4443" lon="1.12109">
        <ele>258.001709</ele>
        <time>2009-06-21T06:15:06Z</time>
      </trkpt>
      <trkpt lat="44.44431" lon="1.12109">
        <ele>257.999451</ele>
        <time>2009-06-21T06:16:11Z</time>
      </trkpt>
      <trkpt lat="44.4443" lon="1.1211">
        <ele>257.978424</ele>
        <time>2009-06-21T06:16:21Z</time>
      </trkpt>
      <trkpt lat="44.44425" lon="1.12116">
        <ele>257.732788</ele>
        <time>2009-06-21T06:16:24Z</time>
      </trkpt>
      <trkpt lat="44.4442" lon="1.12118">
        <ele>257.643799</ele>
        <time>2009-06-21T06:16:27Z</time>
      </trkpt>
      <trkpt lat="44.44412" lon="1.12115">
        <ele>257.843292</ele>
        <time>2009-06-21T06:16:31Z</time>
      </trkpt>
      <trkpt lat="44.44404" lon="1.12113">
        <ele>258.011688</ele>
        <time>2009-06-21T06:16:34Z</time>
      </trkpt>
      <trkpt lat="44.44394" lon="1.1211">
        <ele>258.285278</ele>
        <time>2009-06-21T06:16:38Z</time>
      </trkpt>
      <trkpt lat="44.44388" lon="1.12109">
        <ele>258.138763</ele>
        <time>2009-06-21T06:16:41Z</time>
      </trkpt>
      <trkpt lat="44.44383" lon="1.12108">
        <ele>257.901581</ele>
        <time>2009-06-21T06:16:44Z</time>
      </trkpt>
      <trkpt lat="44.44377" lon="1.12108">
        <ele>257.573212</ele>
        <time>2009-06-21T06:16:48Z</time>
      </trkpt>
      <trkpt lat="44.44372" lon="1.12108">
        <ele>257.352356</ele>
        <time>2009-06-21T06:16:51Z</time>
      </trkpt>
      <trkpt lat="44.44365" lon="1.12106">
        <ele>257.113281</ele>
        <time>2009-06-21T06:16:54Z</time>
      </trkpt>
      <trkpt lat="44.44354" lon="1.12106">
        <ele>256.591553</ele>
        <time>2009-06-21T06:16:57Z</time>
      </trkpt>
      <trkpt lat="44.4434" lon="1.12107">
        <ele>255.52037</ele>
        <time>2009-06-21T06:17:00Z</time>
      </trkpt>
      <trkpt lat="44.44322" lon="1.12111">
        <ele>253.537964</ele>
        <time>2009-06-21T06:17:03Z</time>
      </trkpt>
      <trkpt lat="44.44299" lon="1.12119">
        <ele>250.572662</ele>
        <time>2009-06-21T06:17:06Z</time>
      </trkpt>
      <trkpt lat="44.44273" lon="1.12131">
        <ele>247.168137</ele>
        <time>2009-06-21T06:17:09Z</time>
      </trkpt>
      <trkpt lat="44.44243" lon="1.12147">
        <ele>243.395996</ele>
        <time>2009-06-21T06:17:12Z</time>
      </trkpt>
      <trkpt lat="44.44203" lon="1.12181">
        <ele>236.918289</ele>
        <time>2009-06-21T06:17:16Z</time>
      </trkpt>
      <trkpt lat="44.44158" lon="1.12203">
        <ele>232.793747</ele>
        <time>2009-06-21T06:17:21Z</time>
      </trkpt>
      <trkpt lat="44.44109" lon="1.12206">
        <ele>229.998749</ele>
        <time>2009-06-21T06:17:24Z</time>
      </trkpt>
      <trkpt lat="44.44071" lon="1.12218">
        <ele>228.610001</ele>
        <time>2009-06-21T06:17:27Z</time>
      </trkpt>
      <trkpt lat="44.44036" lon="1.12225">
        <ele>231.640625</ele>
        <time>2009-06-21T06:17:30Z</time>
      </trkpt>
      <trkpt lat="44.44015" lon="1.12222">
        <ele>233.45816</ele>
        <time>2009-06-21T06:17:33Z</time>
      </trkpt>
      <trkpt lat="44.44005" lon="1.12222">
        <ele>234.176773</ele>
        <time>2009-06-21T06:17:36Z</time>
      </trkpt>
      <trkpt lat="44.43998" lon="1.12223">
        <ele>234.512665</ele>
        <time>2009-06-21T06:17:39Z</time>
      </trkpt>
      <trkpt lat="44.43991" lon="1.12225">
        <ele>234.706268</ele>
        <time>2009-06-21T06:17:42Z</time>
      </trkpt>
      <trkpt lat="44.43984" lon="1.12227">
        <ele>234.26236</ele>
        <time>2009-06-21T06:17:45Z</time>
      </trkpt>
      <trkpt lat="44.43977" lon="1.1223">
        <ele>233.69812</ele>
        <time>2009-06-21T06:17:48Z</time>
      </trkpt>
      <trkpt lat="44.4397" lon="1.12233">
        <ele>233.016113</ele>
        <time>2009-06-21T06:17:51Z</time>
      </trkpt>
      <trkpt lat="44.43963" lon="1.12237">
        <ele>232.477036</ele>
        <time>2009-06-21T06:17:54Z</time>
      </trkpt>
      <trkpt lat="44.43958" lon="1.1224">
        <ele>232.030334</ele>
        <time>2009-06-21T06:17:57Z</time>
      </trkpt>
      <trkpt lat="44.43952" lon="1.1224">
        <ele>231.865234</ele>
        <time>2009-06-21T06:18:00Z</time>
      </trkpt>
      <trkpt lat="44.43946" lon="1.12235">
        <ele>232.427795</ele>
        <time>2009-06-21T06:18:03Z</time>
      </trkpt>
      <trkpt lat="44.43938" lon="1.12232">
        <ele>232.160431</ele>
        <time>2009-06-21T06:18:07Z</time>
      </trkpt>
      <trkpt lat="44.43926" lon="1.12229">
        <ele>231.3452</ele>
        <time>2009-06-21T06:18:10Z</time>
      </trkpt>
      <trkpt lat="44.4391" lon="1.12226">
        <ele>230.020615</ele>
        <time>2009-06-21T06:18:13Z</time>
      </trkpt>
      <trkpt lat="44.43891" lon="1.12219">
        <ele>227.757339</ele>
        <time>2009-06-21T06:18:16Z</time>
      </trkpt>
      <trkpt lat="44.43878" lon="1.12213">
        <ele>225.57077</ele>
        <time>2009-06-21T06:18:19Z</time>
      </trkpt>
      <trkpt lat="44.43866" lon="1.12207">
        <ele>223.170609</ele>
        <time>2009-06-21T06:18:22Z</time>
      </trkpt>
      <trkpt lat="44.43855" lon="1.12203">
        <ele>221.058838</ele>
        <time>2009-06-21T06:18:25Z</time>
      </trkpt>
      <trkpt lat="44.43845" lon="1.122">
        <ele>219.020905</ele>
        <time>2009-06-21T06:18:28Z</time>
      </trkpt>
      <trkpt lat="44.43835" lon="1.12198">
        <ele>216.884186</ele>
        <time>2009-06-21T06:18:31Z</time>
      </trkpt>
      <trkpt lat="44.43824" lon="1.12196">
        <ele>214.664124</ele>
        <time>2009-06-21T06:18:34Z</time>
      </trkpt>
      <trkpt lat="44.4381" lon="1.12191">
        <ele>211.366257</ele>
        <time>2009-06-21T06:18:38Z</time>
      </trkpt>
      <trkpt lat="44.43797" lon="1.12186">
        <ele>209.089554</ele>
        <time>2009-06-21T06:18:41Z</time>
      </trkpt>
      <trkpt lat="44.4378" lon="1.12181">
        <ele>206.176575</ele>
        <time>2009-06-21T06:18:44Z</time>
      </trkpt>
      <trkpt lat="44.43763" lon="1.12181">
        <ele>203.795654</ele>
        <time>2009-06-21T06:18:47Z</time>
      </trkpt>
      <trkpt lat="44.43745" lon="1.12175">
        <ele>201.45575</ele>
        <time>2009-06-21T06:18:50Z</time>
      </trkpt>
      <trkpt lat="44.4373" lon="1.1216">
        <ele>197.318665</ele>
        <time>2009-06-21T06:18:54Z</time>
      </trkpt>
      <trkpt lat="44.43704" lon="1.12129">
        <ele>190.733994</ele>
        <time>2009-06-21T06:18:57Z</time>
      </trkpt>
      <trkpt lat="44.43681" lon="1.12106">
        <ele>184.436264</ele>
        <time>2009-06-21T06:19:00Z</time>
      </trkpt>
      <trkpt lat="44.43655" lon="1.12107">
        <ele>181.559265</ele>
        <time>2009-06-21T06:19:03Z</time>
      </trkpt>
      <trkpt lat="44.43623" lon="1.12113">
        <ele>178.279755</ele>
        <time>2009-06-21T06:19:07Z</time>
      </trkpt>
      <trkpt lat="44.43603" lon="1.12111">
        <ele>173.973618</ele>
        <time>2009-06-21T06:19:10Z</time>
      </trkpt>
      <trkpt lat="44.4358" lon="1.12107">
        <ele>168.997437</ele>
        <time>2009-06-21T06:19:13Z</time>
      </trkpt>
      <trkpt lat="44.43556" lon="1.12091">
        <ele>165.669495</ele>
        <time>2009-06-21T06:19:16Z</time>
      </trkpt>
      <trkpt lat="44.43531" lon="1.12076">
        <ele>163.96492</ele>
        <time>2009-06-21T06:19:20Z</time>
      </trkpt>
      <trkpt lat="44.4353" lon="1.12073">
        <ele>163.985474</ele>
        <time>2009-06-21T06:19:25Z</time>
      </trkpt>
      <trkpt lat="44.43533" lon="1.12066">
        <ele>164.256638</ele>
        <time>2009-06-21T06:19:28Z</time>
      </trkpt>
      <trkpt lat="44.43538" lon="1.12055">
        <ele>164.619751</ele>
        <time>2009-06-21T06:19:31Z</time>
      </trkpt>
      <trkpt lat="44.43542" lon="1.12043">
        <ele>165.308182</ele>
        <time>2009-06-21T06:19:35Z</time>
      </trkpt>
      <trkpt lat="44.43545" lon="1.12032">
        <ele>165.996628</ele>
        <time>2009-06-21T06:19:38Z</time>
      </trkpt>
      <trkpt lat="44.43546" lon="1.12019">
        <ele>167.016403</ele>
        <time>2009-06-21T06:19:42Z</time>
      </trkpt>
      <trkpt lat="44.43548" lon="1.12003">
        <ele>168.34021</ele>
        <time>2009-06-21T06:19:45Z</time>
      </trkpt>
      <trkpt lat="44.4355" lon="1.11989">
        <ele>169.783813</ele>
        <time>2009-06-21T06:19:48Z</time>
      </trkpt>
      <trkpt lat="44.43552" lon="1.11974">
        <ele>171.279602</ele>
        <time>2009-06-21T06:19:51Z</time>
      </trkpt>
      <trkpt lat="44.43553" lon="1.11963">
        <ele>171.948349</ele>
        <time>2009-06-21T06:19:54Z</time>
      </trkpt>
      <trkpt lat="44.43554" lon="1.11952">
        <ele>172.521103</ele>
        <time>2009-06-21T06:19:58Z</time>
      </trkpt>
      <trkpt lat="44.43555" lon="1.11941">
        <ele>172.899124</ele>
        <time>2009-06-21T06:20:01Z</time>
      </trkpt>
      <trkpt lat="44.43555" lon="1.11931">
        <ele>173.123001</ele>
        <time>2009-06-21T06:20:04Z</time>
      </trkpt>
      <trkpt lat="44.43554" lon="1.11919">
        <ele>173.285782</ele>
        <time>2009-06-21T06:20:08Z</time>
      </trkpt>
      <trkpt lat="44.43553" lon="1.11911">
        <ele>173.428284</ele>
        <time>2009-06-21T06:20:12Z</time>
      </trkpt>
      <trkpt lat="44.43552" lon="1.119">
        <ele>173.516251</ele>
        <time>2009-06-21T06:20:15Z</time>
      </trkpt>
      <trkpt lat="44.43551" lon="1.11891">
        <ele>173.516876</ele>
        <time>2009-06-21T06:20:18Z</time>
      </trkpt>
      <trkpt lat="44.43551" lon="1.11879">
        <ele>173.743118</ele>
        <time>2009-06-21T06:20:22Z</time>
      </trkpt>
      <trkpt lat="44.43551" lon="1.11866">
        <ele>173.880005</ele>
        <time>2009-06-21T06:20:26Z</time>
      </trkpt>
      <trkpt lat="44.4355" lon="1.11853">
        <ele>173.960632</ele>
        <time>2009-06-21T06:20:31Z</time>
      </trkpt>
      <trkpt lat="44.43549" lon="1.11844">
        <ele>174.081879</ele>
        <time>2009-06-21T06:20:34Z</time>
      </trkpt>
      <trkpt lat="44.43547" lon="1.11834">
        <ele>173.974823</ele>
        <time>2009-06-21T06:20:37Z</time>
      </trkpt>
      <trkpt lat="44.43544" lon="1.1182">
        <ele>173.807892</ele>
        <time>2009-06-21T06:20:40Z</time>
      </trkpt>
      <trkpt lat="44.43544" lon="1.1181">
        <ele>173.971848</ele>
        <time>2009-06-21T06:20:43Z</time>
      </trkpt>
      <trkpt lat="44.43544" lon="1.118">
        <ele>174.132614</ele>
        <time>2009-06-21T06:20:46Z</time>
      </trkpt>
      <trkpt lat="44.43545" lon="1.11792">
        <ele>174.493118</ele>
        <time>2009-06-21T06:20:49Z</time>
      </trkpt>
      <trkpt lat="44.43545" lon="1.11783">
        <ele>174.740265</ele>
        <time>2009-06-21T06:20:52Z</time>
      </trkpt>
      <trkpt lat="44.43546" lon="1.11773">
        <ele>175.107834</ele>
        <time>2009-06-21T06:20:55Z</time>
      </trkpt>
      <trkpt lat="44.43546" lon="1.11762">
        <ele>175.379684</ele>
        <time>2009-06-21T06:20:58Z</time>
      </trkpt>
      <trkpt lat="44.43547" lon="1.11752">
        <ele>175.768524</ele>
        <time>2009-06-21T06:21:02Z</time>
      </trkpt>
      <trkpt lat="44.43547" lon="1.11743">
        <ele>175.859085</ele>
        <time>2009-06-21T06:21:05Z</time>
      </trkpt>
      <trkpt lat="44.43547" lon="1.1173">
        <ele>176.136749</ele>
        <time>2009-06-21T06:21:08Z</time>
      </trkpt>
      <trkpt lat="44.43547" lon="1.11723">
        <ele>176.404877</ele>
        <time>2009-06-21T06:21:11Z</time>
      </trkpt>
      <trkpt lat="44.4355" lon="1.11712">
        <ele>177.218124</ele>
        <time>2009-06-21T06:21:14Z</time>
      </trkpt>
      <trkpt lat="44.43551" lon="1.11705">
        <ele>177.453125</ele>
        <time>2009-06-21T06:21:17Z</time>
      </trkpt>
      <trkpt lat="44.43553" lon="1.11695">
        <ele>178.095627</ele>
        <time>2009-06-21T06:21:20Z</time>
      </trkpt>
      <trkpt lat="44.43554" lon="1.11685">
        <ele>178.487503</ele>
        <time>2009-06-21T06:21:23Z</time>
      </trkpt>
      <trkpt lat="44.43554" lon="1.11675">
        <ele>178.660004</ele>
        <time>2009-06-21T06:21:26Z</time>
      </trkpt>
      <trkpt lat="44.43552" lon="1.11666">
        <ele>178.493744</ele>
        <time>2009-06-21T06:21:30Z</time>
      </trkpt>
      <trkpt lat="44.43553" lon="1.11655">
        <ele>178.872498</ele>
        <time>2009-06-21T06:21:34Z</time>
      </trkpt>
      <trkpt lat="44.43553" lon="1.11644">
        <ele>178.953049</ele>
        <time>2009-06-21T06:21:37Z</time>
      </trkpt>
      <trkpt lat="44.43553" lon="1.11636">
        <ele>179.043137</ele>
        <time>2009-06-21T06:21:40Z</time>
      </trkpt>
      <trkpt lat="44.43553" lon="1.11623">
        <ele>179.225082</ele>
        <time>2009-06-21T06:21:43Z</time>
      </trkpt>
      <trkpt lat="44.43552" lon="1.11611">
        <ele>179.21109</ele>
        <time>2009-06-21T06:21:47Z</time>
      </trkpt>
      <trkpt lat="44.4355" lon="1.11602">
        <ele>178.970078</ele>
        <time>2009-06-21T06:21:50Z</time>
      </trkpt>
      <trkpt lat="44.4355" lon="1.11595">
        <ele>178.956863</ele>
        <time>2009-06-21T06:21:53Z</time>
      </trkpt>
      <trkpt lat="44.43549" lon="1.11588">
        <ele>178.843048</ele>
        <time>2009-06-21T06:21:56Z</time>
      </trkpt>
      <trkpt lat="44.43547" lon="1.1158">
        <ele>178.634247</ele>
        <time>2009-06-21T06:21:59Z</time>
      </trkpt>
      <trkpt lat="44.43547" lon="1.11572">
        <ele>178.625153</ele>
        <time>2009-06-21T06:22:02Z</time>
      </trkpt>
      <trkpt lat="44.43546" lon="1.11561">
        <ele>178.495544</ele>
        <time>2009-06-21T06:22:05Z</time>
      </trkpt>
      <trkpt lat="44.43547" lon="1.11555">
        <ele>178.776459</ele>
        <time>2009-06-21T06:22:09Z</time>
      </trkpt>
      <trkpt lat="44.43555" lon="1.11549">
        <ele>179.950394</ele>
        <time>2009-06-21T06:22:12Z</time>
      </trkpt>
      <trkpt lat="44.43555" lon="1.11543">
        <ele>180.032104</ele>
        <time>2009-06-21T06:22:15Z</time>
      </trkpt>
      <trkpt lat="44.43557" lon="1.11538">
        <ele>180.219498</ele>
        <time>2009-06-21T06:22:19Z</time>
      </trkpt>
      <trkpt lat="44.4356" lon="1.11532">
        <ele>180.636963</ele>
        <time>2009-06-21T06:22:22Z</time>
      </trkpt>
      <trkpt lat="44.43562" lon="1.11527">
        <ele>180.909851</ele>
        <time>2009-06-21T06:22:25Z</time>
      </trkpt>
      <trkpt lat="44.43566" lon="1.1152">
        <ele>181.379547</ele>
        <time>2009-06-21T06:22:29Z</time>
      </trkpt>
      <trkpt lat="44.4357" lon="1.11515">
        <ele>181.747421</ele>
        <time>2009-06-21T06:22:33Z</time>
      </trkpt>
      <trkpt lat="44.43574" lon="1.11508">
        <ele>181.990005</ele>
        <time>2009-06-21T06:22:36Z</time>
      </trkpt>
      <trkpt lat="44.43576" lon="1.11502">
        <ele>182.019943</ele>
        <time>2009-06-21T06:22:40Z</time>
      </trkpt>
      <trkpt lat="44.43575" lon="1.11492">
        <ele>181.631256</ele>
        <time>2009-06-21T06:22:45Z</time>
      </trkpt>
      <trkpt lat="44.43569" lon="1.11481">
        <ele>180.948151</ele>
        <time>2009-06-21T06:22:48Z</time>
      </trkpt>
      <trkpt lat="44.43553" lon="1.11476">
        <ele>179.903717</ele>
        <time>2009-06-21T06:22:52Z</time>
      </trkpt>
      <trkpt lat="44.43536" lon="1.1147">
        <ele>179.127579</ele>
        <time>2009-06-21T06:22:55Z</time>
      </trkpt>
      <trkpt lat="44.43519" lon="1.11455">
        <ele>179.972656</ele>
        <time>2009-06-21T06:23:00Z</time>
      </trkpt>
      <trkpt lat="44.43513" lon="1.11444">
        <ele>180.530655</ele>
        <time>2009-06-21T06:23:03Z</time>
      </trkpt>
      <trkpt lat="44.43511" lon="1.11436">
        <ele>180.96637</ele>
        <time>2009-06-21T06:23:06Z</time>
      </trkpt>
      <trkpt lat="44.43509" lon="1.11429">
        <ele>181.256256</ele>
        <time>2009-06-21T06:23:09Z</time>
      </trkpt>
      <trkpt lat="44.43506" lon="1.11422">
        <ele>181.433517</ele>
        <time>2009-06-21T06:23:12Z</time>
      </trkpt>
      <trkpt lat="44.43503" lon="1.11411">
        <ele>181.623764</ele>
        <time>2009-06-21T06:23:15Z</time>
      </trkpt>
      <trkpt lat="44.43501" lon="1.11401">
        <ele>182.039581</ele>
        <time>2009-06-21T06:23:19Z</time>
      </trkpt>
      <trkpt lat="44.43499" lon="1.11394">
        <ele>182.57338</ele>
        <time>2009-06-21T06:23:22Z</time>
      </trkpt>
      <trkpt lat="44.43497" lon="1.11385">
        <ele>182.983093</ele>
        <time>2009-06-21T06:23:26Z</time>
      </trkpt>
      <trkpt lat="44.43493" lon="1.11376">
        <ele>183.186752</ele>
        <time>2009-06-21T06:23:29Z</time>
      </trkpt>
      <trkpt lat="44.4349" lon="1.11368">
        <ele>183.463806</ele>
        <time>2009-06-21T06:23:32Z</time>
      </trkpt>
      <trkpt lat="44.43488" lon="1.1136">
        <ele>183.874405</ele>
        <time>2009-06-21T06:23:35Z</time>
      </trkpt>
      <trkpt lat="44.43485" lon="1.11352">
        <ele>184.125549</ele>
        <time>2009-06-21T06:23:38Z</time>
      </trkpt>
      <trkpt lat="44.43481" lon="1.11344">
        <ele>184.517899</ele>
        <time>2009-06-21T06:23:42Z</time>
      </trkpt>
      <trkpt lat="44.43477" lon="1.11336">
        <ele>185.78476</ele>
        <time>2009-06-21T06:23:45Z</time>
      </trkpt>
      <trkpt lat="44.43475" lon="1.11328">
        <ele>187.109528</ele>
        <time>2009-06-21T06:23:48Z</time>
      </trkpt>
      <trkpt lat="44.43474" lon="1.1132">
        <ele>188.73877</ele>
        <time>2009-06-21T06:23:52Z</time>
      </trkpt>
      <trkpt lat="44.43471" lon="1.1131">
        <ele>190.206757</ele>
        <time>2009-06-21T06:23:55Z</time>
      </trkpt>
      <trkpt lat="44.43469" lon="1.11304">
        <ele>191.134109</ele>
        <time>2009-06-21T06:23:59Z</time>
      </trkpt>
      <trkpt lat="44.43464" lon="1.11291">
        <ele>192.983475</ele>
        <time>2009-06-21T06:24:02Z</time>
      </trkpt>
      <trkpt lat="44.43464" lon="1.11284">
        <ele>194.296768</ele>
        <time>2009-06-21T06:24:05Z</time>
      </trkpt>
      <trkpt lat="44.43464" lon="1.11277">
        <ele>195.197067</ele>
        <time>2009-06-21T06:24:08Z</time>
      </trkpt>
      <trkpt lat="44.43461" lon="1.11271">
        <ele>195.355392</ele>
        <time>2009-06-21T06:24:11Z</time>
      </trkpt>
      <trkpt lat="44.43458" lon="1.11265">
        <ele>195.372971</ele>
        <time>2009-06-21T06:24:15Z</time>
      </trkpt>
      <trkpt lat="44.43456" lon="1.11258">
        <ele>195.50177</ele>
        <time>2009-06-21T06:24:18Z</time>
      </trkpt>
      <trkpt lat="44.4345" lon="1.11249">
        <ele>195.343109</ele>
        <time>2009-06-21T06:24:22Z</time>
      </trkpt>
      <trkpt lat="44.43448" lon="1.11244">
        <ele>195.31955</ele>
        <time>2009-06-21T06:24:25Z</time>
      </trkpt>
      <trkpt lat="44.43444" lon="1.11239">
        <ele>194.973038</ele>
        <time>2009-06-21T06:24:29Z</time>
      </trkpt>
      <trkpt lat="44.43441" lon="1.11234">
        <ele>194.829941</ele>
        <time>2009-06-21T06:24:32Z</time>
      </trkpt>
      <trkpt lat="44.43436" lon="1.11226">
        <ele>194.747498</ele>
        <time>2009-06-21T06:24:37Z</time>
      </trkpt>
      <trkpt lat="44.43433" lon="1.11219">
        <ele>194.72699</ele>
        <time>2009-06-21T06:24:42Z</time>
      </trkpt>
      <trkpt lat="44.4343" lon="1.11213">
        <ele>194.734253</ele>
        <time>2009-06-21T06:24:45Z</time>
      </trkpt>
      <trkpt lat="44.43429" lon="1.11204">
        <ele>195.305054</ele>
        <time>2009-06-21T06:24:49Z</time>
      </trkpt>
      <trkpt lat="44.43426" lon="1.11198">
        <ele>195.206894</ele>
        <time>2009-06-21T06:24:53Z</time>
      </trkpt>
      <trkpt lat="44.43425" lon="1.11192">
        <ele>195.589218</ele>
        <time>2009-06-21T06:24:57Z</time>
      </trkpt>
      <trkpt lat="44.43425" lon="1.11186">
        <ele>196.089645</ele>
        <time>2009-06-21T06:25:01Z</time>
      </trkpt>
      <trkpt lat="44.43425" lon="1.11177">
        <ele>196.821335</ele>
        <time>2009-06-21T06:25:05Z</time>
      </trkpt>
      <trkpt lat="44.43427" lon="1.1117">
        <ele>197.902527</ele>
        <time>2009-06-21T06:25:09Z</time>
      </trkpt>
      <trkpt lat="44.43428" lon="1.11165">
        <ele>198.542343</ele>
        <time>2009-06-21T06:25:12Z</time>
      </trkpt>
      <trkpt lat="44.43429" lon="1.11159">
        <ele>199.357071</ele>
        <time>2009-06-21T06:25:15Z</time>
      </trkpt>
      <trkpt lat="44.4343" lon="1.11152">
        <ele>200.137375</ele>
        <time>2009-06-21T06:25:18Z</time>
      </trkpt>
      <trkpt lat="44.43431" lon="1.11146">
        <ele>200.874771</ele>
        <time>2009-06-21T06:25:22Z</time>
      </trkpt>
      <trkpt lat="44.43432" lon="1.11141">
        <ele>201.560455</ele>
        <time>2009-06-21T06:25:26Z</time>
      </trkpt>
      <trkpt lat="44.43433" lon="1.11136">
        <ele>202.041016</ele>
        <time>2009-06-21T06:25:31Z</time>
      </trkpt>
      <trkpt lat="44.43433" lon="1.11132">
        <ele>202.486176</ele>
        <time>2009-06-21T06:25:35Z</time>
      </trkpt>
      <trkpt lat="44.43435" lon="1.11124">
        <ele>203.398209</ele>
        <time>2009-06-21T06:25:40Z</time>
      </trkpt>
      <trkpt lat="44.43437" lon="1.11118">
        <ele>204.231018</ele>
        <time>2009-06-21T06:25:44Z</time>
      </trkpt>
      <trkpt lat="44.43437" lon="1.11113">
        <ele>204.586929</ele>
        <time>2009-06-21T06:25:47Z</time>
      </trkpt>
      <trkpt lat="44.43438" lon="1.11108">
        <ele>205.168335</ele>
        <time>2009-06-21T06:25:51Z</time>
      </trkpt>
      <trkpt lat="44.43439" lon="1.11103">
        <ele>205.537659</ele>
        <time>2009-06-21T06:25:54Z</time>
      </trkpt>
      <trkpt lat="44.43441" lon="1.11098">
        <ele>206.218903</ele>
        <time>2009-06-21T06:25:58Z</time>
      </trkpt>
      <trkpt lat="44.43441" lon="1.11093">
        <ele>206.518631</ele>
        <time>2009-06-21T06:26:03Z</time>
      </trkpt>
      <trkpt lat="44.4344" lon="1.11086">
        <ele>206.832031</ele>
        <time>2009-06-21T06:26:07Z</time>
      </trkpt>
      <trkpt lat="44.43439" lon="1.11082">
        <ele>206.986267</ele>
        <time>2009-06-21T06:26:10Z</time>
      </trkpt>
      <trkpt lat="44.43437" lon="1.11075">
        <ele>207.064621</ele>
        <time>2009-06-21T06:26:14Z</time>
      </trkpt>
      <trkpt lat="44.43435" lon="1.1107">
        <ele>207.082901</ele>
        <time>2009-06-21T06:26:17Z</time>
      </trkpt>
      <trkpt lat="44.43434" lon="1.11065">
        <ele>207.201065</ele>
        <time>2009-06-21T06:26:20Z</time>
      </trkpt>
      <trkpt lat="44.43434" lon="1.1106">
        <ele>207.474564</ele>
        <time>2009-06-21T06:26:25Z</time>
      </trkpt>
      <trkpt lat="44.43434" lon="1.11054">
        <ele>207.852081</ele>
        <time>2009-06-21T06:26:28Z</time>
      </trkpt>
      <trkpt lat="44.43434" lon="1.1105">
        <ele>208.116379</ele>
        <time>2009-06-21T06:26:32Z</time>
      </trkpt>
      <trkpt lat="44.43432" lon="1.11043">
        <ele>208.28772</ele>
        <time>2009-06-21T06:26:36Z</time>
      </trkpt>
      <trkpt lat="44.43432" lon="1.11038">
        <ele>208.54248</ele>
        <time>2009-06-21T06:26:39Z</time>
      </trkpt>
      <trkpt lat="44.43432" lon="1.11032">
        <ele>208.933899</ele>
        <time>2009-06-21T06:26:43Z</time>
      </trkpt>
      <trkpt lat="44.4343" lon="1.11024">
        <ele>209.205414</ele>
        <time>2009-06-21T06:26:47Z</time>
      </trkpt>
      <trkpt lat="44.4343" lon="1.11019">
        <ele>209.50528</ele>
        <time>2009-06-21T06:26:50Z</time>
      </trkpt>
      <trkpt lat="44.43433" lon="1.11012">
        <ele>210.415405</ele>
        <time>2009-06-21T06:26:53Z</time>
      </trkpt>
      <trkpt lat="44.43437" lon="1.11005">
        <ele>211.65036</ele>
        <time>2009-06-21T06:26:59Z</time>
      </trkpt>
      <trkpt lat="44.43441" lon="1.11">
        <ele>212.771591</ele>
        <time>2009-06-21T06:27:03Z</time>
      </trkpt>
      <trkpt lat="44.43444" lon="1.10998">
        <ele>213.343246</ele>
        <time>2009-06-21T06:27:06Z</time>
      </trkpt>
      <trkpt lat="44.43448" lon="1.10994">
        <ele>214.289688</ele>
        <time>2009-06-21T06:27:10Z</time>
      </trkpt>
      <trkpt lat="44.43451" lon="1.10991">
        <ele>215.0849</ele>
        <time>2009-06-21T06:27:13Z</time>
      </trkpt>
      <trkpt lat="44.43456" lon="1.10988">
        <ele>216.244934</ele>
        <time>2009-06-21T06:27:18Z</time>
      </trkpt>
      <trkpt lat="44.4346" lon="1.10986">
        <ele>217.113419</ele>
        <time>2009-06-21T06:27:22Z</time>
      </trkpt>
      <trkpt lat="44.43466" lon="1.10982">
        <ele>218.574692</ele>
        <time>2009-06-21T06:27:27Z</time>
      </trkpt>
      <trkpt lat="44.4347" lon="1.10979">
        <ele>219.745529</ele>
        <time>2009-06-21T06:27:30Z</time>
      </trkpt>
      <trkpt lat="44.43475" lon="1.10976">
        <ele>220.770401</ele>
        <time>2009-06-21T06:27:34Z</time>
      </trkpt>
      <trkpt lat="44.43479" lon="1.10974">
        <ele>221.775894</ele>
        <time>2009-06-21T06:27:39Z</time>
      </trkpt>
      <trkpt lat="44.43484" lon="1.10972">
        <ele>223.011963</ele>
        <time>2009-06-21T06:27:43Z</time>
      </trkpt>
      <trkpt lat="44.43488" lon="1.10969">
        <ele>224.106125</ele>
        <time>2009-06-21T06:27:47Z</time>
      </trkpt>
      <trkpt lat="44.43491" lon="1.10962">
        <ele>225.330948</ele>
        <time>2009-06-21T06:27:52Z</time>
      </trkpt>
      <trkpt lat="44.43492" lon="1.10955">
        <ele>226.119843</ele>
        <time>2009-06-21T06:27:55Z</time>
      </trkpt>
      <trkpt lat="44.43492" lon="1.10947">
        <ele>226.581131</ele>
        <time>2009-06-21T06:28:02Z</time>
      </trkpt>
      <trkpt lat="44.4349" lon="1.10942">
        <ele>226.682083</ele>
        <time>2009-06-21T06:28:05Z</time>
      </trkpt>
      <trkpt lat="44.4349" lon="1.10938">
        <ele>227.054474</ele>
        <time>2009-06-21T06:28:10Z</time>
      </trkpt>
      <trkpt lat="44.4349" lon="1.10932">
        <ele>227.418991</ele>
        <time>2009-06-21T06:28:13Z</time>
      </trkpt>
      <trkpt lat="44.43489" lon="1.10928">
        <ele>227.605255</ele>
        <time>2009-06-21T06:28:17Z</time>
      </trkpt>
      <trkpt lat="44.43486" lon="1.10922">
        <ele>227.535645</ele>
        <time>2009-06-21T06:28:20Z</time>
      </trkpt>
      <trkpt lat="44.43484" lon="1.10917">
        <ele>227.618103</ele>
        <time>2009-06-21T06:28:23Z</time>
      </trkpt>
      <trkpt lat="44.43481" lon="1.10911">
        <ele>227.577957</ele>
        <time>2009-06-21T06:28:26Z</time>
      </trkpt>
      <trkpt lat="44.43479" lon="1.10906">
        <ele>227.548752</ele>
        <time>2009-06-21T06:28:29Z</time>
      </trkpt>
      <trkpt lat="44.43478" lon="1.109">
        <ele>227.467499</ele>
        <time>2009-06-21T06:28:32Z</time>
      </trkpt>
      <trkpt lat="44.43477" lon="1.10894">
        <ele>227.109375</ele>
        <time>2009-06-21T06:28:36Z</time>
      </trkpt>
      <trkpt lat="44.43474" lon="1.10888">
        <ele>226.554993</ele>
        <time>2009-06-21T06:28:39Z</time>
      </trkpt>
      <trkpt lat="44.43472" lon="1.10881">
        <ele>225.978119</ele>
        <time>2009-06-21T06:28:42Z</time>
      </trkpt>
      <trkpt lat="44.43468" lon="1.10871">
        <ele>224.975632</ele>
        <time>2009-06-21T06:28:45Z</time>
      </trkpt>
      <trkpt lat="44.43465" lon="1.10848">
        <ele>224.122498</ele>
        <time>2009-06-21T06:28:48Z</time>
      </trkpt>
      <trkpt lat="44.43469" lon="1.10832">
        <ele>224.761597</ele>
        <time>2009-06-21T06:28:51Z</time>
      </trkpt>
      <trkpt lat="44.43474" lon="1.10827">
        <ele>225.575394</ele>
        <time>2009-06-21T06:28:55Z</time>
      </trkpt>
      <trkpt lat="44.4348" lon="1.1082">
        <ele>226.413803</ele>
        <time>2009-06-21T06:28:58Z</time>
      </trkpt>
      <trkpt lat="44.43485" lon="1.10816">
        <ele>227.204865</ele>
        <time>2009-06-21T06:29:01Z</time>
      </trkpt>
      <trkpt lat="44.4349" lon="1.10812">
        <ele>228.113846</ele>
        <time>2009-06-21T06:29:04Z</time>
      </trkpt>
      <trkpt lat="44.43493" lon="1.1081">
        <ele>228.572998</ele>
        <time>2009-06-21T06:29:09Z</time>
      </trkpt>
      <trkpt lat="44.43496" lon="1.10808">
        <ele>229.014267</ele>
        <time>2009-06-21T06:29:12Z</time>
      </trkpt>
      <trkpt lat="44.43501" lon="1.10804">
        <ele>229.87294</ele>
        <time>2009-06-21T06:29:16Z</time>
      </trkpt>
      <trkpt lat="44.43508" lon="1.108">
        <ele>231.147995</ele>
        <time>2009-06-21T06:29:20Z</time>
      </trkpt>
      <trkpt lat="44.43512" lon="1.10797">
        <ele>231.746918</ele>
        <time>2009-06-21T06:29:23Z</time>
      </trkpt>
      <trkpt lat="44.43518" lon="1.10793">
        <ele>232.675705</ele>
        <time>2009-06-21T06:29:27Z</time>
      </trkpt>
      <trkpt lat="44.43522" lon="1.1079">
        <ele>233.290497</ele>
        <time>2009-06-21T06:29:31Z</time>
      </trkpt>
      <trkpt lat="44.43528" lon="1.10787">
        <ele>234.330109</ele>
        <time>2009-06-21T06:29:34Z</time>
      </trkpt>
      <trkpt lat="44.43531" lon="1.10784">
        <ele>234.959442</ele>
        <time>2009-06-21T06:29:38Z</time>
      </trkpt>
      <trkpt lat="44.43536" lon="1.10782">
        <ele>235.997665</ele>
        <time>2009-06-21T06:29:41Z</time>
      </trkpt>
      <trkpt lat="44.43539" lon="1.1078">
        <ele>236.600479</ele>
        <time>2009-06-21T06:29:45Z</time>
      </trkpt>
      <trkpt lat="44.43543" lon="1.10778">
        <ele>237.342041</ele>
        <time>2009-06-21T06:29:49Z</time>
      </trkpt>
      <trkpt lat="44.43547" lon="1.10776">
        <ele>238.033569</ele>
        <time>2009-06-21T06:29:53Z</time>
      </trkpt>
      <trkpt lat="44.43551" lon="1.10774">
        <ele>238.935883</ele>
        <time>2009-06-21T06:29:56Z</time>
      </trkpt>
      <trkpt lat="44.43555" lon="1.10772">
        <ele>239.79538</ele>
        <time>2009-06-21T06:29:59Z</time>
      </trkpt>
      <trkpt lat="44.4356" lon="1.1077">
        <ele>240.853882</ele>
        <time>2009-06-21T06:30:04Z</time>
      </trkpt>
      <trkpt lat="44.43564" lon="1.10767">
        <ele>241.672745</ele>
        <time>2009-06-21T06:30:08Z</time>
      </trkpt>
      <trkpt lat="44.43566" lon="1.10764">
        <ele>241.878799</ele>
        <time>2009-06-21T06:30:11Z</time>
      </trkpt>
      <trkpt lat="44.4357" lon="1.10762">
        <ele>242.669998</ele>
        <time>2009-06-21T06:30:16Z</time>
      </trkpt>
      <trkpt lat="44.43572" lon="1.10762">
        <ele>243.283127</ele>
        <time>2009-06-21T06:30:24Z</time>
      </trkpt>
      <trkpt lat="44.43574" lon="1.10761">
        <ele>243.645004</ele>
        <time>2009-06-21T06:30:27Z</time>
      </trkpt>
      <trkpt lat="44.43577" lon="1.10759">
        <ele>244.323746</ele>
        <time>2009-06-21T06:30:33Z</time>
      </trkpt>
      <trkpt lat="44.43579" lon="1.10756">
        <ele>244.888123</ele>
        <time>2009-06-21T06:30:38Z</time>
      </trkpt>
      <trkpt lat="44.43582" lon="1.10752">
        <ele>245.383118</ele>
        <time>2009-06-21T06:30:41Z</time>
      </trkpt>
      <trkpt lat="44.43584" lon="1.10749">
        <ele>245.938126</ele>
        <time>2009-06-21T06:30:45Z</time>
      </trkpt>
      <trkpt lat="44.43586" lon="1.10748">
        <ele>246.378754</ele>
        <time>2009-06-21T06:30:48Z</time>
      </trkpt>
      <trkpt lat="44.43589" lon="1.10745">
        <ele>246.9375</ele>
        <time>2009-06-21T06:30:53Z</time>
      </trkpt>
      <trkpt lat="44.43592" lon="1.10743">
        <ele>247.601257</ele>
        <time>2009-06-21T06:30:56Z</time>
      </trkpt>
      <trkpt lat="44.43594" lon="1.1074">
        <ele>248.212494</ele>
        <time>2009-06-21T06:31:00Z</time>
      </trkpt>
      <trkpt lat="44.43598" lon="1.10738">
        <ele>248.92688</ele>
        <time>2009-06-21T06:31:05Z</time>
      </trkpt>
      <trkpt lat="44.436" lon="1.10735">
        <ele>249.575623</ele>
        <time>2009-06-21T06:31:08Z</time>
      </trkpt>
      <trkpt lat="44.43604" lon="1.10732">
        <ele>250.301254</ele>
        <time>2009-06-21T06:31:12Z</time>
      </trkpt>
      <trkpt lat="44.43607" lon="1.1073">
        <ele>251.043747</ele>
        <time>2009-06-21T06:31:15Z</time>
      </trkpt>
      <trkpt lat="44.4361" lon="1.10727">
        <ele>251.898743</ele>
        <time>2009-06-21T06:31:18Z</time>
      </trkpt>
      <trkpt lat="44.43613" lon="1.10725">
        <ele>252.536255</ele>
        <time>2009-06-21T06:31:23Z</time>
      </trkpt>
      <trkpt lat="44.43616" lon="1.10723">
        <ele>253.108124</ele>
        <time>2009-06-21T06:31:29Z</time>
      </trkpt>
      <trkpt lat="44.43619" lon="1.10722">
        <ele>253.651871</ele>
        <time>2009-06-21T06:31:33Z</time>
      </trkpt>
      <trkpt lat="44.43622" lon="1.1072">
        <ele>254.167496</ele>
        <time>2009-06-21T06:31:37Z</time>
      </trkpt>
      <trkpt lat="44.43625" lon="1.10718">
        <ele>254.714996</ele>
        <time>2009-06-21T06:31:40Z</time>
      </trkpt>
      <trkpt lat="44.43629" lon="1.10716">
        <ele>255.375</ele>
        <time>2009-06-21T06:31:44Z</time>
      </trkpt>
      <trkpt lat="44.43633" lon="1.10714">
        <ele>256.006866</ele>
        <time>2009-06-21T06:31:48Z</time>
      </trkpt>
      <trkpt lat="44.43636" lon="1.10713">
        <ele>256.586243</ele>
        <time>2009-06-21T06:31:52Z</time>
      </trkpt>
      <trkpt lat="44.43637" lon="1.10714">
        <ele>256.865631</ele>
        <time>2009-06-21T06:31:56Z</time>
      </trkpt>
      <trkpt lat="44.43638" lon="1.10715">
        <ele>257.158112</ele>
        <time>2009-06-21T06:32:11Z</time>
      </trkpt>
      <trkpt lat="44.43639" lon="1.10716">
        <ele>257.433746</ele>
        <time>2009-06-21T06:32:38Z</time>
      </trkpt>
      <trkpt lat="44.43639" lon="1.10718">
        <ele>257.482513</ele>
        <time>2009-06-21T06:32:53Z</time>
      </trkpt>
      <trkpt lat="44.43639" lon="1.10719">
        <ele>257.559387</ele>
        <time>2009-06-21T06:32:57Z</time>
      </trkpt>
      <trkpt lat="44.43639" lon="1.10721">
        <ele>257.630615</ele>
        <time>2009-06-21T06:33:05Z</time>
      </trkpt>
      <trkpt lat="44.43641" lon="1.1072">
        <ele>257.85376</ele>
        <time>2009-06-21T06:33:17Z</time>
      </trkpt>
      <trkpt lat="44.43644" lon="1.10719">
        <ele>258.470612</ele>
        <time>2009-06-21T06:33:20Z</time>
      </trkpt>
      <trkpt lat="44.43649" lon="1.10719">
        <ele>259.511261</ele>
        <time>2009-06-21T06:33:23Z</time>
      </trkpt>
      <trkpt lat="44.43653" lon="1.1072">
        <ele>260.338135</ele>
        <time>2009-06-21T06:33:26Z</time>
      </trkpt>
      <trkpt lat="44.43657" lon="1.10721">
        <ele>261.153748</ele>
        <time>2009-06-21T06:33:29Z</time>
      </trkpt>
      <trkpt lat="44.43661" lon="1.10721">
        <ele>261.691193</ele>
        <time>2009-06-21T06:33:32Z</time>
      </trkpt>
      <trkpt lat="44.43665" lon="1.10722">
        <ele>262.061798</ele>
        <time>2009-06-21T06:33:35Z</time>
      </trkpt>
      <trkpt lat="44.43668" lon="1.10722">
        <ele>262.371765</ele>
        <time>2009-06-21T06:33:38Z</time>
      </trkpt>
      <trkpt lat="44.43672" lon="1.10722">
        <ele>262.728699</ele>
        <time>2009-06-21T06:33:41Z</time>
      </trkpt>
      <trkpt lat="44.43676" lon="1.10722">
        <ele>263.026123</ele>
        <time>2009-06-21T06:33:44Z</time>
      </trkpt>
      <trkpt lat="44.43679" lon="1.10722">
        <ele>263.306854</ele>
        <time>2009-06-21T06:33:53Z</time>
      </trkpt>
      <trkpt lat="44.43681" lon="1.10727">
        <ele>263.679657</ele>
        <time>2009-06-21T06:33:57Z</time>
      </trkpt>
      <trkpt lat="44.43684" lon="1.10733">
        <ele>264.110718</ele>
        <time>2009-06-21T06:34:00Z</time>
      </trkpt>
      <trkpt lat="44.43685" lon="1.10738">
        <ele>264.433594</ele>
        <time>2009-06-21T06:34:03Z</time>
      </trkpt>
      <trkpt lat="44.43688" lon="1.10741">
        <ele>264.799774</ele>
        <time>2009-06-21T06:34:07Z</time>
      </trkpt>
      <trkpt lat="44.43693" lon="1.10746">
        <ele>265.297211</ele>
        <time>2009-06-21T06:34:10Z</time>
      </trkpt>
      <trkpt lat="44.43696" lon="1.10751">
        <ele>265.711792</ele>
        <time>2009-06-21T06:34:14Z</time>
      </trkpt>
      <trkpt lat="44.43701" lon="1.10755">
        <ele>266.217438</ele>
        <time>2009-06-21T06:34:18Z</time>
      </trkpt>
      <trkpt lat="44.43707" lon="1.1076">
        <ele>266.675568</ele>
        <time>2009-06-21T06:34:21Z</time>
      </trkpt>
      <trkpt lat="44.43711" lon="1.10765">
        <ele>266.921326</ele>
        <time>2009-06-21T06:34:24Z</time>
      </trkpt>
      <trkpt lat="44.43717" lon="1.10769">
        <ele>267.19162</ele>
        <time>2009-06-21T06:34:28Z</time>
      </trkpt>
      <trkpt lat="44.43722" lon="1.10772">
        <ele>267.402588</ele>
        <time>2009-06-21T06:34:31Z</time>
      </trkpt>
      <trkpt lat="44.43727" lon="1.10777">
        <ele>267.449341</ele>
        <time>2009-06-21T06:34:34Z</time>
      </trkpt>
      <trkpt lat="44.43733" lon="1.10782">
        <ele>267.450836</ele>
        <time>2009-06-21T06:34:38Z</time>
      </trkpt>
      <trkpt lat="44.4374" lon="1.10787">
        <ele>267.425262</ele>
        <time>2009-06-21T06:34:41Z</time>
      </trkpt>
      <trkpt lat="44.43747" lon="1.10791">
        <ele>267.375366</ele>
        <time>2009-06-21T06:34:44Z</time>
      </trkpt>
      <trkpt lat="44.43755" lon="1.10794">
        <ele>267.335327</ele>
        <time>2009-06-21T06:34:47Z</time>
      </trkpt>
      <trkpt lat="44.43763" lon="1.10797">
        <ele>267.249573</ele>
        <time>2009-06-21T06:34:50Z</time>
      </trkpt>
      <trkpt lat="44.43769" lon="1.10799">
        <ele>267.172485</ele>
        <time>2009-06-21T06:34:53Z</time>
      </trkpt>
      <trkpt lat="44.43776" lon="1.10802">
        <ele>267.035706</ele>
        <time>2009-06-21T06:34:56Z</time>
      </trkpt>
      <trkpt lat="44.43783" lon="1.10805">
        <ele>266.875488</ele>
        <time>2009-06-21T06:34:59Z</time>
      </trkpt>
      <trkpt lat="44.4379" lon="1.10807">
        <ele>266.715363</ele>
        <time>2009-06-21T06:35:02Z</time>
      </trkpt>
      <trkpt lat="44.438" lon="1.10811">
        <ele>266.450012</ele>
        <time>2009-06-21T06:35:05Z</time>
      </trkpt>
      <trkpt lat="44.43808" lon="1.10814">
        <ele>266.234985</ele>
        <time>2009-06-21T06:35:08Z</time>
      </trkpt>
      <trkpt lat="44.43816" lon="1.10819">
        <ele>265.917511</ele>
        <time>2009-06-21T06:35:11Z</time>
      </trkpt>
      <trkpt lat="44.43826" lon="1.10824">
        <ele>265.600006</ele>
        <time>2009-06-21T06:35:14Z</time>
      </trkpt>
      <trkpt lat="44.43837" lon="1.10827">
        <ele>265.412506</ele>
        <time>2009-06-21T06:35:17Z</time>
      </trkpt>
      <trkpt lat="44.43849" lon="1.10828">
        <ele>265.11499</ele>
        <time>2009-06-21T06:35:20Z</time>
      </trkpt>
      <trkpt lat="44.43862" lon="1.1083">
        <ele>264.670013</ele>
        <time>2009-06-21T06:35:23Z</time>
      </trkpt>
      <trkpt lat="44.43874" lon="1.1083">
        <ele>264.404999</ele>
        <time>2009-06-21T06:35:26Z</time>
      </trkpt>
      <trkpt lat="44.43884" lon="1.1083">
        <ele>264.154999</ele>
        <time>2009-06-21T06:35:29Z</time>
      </trkpt>
      <trkpt lat="44.43894" lon="1.10829">
        <ele>264.154175</ele>
        <time>2009-06-21T06:35:32Z</time>
      </trkpt>
      <trkpt lat="44.43904" lon="1.1083">
        <ele>264.074463</ele>
        <time>2009-06-21T06:35:35Z</time>
      </trkpt>
      <trkpt lat="44.43913" lon="1.1083">
        <ele>264.078491</ele>
        <time>2009-06-21T06:35:38Z</time>
      </trkpt>
      <trkpt lat="44.43921" lon="1.10829">
        <ele>264.091064</ele>
        <time>2009-06-21T06:35:41Z</time>
      </trkpt>
      <trkpt lat="44.43931" lon="1.10829">
        <ele>264.012512</ele>
        <time>2009-06-21T06:35:44Z</time>
      </trkpt>
      <trkpt lat="44.43941" lon="1.10828">
        <ele>263.538757</ele>
        <time>2009-06-21T06:35:47Z</time>
      </trkpt>
      <trkpt lat="44.43954" lon="1.10826">
        <ele>263.059998</ele>
        <time>2009-06-21T06:35:50Z</time>
      </trkpt>
      <trkpt lat="44.43967" lon="1.10822">
        <ele>262.589996</ele>
        <time>2009-06-21T06:35:53Z</time>
      </trkpt>
      <trkpt lat="44.43979" lon="1.10822">
        <ele>262.230103</ele>
        <time>2009-06-21T06:35:56Z</time>
      </trkpt>
      <trkpt lat="44.43992" lon="1.10822">
        <ele>262.139832</ele>
        <time>2009-06-21T06:35:59Z</time>
      </trkpt>
      <trkpt lat="44.44004" lon="1.10822">
        <ele>262.078796</ele>
        <time>2009-06-21T06:36:02Z</time>
      </trkpt>
      <trkpt lat="44.44016" lon="1.10822">
        <ele>262.014771</ele>
        <time>2009-06-21T06:36:05Z</time>
      </trkpt>
      <trkpt lat="44.44027" lon="1.10824">
        <ele>262</ele>
        <time>2009-06-21T06:36:08Z</time>
      </trkpt>
      <trkpt lat="44.44039" lon="1.10827">
        <ele>262</ele>
        <time>2009-06-21T06:36:11Z</time>
      </trkpt>
      <trkpt lat="44.4405" lon="1.10829">
        <ele>261.966797</ele>
        <time>2009-06-21T06:36:14Z</time>
      </trkpt>
      <trkpt lat="44.44059" lon="1.10831">
        <ele>261.913055</ele>
        <time>2009-06-21T06:36:17Z</time>
      </trkpt>
      <trkpt lat="44.44069" lon="1.10833">
        <ele>261.852509</ele>
        <time>2009-06-21T06:36:20Z</time>
      </trkpt>
      <trkpt lat="44.4408" lon="1.10834">
        <ele>261.79126</ele>
        <time>2009-06-21T06:36:23Z</time>
      </trkpt>
      <trkpt lat="44.4409" lon="1.10835">
        <ele>261.75</ele>
        <time>2009-06-21T06:36:26Z</time>
      </trkpt>
      <trkpt lat="44.44101" lon="1.10837">
        <ele>261.693756</ele>
        <time>2009-06-21T06:36:29Z</time>
      </trkpt>
      <trkpt lat="44.44113" lon="1.10839">
        <ele>261.622498</ele>
        <time>2009-06-21T06:36:32Z</time>
      </trkpt>
      <trkpt lat="44.44125" lon="1.1084">
        <ele>261.568756</ele>
        <time>2009-06-21T06:36:35Z</time>
      </trkpt>
      <trkpt lat="44.44138" lon="1.10843">
        <ele>261.477509</ele>
        <time>2009-06-21T06:36:38Z</time>
      </trkpt>
      <trkpt lat="44.44152" lon="1.10846">
        <ele>261.375</ele>
        <time>2009-06-21T06:36:41Z</time>
      </trkpt>
      <trkpt lat="44.44166" lon="1.10848">
        <ele>261.282501</ele>
        <time>2009-06-21T06:36:45Z</time>
      </trkpt>
      <trkpt lat="44.44178" lon="1.10851">
        <ele>261.193756</ele>
        <time>2009-06-21T06:36:48Z</time>
      </trkpt>
      <trkpt lat="44.44189" lon="1.10853">
        <ele>261.122498</ele>
        <time>2009-06-21T06:36:51Z</time>
      </trkpt>
      <trkpt lat="44.44199" lon="1.10859">
        <ele>260.933746</ele>
        <time>2009-06-21T06:36:54Z</time>
      </trkpt>
      <trkpt lat="44.44207" lon="1.10864">
        <ele>260.796844</ele>
        <time>2009-06-21T06:36:57Z</time>
      </trkpt>
      <trkpt lat="44.44217" lon="1.10871">
        <ele>260.715942</ele>
        <time>2009-06-21T06:37:00Z</time>
      </trkpt>
      <trkpt lat="44.44225" lon="1.10879">
        <ele>260.67807</ele>
        <time>2009-06-21T06:37:03Z</time>
      </trkpt>
      <trkpt lat="44.44238" lon="1.10894">
        <ele>260.618744</ele>
        <time>2009-06-21T06:37:08Z</time>
      </trkpt>
      <trkpt lat="44.44246" lon="1.10904">
        <ele>260.461243</ele>
        <time>2009-06-21T06:37:11Z</time>
      </trkpt>
      <trkpt lat="44.44254" lon="1.10913">
        <ele>260.176239</ele>
        <time>2009-06-21T06:37:14Z</time>
      </trkpt>
      <trkpt lat="44.44259" lon="1.10923">
        <ele>259.831238</ele>
        <time>2009-06-21T06:37:17Z</time>
      </trkpt>
      <trkpt lat="44.44262" lon="1.10937">
        <ele>259.39624</ele>
        <time>2009-06-21T06:37:20Z</time>
      </trkpt>
      <trkpt lat="44.4427" lon="1.10957">
        <ele>258.763763</ele>
        <time>2009-06-21T06:37:23Z</time>
      </trkpt>
      <trkpt lat="44.44278" lon="1.10973">
        <ele>258.557739</ele>
        <time>2009-06-21T06:37:26Z</time>
      </trkpt>
      <trkpt lat="44.44286" lon="1.10986">
        <ele>258.720947</ele>
        <time>2009-06-21T06:37:29Z</time>
      </trkpt>
      <trkpt lat="44.44294" lon="1.10996">
        <ele>259.05838</ele>
        <time>2009-06-21T06:37:32Z</time>
      </trkpt>
      <trkpt lat="44.44303" lon="1.11006">
        <ele>259.245758</ele>
        <time>2009-06-21T06:37:35Z</time>
      </trkpt>
      <trkpt lat="44.44313" lon="1.11015">
        <ele>259.562286</ele>
        <time>2009-06-21T06:37:38Z</time>
      </trkpt>
      <trkpt lat="44.44327" lon="1.11022">
        <ele>259.863464</ele>
        <time>2009-06-21T06:37:41Z</time>
      </trkpt>
      <trkpt lat="44.44341" lon="1.1103">
        <ele>259.904999</ele>
        <time>2009-06-21T06:37:44Z</time>
      </trkpt>
      <trkpt lat="44.44356" lon="1.11036">
        <ele>259.565002</ele>
        <time>2009-06-21T06:37:47Z</time>
      </trkpt>
      <trkpt lat="44.44371" lon="1.11038">
        <ele>259.234985</ele>
        <time>2009-06-21T06:37:50Z</time>
      </trkpt>
      <trkpt lat="44.44385" lon="1.11038">
        <ele>258.820007</ele>
        <time>2009-06-21T06:37:53Z</time>
      </trkpt>
      <trkpt lat="44.44405" lon="1.11038">
        <ele>257.964996</ele>
        <time>2009-06-21T06:37:57Z</time>
      </trkpt>
      <trkpt lat="44.44418" lon="1.11039">
        <ele>257.380005</ele>
        <time>2009-06-21T06:38:00Z</time>
      </trkpt>
      <trkpt lat="44.44438" lon="1.1104">
        <ele>256.614716</ele>
        <time>2009-06-21T06:38:05Z</time>
      </trkpt>
      <trkpt lat="44.4445" lon="1.11038">
        <ele>256.186279</ele>
        <time>2009-06-21T06:38:08Z</time>
      </trkpt>
      <trkpt lat="44.44468" lon="1.11038">
        <ele>255.592514</ele>
        <time>2009-06-21T06:38:12Z</time>
      </trkpt>
      <trkpt lat="44.44482" lon="1.11039">
        <ele>255.04126</ele>
        <time>2009-06-21T06:38:15Z</time>
      </trkpt>
      <trkpt lat="44.44495" lon="1.1104">
        <ele>254.457504</ele>
        <time>2009-06-21T06:38:18Z</time>
      </trkpt>
      <trkpt lat="44.44509" lon="1.11041">
        <ele>253.880005</ele>
        <time>2009-06-21T06:38:21Z</time>
      </trkpt>
      <trkpt lat="44.44522" lon="1.11041">
        <ele>253.299377</ele>
        <time>2009-06-21T06:38:24Z</time>
      </trkpt>
      <trkpt lat="44.44536" lon="1.11042">
        <ele>252.70813</ele>
        <time>2009-06-21T06:38:27Z</time>
      </trkpt>
      <trkpt lat="44.4455" lon="1.11043">
        <ele>252.098755</ele>
        <time>2009-06-21T06:38:31Z</time>
      </trkpt>
      <trkpt lat="44.44565" lon="1.11045">
        <ele>251.59729</ele>
        <time>2009-06-21T06:38:34Z</time>
      </trkpt>
      <trkpt lat="44.44579" lon="1.11047">
        <ele>251.541504</ele>
        <time>2009-06-21T06:38:37Z</time>
      </trkpt>
      <trkpt lat="44.44593" lon="1.11049">
        <ele>251.492126</ele>
        <time>2009-06-21T06:38:40Z</time>
      </trkpt>
      <trkpt lat="44.44605" lon="1.11047">
        <ele>251.370117</ele>
        <time>2009-06-21T06:38:43Z</time>
      </trkpt>
      <trkpt lat="44.44622" lon="1.11047">
        <ele>251.348755</ele>
        <time>2009-06-21T06:38:47Z</time>
      </trkpt>
      <trkpt lat="44.44634" lon="1.11046">
        <ele>251.351257</ele>
        <time>2009-06-21T06:38:50Z</time>
      </trkpt>
      <trkpt lat="44.44652" lon="1.11046">
        <ele>251.345001</ele>
        <time>2009-06-21T06:38:53Z</time>
      </trkpt>
      <trkpt lat="44.44665" lon="1.11045">
        <ele>251.324997</ele>
        <time>2009-06-21T06:38:56Z</time>
      </trkpt>
      <trkpt lat="44.44676" lon="1.11044">
        <ele>251.316254</ele>
        <time>2009-06-21T06:38:59Z</time>
      </trkpt>
      <trkpt lat="44.44686" lon="1.11044">
        <ele>251.297501</ele>
        <time>2009-06-21T06:39:02Z</time>
      </trkpt>
      <trkpt lat="44.44697" lon="1.11041">
        <ele>251.217499</ele>
        <time>2009-06-21T06:39:05Z</time>
      </trkpt>
      <trkpt lat="44.44708" lon="1.11041">
        <ele>250.962494</ele>
        <time>2009-06-21T06:39:08Z</time>
      </trkpt>
      <trkpt lat="44.4472" lon="1.11043">
        <ele>250.778748</ele>
        <time>2009-06-21T06:39:12Z</time>
      </trkpt>
      <trkpt lat="44.44733" lon="1.11046">
        <ele>250.580002</ele>
        <time>2009-06-21T06:39:15Z</time>
      </trkpt>
      <trkpt lat="44.44746" lon="1.11047">
        <ele>250.380493</ele>
        <time>2009-06-21T06:39:18Z</time>
      </trkpt>
      <trkpt lat="44.44759" lon="1.11049">
        <ele>250.213547</ele>
        <time>2009-06-21T06:39:21Z</time>
      </trkpt>
      <trkpt lat="44.44778" lon="1.11051">
        <ele>249.94281</ele>
        <time>2009-06-21T06:39:24Z</time>
      </trkpt>
      <trkpt lat="44.44794" lon="1.11054">
        <ele>249.335632</ele>
        <time>2009-06-21T06:39:27Z</time>
      </trkpt>
      <trkpt lat="44.44811" lon="1.11054">
        <ele>248.231873</ele>
        <time>2009-06-21T06:39:30Z</time>
      </trkpt>
      <trkpt lat="44.44827" lon="1.11052">
        <ele>247.11438</ele>
        <time>2009-06-21T06:39:33Z</time>
      </trkpt>
      <trkpt lat="44.44844" lon="1.11051">
        <ele>246.435806</ele>
        <time>2009-06-21T06:39:36Z</time>
      </trkpt>
      <trkpt lat="44.44861" lon="1.11049">
        <ele>245.848831</ele>
        <time>2009-06-21T06:39:40Z</time>
      </trkpt>
      <trkpt lat="44.44879" lon="1.11047">
        <ele>245.291245</ele>
        <time>2009-06-21T06:39:43Z</time>
      </trkpt>
      <trkpt lat="44.44894" lon="1.11047">
        <ele>245.321243</ele>
        <time>2009-06-21T06:39:46Z</time>
      </trkpt>
      <trkpt lat="44.44911" lon="1.11052">
        <ele>245.578125</ele>
        <time>2009-06-21T06:39:49Z</time>
      </trkpt>
      <trkpt lat="44.44923" lon="1.11054">
        <ele>245.803131</ele>
        <time>2009-06-21T06:39:52Z</time>
      </trkpt>
      <trkpt lat="44.44936" lon="1.11057">
        <ele>246.541153</ele>
        <time>2009-06-21T06:39:55Z</time>
      </trkpt>
      <trkpt lat="44.44948" lon="1.11059">
        <ele>247.198151</ele>
        <time>2009-06-21T06:39:59Z</time>
      </trkpt>
      <trkpt lat="44.44961" lon="1.1106">
        <ele>247.745895</ele>
        <time>2009-06-21T06:40:02Z</time>
      </trkpt>
      <trkpt lat="44.44973" lon="1.1106">
        <ele>248.301254</ele>
        <time>2009-06-21T06:40:05Z</time>
      </trkpt>
      <trkpt lat="44.44989" lon="1.11059">
        <ele>249.017502</ele>
        <time>2009-06-21T06:40:08Z</time>
      </trkpt>
      <trkpt lat="44.45" lon="1.11059">
        <ele>249.503754</ele>
        <time>2009-06-21T06:40:11Z</time>
      </trkpt>
      <trkpt lat="44.45012" lon="1.1106">
        <ele>249.970001</ele>
        <time>2009-06-21T06:40:14Z</time>
      </trkpt>
      <trkpt lat="44.45021" lon="1.11061">
        <ele>250.130005</ele>
        <time>2009-06-21T06:40:17Z</time>
      </trkpt>
      <trkpt lat="44.4503" lon="1.11064">
        <ele>250.229996</ele>
        <time>2009-06-21T06:40:20Z</time>
      </trkpt>
      <trkpt lat="44.45037" lon="1.11067">
        <ele>250.298752</ele>
        <time>2009-06-21T06:40:24Z</time>
      </trkpt>
      <trkpt lat="44.45045" lon="1.11068">
        <ele>250.432495</ele>
        <time>2009-06-21T06:40:27Z</time>
      </trkpt>
      <trkpt lat="44.45052" lon="1.11055">
        <ele>250.949112</ele>
        <time>2009-06-21T06:40:30Z</time>
      </trkpt>
      <trkpt lat="44.45056" lon="1.11036">
        <ele>251.342133</ele>
        <time>2009-06-21T06:40:34Z</time>
      </trkpt>
      <trkpt lat="44.45061" lon="1.11023">
        <ele>251.612579</ele>
        <time>2009-06-21T06:40:37Z</time>
      </trkpt>
      <trkpt lat="44.45065" lon="1.11008">
        <ele>251.955734</ele>
        <time>2009-06-21T06:40:41Z</time>
      </trkpt>
      <trkpt lat="44.4507" lon="1.10993">
        <ele>252.307404</ele>
        <time>2009-06-21T06:40:44Z</time>
      </trkpt>
      <trkpt lat="44.45075" lon="1.10981">
        <ele>252.38121</ele>
        <time>2009-06-21T06:40:47Z</time>
      </trkpt>
      <trkpt lat="44.45085" lon="1.10968">
        <ele>252.915405</ele>
        <time>2009-06-21T06:40:50Z</time>
      </trkpt>
      <trkpt lat="44.45092" lon="1.10959">
        <ele>253.574142</ele>
        <time>2009-06-21T06:40:53Z</time>
      </trkpt>
      <trkpt lat="44.45099" lon="1.10951">
        <ele>254.265976</ele>
        <time>2009-06-21T06:40:57Z</time>
      </trkpt>
      <trkpt lat="44.45106" lon="1.10939">
        <ele>254.882233</ele>
        <time>2009-06-21T06:41:01Z</time>
      </trkpt>
      <trkpt lat="44.4511" lon="1.10931">
        <ele>255.237198</ele>
        <time>2009-06-21T06:41:04Z</time>
      </trkpt>
      <trkpt lat="44.45114" lon="1.10923">
        <ele>255.371246</ele>
        <time>2009-06-21T06:41:07Z</time>
      </trkpt>
      <trkpt lat="44.45119" lon="1.10915">
        <ele>255.54483</ele>
        <time>2009-06-21T06:41:10Z</time>
      </trkpt>
      <trkpt lat="44.45122" lon="1.10907">
        <ele>255.708206</ele>
        <time>2009-06-21T06:41:13Z</time>
      </trkpt>
      <trkpt lat="44.45126" lon="1.10897">
        <ele>255.916122</ele>
        <time>2009-06-21T06:41:16Z</time>
      </trkpt>
      <trkpt lat="44.45129" lon="1.10888">
        <ele>256.12265</ele>
        <time>2009-06-21T06:41:19Z</time>
      </trkpt>
      <trkpt lat="44.45132" lon="1.1088">
        <ele>256.335693</ele>
        <time>2009-06-21T06:41:22Z</time>
      </trkpt>
      <trkpt lat="44.45135" lon="1.10873">
        <ele>256.537292</ele>
        <time>2009-06-21T06:41:25Z</time>
      </trkpt>
      <trkpt lat="44.45137" lon="1.10866">
        <ele>256.702667</ele>
        <time>2009-06-21T06:41:28Z</time>
      </trkpt>
      <trkpt lat="44.4514" lon="1.1086">
        <ele>256.794495</ele>
        <time>2009-06-21T06:41:31Z</time>
      </trkpt>
      <trkpt lat="44.45142" lon="1.10853">
        <ele>256.886627</ele>
        <time>2009-06-21T06:41:34Z</time>
      </trkpt>
      <trkpt lat="44.45145" lon="1.10846">
        <ele>257.035767</ele>
        <time>2009-06-21T06:41:38Z</time>
      </trkpt>
      <trkpt lat="44.45148" lon="1.1084">
        <ele>257.118988</ele>
        <time>2009-06-21T06:41:41Z</time>
      </trkpt>
      <trkpt lat="44.45151" lon="1.10835">
        <ele>257.256592</ele>
        <time>2009-06-21T06:41:45Z</time>
      </trkpt>
      <trkpt lat="44.45158" lon="1.10827">
        <ele>257.600677</ele>
        <time>2009-06-21T06:41:49Z</time>
      </trkpt>
      <trkpt lat="44.45161" lon="1.10823">
        <ele>257.84375</ele>
        <time>2009-06-21T06:41:52Z</time>
      </trkpt>
      <trkpt lat="44.45166" lon="1.10817">
        <ele>258.212006</ele>
        <time>2009-06-21T06:41:57Z</time>
      </trkpt>
      <trkpt lat="44.45169" lon="1.10812">
        <ele>258.514893</ele>
        <time>2009-06-21T06:42:01Z</time>
      </trkpt>
      <trkpt lat="44.45174" lon="1.10808">
        <ele>258.926575</ele>
        <time>2009-06-21T06:42:04Z</time>
      </trkpt>
      <trkpt lat="44.45179" lon="1.10804">
        <ele>259.361023</ele>
        <time>2009-06-21T06:42:07Z</time>
      </trkpt>
      <trkpt lat="44.45181" lon="1.108">
        <ele>259.578979</ele>
        <time>2009-06-21T06:42:10Z</time>
      </trkpt>
      <trkpt lat="44.45185" lon="1.10797">
        <ele>259.853058</ele>
        <time>2009-06-21T06:42:13Z</time>
      </trkpt>
      <trkpt lat="44.4519" lon="1.10793">
        <ele>260.180603</ele>
        <time>2009-06-21T06:42:18Z</time>
      </trkpt>
      <trkpt lat="44.45196" lon="1.10788">
        <ele>260.378387</ele>
        <time>2009-06-21T06:42:22Z</time>
      </trkpt>
      <trkpt lat="44.45196" lon="1.10784">
        <ele>260.485107</ele>
        <time>2009-06-21T06:42:26Z</time>
      </trkpt>
      <trkpt lat="44.45198" lon="1.10777">
        <ele>260.717194</ele>
        <time>2009-06-21T06:42:29Z</time>
      </trkpt>
      <trkpt lat="44.45201" lon="1.10771">
        <ele>260.975494</ele>
        <time>2009-06-21T06:42:34Z</time>
      </trkpt>
      <trkpt lat="44.45205" lon="1.10763">
        <ele>261.34671</ele>
        <time>2009-06-21T06:42:38Z</time>
      </trkpt>
      <trkpt lat="44.45207" lon="1.10759">
        <ele>261.596771</ele>
        <time>2009-06-21T06:42:41Z</time>
      </trkpt>
      <trkpt lat="44.45207" lon="1.10754">
        <ele>261.802094</ele>
        <time>2009-06-21T06:42:44Z</time>
      </trkpt>
      <trkpt lat="44.45205" lon="1.10749">
        <ele>261.850891</ele>
        <time>2009-06-21T06:42:47Z</time>
      </trkpt>
      <trkpt lat="44.45203" lon="1.10744">
        <ele>261.926117</ele>
        <time>2009-06-21T06:42:51Z</time>
      </trkpt>
      <trkpt lat="44.452" lon="1.1074">
        <ele>261.818115</ele>
        <time>2009-06-21T06:42:56Z</time>
      </trkpt>
      <trkpt lat="44.45197" lon="1.10736">
        <ele>261.546234</ele>
        <time>2009-06-21T06:42:59Z</time>
      </trkpt>
      <trkpt lat="44.45191" lon="1.10726">
        <ele>261.040619</ele>
        <time>2009-06-21T06:43:02Z</time>
      </trkpt>
      <trkpt lat="44.45185" lon="1.10717">
        <ele>260.329376</ele>
        <time>2009-06-21T06:43:05Z</time>
      </trkpt>
      <trkpt lat="44.45179" lon="1.10706">
        <ele>259.535004</ele>
        <time>2009-06-21T06:43:08Z</time>
      </trkpt>
      <trkpt lat="44.45174" lon="1.10694">
        <ele>258.806244</ele>
        <time>2009-06-21T06:43:11Z</time>
      </trkpt>
      <trkpt lat="44.45171" lon="1.10687">
        <ele>258.40625</ele>
        <time>2009-06-21T06:43:14Z</time>
      </trkpt>
      <trkpt lat="44.45169" lon="1.10679">
        <ele>257.990631</ele>
        <time>2009-06-21T06:43:17Z</time>
      </trkpt>
      <trkpt lat="44.45163" lon="1.1067">
        <ele>256.996887</ele>
        <time>2009-06-21T06:43:21Z</time>
      </trkpt>
      <trkpt lat="44.45157" lon="1.10656">
        <ele>255.660004</ele>
        <time>2009-06-21T06:43:24Z</time>
      </trkpt>
      <trkpt lat="44.45151" lon="1.10642">
        <ele>254.345001</ele>
        <time>2009-06-21T06:43:27Z</time>
      </trkpt>
      <trkpt lat="44.45145" lon="1.1063">
        <ele>253.105621</ele>
        <time>2009-06-21T06:43:30Z</time>
      </trkpt>
      <trkpt lat="44.45142" lon="1.1062">
        <ele>252.285629</ele>
        <time>2009-06-21T06:43:33Z</time>
      </trkpt>
      <trkpt lat="44.45136" lon="1.10608">
        <ele>251.081253</ele>
        <time>2009-06-21T06:43:36Z</time>
      </trkpt>
      <trkpt lat="44.45133" lon="1.10598">
        <ele>250.261871</ele>
        <time>2009-06-21T06:43:39Z</time>
      </trkpt>
      <trkpt lat="44.45131" lon="1.10589">
        <ele>249.606247</ele>
        <time>2009-06-21T06:43:42Z</time>
      </trkpt>
      <trkpt lat="44.45126" lon="1.10577">
        <ele>248.448746</ele>
        <time>2009-06-21T06:43:45Z</time>
      </trkpt>
      <trkpt lat="44.45118" lon="1.10557">
        <ele>246.684998</ele>
        <time>2009-06-21T06:43:48Z</time>
      </trkpt>
      <trkpt lat="44.45119" lon="1.10519">
        <ele>245.848694</ele>
        <time>2009-06-21T06:43:51Z</time>
      </trkpt>
      <trkpt lat="44.45118" lon="1.10493">
        <ele>245.090652</ele>
        <time>2009-06-21T06:43:54Z</time>
      </trkpt>
      <trkpt lat="44.45116" lon="1.1047">
        <ele>244.742355</ele>
        <time>2009-06-21T06:43:57Z</time>
      </trkpt>
      <trkpt lat="44.45115" lon="1.10452">
        <ele>244.525497</ele>
        <time>2009-06-21T06:44:00Z</time>
      </trkpt>
      <trkpt lat="44.45115" lon="1.10435">
        <ele>244.426285</ele>
        <time>2009-06-21T06:44:03Z</time>
      </trkpt>
      <trkpt lat="44.45116" lon="1.1042">
        <ele>244.240738</ele>
        <time>2009-06-21T06:44:06Z</time>
      </trkpt>
      <trkpt lat="44.45118" lon="1.10407">
        <ele>244.103241</ele>
        <time>2009-06-21T06:44:09Z</time>
      </trkpt>
      <trkpt lat="44.45119" lon="1.10394">
        <ele>243.924393</ele>
        <time>2009-06-21T06:44:12Z</time>
      </trkpt>
      <trkpt lat="44.45121" lon="1.10381">
        <ele>243.770294</ele>
        <time>2009-06-21T06:44:15Z</time>
      </trkpt>
      <trkpt lat="44.45123" lon="1.10368">
        <ele>243.715073</ele>
        <time>2009-06-21T06:44:18Z</time>
      </trkpt>
      <trkpt lat="44.45125" lon="1.10349">
        <ele>243.487305</ele>
        <time>2009-06-21T06:44:22Z</time>
      </trkpt>
      <trkpt lat="44.45132" lon="1.10332">
        <ele>243.524094</ele>
        <time>2009-06-21T06:44:26Z</time>
      </trkpt>
      <trkpt lat="44.45137" lon="1.10314">
        <ele>243.357437</ele>
        <time>2009-06-21T06:44:30Z</time>
      </trkpt>
      <trkpt lat="44.45141" lon="1.10302">
        <ele>243.126862</ele>
        <time>2009-06-21T06:44:33Z</time>
      </trkpt>
      <trkpt lat="44.45147" lon="1.10285">
        <ele>242.816025</ele>
        <time>2009-06-21T06:44:37Z</time>
      </trkpt>
      <trkpt lat="44.45151" lon="1.10272">
        <ele>242.485016</ele>
        <time>2009-06-21T06:44:40Z</time>
      </trkpt>
      <trkpt lat="44.45155" lon="1.10257">
        <ele>242.060699</ele>
        <time>2009-06-21T06:44:43Z</time>
      </trkpt>
      <trkpt lat="44.45159" lon="1.10239">
        <ele>241.506866</ele>
        <time>2009-06-21T06:44:46Z</time>
      </trkpt>
      <trkpt lat="44.45165" lon="1.1022">
        <ele>240.615204</ele>
        <time>2009-06-21T06:44:49Z</time>
      </trkpt>
      <trkpt lat="44.45175" lon="1.10199">
        <ele>239.832031</ele>
        <time>2009-06-21T06:44:52Z</time>
      </trkpt>
      <trkpt lat="44.45185" lon="1.10174">
        <ele>238.88002</ele>
        <time>2009-06-21T06:44:55Z</time>
      </trkpt>
      <trkpt lat="44.45197" lon="1.10148">
        <ele>237.375702</ele>
        <time>2009-06-21T06:44:58Z</time>
      </trkpt>
      <trkpt lat="44.45209" lon="1.10119">
        <ele>235.998596</ele>
        <time>2009-06-21T06:45:01Z</time>
      </trkpt>
      <trkpt lat="44.45223" lon="1.10091">
        <ele>234.936874</ele>
        <time>2009-06-21T06:45:04Z</time>
      </trkpt>
      <trkpt lat="44.45241" lon="1.10064">
        <ele>234.327728</ele>
        <time>2009-06-21T06:45:07Z</time>
      </trkpt>
      <trkpt lat="44.4526" lon="1.10042">
        <ele>234.337967</ele>
        <time>2009-06-21T06:45:10Z</time>
      </trkpt>
      <trkpt lat="44.4528" lon="1.10034">
        <ele>235.339752</ele>
        <time>2009-06-21T06:45:13Z</time>
      </trkpt>
      <trkpt lat="44.45297" lon="1.10031">
        <ele>236.488266</ele>
        <time>2009-06-21T06:45:17Z</time>
      </trkpt>
      <trkpt lat="44.45305" lon="1.1003">
        <ele>237.031097</ele>
        <time>2009-06-21T06:45:20Z</time>
      </trkpt>
      <trkpt lat="44.45313" lon="1.10028">
        <ele>237.564102</ele>
        <time>2009-06-21T06:45:23Z</time>
      </trkpt>
      <trkpt lat="44.4532" lon="1.10028">
        <ele>238.080032</ele>
        <time>2009-06-21T06:45:26Z</time>
      </trkpt>
      <trkpt lat="44.45326" lon="1.10027">
        <ele>238.541351</ele>
        <time>2009-06-21T06:45:29Z</time>
      </trkpt>
      <trkpt lat="44.45332" lon="1.10026">
        <ele>239.001999</ele>
        <time>2009-06-21T06:45:32Z</time>
      </trkpt>
      <trkpt lat="44.45339" lon="1.10025">
        <ele>239.458145</ele>
        <time>2009-06-21T06:45:35Z</time>
      </trkpt>
      <trkpt lat="44.45345" lon="1.10024">
        <ele>239.941406</ele>
        <time>2009-06-21T06:45:38Z</time>
      </trkpt>
      <trkpt lat="44.45351" lon="1.10024">
        <ele>240.354401</ele>
        <time>2009-06-21T06:45:41Z</time>
      </trkpt>
      <trkpt lat="44.45356" lon="1.10024">
        <ele>240.782135</ele>
        <time>2009-06-21T06:45:44Z</time>
      </trkpt>
      <trkpt lat="44.45362" lon="1.10024">
        <ele>241.070007</ele>
        <time>2009-06-21T06:45:47Z</time>
      </trkpt>
      <trkpt lat="44.45368" lon="1.10023">
        <ele>241.192505</ele>
        <time>2009-06-21T06:45:50Z</time>
      </trkpt>
      <trkpt lat="44.45374" lon="1.10023">
        <ele>241.322495</ele>
        <time>2009-06-21T06:45:53Z</time>
      </trkpt>
      <trkpt lat="44.45381" lon="1.10024">
        <ele>241.492493</ele>
        <time>2009-06-21T06:45:57Z</time>
      </trkpt>
      <trkpt lat="44.45387" lon="1.10023">
        <ele>241.607498</ele>
        <time>2009-06-21T06:46:00Z</time>
      </trkpt>
      <trkpt lat="44.45391" lon="1.10021">
        <ele>241.697495</ele>
        <time>2009-06-21T06:46:03Z</time>
      </trkpt>
      <trkpt lat="44.45395" lon="1.10019">
        <ele>241.804993</ele>
        <time>2009-06-21T06:46:06Z</time>
      </trkpt>
      <trkpt lat="44.45401" lon="1.10017">
        <ele>241.927505</ele>
        <time>2009-06-21T06:46:09Z</time>
      </trkpt>
      <trkpt lat="44.45406" lon="1.10016">
        <ele>242.028839</ele>
        <time>2009-06-21T06:46:12Z</time>
      </trkpt>
      <trkpt lat="44.45413" lon="1.10014">
        <ele>242.094101</ele>
        <time>2009-06-21T06:46:15Z</time>
      </trkpt>
      <trkpt lat="44.45419" lon="1.10013">
        <ele>242.153931</ele>
        <time>2009-06-21T06:46:18Z</time>
      </trkpt>
      <trkpt lat="44.45426" lon="1.10012">
        <ele>242.202347</ele>
        <time>2009-06-21T06:46:21Z</time>
      </trkpt>
      <trkpt lat="44.45433" lon="1.10012">
        <ele>242.268936</ele>
        <time>2009-06-21T06:46:24Z</time>
      </trkpt>
      <trkpt lat="44.4544" lon="1.10009">
        <ele>242.233505</ele>
        <time>2009-06-21T06:46:27Z</time>
      </trkpt>
      <trkpt lat="44.45447" lon="1.10006">
        <ele>242.165497</ele>
        <time>2009-06-21T06:46:30Z</time>
      </trkpt>
      <trkpt lat="44.45455" lon="1.10002">
        <ele>242.172104</ele>
        <time>2009-06-21T06:46:34Z</time>
      </trkpt>
      <trkpt lat="44.45463" lon="1.09998">
        <ele>242.193573</ele>
        <time>2009-06-21T06:46:37Z</time>
      </trkpt>
      <trkpt lat="44.45472" lon="1.09994">
        <ele>242.242706</ele>
        <time>2009-06-21T06:46:40Z</time>
      </trkpt>
      <trkpt lat="44.4548" lon="1.09988">
        <ele>242.139862</ele>
        <time>2009-06-21T06:46:43Z</time>
      </trkpt>
      <trkpt lat="44.45489" lon="1.09983">
        <ele>242.014694</ele>
        <time>2009-06-21T06:46:46Z</time>
      </trkpt>
      <trkpt lat="44.45499" lon="1.09978">
        <ele>242.182968</ele>
        <time>2009-06-21T06:46:49Z</time>
      </trkpt>
      <trkpt lat="44.45507" lon="1.09973">
        <ele>242.386688</ele>
        <time>2009-06-21T06:46:52Z</time>
      </trkpt>
      <trkpt lat="44.45515" lon="1.09968">
        <ele>242.56781</ele>
        <time>2009-06-21T06:46:55Z</time>
      </trkpt>
      <trkpt lat="44.45523" lon="1.09962">
        <ele>242.656754</ele>
        <time>2009-06-21T06:46:58Z</time>
      </trkpt>
      <trkpt lat="44.4553" lon="1.09957">
        <ele>242.675491</ele>
        <time>2009-06-21T06:47:01Z</time>
      </trkpt>
      <trkpt lat="44.45536" lon="1.09952">
        <ele>242.666214</ele>
        <time>2009-06-21T06:47:04Z</time>
      </trkpt>
      <trkpt lat="44.45543" lon="1.09946">
        <ele>242.62468</ele>
        <time>2009-06-21T06:47:07Z</time>
      </trkpt>
      <trkpt lat="44.45551" lon="1.0994">
        <ele>242.507004</ele>
        <time>2009-06-21T06:47:10Z</time>
      </trkpt>
      <trkpt lat="44.45559" lon="1.09934">
        <ele>242.469269</ele>
        <time>2009-06-21T06:47:13Z</time>
      </trkpt>
      <trkpt lat="44.45566" lon="1.09929">
        <ele>242.40712</ele>
        <time>2009-06-21T06:47:16Z</time>
      </trkpt>
      <trkpt lat="44.45575" lon="1.09924">
        <ele>242.344299</ele>
        <time>2009-06-21T06:47:19Z</time>
      </trkpt>
      <trkpt lat="44.45582" lon="1.09919">
        <ele>242.287949</ele>
        <time>2009-06-21T06:47:22Z</time>
      </trkpt>
      <trkpt lat="44.45589" lon="1.09915">
        <ele>242.213455</ele>
        <time>2009-06-21T06:47:25Z</time>
      </trkpt>
      <trkpt lat="44.45596" lon="1.09911">
        <ele>242.223633</ele>
        <time>2009-06-21T06:47:28Z</time>
      </trkpt>
      <trkpt lat="44.45603" lon="1.09904">
        <ele>242.175583</ele>
        <time>2009-06-21T06:47:31Z</time>
      </trkpt>
      <trkpt lat="44.4561" lon="1.09899">
        <ele>242.216705</ele>
        <time>2009-06-21T06:47:34Z</time>
      </trkpt>
      <trkpt lat="44.45617" lon="1.09894">
        <ele>242.36322</ele>
        <time>2009-06-21T06:47:37Z</time>
      </trkpt>
      <trkpt lat="44.45624" lon="1.09888">
        <ele>242.455017</ele>
        <time>2009-06-21T06:47:40Z</time>
      </trkpt>
      <trkpt lat="44.45632" lon="1.09881">
        <ele>242.413589</ele>
        <time>2009-06-21T06:47:43Z</time>
      </trkpt>
      <trkpt lat="44.45642" lon="1.09872">
        <ele>242.185989</ele>
        <time>2009-06-21T06:47:47Z</time>
      </trkpt>
      <trkpt lat="44.45649" lon="1.09865">
        <ele>242.035538</ele>
        <time>2009-06-21T06:47:50Z</time>
      </trkpt>
      <trkpt lat="44.45656" lon="1.09859">
        <ele>241.929077</ele>
        <time>2009-06-21T06:47:53Z</time>
      </trkpt>
      <trkpt lat="44.45664" lon="1.09853">
        <ele>241.873932</ele>
        <time>2009-06-21T06:47:56Z</time>
      </trkpt>
      <trkpt lat="44.45672" lon="1.09845">
        <ele>241.715775</ele>
        <time>2009-06-21T06:47:59Z</time>
      </trkpt>
      <trkpt lat="44.4568" lon="1.09837">
        <ele>241.440186</ele>
        <time>2009-06-21T06:48:02Z</time>
      </trkpt>
      <trkpt lat="44.45688" lon="1.09829">
        <ele>241.33847</ele>
        <time>2009-06-21T06:48:05Z</time>
      </trkpt>
      <trkpt lat="44.45696" lon="1.09823">
        <ele>241.400558</ele>
        <time>2009-06-21T06:48:08Z</time>
      </trkpt>
      <trkpt lat="44.45706" lon="1.09818">
        <ele>241.627609</ele>
        <time>2009-06-21T06:48:11Z</time>
      </trkpt>
      <trkpt lat="44.45715" lon="1.09814">
        <ele>241.921188</ele>
        <time>2009-06-21T06:48:14Z</time>
      </trkpt>
      <trkpt lat="44.45722" lon="1.09808">
        <ele>241.7034</ele>
        <time>2009-06-21T06:48:17Z</time>
      </trkpt>
      <trkpt lat="44.4573" lon="1.09804">
        <ele>241.30899</ele>
        <time>2009-06-21T06:48:20Z</time>
      </trkpt>
      <trkpt lat="44.4574" lon="1.09798">
        <ele>240.867371</ele>
        <time>2009-06-21T06:48:23Z</time>
      </trkpt>
      <trkpt lat="44.45751" lon="1.09794">
        <ele>240.383453</ele>
        <time>2009-06-21T06:48:26Z</time>
      </trkpt>
      <trkpt lat="44.45762" lon="1.09789">
        <ele>239.916519</ele>
        <time>2009-06-21T06:48:29Z</time>
      </trkpt>
      <trkpt lat="44.45774" lon="1.09782">
        <ele>239.318527</ele>
        <time>2009-06-21T06:48:32Z</time>
      </trkpt>
      <trkpt lat="44.45787" lon="1.09776">
        <ele>238.616653</ele>
        <time>2009-06-21T06:48:35Z</time>
      </trkpt>
      <trkpt lat="44.45802" lon="1.09769">
        <ele>237.916748</ele>
        <time>2009-06-21T06:48:38Z</time>
      </trkpt>
      <trkpt lat="44.45818" lon="1.09764">
        <ele>237.140625</ele>
        <time>2009-06-21T06:48:41Z</time>
      </trkpt>
      <trkpt lat="44.45834" lon="1.09758">
        <ele>236.34375</ele>
        <time>2009-06-21T06:48:44Z</time>
      </trkpt>
      <trkpt lat="44.45847" lon="1.0975">
        <ele>235.616257</ele>
        <time>2009-06-21T06:48:47Z</time>
      </trkpt>
      <trkpt lat="44.45859" lon="1.09741">
        <ele>234.961868</ele>
        <time>2009-06-21T06:48:50Z</time>
      </trkpt>
      <trkpt lat="44.45869" lon="1.09728">
        <ele>234.296875</ele>
        <time>2009-06-21T06:48:53Z</time>
      </trkpt>
      <trkpt lat="44.45879" lon="1.09715">
        <ele>233.565994</ele>
        <time>2009-06-21T06:48:56Z</time>
      </trkpt>
      <trkpt lat="44.45888" lon="1.09701">
        <ele>232.914474</ele>
        <time>2009-06-21T06:48:59Z</time>
      </trkpt>
      <trkpt lat="44.45895" lon="1.09687">
        <ele>232.461441</ele>
        <time>2009-06-21T06:49:02Z</time>
      </trkpt>
      <trkpt lat="44.45901" lon="1.09672">
        <ele>232.164246</ele>
        <time>2009-06-21T06:49:05Z</time>
      </trkpt>
      <trkpt lat="44.45907" lon="1.09658">
        <ele>231.999084</ele>
        <time>2009-06-21T06:49:08Z</time>
      </trkpt>
      <trkpt lat="44.45912" lon="1.09642">
        <ele>231.850479</ele>
        <time>2009-06-21T06:49:11Z</time>
      </trkpt>
      <trkpt lat="44.45918" lon="1.09624">
        <ele>231.744156</ele>
        <time>2009-06-21T06:49:14Z</time>
      </trkpt>
      <trkpt lat="44.45924" lon="1.09605">
        <ele>231.712143</ele>
        <time>2009-06-21T06:49:17Z</time>
      </trkpt>
      <trkpt lat="44.4593" lon="1.09585">
        <ele>231.576706</ele>
        <time>2009-06-21T06:49:20Z</time>
      </trkpt>
      <trkpt lat="44.45936" lon="1.09564">
        <ele>231.397507</ele>
        <time>2009-06-21T06:49:23Z</time>
      </trkpt>
      <trkpt lat="44.45943" lon="1.09546">
        <ele>231.108383</ele>
        <time>2009-06-21T06:49:26Z</time>
      </trkpt>
      <trkpt lat="44.45949" lon="1.09528">
        <ele>230.629303</ele>
        <time>2009-06-21T06:49:29Z</time>
      </trkpt>
      <trkpt lat="44.45956" lon="1.09512">
        <ele>229.797241</ele>
        <time>2009-06-21T06:49:32Z</time>
      </trkpt>
      <trkpt lat="44.45963" lon="1.09493">
        <ele>228.980576</ele>
        <time>2009-06-21T06:49:35Z</time>
      </trkpt>
      <trkpt lat="44.45972" lon="1.09475">
        <ele>228.266006</ele>
        <time>2009-06-21T06:49:38Z</time>
      </trkpt>
      <trkpt lat="44.45984" lon="1.09458">
        <ele>227.521255</ele>
        <time>2009-06-21T06:49:41Z</time>
      </trkpt>
      <trkpt lat="44.45996" lon="1.09441">
        <ele>226.449371</ele>
        <time>2009-06-21T06:49:44Z</time>
      </trkpt>
      <trkpt lat="44.4601" lon="1.09423">
        <ele>225.25</ele>
        <time>2009-06-21T06:49:47Z</time>
      </trkpt>
      <trkpt lat="44.46024" lon="1.09403">
        <ele>224.006256</ele>
        <time>2009-06-21T06:49:50Z</time>
      </trkpt>
      <trkpt lat="44.46039" lon="1.09383">
        <ele>222.736252</ele>
        <time>2009-06-21T06:49:53Z</time>
      </trkpt>
      <trkpt lat="44.46053" lon="1.09364">
        <ele>221.540619</ele>
        <time>2009-06-21T06:49:56Z</time>
      </trkpt>
      <trkpt lat="44.46066" lon="1.09346">
        <ele>220.376877</ele>
        <time>2009-06-21T06:49:59Z</time>
      </trkpt>
      <trkpt lat="44.46079" lon="1.09329">
        <ele>219.828125</ele>
        <time>2009-06-21T06:50:02Z</time>
      </trkpt>
      <trkpt lat="44.46094" lon="1.09316">
        <ele>219.618118</ele>
        <time>2009-06-21T06:50:05Z</time>
      </trkpt>
      <trkpt lat="44.46111" lon="1.09306">
        <ele>219.469376</ele>
        <time>2009-06-21T06:50:08Z</time>
      </trkpt>
      <trkpt lat="44.46132" lon="1.093">
        <ele>219.248001</ele>
        <time>2009-06-21T06:50:11Z</time>
      </trkpt>
      <trkpt lat="44.46155" lon="1.09296">
        <ele>219.040955</ele>
        <time>2009-06-21T06:50:14Z</time>
      </trkpt>
      <trkpt lat="44.46176" lon="1.09292">
        <ele>219</ele>
        <time>2009-06-21T06:50:17Z</time>
      </trkpt>
      <trkpt lat="44.46194" lon="1.09291">
        <ele>219</ele>
        <time>2009-06-21T06:50:20Z</time>
      </trkpt>
      <trkpt lat="44.46208" lon="1.09288">
        <ele>219.013504</ele>
        <time>2009-06-21T06:50:23Z</time>
      </trkpt>
      <trkpt lat="44.4622" lon="1.09286">
        <ele>219.060593</ele>
        <time>2009-06-21T06:50:26Z</time>
      </trkpt>
      <trkpt lat="44.4623" lon="1.09283">
        <ele>219.082428</ele>
        <time>2009-06-21T06:50:29Z</time>
      </trkpt>
      <trkpt lat="44.46239" lon="1.0928">
        <ele>219.079895</ele>
        <time>2009-06-21T06:50:32Z</time>
      </trkpt>
      <trkpt lat="44.46247" lon="1.09278">
        <ele>219.067383</ele>
        <time>2009-06-21T06:50:35Z</time>
      </trkpt>
      <trkpt lat="44.46256" lon="1.09277">
        <ele>219.298752</ele>
        <time>2009-06-21T06:50:38Z</time>
      </trkpt>
      <trkpt lat="44.46264" lon="1.09275">
        <ele>219.654999</ele>
        <time>2009-06-21T06:50:41Z</time>
      </trkpt>
      <trkpt lat="44.46272" lon="1.09273">
        <ele>219.988754</ele>
        <time>2009-06-21T06:50:44Z</time>
      </trkpt>
      <trkpt lat="44.4628" lon="1.09273">
        <ele>220.321869</ele>
        <time>2009-06-21T06:50:47Z</time>
      </trkpt>
      <trkpt lat="44.46287" lon="1.09274">
        <ele>220.672501</ele>
        <time>2009-06-21T06:50:50Z</time>
      </trkpt>
      <trkpt lat="44.46294" lon="1.09271">
        <ele>220.943466</ele>
        <time>2009-06-21T06:50:53Z</time>
      </trkpt>
      <trkpt lat="44.46302" lon="1.0927">
        <ele>221.393753</ele>
        <time>2009-06-21T06:50:56Z</time>
      </trkpt>
      <trkpt lat="44.46309" lon="1.09269">
        <ele>221.870621</ele>
        <time>2009-06-21T06:50:59Z</time>
      </trkpt>
      <trkpt lat="44.46316" lon="1.09266">
        <ele>222.313751</ele>
        <time>2009-06-21T06:51:02Z</time>
      </trkpt>
      <trkpt lat="44.46322" lon="1.09263">
        <ele>222.688126</ele>
        <time>2009-06-21T06:51:05Z</time>
      </trkpt>
      <trkpt lat="44.46329" lon="1.09261">
        <ele>223.102493</ele>
        <time>2009-06-21T06:51:08Z</time>
      </trkpt>
      <trkpt lat="44.46335" lon="1.09257">
        <ele>223.459381</ele>
        <time>2009-06-21T06:51:11Z</time>
      </trkpt>
      <trkpt lat="44.46345" lon="1.09252">
        <ele>224.013123</ele>
        <time>2009-06-21T06:51:15Z</time>
      </trkpt>
      <trkpt lat="44.46351" lon="1.09249">
        <ele>224.358749</ele>
        <time>2009-06-21T06:51:18Z</time>
      </trkpt>
      <trkpt lat="44.46361" lon="1.09245">
        <ele>225.032501</ele>
        <time>2009-06-21T06:51:22Z</time>
      </trkpt>
      <trkpt lat="44.4637" lon="1.09241">
        <ele>225.521255</ele>
        <time>2009-06-21T06:51:25Z</time>
      </trkpt>
      <trkpt lat="44.46377" lon="1.09237">
        <ele>225.979996</ele>
        <time>2009-06-21T06:51:28Z</time>
      </trkpt>
      <trkpt lat="44.46385" lon="1.09233">
        <ele>226.407745</ele>
        <time>2009-06-21T06:51:31Z</time>
      </trkpt>
      <trkpt lat="44.46393" lon="1.09229">
        <ele>226.645569</ele>
        <time>2009-06-21T06:51:34Z</time>
      </trkpt>
      <trkpt lat="44.46399" lon="1.09225">
        <ele>226.853882</ele>
        <time>2009-06-21T06:51:37Z</time>
      </trkpt>
      <trkpt lat="44.46406" lon="1.09224">
        <ele>227.093719</ele>
        <time>2009-06-21T06:51:40Z</time>
      </trkpt>
      <trkpt lat="44.46416" lon="1.09219">
        <ele>227.446304</ele>
        <time>2009-06-21T06:51:44Z</time>
      </trkpt>
      <trkpt lat="44.46423" lon="1.09216">
        <ele>227.730942</ele>
        <time>2009-06-21T06:51:47Z</time>
      </trkpt>
      <trkpt lat="44.46429" lon="1.09212">
        <ele>227.995224</ele>
        <time>2009-06-21T06:51:50Z</time>
      </trkpt>
      <trkpt lat="44.46437" lon="1.09209">
        <ele>228.307419</ele>
        <time>2009-06-21T06:51:53Z</time>
      </trkpt>
      <trkpt lat="44.46445" lon="1.09208">
        <ele>228.65097</ele>
        <time>2009-06-21T06:51:56Z</time>
      </trkpt>
      <trkpt lat="44.46452" lon="1.09207">
        <ele>228.982651</ele>
        <time>2009-06-21T06:51:59Z</time>
      </trkpt>
      <trkpt lat="44.46456" lon="1.09201">
        <ele>229.172958</ele>
        <time>2009-06-21T06:52:02Z</time>
      </trkpt>
      <trkpt lat="44.46462" lon="1.09192">
        <ele>229.404312</ele>
        <time>2009-06-21T06:52:06Z</time>
      </trkpt>
      <trkpt lat="44.46468" lon="1.09184">
        <ele>229.672226</ele>
        <time>2009-06-21T06:52:09Z</time>
      </trkpt>
      <trkpt lat="44.46473" lon="1.09176">
        <ele>229.969193</ele>
        <time>2009-06-21T06:52:12Z</time>
      </trkpt>
      <trkpt lat="44.46479" lon="1.09169">
        <ele>230.196594</ele>
        <time>2009-06-21T06:52:15Z</time>
      </trkpt>
      <trkpt lat="44.46485" lon="1.09161">
        <ele>230.509857</ele>
        <time>2009-06-21T06:52:18Z</time>
      </trkpt>
      <trkpt lat="44.4649" lon="1.09153">
        <ele>230.91774</ele>
        <time>2009-06-21T06:52:21Z</time>
      </trkpt>
      <trkpt lat="44.46495" lon="1.09145">
        <ele>231.376099</ele>
        <time>2009-06-21T06:52:24Z</time>
      </trkpt>
      <trkpt lat="44.465" lon="1.09136">
        <ele>231.594452</ele>
        <time>2009-06-21T06:52:27Z</time>
      </trkpt>
      <trkpt lat="44.46505" lon="1.09127">
        <ele>231.817978</ele>
        <time>2009-06-21T06:52:30Z</time>
      </trkpt>
      <trkpt lat="44.4651" lon="1.09117">
        <ele>232.014542</ele>
        <time>2009-06-21T06:52:33Z</time>
      </trkpt>
      <trkpt lat="44.46516" lon="1.09108">
        <ele>232.255127</ele>
        <time>2009-06-21T06:52:36Z</time>
      </trkpt>
      <trkpt lat="44.46521" lon="1.09098">
        <ele>232.477539</ele>
        <time>2009-06-21T06:52:39Z</time>
      </trkpt>
      <trkpt lat="44.46526" lon="1.09089">
        <ele>232.684387</ele>
        <time>2009-06-21T06:52:42Z</time>
      </trkpt>
      <trkpt lat="44.46531" lon="1.09079">
        <ele>232.901749</ele>
        <time>2009-06-21T06:52:45Z</time>
      </trkpt>
      <trkpt lat="44.46536" lon="1.09068">
        <ele>232.987442</ele>
        <time>2009-06-21T06:52:48Z</time>
      </trkpt>
      <trkpt lat="44.46542" lon="1.09058">
        <ele>233.150055</ele>
        <time>2009-06-21T06:52:51Z</time>
      </trkpt>
      <trkpt lat="44.46548" lon="1.09048">
        <ele>233.38237</ele>
        <time>2009-06-21T06:52:54Z</time>
      </trkpt>
      <trkpt lat="44.46552" lon="1.09038">
        <ele>233.52269</ele>
        <time>2009-06-21T06:52:57Z</time>
      </trkpt>
      <trkpt lat="44.46557" lon="1.09028">
        <ele>233.731323</ele>
        <time>2009-06-21T06:53:00Z</time>
      </trkpt>
      <trkpt lat="44.46561" lon="1.09019">
        <ele>233.964325</ele>
        <time>2009-06-21T06:53:03Z</time>
      </trkpt>
      <trkpt lat="44.46566" lon="1.09009">
        <ele>234.428635</ele>
        <time>2009-06-21T06:53:06Z</time>
      </trkpt>
      <trkpt lat="44.46573" lon="1.09004">
        <ele>235.181671</ele>
        <time>2009-06-21T06:53:09Z</time>
      </trkpt>
      <trkpt lat="44.46581" lon="1.09013">
        <ele>236.089767</ele>
        <time>2009-06-21T06:53:14Z</time>
      </trkpt>
      <trkpt lat="44.46588" lon="1.09023">
        <ele>236.96521</ele>
        <time>2009-06-21T06:53:17Z</time>
      </trkpt>
      <trkpt lat="44.46594" lon="1.09029">
        <ele>237.628265</ele>
        <time>2009-06-21T06:53:20Z</time>
      </trkpt>
      <trkpt lat="44.466" lon="1.09036">
        <ele>238.277313</ele>
        <time>2009-06-21T06:53:23Z</time>
      </trkpt>
      <trkpt lat="44.46607" lon="1.09043">
        <ele>238.95462</ele>
        <time>2009-06-21T06:53:26Z</time>
      </trkpt>
      <trkpt lat="44.46613" lon="1.0905">
        <ele>239.302963</ele>
        <time>2009-06-21T06:53:29Z</time>
      </trkpt>
      <trkpt lat="44.46618" lon="1.09055">
        <ele>239.562943</ele>
        <time>2009-06-21T06:53:32Z</time>
      </trkpt>
      <trkpt lat="44.46625" lon="1.09064">
        <ele>239.839584</ele>
        <time>2009-06-21T06:53:36Z</time>
      </trkpt>
      <trkpt lat="44.4663" lon="1.09072">
        <ele>240.023788</ele>
        <time>2009-06-21T06:53:39Z</time>
      </trkpt>
      <trkpt lat="44.46637" lon="1.09081">
        <ele>240.073746</ele>
        <time>2009-06-21T06:53:43Z</time>
      </trkpt>
      <trkpt lat="44.46641" lon="1.09089">
        <ele>239.942719</ele>
        <time>2009-06-21T06:53:46Z</time>
      </trkpt>
      <trkpt lat="44.46647" lon="1.09095">
        <ele>239.879456</ele>
        <time>2009-06-21T06:53:49Z</time>
      </trkpt>
      <trkpt lat="44.46652" lon="1.09102">
        <ele>239.735565</ele>
        <time>2009-06-21T06:53:52Z</time>
      </trkpt>
      <trkpt lat="44.46657" lon="1.09108">
        <ele>239.318649</ele>
        <time>2009-06-21T06:53:55Z</time>
      </trkpt>
      <trkpt lat="44.46663" lon="1.09115">
        <ele>238.755478</ele>
        <time>2009-06-21T06:53:58Z</time>
      </trkpt>
      <trkpt lat="44.46669" lon="1.09117">
        <ele>238.441101</ele>
        <time>2009-06-21T06:54:02Z</time>
      </trkpt>
      <trkpt lat="44.46666" lon="1.09117">
        <ele>238.555023</ele>
        <time>2009-06-21T06:54:07Z</time>
      </trkpt>
      <trkpt lat="44.46667" lon="1.09119">
        <ele>238.420578</ele>
        <time>2009-06-21T06:54:13Z</time>
      </trkpt>
      <trkpt lat="44.46672" lon="1.09126">
        <ele>237.852341</ele>
        <time>2009-06-21T06:54:18Z</time>
      </trkpt>
      <trkpt lat="44.46677" lon="1.09135">
        <ele>237.127075</ele>
        <time>2009-06-21T06:54:21Z</time>
      </trkpt>
      <trkpt lat="44.46683" lon="1.0914">
        <ele>236.569748</ele>
        <time>2009-06-21T06:54:24Z</time>
      </trkpt>
      <trkpt lat="44.46687" lon="1.09146">
        <ele>236.011459</ele>
        <time>2009-06-21T06:54:28Z</time>
      </trkpt>
      <trkpt lat="44.46691" lon="1.09156">
        <ele>235.130478</ele>
        <time>2009-06-21T06:54:31Z</time>
      </trkpt>
      <trkpt lat="44.46693" lon="1.09163">
        <ele>234.606018</ele>
        <time>2009-06-21T06:54:34Z</time>
      </trkpt>
      <trkpt lat="44.46699" lon="1.09171">
        <ele>233.858932</ele>
        <time>2009-06-21T06:54:38Z</time>
      </trkpt>
      <trkpt lat="44.46715" lon="1.09185">
        <ele>231.104355</ele>
        <time>2009-06-21T06:54:41Z</time>
      </trkpt>
      <trkpt lat="44.46728" lon="1.09208">
        <ele>228.426422</ele>
        <time>2009-06-21T06:54:45Z</time>
      </trkpt>
      <trkpt lat="44.46738" lon="1.09232">
        <ele>226.467392</ele>
        <time>2009-06-21T06:54:49Z</time>
      </trkpt>
      <trkpt lat="44.46746" lon="1.09251">
        <ele>225.180511</ele>
        <time>2009-06-21T06:54:52Z</time>
      </trkpt>
      <trkpt lat="44.46753" lon="1.09265">
        <ele>224.411179</ele>
        <time>2009-06-21T06:54:55Z</time>
      </trkpt>
      <trkpt lat="44.46754" lon="1.09269">
        <ele>224.291901</ele>
        <time>2009-06-21T06:55:01Z</time>
      </trkpt>
      <trkpt lat="44.46753" lon="1.09268">
        <ele>224.372299</ele>
        <time>2009-06-21T06:55:05Z</time>
      </trkpt>
      <trkpt lat="44.46752" lon="1.09271">
        <ele>224.329666</ele>
        <time>2009-06-21T06:55:11Z</time>
      </trkpt>
      <trkpt lat="44.46751" lon="1.09273">
        <ele>224.366837</ele>
        <time>2009-06-21T06:55:20Z</time>
      </trkpt>
      <trkpt lat="44.4675" lon="1.09274">
        <ele>224.396561</ele>
        <time>2009-06-21T06:55:31Z</time>
      </trkpt>
      <trkpt lat="44.46749" lon="1.09275">
        <ele>224.424026</ele>
        <time>2009-06-21T06:55:47Z</time>
      </trkpt>
      <trkpt lat="44.4675" lon="1.09275">
        <ele>224.3741</ele>
        <time>2009-06-21T06:56:54Z</time>
      </trkpt>
      <trkpt lat="44.46751" lon="1.09276">
        <ele>224.304489</ele>
        <time>2009-06-21T06:57:06Z</time>
      </trkpt>
      <trkpt lat="44.46752" lon="1.09274">
        <ele>224.292023</ele>
        <time>2009-06-21T06:57:11Z</time>
      </trkpt>
      <trkpt lat="44.46754" lon="1.09272">
        <ele>224.253555</ele>
        <time>2009-06-21T06:57:18Z</time>
      </trkpt>
      <trkpt lat="44.46759" lon="1.09258">
        <ele>224.016174</ele>
        <time>2009-06-21T06:57:22Z</time>
      </trkpt>
      <trkpt lat="44.46765" lon="1.09242">
        <ele>223.001694</ele>
        <time>2009-06-21T06:57:25Z</time>
      </trkpt>
      <trkpt lat="44.46777" lon="1.09213">
        <ele>219.359604</ele>
        <time>2009-06-21T06:57:29Z</time>
      </trkpt>
      <trkpt lat="44.46781" lon="1.09187">
        <ele>217.402863</ele>
        <time>2009-06-21T06:57:32Z</time>
      </trkpt>
      <trkpt lat="44.46793" lon="1.09162">
        <ele>215.006744</ele>
        <time>2009-06-21T06:57:35Z</time>
      </trkpt>
      <trkpt lat="44.46808" lon="1.09133">
        <ele>210.734344</ele>
        <time>2009-06-21T06:57:38Z</time>
      </trkpt>
      <trkpt lat="44.4683" lon="1.09109">
        <ele>207.397064</ele>
        <time>2009-06-21T06:57:41Z</time>
      </trkpt>
      <trkpt lat="44.46859" lon="1.09089">
        <ele>204.5616</ele>
        <time>2009-06-21T06:57:44Z</time>
      </trkpt>
      <trkpt lat="44.4688" lon="1.09081">
        <ele>201.012421</ele>
        <time>2009-06-21T06:57:47Z</time>
      </trkpt>
      <trkpt lat="44.46873" lon="1.09091">
        <ele>201.428909</ele>
        <time>2009-06-21T06:57:50Z</time>
      </trkpt>
      <trkpt lat="44.46861" lon="1.09112">
        <ele>200.752686</ele>
        <time>2009-06-21T06:57:54Z</time>
      </trkpt>
      <trkpt lat="44.46849" lon="1.09146">
        <ele>200.115631</ele>
        <time>2009-06-21T06:57:58Z</time>
      </trkpt>
      <trkpt lat="44.46863" lon="1.09163">
        <ele>198.753754</ele>
        <time>2009-06-21T06:58:02Z</time>
      </trkpt>
      <trkpt lat="44.46905" lon="1.09156">
        <ele>189.559128</ele>
        <time>2009-06-21T06:58:06Z</time>
      </trkpt>
      <trkpt lat="44.46937" lon="1.09152">
        <ele>183.004501</ele>
        <time>2009-06-21T06:58:09Z</time>
      </trkpt>
      <trkpt lat="44.46971" lon="1.09147">
        <ele>178.888748</ele>
        <time>2009-06-21T06:58:12Z</time>
      </trkpt>
      <trkpt lat="44.47002" lon="1.09146">
        <ele>175.476883</ele>
        <time>2009-06-21T06:58:15Z</time>
      </trkpt>
      <trkpt lat="44.47032" lon="1.0916">
        <ele>174.489548</ele>
        <time>2009-06-21T06:58:18Z</time>
      </trkpt>
      <trkpt lat="44.47061" lon="1.09181">
        <ele>171.130585</ele>
        <time>2009-06-21T06:58:21Z</time>
      </trkpt>
      <trkpt lat="44.47091" lon="1.09198">
        <ele>167.891785</ele>
        <time>2009-06-21T06:58:24Z</time>
      </trkpt>
      <trkpt lat="44.47122" lon="1.0921">
        <ele>166.881882</ele>
        <time>2009-06-21T06:58:27Z</time>
      </trkpt>
      <trkpt lat="44.47156" lon="1.09218">
        <ele>164.61972</ele>
        <time>2009-06-21T06:58:30Z</time>
      </trkpt>
      <trkpt lat="44.47189" lon="1.09227">
        <ele>161.402512</ele>
        <time>2009-06-21T06:58:33Z</time>
      </trkpt>
      <trkpt lat="44.47219" lon="1.09237">
        <ele>157.681992</ele>
        <time>2009-06-21T06:58:36Z</time>
      </trkpt>
      <trkpt lat="44.47251" lon="1.09244">
        <ele>152.571121</ele>
        <time>2009-06-21T06:58:39Z</time>
      </trkpt>
      <trkpt lat="44.47282" lon="1.09252">
        <ele>146.58548</ele>
        <time>2009-06-21T06:58:42Z</time>
      </trkpt>
      <trkpt lat="44.47325" lon="1.09278">
        <ele>145.729095</ele>
        <time>2009-06-21T06:58:46Z</time>
      </trkpt>
      <trkpt lat="44.47358" lon="1.09299">
        <ele>141.160675</ele>
        <time>2009-06-21T06:58:49Z</time>
      </trkpt>
      <trkpt lat="44.47385" lon="1.0933">
        <ele>137.922913</ele>
        <time>2009-06-21T06:58:52Z</time>
      </trkpt>
      <trkpt lat="44.47411" lon="1.09363">
        <ele>133.978271</ele>
        <time>2009-06-21T06:58:55Z</time>
      </trkpt>
      <trkpt lat="44.47437" lon="1.09398">
        <ele>130.258072</ele>
        <time>2009-06-21T06:58:58Z</time>
      </trkpt>
      <trkpt lat="44.47461" lon="1.09424">
        <ele>128.348404</ele>
        <time>2009-06-21T06:59:01Z</time>
      </trkpt>
      <trkpt lat="44.47471" lon="1.09434">
        <ele>127.115639</ele>
        <time>2009-06-21T06:59:04Z</time>
      </trkpt>
      <trkpt lat="44.47478" lon="1.09444">
        <ele>126.15094</ele>
        <time>2009-06-21T06:59:07Z</time>
      </trkpt>
      <trkpt lat="44.47471" lon="1.09462">
        <ele>124.742348</ele>
        <time>2009-06-21T06:59:11Z</time>
      </trkpt>
      <trkpt lat="44.47464" lon="1.09476">
        <ele>124.020248</ele>
        <time>2009-06-21T06:59:15Z</time>
      </trkpt>
      <trkpt lat="44.4746" lon="1.09485">
        <ele>123.80204</ele>
        <time>2009-06-21T06:59:18Z</time>
      </trkpt>
      <trkpt lat="44.47456" lon="1.09494">
        <ele>123.930595</ele>
        <time>2009-06-21T06:59:21Z</time>
      </trkpt>
      <trkpt lat="44.47451" lon="1.09505">
        <ele>124.195061</ele>
        <time>2009-06-21T06:59:24Z</time>
      </trkpt>
      <trkpt lat="44.47446" lon="1.09517">
        <ele>124.535233</ele>
        <time>2009-06-21T06:59:27Z</time>
      </trkpt>
      <trkpt lat="44.47435" lon="1.09532">
        <ele>125.273933</ele>
        <time>2009-06-21T06:59:31Z</time>
      </trkpt>
      <trkpt lat="44.47426" lon="1.09549">
        <ele>125.466499</ele>
        <time>2009-06-21T06:59:35Z</time>
      </trkpt>
      <trkpt lat="44.4742" lon="1.09558">
        <ele>125.665199</ele>
        <time>2009-06-21T06:59:38Z</time>
      </trkpt>
      <trkpt lat="44.47414" lon="1.09568">
        <ele>125.958679</ele>
        <time>2009-06-21T06:59:41Z</time>
      </trkpt>
      <trkpt lat="44.47409" lon="1.09576">
        <ele>126.084686</ele>
        <time>2009-06-21T06:59:44Z</time>
      </trkpt>
      <trkpt lat="44.47405" lon="1.09582">
        <ele>126.200966</ele>
        <time>2009-06-21T06:59:47Z</time>
      </trkpt>
      <trkpt lat="44.47404" lon="1.09592">
        <ele>125.542557</ele>
        <time>2009-06-21T06:59:50Z</time>
      </trkpt>
      <trkpt lat="44.47406" lon="1.09608">
        <ele>124.081284</ele>
        <time>2009-06-21T06:59:53Z</time>
      </trkpt>
      <trkpt lat="44.47409" lon="1.09621">
        <ele>122.875938</ele>
        <time>2009-06-21T06:59:56Z</time>
      </trkpt>
      <trkpt lat="44.47414" lon="1.09631">
        <ele>123.164124</ele>
        <time>2009-06-21T06:59:59Z</time>
      </trkpt>
      <trkpt lat="44.47419" lon="1.09638">
        <ele>123.99704</ele>
        <time>2009-06-21T07:00:02Z</time>
      </trkpt>
      <trkpt lat="44.47425" lon="1.09643">
        <ele>124.843758</ele>
        <time>2009-06-21T07:00:05Z</time>
      </trkpt>
      <trkpt lat="44.47428" lon="1.09647">
        <ele>125.795059</ele>
        <time>2009-06-21T07:00:08Z</time>
      </trkpt>
      <trkpt lat="44.47426" lon="1.09654">
        <ele>126.612167</ele>
        <time>2009-06-21T07:00:11Z</time>
      </trkpt>
      <trkpt lat="44.47422" lon="1.0966">
        <ele>127.0634</ele>
        <time>2009-06-21T07:00:15Z</time>
      </trkpt>
      <trkpt lat="44.47417" lon="1.09666">
        <ele>127.441299</ele>
        <time>2009-06-21T07:00:19Z</time>
      </trkpt>
      <trkpt lat="44.47413" lon="1.0967">
        <ele>127.667603</ele>
        <time>2009-06-21T07:00:22Z</time>
      </trkpt>
      <trkpt lat="44.4741" lon="1.09674">
        <ele>127.76619</ele>
        <time>2009-06-21T07:00:26Z</time>
      </trkpt>
      <trkpt lat="44.47406" lon="1.09679">
        <ele>127.790253</ele>
        <time>2009-06-21T07:00:29Z</time>
      </trkpt>
      <trkpt lat="44.47402" lon="1.09684">
        <ele>127.714996</ele>
        <time>2009-06-21T07:00:32Z</time>
      </trkpt>
      <trkpt lat="44.47398" lon="1.09689">
        <ele>127.891495</ele>
        <time>2009-06-21T07:00:35Z</time>
      </trkpt>
      <trkpt lat="44.47393" lon="1.09695">
        <ele>128.759171</ele>
        <time>2009-06-21T07:00:39Z</time>
      </trkpt>
      <trkpt lat="44.47389" lon="1.09699">
        <ele>129.129349</ele>
        <time>2009-06-21T07:00:42Z</time>
      </trkpt>
      <trkpt lat="44.47385" lon="1.09704">
        <ele>129.515228</ele>
        <time>2009-06-21T07:00:45Z</time>
      </trkpt>
      <trkpt lat="44.4738" lon="1.09708">
        <ele>129.7155</ele>
        <time>2009-06-21T07:00:48Z</time>
      </trkpt>
      <trkpt lat="44.47375" lon="1.09713">
        <ele>130.288849</ele>
        <time>2009-06-21T07:00:51Z</time>
      </trkpt>
      <trkpt lat="44.4737" lon="1.09719">
        <ele>130.921097</ele>
        <time>2009-06-21T07:00:54Z</time>
      </trkpt>
      <trkpt lat="44.47365" lon="1.09723">
        <ele>131.38092</ele>
        <time>2009-06-21T07:00:57Z</time>
      </trkpt>
      <trkpt lat="44.4736" lon="1.09729">
        <ele>131.700653</ele>
        <time>2009-06-21T07:01:00Z</time>
      </trkpt>
      <trkpt lat="44.47355" lon="1.09734">
        <ele>131.946823</ele>
        <time>2009-06-21T07:01:03Z</time>
      </trkpt>
      <trkpt lat="44.47351" lon="1.09738">
        <ele>132.004929</ele>
        <time>2009-06-21T07:01:06Z</time>
      </trkpt>
      <trkpt lat="44.47347" lon="1.09742">
        <ele>131.920441</ele>
        <time>2009-06-21T07:01:09Z</time>
      </trkpt>
      <trkpt lat="44.47342" lon="1.09747">
        <ele>131.789505</ele>
        <time>2009-06-21T07:01:12Z</time>
      </trkpt>
      <trkpt lat="44.47339" lon="1.09751">
        <ele>131.716446</ele>
        <time>2009-06-21T07:01:15Z</time>
      </trkpt>
      <trkpt lat="44.47336" lon="1.09755">
        <ele>131.72525</ele>
        <time>2009-06-21T07:01:18Z</time>
      </trkpt>
      <trkpt lat="44.47331" lon="1.09758">
        <ele>131.948044</ele>
        <time>2009-06-21T07:01:21Z</time>
      </trkpt>
      <trkpt lat="44.47325" lon="1.09762">
        <ele>132.180161</ele>
        <time>2009-06-21T07:01:24Z</time>
      </trkpt>
      <trkpt lat="44.47319" lon="1.09766">
        <ele>132.327637</ele>
        <time>2009-06-21T07:01:27Z</time>
      </trkpt>
      <trkpt lat="44.47314" lon="1.09769">
        <ele>132.341934</ele>
        <time>2009-06-21T07:01:30Z</time>
      </trkpt>
      <trkpt lat="44.47309" lon="1.09774">
        <ele>132.281555</ele>
        <time>2009-06-21T07:01:33Z</time>
      </trkpt>
      <trkpt lat="44.47303" lon="1.09782">
        <ele>132.604431</ele>
        <time>2009-06-21T07:01:37Z</time>
      </trkpt>
      <trkpt lat="44.47301" lon="1.09789">
        <ele>132.847321</ele>
        <time>2009-06-21T07:01:40Z</time>
      </trkpt>
      <trkpt lat="44.47298" lon="1.09794">
        <ele>132.897705</ele>
        <time>2009-06-21T07:01:43Z</time>
      </trkpt>
      <trkpt lat="44.47292" lon="1.09798">
        <ele>132.142853</ele>
        <time>2009-06-21T07:01:46Z</time>
      </trkpt>
      <trkpt lat="44.47286" lon="1.09799">
        <ele>132.211777</ele>
        <time>2009-06-21T07:01:49Z</time>
      </trkpt>
      <trkpt lat="44.47278" lon="1.09801">
        <ele>132.801666</ele>
        <time>2009-06-21T07:01:52Z</time>
      </trkpt>
      <trkpt lat="44.4727" lon="1.09802">
        <ele>133.355713</ele>
        <time>2009-06-21T07:01:55Z</time>
      </trkpt>
      <trkpt lat="44.47265" lon="1.09803">
        <ele>133.7957</ele>
        <time>2009-06-21T07:01:58Z</time>
      </trkpt>
      <trkpt lat="44.4726" lon="1.09803">
        <ele>134.043686</ele>
        <time>2009-06-21T07:02:01Z</time>
      </trkpt>
      <trkpt lat="44.47258" lon="1.09792">
        <ele>133.334579</ele>
        <time>2009-06-21T07:02:05Z</time>
      </trkpt>
      <trkpt lat="44.47253" lon="1.0979">
        <ele>133.421768</ele>
        <time>2009-06-21T07:02:08Z</time>
      </trkpt>
      <trkpt lat="44.47246" lon="1.09792">
        <ele>133.994385</ele>
        <time>2009-06-21T07:02:12Z</time>
      </trkpt>
      <trkpt lat="44.47243" lon="1.09792">
        <ele>134.282455</ele>
        <time>2009-06-21T07:02:16Z</time>
      </trkpt>
      <trkpt lat="44.47241" lon="1.09795">
        <ele>134.845215</ele>
        <time>2009-06-21T07:02:21Z</time>
      </trkpt>
      <trkpt lat="44.47239" lon="1.09798">
        <ele>135.331039</ele>
        <time>2009-06-21T07:02:25Z</time>
      </trkpt>
      <trkpt lat="44.47239" lon="1.09801">
        <ele>135.585403</ele>
        <time>2009-06-21T07:02:30Z</time>
      </trkpt>
      <trkpt lat="44.47239" lon="1.09803">
        <ele>135.795715</ele>
        <time>2009-06-21T07:02:35Z</time>
      </trkpt>
      <trkpt lat="44.47233" lon="1.09802">
        <ele>136.449707</ele>
        <time>2009-06-21T07:02:38Z</time>
      </trkpt>
      <trkpt lat="44.4723" lon="1.09803">
        <ele>137.042007</ele>
        <time>2009-06-21T07:02:42Z</time>
      </trkpt>
      <trkpt lat="44.47228" lon="1.09803">
        <ele>137.244614</ele>
        <time>2009-06-21T07:02:45Z</time>
      </trkpt>
      <trkpt lat="44.47222" lon="1.09799">
        <ele>137.547409</ele>
        <time>2009-06-21T07:02:49Z</time>
      </trkpt>
      <trkpt lat="44.47215" lon="1.09796">
        <ele>138.107605</ele>
        <time>2009-06-21T07:02:53Z</time>
      </trkpt>
      <trkpt lat="44.47207" lon="1.09793">
        <ele>138.672653</ele>
        <time>2009-06-21T07:02:57Z</time>
      </trkpt>
      <trkpt lat="44.47201" lon="1.0979">
        <ele>139.081146</ele>
        <time>2009-06-21T07:03:00Z</time>
      </trkpt>
      <trkpt lat="44.47192" lon="1.09786">
        <ele>139.404037</ele>
        <time>2009-06-21T07:03:04Z</time>
      </trkpt>
      <trkpt lat="44.47186" lon="1.09782">
        <ele>139.599335</ele>
        <time>2009-06-21T07:03:07Z</time>
      </trkpt>
      <trkpt lat="44.4718" lon="1.0978">
        <ele>139.842911</ele>
        <time>2009-06-21T07:03:10Z</time>
      </trkpt>
      <trkpt lat="44.47174" lon="1.09777">
        <ele>139.986725</ele>
        <time>2009-06-21T07:03:13Z</time>
      </trkpt>
      <trkpt lat="44.47167" lon="1.09773">
        <ele>140.107285</ele>
        <time>2009-06-21T07:03:16Z</time>
      </trkpt>
      <trkpt lat="44.4716" lon="1.09769">
        <ele>140.147736</ele>
        <time>2009-06-21T07:03:19Z</time>
      </trkpt>
      <trkpt lat="44.47153" lon="1.09765">
        <ele>139.867844</ele>
        <time>2009-06-21T07:03:22Z</time>
      </trkpt>
      <trkpt lat="44.47144" lon="1.0976">
        <ele>139.299835</ele>
        <time>2009-06-21T07:03:25Z</time>
      </trkpt>
      <trkpt lat="44.47133" lon="1.09758">
        <ele>139.279816</ele>
        <time>2009-06-21T07:03:28Z</time>
      </trkpt>
      <trkpt lat="44.47125" lon="1.09756">
        <ele>139.216278</ele>
        <time>2009-06-21T07:03:31Z</time>
      </trkpt>
      <trkpt lat="44.47119" lon="1.09753">
        <ele>139.164871</ele>
        <time>2009-06-21T07:03:34Z</time>
      </trkpt>
      <trkpt lat="44.47113" lon="1.09751">
        <ele>139.109726</ele>
        <time>2009-06-21T07:03:37Z</time>
      </trkpt>
      <trkpt lat="44.47106" lon="1.09748">
        <ele>139.011688</ele>
        <time>2009-06-21T07:03:40Z</time>
      </trkpt>
      <trkpt lat="44.47101" lon="1.09746">
        <ele>139.205917</ele>
        <time>2009-06-21T07:03:43Z</time>
      </trkpt>
      <trkpt lat="44.47095" lon="1.09745">
        <ele>139.466431</ele>
        <time>2009-06-21T07:03:46Z</time>
      </trkpt>
      <trkpt lat="44.47088" lon="1.09743">
        <ele>139.728806</ele>
        <time>2009-06-21T07:03:49Z</time>
      </trkpt>
      <trkpt lat="44.47081" lon="1.09742">
        <ele>140.119202</ele>
        <time>2009-06-21T07:03:52Z</time>
      </trkpt>
      <trkpt lat="44.47074" lon="1.0974">
        <ele>140.258499</ele>
        <time>2009-06-21T07:03:55Z</time>
      </trkpt>
      <trkpt lat="44.47067" lon="1.09738">
        <ele>140.337646</ele>
        <time>2009-06-21T07:03:58Z</time>
      </trkpt>
      <trkpt lat="44.4706" lon="1.09733">
        <ele>140.050797</ele>
        <time>2009-06-21T07:04:01Z</time>
      </trkpt>
      <trkpt lat="44.47052" lon="1.09729">
        <ele>139.830719</ele>
        <time>2009-06-21T07:04:04Z</time>
      </trkpt>
      <trkpt lat="44.47045" lon="1.09726">
        <ele>139.891418</ele>
        <time>2009-06-21T07:04:07Z</time>
      </trkpt>
      <trkpt lat="44.47038" lon="1.09723">
        <ele>139.853241</ele>
        <time>2009-06-21T07:04:10Z</time>
      </trkpt>
      <trkpt lat="44.47031" lon="1.0972">
        <ele>139.713898</ele>
        <time>2009-06-21T07:04:13Z</time>
      </trkpt>
      <trkpt lat="44.47024" lon="1.09716">
        <ele>139.562668</ele>
        <time>2009-06-21T07:04:16Z</time>
      </trkpt>
      <trkpt lat="44.47018" lon="1.09713">
        <ele>139.394073</ele>
        <time>2009-06-21T07:04:19Z</time>
      </trkpt>
      <trkpt lat="44.47012" lon="1.0971">
        <ele>139.272873</ele>
        <time>2009-06-21T07:04:23Z</time>
      </trkpt>
      <trkpt lat="44.47002" lon="1.09706">
        <ele>139.197876</ele>
        <time>2009-06-21T07:04:26Z</time>
      </trkpt>
      <trkpt lat="44.46995" lon="1.09705">
        <ele>139.328522</ele>
        <time>2009-06-21T07:04:29Z</time>
      </trkpt>
      <trkpt lat="44.46988" lon="1.09703">
        <ele>139.430862</ele>
        <time>2009-06-21T07:04:32Z</time>
      </trkpt>
      <trkpt lat="44.46981" lon="1.09699">
        <ele>139.14595</ele>
        <time>2009-06-21T07:04:35Z</time>
      </trkpt>
      <trkpt lat="44.46974" lon="1.09696">
        <ele>139.056671</ele>
        <time>2009-06-21T07:04:38Z</time>
      </trkpt>
      <trkpt lat="44.46967" lon="1.09692">
        <ele>139.372879</ele>
        <time>2009-06-21T07:04:41Z</time>
      </trkpt>
      <trkpt lat="44.4696" lon="1.09689">
        <ele>139.6064</ele>
        <time>2009-06-21T07:04:44Z</time>
      </trkpt>
      <trkpt lat="44.46953" lon="1.09685">
        <ele>139.78096</ele>
        <time>2009-06-21T07:04:47Z</time>
      </trkpt>
      <trkpt lat="44.46945" lon="1.09684">
        <ele>139.94635</ele>
        <time>2009-06-21T07:04:50Z</time>
      </trkpt>
      <trkpt lat="44.46937" lon="1.09682">
        <ele>140.083618</ele>
        <time>2009-06-21T07:04:54Z</time>
      </trkpt>
      <trkpt lat="44.46929" lon="1.09682">
        <ele>140.236908</ele>
        <time>2009-06-21T07:04:58Z</time>
      </trkpt>
      <trkpt lat="44.46924" lon="1.09681">
        <ele>140.294434</ele>
        <time>2009-06-21T07:05:01Z</time>
      </trkpt>
      <trkpt lat="44.46917" lon="1.09681">
        <ele>140.426208</ele>
        <time>2009-06-21T07:05:05Z</time>
      </trkpt>
      <trkpt lat="44.46912" lon="1.09683">
        <ele>140.561813</ele>
        <time>2009-06-21T07:05:08Z</time>
      </trkpt>
      <trkpt lat="44.46904" lon="1.09681">
        <ele>140.630371</ele>
        <time>2009-06-21T07:05:12Z</time>
      </trkpt>
      <trkpt lat="44.46899" lon="1.09682">
        <ele>140.754898</ele>
        <time>2009-06-21T07:05:15Z</time>
      </trkpt>
      <trkpt lat="44.46891" lon="1.09684">
        <ele>140.889267</ele>
        <time>2009-06-21T07:05:19Z</time>
      </trkpt>
      <trkpt lat="44.46885" lon="1.09684">
        <ele>140.993057</ele>
        <time>2009-06-21T07:05:22Z</time>
      </trkpt>
      <trkpt lat="44.4688" lon="1.09686">
        <ele>140.979752</ele>
        <time>2009-06-21T07:05:25Z</time>
      </trkpt>
      <trkpt lat="44.46874" lon="1.09688">
        <ele>140.929474</ele>
        <time>2009-06-21T07:05:28Z</time>
      </trkpt>
      <trkpt lat="44.46868" lon="1.09691">
        <ele>140.8284</ele>
        <time>2009-06-21T07:05:31Z</time>
      </trkpt>
      <trkpt lat="44.46862" lon="1.09693">
        <ele>140.701248</ele>
        <time>2009-06-21T07:05:34Z</time>
      </trkpt>
      <trkpt lat="44.46857" lon="1.09696">
        <ele>140.524521</ele>
        <time>2009-06-21T07:05:37Z</time>
      </trkpt>
      <trkpt lat="44.4685" lon="1.097">
        <ele>140.257324</ele>
        <time>2009-06-21T07:05:40Z</time>
      </trkpt>
      <trkpt lat="44.46843" lon="1.09704">
        <ele>140.986801</ele>
        <time>2009-06-21T07:05:43Z</time>
      </trkpt>
      <trkpt lat="44.46836" lon="1.09709">
        <ele>142.051392</ele>
        <time>2009-06-21T07:05:46Z</time>
      </trkpt>
      <trkpt lat="44.4683" lon="1.09713">
        <ele>142.664902</ele>
        <time>2009-06-21T07:05:49Z</time>
      </trkpt>
      <trkpt lat="44.46827" lon="1.09717">
        <ele>143.278091</ele>
        <time>2009-06-21T07:05:52Z</time>
      </trkpt>
      <trkpt lat="44.46822" lon="1.09724">
        <ele>144.019287</ele>
        <time>2009-06-21T07:05:56Z</time>
      </trkpt>
      <trkpt lat="44.46818" lon="1.09729">
        <ele>144.446899</ele>
        <time>2009-06-21T07:05:59Z</time>
      </trkpt>
      <trkpt lat="44.46812" lon="1.09737">
        <ele>144.684753</ele>
        <time>2009-06-21T07:06:03Z</time>
      </trkpt>
      <trkpt lat="44.46808" lon="1.09743">
        <ele>144.883926</ele>
        <time>2009-06-21T07:06:06Z</time>
      </trkpt>
      <trkpt lat="44.46805" lon="1.0975">
        <ele>145.05574</ele>
        <time>2009-06-21T07:06:09Z</time>
      </trkpt>
      <trkpt lat="44.46801" lon="1.09759">
        <ele>145.02095</ele>
        <time>2009-06-21T07:06:13Z</time>
      </trkpt>
      <trkpt lat="44.46797" lon="1.09766">
        <ele>144.889435</ele>
        <time>2009-06-21T07:06:16Z</time>
      </trkpt>
      <trkpt lat="44.46795" lon="1.09774">
        <ele>145.996017</ele>
        <time>2009-06-21T07:06:19Z</time>
      </trkpt>
      <trkpt lat="44.46791" lon="1.09783">
        <ele>147.506912</ele>
        <time>2009-06-21T07:06:23Z</time>
      </trkpt>
      <trkpt lat="44.46788" lon="1.09789">
        <ele>148.397171</ele>
        <time>2009-06-21T07:06:26Z</time>
      </trkpt>
      <trkpt lat="44.46783" lon="1.09797">
        <ele>149.071121</ele>
        <time>2009-06-21T07:06:29Z</time>
      </trkpt>
      <trkpt lat="44.46779" lon="1.09804">
        <ele>149.470154</ele>
        <time>2009-06-21T07:06:32Z</time>
      </trkpt>
      <trkpt lat="44.46775" lon="1.09812">
        <ele>149.649185</ele>
        <time>2009-06-21T07:06:36Z</time>
      </trkpt>
      <trkpt lat="44.46771" lon="1.09819">
        <ele>149.374878</ele>
        <time>2009-06-21T07:06:39Z</time>
      </trkpt>
      <trkpt lat="44.46767" lon="1.09829">
        <ele>149.147141</ele>
        <time>2009-06-21T07:06:43Z</time>
      </trkpt>
      <trkpt lat="44.46764" lon="1.09837">
        <ele>149.32309</ele>
        <time>2009-06-21T07:06:46Z</time>
      </trkpt>
      <trkpt lat="44.4676" lon="1.09846">
        <ele>149.212997</ele>
        <time>2009-06-21T07:06:50Z</time>
      </trkpt>
      <trkpt lat="44.46758" lon="1.09853">
        <ele>149.105209</ele>
        <time>2009-06-21T07:06:53Z</time>
      </trkpt>
      <trkpt lat="44.46754" lon="1.09861">
        <ele>148.591141</ele>
        <time>2009-06-21T07:06:56Z</time>
      </trkpt>
      <trkpt lat="44.46749" lon="1.09872">
        <ele>148.85968</ele>
        <time>2009-06-21T07:07:00Z</time>
      </trkpt>
      <trkpt lat="44.46747" lon="1.09882">
        <ele>149.848175</ele>
        <time>2009-06-21T07:07:03Z</time>
      </trkpt>
      <trkpt lat="44.46743" lon="1.09891">
        <ele>150.906387</ele>
        <time>2009-06-21T07:07:06Z</time>
      </trkpt>
      <trkpt lat="44.46739" lon="1.09899">
        <ele>152.094284</ele>
        <time>2009-06-21T07:07:09Z</time>
      </trkpt>
      <trkpt lat="44.46738" lon="1.09907">
        <ele>152.946671</ele>
        <time>2009-06-21T07:07:12Z</time>
      </trkpt>
      <trkpt lat="44.46736" lon="1.09915">
        <ele>153.753448</ele>
        <time>2009-06-21T07:07:15Z</time>
      </trkpt>
      <trkpt lat="44.46733" lon="1.09922">
        <ele>154.246399</ele>
        <time>2009-06-21T07:07:18Z</time>
      </trkpt>
      <trkpt lat="44.46731" lon="1.09932">
        <ele>154.821442</ele>
        <time>2009-06-21T07:07:22Z</time>
      </trkpt>
      <trkpt lat="44.46727" lon="1.09939">
        <ele>154.635712</ele>
        <time>2009-06-21T07:07:25Z</time>
      </trkpt>
      <trkpt lat="44.46724" lon="1.09948">
        <ele>154.446915</ele>
        <time>2009-06-21T07:07:28Z</time>
      </trkpt>
      <trkpt lat="44.46722" lon="1.09958">
        <ele>154.291245</ele>
        <time>2009-06-21T07:07:31Z</time>
      </trkpt>
      <trkpt lat="44.4672" lon="1.09966">
        <ele>154.210754</ele>
        <time>2009-06-21T07:07:34Z</time>
      </trkpt>
      <trkpt lat="44.46719" lon="1.09973">
        <ele>154.18251</ele>
        <time>2009-06-21T07:07:37Z</time>
      </trkpt>
      <trkpt lat="44.46717" lon="1.09983">
        <ele>153.840378</ele>
        <time>2009-06-21T07:07:40Z</time>
      </trkpt>
      <trkpt lat="44.46716" lon="1.09992">
        <ele>153.911407</ele>
        <time>2009-06-21T07:07:44Z</time>
      </trkpt>
      <trkpt lat="44.46718" lon="1.10007">
        <ele>154.647903</ele>
        <time>2009-06-21T07:07:49Z</time>
      </trkpt>
      <trkpt lat="44.46716" lon="1.10016">
        <ele>154.33873</ele>
        <time>2009-06-21T07:07:53Z</time>
      </trkpt>
      <trkpt lat="44.46716" lon="1.10025">
        <ele>154.601807</ele>
        <time>2009-06-21T07:07:56Z</time>
      </trkpt>
      <trkpt lat="44.46714" lon="1.10032">
        <ele>154.349304</ele>
        <time>2009-06-21T07:07:59Z</time>
      </trkpt>
      <trkpt lat="44.46714" lon="1.10043">
        <ele>154.688492</ele>
        <time>2009-06-21T07:08:03Z</time>
      </trkpt>
      <trkpt lat="44.46712" lon="1.1005">
        <ele>154.54599</ele>
        <time>2009-06-21T07:08:07Z</time>
      </trkpt>
      <trkpt lat="44.4671" lon="1.10062">
        <ele>154.438904</ele>
        <time>2009-06-21T07:08:11Z</time>
      </trkpt>
      <trkpt lat="44.46712" lon="1.10074">
        <ele>155.480606</ele>
        <time>2009-06-21T07:08:15Z</time>
      </trkpt>
      <trkpt lat="44.46712" lon="1.10085">
        <ele>155.895233</ele>
        <time>2009-06-21T07:08:19Z</time>
      </trkpt>
      <trkpt lat="44.46712" lon="1.10092">
        <ele>156.188873</ele>
        <time>2009-06-21T07:08:22Z</time>
      </trkpt>
      <trkpt lat="44.46712" lon="1.10101">
        <ele>156.389053</ele>
        <time>2009-06-21T07:08:26Z</time>
      </trkpt>
      <trkpt lat="44.46713" lon="1.10108">
        <ele>156.637054</ele>
        <time>2009-06-21T07:08:29Z</time>
      </trkpt>
      <trkpt lat="44.46713" lon="1.10118">
        <ele>156.936356</ele>
        <time>2009-06-21T07:08:32Z</time>
      </trkpt>
      <trkpt lat="44.46714" lon="1.10128">
        <ele>157.261322</ele>
        <time>2009-06-21T07:08:35Z</time>
      </trkpt>
      <trkpt lat="44.46714" lon="1.10138">
        <ele>157.447525</ele>
        <time>2009-06-21T07:08:38Z</time>
      </trkpt>
      <trkpt lat="44.46713" lon="1.10146">
        <ele>157.553268</ele>
        <time>2009-06-21T07:08:41Z</time>
      </trkpt>
      <trkpt lat="44.46713" lon="1.10153">
        <ele>157.667725</ele>
        <time>2009-06-21T07:08:44Z</time>
      </trkpt>
      <trkpt lat="44.46712" lon="1.10162">
        <ele>157.846832</ele>
        <time>2009-06-21T07:08:48Z</time>
      </trkpt>
      <trkpt lat="44.46712" lon="1.10168">
        <ele>158.006561</ele>
        <time>2009-06-21T07:08:51Z</time>
      </trkpt>
      <trkpt lat="44.46711" lon="1.10174">
        <ele>158.062912</ele>
        <time>2009-06-21T07:08:54Z</time>
      </trkpt>
      <trkpt lat="44.46709" lon="1.1018">
        <ele>158.286987</ele>
        <time>2009-06-21T07:08:57Z</time>
      </trkpt>
      <trkpt lat="44.46708" lon="1.10187">
        <ele>158.565475</ele>
        <time>2009-06-21T07:09:00Z</time>
      </trkpt>
      <trkpt lat="44.46706" lon="1.10192">
        <ele>158.813873</ele>
        <time>2009-06-21T07:09:03Z</time>
      </trkpt>
      <trkpt lat="44.46703" lon="1.10199">
        <ele>159.069366</ele>
        <time>2009-06-21T07:09:06Z</time>
      </trkpt>
      <trkpt lat="44.46699" lon="1.10203">
        <ele>159.237961</ele>
        <time>2009-06-21T07:09:09Z</time>
      </trkpt>
      <trkpt lat="44.46696" lon="1.10207">
        <ele>159.549194</ele>
        <time>2009-06-21T07:09:12Z</time>
      </trkpt>
      <trkpt lat="44.46692" lon="1.10213">
        <ele>160.333435</ele>
        <time>2009-06-21T07:09:16Z</time>
      </trkpt>
      <trkpt lat="44.46687" lon="1.10219">
        <ele>161.106552</ele>
        <time>2009-06-21T07:09:21Z</time>
      </trkpt>
      <trkpt lat="44.46684" lon="1.10227">
        <ele>161.965942</ele>
        <time>2009-06-21T07:09:26Z</time>
      </trkpt>
      <trkpt lat="44.46682" lon="1.10232">
        <ele>162.517334</ele>
        <time>2009-06-21T07:09:29Z</time>
      </trkpt>
      <trkpt lat="44.46679" lon="1.10237">
        <ele>162.93782</ele>
        <time>2009-06-21T07:09:32Z</time>
      </trkpt>
      <trkpt lat="44.46674" lon="1.10244">
        <ele>163.39859</ele>
        <time>2009-06-21T07:09:36Z</time>
      </trkpt>
      <trkpt lat="44.46668" lon="1.1025">
        <ele>163.611511</ele>
        <time>2009-06-21T07:09:40Z</time>
      </trkpt>
      <trkpt lat="44.46664" lon="1.10254">
        <ele>163.948853</ele>
        <time>2009-06-21T07:09:43Z</time>
      </trkpt>
      <trkpt lat="44.4666" lon="1.1026">
        <ele>164.665665</ele>
        <time>2009-06-21T07:09:47Z</time>
      </trkpt>
      <trkpt lat="44.46652" lon="1.10264">
        <ele>165.212494</ele>
        <time>2009-06-21T07:09:51Z</time>
      </trkpt>
      <trkpt lat="44.4665" lon="1.10271">
        <ele>165.705566</ele>
        <time>2009-06-21T07:09:55Z</time>
      </trkpt>
      <trkpt lat="44.46648" lon="1.10276">
        <ele>166.911316</ele>
        <time>2009-06-21T07:09:59Z</time>
      </trkpt>
      <trkpt lat="44.46646" lon="1.10281">
        <ele>167.94841</ele>
        <time>2009-06-21T07:10:02Z</time>
      </trkpt>
      <trkpt lat="44.46643" lon="1.10288">
        <ele>169.089722</ele>
        <time>2009-06-21T07:10:06Z</time>
      </trkpt>
      <trkpt lat="44.46639" lon="1.10294">
        <ele>169.990799</ele>
        <time>2009-06-21T07:10:10Z</time>
      </trkpt>
      <trkpt lat="44.46636" lon="1.10303">
        <ele>171.204178</ele>
        <time>2009-06-21T07:10:15Z</time>
      </trkpt>
      <trkpt lat="44.46632" lon="1.10309">
        <ele>171.756088</ele>
        <time>2009-06-21T07:10:19Z</time>
      </trkpt>
      <trkpt lat="44.46629" lon="1.10316">
        <ele>172.349777</ele>
        <time>2009-06-21T07:10:22Z</time>
      </trkpt>
      <trkpt lat="44.46628" lon="1.10323">
        <ele>173.10376</ele>
        <time>2009-06-21T07:10:25Z</time>
      </trkpt>
      <trkpt lat="44.46626" lon="1.10329">
        <ele>173.4673</ele>
        <time>2009-06-21T07:10:28Z</time>
      </trkpt>
      <trkpt lat="44.46622" lon="1.10336">
        <ele>173.849503</ele>
        <time>2009-06-21T07:10:32Z</time>
      </trkpt>
      <trkpt lat="44.4662" lon="1.10341">
        <ele>174.874924</ele>
        <time>2009-06-21T07:10:35Z</time>
      </trkpt>
      <trkpt lat="44.46616" lon="1.10346">
        <ele>175.911636</ele>
        <time>2009-06-21T07:10:39Z</time>
      </trkpt>
      <trkpt lat="44.46613" lon="1.1035">
        <ele>176.430679</ele>
        <time>2009-06-21T07:10:42Z</time>
      </trkpt>
      <trkpt lat="44.4661" lon="1.10355">
        <ele>177.23938</ele>
        <time>2009-06-21T07:10:45Z</time>
      </trkpt>
      <trkpt lat="44.46607" lon="1.1036">
        <ele>177.863098</ele>
        <time>2009-06-21T07:10:49Z</time>
      </trkpt>
      <trkpt lat="44.46604" lon="1.10364">
        <ele>178.204453</ele>
        <time>2009-06-21T07:10:53Z</time>
      </trkpt>
      <trkpt lat="44.466" lon="1.10371">
        <ele>178.766388</ele>
        <time>2009-06-21T07:10:56Z</time>
      </trkpt>
      <trkpt lat="44.46598" lon="1.10376">
        <ele>179.08786</ele>
        <time>2009-06-21T07:10:59Z</time>
      </trkpt>
      <trkpt lat="44.46593" lon="1.10381">
        <ele>178.946991</ele>
        <time>2009-06-21T07:11:03Z</time>
      </trkpt>
      <trkpt lat="44.4659" lon="1.10387">
        <ele>179.127182</ele>
        <time>2009-06-21T07:11:06Z</time>
      </trkpt>
      <trkpt lat="44.46587" lon="1.10392">
        <ele>178.915466</ele>
        <time>2009-06-21T07:11:09Z</time>
      </trkpt>
      <trkpt lat="44.46583" lon="1.10398">
        <ele>178.758072</ele>
        <time>2009-06-21T07:11:13Z</time>
      </trkpt>
      <trkpt lat="44.46577" lon="1.10404">
        <ele>178.745071</ele>
        <time>2009-06-21T07:11:17Z</time>
      </trkpt>
      <trkpt lat="44.46574" lon="1.10409">
        <ele>179.9655</ele>
        <time>2009-06-21T07:11:21Z</time>
      </trkpt>
      <trkpt lat="44.4657" lon="1.10416">
        <ele>181.09697</ele>
        <time>2009-06-21T07:11:25Z</time>
      </trkpt>
      <trkpt lat="44.46567" lon="1.1042">
        <ele>181.707199</ele>
        <time>2009-06-21T07:11:28Z</time>
      </trkpt>
      <trkpt lat="44.46563" lon="1.10424">
        <ele>182.173798</ele>
        <time>2009-06-21T07:11:31Z</time>
      </trkpt>
      <trkpt lat="44.46556" lon="1.10427">
        <ele>181.89476</ele>
        <time>2009-06-21T07:11:36Z</time>
      </trkpt>
      <trkpt lat="44.4655" lon="1.10434">
        <ele>182.038681</ele>
        <time>2009-06-21T07:11:40Z</time>
      </trkpt>
      <trkpt lat="44.46545" lon="1.10438">
        <ele>181.814758</ele>
        <time>2009-06-21T07:11:44Z</time>
      </trkpt>
      <trkpt lat="44.46542" lon="1.10445">
        <ele>181.8591</ele>
        <time>2009-06-21T07:11:48Z</time>
      </trkpt>
      <trkpt lat="44.46539" lon="1.1045">
        <ele>181.751572</ele>
        <time>2009-06-21T07:11:51Z</time>
      </trkpt>
      <trkpt lat="44.46536" lon="1.10454">
        <ele>181.295792</ele>
        <time>2009-06-21T07:11:54Z</time>
      </trkpt>
      <trkpt lat="44.46531" lon="1.1046">
        <ele>180.98735</ele>
        <time>2009-06-21T07:11:58Z</time>
      </trkpt>
      <trkpt lat="44.46527" lon="1.10465">
        <ele>182.117859</ele>
        <time>2009-06-21T07:12:02Z</time>
      </trkpt>
      <trkpt lat="44.46524" lon="1.10468">
        <ele>182.631866</ele>
        <time>2009-06-21T07:12:05Z</time>
      </trkpt>
      <trkpt lat="44.46521" lon="1.10473">
        <ele>183.339706</ele>
        <time>2009-06-21T07:12:09Z</time>
      </trkpt>
      <trkpt lat="44.46519" lon="1.10476">
        <ele>183.859222</ele>
        <time>2009-06-21T07:12:12Z</time>
      </trkpt>
      <trkpt lat="44.46517" lon="1.10482">
        <ele>184.700607</ele>
        <time>2009-06-21T07:12:16Z</time>
      </trkpt>
      <trkpt lat="44.46513" lon="1.10488">
        <ele>185.228439</ele>
        <time>2009-06-21T07:12:19Z</time>
      </trkpt>
      <trkpt lat="44.46509" lon="1.10495">
        <ele>185.559708</ele>
        <time>2009-06-21T07:12:22Z</time>
      </trkpt>
      <trkpt lat="44.46506" lon="1.10501">
        <ele>185.57251</ele>
        <time>2009-06-21T07:12:25Z</time>
      </trkpt>
      <trkpt lat="44.46504" lon="1.10506">
        <ele>185.803635</ele>
        <time>2009-06-21T07:12:28Z</time>
      </trkpt>
      <trkpt lat="44.46501" lon="1.10511">
        <ele>185.617538</ele>
        <time>2009-06-21T07:12:31Z</time>
      </trkpt>
      <trkpt lat="44.46498" lon="1.10518">
        <ele>185.252243</ele>
        <time>2009-06-21T07:12:35Z</time>
      </trkpt>
      <trkpt lat="44.46495" lon="1.10524">
        <ele>184.74765</ele>
        <time>2009-06-21T07:12:38Z</time>
      </trkpt>
      <trkpt lat="44.46493" lon="1.10529">
        <ele>184.948914</ele>
        <time>2009-06-21T07:12:41Z</time>
      </trkpt>
      <trkpt lat="44.46491" lon="1.10534">
        <ele>184.929337</ele>
        <time>2009-06-21T07:12:44Z</time>
      </trkpt>
      <trkpt lat="44.4649" lon="1.10539">
        <ele>185.232239</ele>
        <time>2009-06-21T07:12:47Z</time>
      </trkpt>
      <trkpt lat="44.46486" lon="1.10548">
        <ele>186.847305</ele>
        <time>2009-06-21T07:12:52Z</time>
      </trkpt>
      <trkpt lat="44.46484" lon="1.10552">
        <ele>187.976868</ele>
        <time>2009-06-21T07:12:55Z</time>
      </trkpt>
      <trkpt lat="44.46482" lon="1.10559">
        <ele>189.174057</ele>
        <time>2009-06-21T07:12:59Z</time>
      </trkpt>
      <trkpt lat="44.46481" lon="1.10564">
        <ele>190.091995</ele>
        <time>2009-06-21T07:13:02Z</time>
      </trkpt>
      <trkpt lat="44.46479" lon="1.1057">
        <ele>190.931625</ele>
        <time>2009-06-21T07:13:05Z</time>
      </trkpt>
      <trkpt lat="44.4648" lon="1.10577">
        <ele>191.598495</ele>
        <time>2009-06-21T07:13:08Z</time>
      </trkpt>
      <trkpt lat="44.46478" lon="1.10585">
        <ele>192.649094</ele>
        <time>2009-06-21T07:13:12Z</time>
      </trkpt>
      <trkpt lat="44.46476" lon="1.10594">
        <ele>194.155899</ele>
        <time>2009-06-21T07:13:16Z</time>
      </trkpt>
      <trkpt lat="44.46475" lon="1.106">
        <ele>195.095291</ele>
        <time>2009-06-21T07:13:19Z</time>
      </trkpt>
      <trkpt lat="44.46473" lon="1.10606">
        <ele>195.892014</ele>
        <time>2009-06-21T07:13:22Z</time>
      </trkpt>
      <trkpt lat="44.46472" lon="1.10611">
        <ele>196.57901</ele>
        <time>2009-06-21T07:13:25Z</time>
      </trkpt>
      <trkpt lat="44.46471" lon="1.10616">
        <ele>197.193375</ele>
        <time>2009-06-21T07:13:29Z</time>
      </trkpt>
      <trkpt lat="44.46469" lon="1.10621">
        <ele>197.759598</ele>
        <time>2009-06-21T07:13:32Z</time>
      </trkpt>
      <trkpt lat="44.46468" lon="1.10627">
        <ele>198.298203</ele>
        <time>2009-06-21T07:13:35Z</time>
      </trkpt>
      <trkpt lat="44.46464" lon="1.10633">
        <ele>198.602051</ele>
        <time>2009-06-21T07:13:40Z</time>
      </trkpt>
      <trkpt lat="44.46461" lon="1.10637">
        <ele>198.658752</ele>
        <time>2009-06-21T07:13:43Z</time>
      </trkpt>
      <trkpt lat="44.46455" lon="1.10642">
        <ele>198.238754</ele>
        <time>2009-06-21T07:13:47Z</time>
      </trkpt>
      <trkpt lat="44.4645" lon="1.10646">
        <ele>197.702698</ele>
        <time>2009-06-21T07:13:51Z</time>
      </trkpt>
      <trkpt lat="44.46448" lon="1.10651">
        <ele>197.41777</ele>
        <time>2009-06-21T07:13:55Z</time>
      </trkpt>
      <trkpt lat="44.46444" lon="1.10654">
        <ele>197.866043</ele>
        <time>2009-06-21T07:13:58Z</time>
      </trkpt>
      <trkpt lat="44.46443" lon="1.10658">
        <ele>198.722946</ele>
        <time>2009-06-21T07:14:01Z</time>
      </trkpt>
      <trkpt lat="44.4644" lon="1.10664">
        <ele>199.781799</ele>
        <time>2009-06-21T07:14:05Z</time>
      </trkpt>
      <trkpt lat="44.46436" lon="1.1067">
        <ele>200.959641</ele>
        <time>2009-06-21T07:14:09Z</time>
      </trkpt>
      <trkpt lat="44.46434" lon="1.10677">
        <ele>201.970078</ele>
        <time>2009-06-21T07:14:14Z</time>
      </trkpt>
      <trkpt lat="44.4643" lon="1.10681">
        <ele>202.38533</ele>
        <time>2009-06-21T07:14:17Z</time>
      </trkpt>
      <trkpt lat="44.46427" lon="1.10687">
        <ele>203.088974</ele>
        <time>2009-06-21T07:14:21Z</time>
      </trkpt>
      <trkpt lat="44.46423" lon="1.10691">
        <ele>203.30307</ele>
        <time>2009-06-21T07:14:24Z</time>
      </trkpt>
      <trkpt lat="44.46422" lon="1.10696">
        <ele>203.630447</ele>
        <time>2009-06-21T07:14:27Z</time>
      </trkpt>
      <trkpt lat="44.46419" lon="1.107">
        <ele>203.823929</ele>
        <time>2009-06-21T07:14:30Z</time>
      </trkpt>
      <trkpt lat="44.46416" lon="1.10705">
        <ele>203.802536</ele>
        <time>2009-06-21T07:14:33Z</time>
      </trkpt>
      <trkpt lat="44.46414" lon="1.1071">
        <ele>203.920547</ele>
        <time>2009-06-21T07:14:36Z</time>
      </trkpt>
      <trkpt lat="44.46409" lon="1.10714">
        <ele>203.400513</ele>
        <time>2009-06-21T07:14:40Z</time>
      </trkpt>
      <trkpt lat="44.46405" lon="1.10718">
        <ele>203.569534</ele>
        <time>2009-06-21T07:14:43Z</time>
      </trkpt>
      <trkpt lat="44.46401" lon="1.1072">
        <ele>203.359879</ele>
        <time>2009-06-21T07:14:46Z</time>
      </trkpt>
      <trkpt lat="44.46397" lon="1.10723">
        <ele>203.796692</ele>
        <time>2009-06-21T07:14:49Z</time>
      </trkpt>
      <trkpt lat="44.4639" lon="1.10728">
        <ele>204.637711</ele>
        <time>2009-06-21T07:14:54Z</time>
      </trkpt>
      <trkpt lat="44.46386" lon="1.10731">
        <ele>205.072617</ele>
        <time>2009-06-21T07:14:57Z</time>
      </trkpt>
      <trkpt lat="44.46382" lon="1.10735">
        <ele>205.588867</ele>
        <time>2009-06-21T07:15:00Z</time>
      </trkpt>
      <trkpt lat="44.46378" lon="1.1074">
        <ele>206.148148</ele>
        <time>2009-06-21T07:15:03Z</time>
      </trkpt>
      <trkpt lat="44.46373" lon="1.10743">
        <ele>206.279541</ele>
        <time>2009-06-21T07:15:06Z</time>
      </trkpt>
      <trkpt lat="44.46368" lon="1.10747">
        <ele>206.493668</ele>
        <time>2009-06-21T07:15:10Z</time>
      </trkpt>
      <trkpt lat="44.46364" lon="1.10751">
        <ele>206.608292</ele>
        <time>2009-06-21T07:15:13Z</time>
      </trkpt>
      <trkpt lat="44.4636" lon="1.10755">
        <ele>206.738586</ele>
        <time>2009-06-21T07:15:16Z</time>
      </trkpt>
      <trkpt lat="44.46356" lon="1.10759">
        <ele>206.822296</ele>
        <time>2009-06-21T07:15:19Z</time>
      </trkpt>
      <trkpt lat="44.46351" lon="1.10763">
        <ele>207.200089</ele>
        <time>2009-06-21T07:15:23Z</time>
      </trkpt>
      <trkpt lat="44.46348" lon="1.10767">
        <ele>207.36792</ele>
        <time>2009-06-21T07:15:26Z</time>
      </trkpt>
      <trkpt lat="44.46344" lon="1.1077">
        <ele>207.357437</ele>
        <time>2009-06-21T07:15:29Z</time>
      </trkpt>
      <trkpt lat="44.46339" lon="1.10772">
        <ele>207.157196</ele>
        <time>2009-06-21T07:15:32Z</time>
      </trkpt>
      <trkpt lat="44.46334" lon="1.10774">
        <ele>206.87767</ele>
        <time>2009-06-21T07:15:35Z</time>
      </trkpt>
      <trkpt lat="44.4633" lon="1.10777">
        <ele>206.578522</ele>
        <time>2009-06-21T07:15:38Z</time>
      </trkpt>
      <trkpt lat="44.46325" lon="1.10778">
        <ele>206.141068</ele>
        <time>2009-06-21T07:15:41Z</time>
      </trkpt>
      <trkpt lat="44.4632" lon="1.1078">
        <ele>205.979996</ele>
        <time>2009-06-21T07:15:44Z</time>
      </trkpt>
      <trkpt lat="44.46314" lon="1.10783">
        <ele>205.996246</ele>
        <time>2009-06-21T07:15:48Z</time>
      </trkpt>
      <trkpt lat="44.4631" lon="1.10784">
        <ele>206.045532</ele>
        <time>2009-06-21T07:15:51Z</time>
      </trkpt>
      <trkpt lat="44.46304" lon="1.10785">
        <ele>206.423187</ele>
        <time>2009-06-21T07:15:55Z</time>
      </trkpt>
      <trkpt lat="44.46299" lon="1.10786">
        <ele>206.622314</ele>
        <time>2009-06-21T07:15:58Z</time>
      </trkpt>
      <trkpt lat="44.46292" lon="1.10788">
        <ele>207.115036</ele>
        <time>2009-06-21T07:16:03Z</time>
      </trkpt>
      <trkpt lat="44.46286" lon="1.10788">
        <ele>207.27095</ele>
        <time>2009-06-21T07:16:07Z</time>
      </trkpt>
      <trkpt lat="44.46282" lon="1.1079">
        <ele>207.677811</ele>
        <time>2009-06-21T07:16:10Z</time>
      </trkpt>
      <trkpt lat="44.46278" lon="1.10794">
        <ele>208.456558</ele>
        <time>2009-06-21T07:16:14Z</time>
      </trkpt>
      <trkpt lat="44.46275" lon="1.10797">
        <ele>209.117722</ele>
        <time>2009-06-21T07:16:18Z</time>
      </trkpt>
      <trkpt lat="44.46271" lon="1.10801">
        <ele>209.905563</ele>
        <time>2009-06-21T07:16:22Z</time>
      </trkpt>
      <trkpt lat="44.46266" lon="1.10803">
        <ele>210.530014</ele>
        <time>2009-06-21T07:16:25Z</time>
      </trkpt>
      <trkpt lat="44.46264" lon="1.10807">
        <ele>211.275024</ele>
        <time>2009-06-21T07:16:28Z</time>
      </trkpt>
      <trkpt lat="44.46262" lon="1.10812">
        <ele>212.153381</ele>
        <time>2009-06-21T07:16:31Z</time>
      </trkpt>
      <trkpt lat="44.46258" lon="1.10818">
        <ele>212.985931</ele>
        <time>2009-06-21T07:16:35Z</time>
      </trkpt>
      <trkpt lat="44.46255" lon="1.10824">
        <ele>213.524307</ele>
        <time>2009-06-21T07:16:39Z</time>
      </trkpt>
      <trkpt lat="44.46252" lon="1.1083">
        <ele>213.931839</ele>
        <time>2009-06-21T07:16:43Z</time>
      </trkpt>
      <trkpt lat="44.46249" lon="1.10835">
        <ele>213.975662</ele>
        <time>2009-06-21T07:16:47Z</time>
      </trkpt>
      <trkpt lat="44.46244" lon="1.10845">
        <ele>214.028107</ele>
        <time>2009-06-21T07:16:52Z</time>
      </trkpt>
      <trkpt lat="44.46242" lon="1.10849">
        <ele>214.231216</ele>
        <time>2009-06-21T07:16:55Z</time>
      </trkpt>
      <trkpt lat="44.46239" lon="1.10854">
        <ele>214.555634</ele>
        <time>2009-06-21T07:16:58Z</time>
      </trkpt>
      <trkpt lat="44.46236" lon="1.10859">
        <ele>214.969025</ele>
        <time>2009-06-21T07:17:01Z</time>
      </trkpt>
      <trkpt lat="44.46234" lon="1.10864">
        <ele>215.52002</ele>
        <time>2009-06-21T07:17:04Z</time>
      </trkpt>
      <trkpt lat="44.46231" lon="1.10869">
        <ele>216.078903</ele>
        <time>2009-06-21T07:17:07Z</time>
      </trkpt>
      <trkpt lat="44.46229" lon="1.10875">
        <ele>216.767029</ele>
        <time>2009-06-21T07:17:10Z</time>
      </trkpt>
      <trkpt lat="44.46227" lon="1.1088">
        <ele>217.529404</ele>
        <time>2009-06-21T07:17:13Z</time>
      </trkpt>
      <trkpt lat="44.46226" lon="1.10886">
        <ele>218.3414</ele>
        <time>2009-06-21T07:17:16Z</time>
      </trkpt>
      <trkpt lat="44.46225" lon="1.10894">
        <ele>219.712555</ele>
        <time>2009-06-21T07:17:20Z</time>
      </trkpt>
      <trkpt lat="44.46223" lon="1.109">
        <ele>220.728165</ele>
        <time>2009-06-21T07:17:23Z</time>
      </trkpt>
      <trkpt lat="44.46223" lon="1.10906">
        <ele>221.793213</ele>
        <time>2009-06-21T07:17:26Z</time>
      </trkpt>
      <trkpt lat="44.46221" lon="1.10913">
        <ele>222.558228</ele>
        <time>2009-06-21T07:17:30Z</time>
      </trkpt>
      <trkpt lat="44.46218" lon="1.10919">
        <ele>223.145355</ele>
        <time>2009-06-21T07:17:33Z</time>
      </trkpt>
      <trkpt lat="44.46214" lon="1.10922">
        <ele>223.280838</ele>
        <time>2009-06-21T07:17:36Z</time>
      </trkpt>
      <trkpt lat="44.46207" lon="1.10922">
        <ele>222.856705</ele>
        <time>2009-06-21T07:17:40Z</time>
      </trkpt>
      <trkpt lat="44.46202" lon="1.1092">
        <ele>222.455704</ele>
        <time>2009-06-21T07:17:43Z</time>
      </trkpt>
      <trkpt lat="44.46197" lon="1.1092">
        <ele>222.179398</ele>
        <time>2009-06-21T07:17:47Z</time>
      </trkpt>
      <trkpt lat="44.46192" lon="1.1092">
        <ele>221.826996</ele>
        <time>2009-06-21T07:17:51Z</time>
      </trkpt>
      <trkpt lat="44.46188" lon="1.1092">
        <ele>221.678253</ele>
        <time>2009-06-21T07:17:54Z</time>
      </trkpt>
      <trkpt lat="44.46186" lon="1.10922">
        <ele>221.939499</ele>
        <time>2009-06-21T07:18:00Z</time>
      </trkpt>
      <trkpt lat="44.46193" lon="1.10924">
        <ele>222.601791</ele>
        <time>2009-06-21T07:18:06Z</time>
      </trkpt>
      <trkpt lat="44.46196" lon="1.10926">
        <ele>223.019699</ele>
        <time>2009-06-21T07:18:09Z</time>
      </trkpt>
      <trkpt lat="44.46201" lon="1.10927">
        <ele>223.398102</ele>
        <time>2009-06-21T07:18:12Z</time>
      </trkpt>
      <trkpt lat="44.46206" lon="1.1093">
        <ele>223.949051</ele>
        <time>2009-06-21T07:18:15Z</time>
      </trkpt>
      <trkpt lat="44.46211" lon="1.10932">
        <ele>224.462051</ele>
        <time>2009-06-21T07:18:18Z</time>
      </trkpt>
      <trkpt lat="44.46216" lon="1.10934">
        <ele>224.806793</ele>
        <time>2009-06-21T07:18:21Z</time>
      </trkpt>
      <trkpt lat="44.46221" lon="1.10936">
        <ele>225.237122</ele>
        <time>2009-06-21T07:18:24Z</time>
      </trkpt>
      <trkpt lat="44.46229" lon="1.10938">
        <ele>225.958328</ele>
        <time>2009-06-21T07:18:29Z</time>
      </trkpt>
      <trkpt lat="44.46234" lon="1.10941">
        <ele>226.608582</ele>
        <time>2009-06-21T07:18:32Z</time>
      </trkpt>
      <trkpt lat="44.4624" lon="1.10944">
        <ele>227.39415</ele>
        <time>2009-06-21T07:18:35Z</time>
      </trkpt>
      <trkpt lat="44.46244" lon="1.10946">
        <ele>227.963577</ele>
        <time>2009-06-21T07:18:39Z</time>
      </trkpt>
      <trkpt lat="44.46249" lon="1.10948">
        <ele>228.538696</ele>
        <time>2009-06-21T07:18:43Z</time>
      </trkpt>
      <trkpt lat="44.46255" lon="1.1095">
        <ele>229.195023</ele>
        <time>2009-06-21T07:18:47Z</time>
      </trkpt>
      <trkpt lat="44.46257" lon="1.10952">
        <ele>229.55719</ele>
        <time>2009-06-21T07:18:50Z</time>
      </trkpt>
      <trkpt lat="44.46261" lon="1.10952">
        <ele>229.869934</ele>
        <time>2009-06-21T07:18:53Z</time>
      </trkpt>
      <trkpt lat="44.46265" lon="1.10955">
        <ele>230.45871</ele>
        <time>2009-06-21T07:18:56Z</time>
      </trkpt>
      <trkpt lat="44.46271" lon="1.10958">
        <ele>231.277527</ele>
        <time>2009-06-21T07:18:59Z</time>
      </trkpt>
      <trkpt lat="44.46276" lon="1.10962">
        <ele>232.144165</ele>
        <time>2009-06-21T07:19:02Z</time>
      </trkpt>
      <trkpt lat="44.46281" lon="1.10963">
        <ele>232.802948</ele>
        <time>2009-06-21T07:19:05Z</time>
      </trkpt>
      <trkpt lat="44.46285" lon="1.10965">
        <ele>233.459793</ele>
        <time>2009-06-21T07:19:08Z</time>
      </trkpt>
      <trkpt lat="44.46291" lon="1.10968">
        <ele>234.369553</ele>
        <time>2009-06-21T07:19:11Z</time>
      </trkpt>
      <trkpt lat="44.46296" lon="1.10971">
        <ele>235.221603</ele>
        <time>2009-06-21T07:19:14Z</time>
      </trkpt>
      <trkpt lat="44.46301" lon="1.10971">
        <ele>235.80806</ele>
        <time>2009-06-21T07:19:18Z</time>
      </trkpt>
      <trkpt lat="44.46306" lon="1.10972">
        <ele>236.415894</ele>
        <time>2009-06-21T07:19:21Z</time>
      </trkpt>
      <trkpt lat="44.46311" lon="1.10971">
        <ele>236.90834</ele>
        <time>2009-06-21T07:19:24Z</time>
      </trkpt>
      <trkpt lat="44.46318" lon="1.10973">
        <ele>237.772491</ele>
        <time>2009-06-21T07:19:28Z</time>
      </trkpt>
      <trkpt lat="44.46325" lon="1.10973">
        <ele>238.367493</ele>
        <time>2009-06-21T07:19:32Z</time>
      </trkpt>
      <trkpt lat="44.4633" lon="1.10972">
        <ele>238.821869</ele>
        <time>2009-06-21T07:19:35Z</time>
      </trkpt>
      <trkpt lat="44.46335" lon="1.10972">
        <ele>239.255005</ele>
        <time>2009-06-21T07:19:38Z</time>
      </trkpt>
      <trkpt lat="44.4634" lon="1.10971">
        <ele>239.613129</ele>
        <time>2009-06-21T07:19:41Z</time>
      </trkpt>
      <trkpt lat="44.46345" lon="1.1097">
        <ele>240.066879</ele>
        <time>2009-06-21T07:19:44Z</time>
      </trkpt>
      <trkpt lat="44.46351" lon="1.1097">
        <ele>240.566254</ele>
        <time>2009-06-21T07:19:47Z</time>
      </trkpt>
      <trkpt lat="44.46356" lon="1.1097">
        <ele>240.990631</ele>
        <time>2009-06-21T07:19:50Z</time>
      </trkpt>
      <trkpt lat="44.46361" lon="1.10969">
        <ele>241.321243</ele>
        <time>2009-06-21T07:19:53Z</time>
      </trkpt>
      <trkpt lat="44.46368" lon="1.10968">
        <ele>241.945007</ele>
        <time>2009-06-21T07:19:56Z</time>
      </trkpt>
      <trkpt lat="44.46373" lon="1.10969">
        <ele>242.46312</ele>
        <time>2009-06-21T07:20:00Z</time>
      </trkpt>
      <trkpt lat="44.46379" lon="1.10969">
        <ele>242.932495</ele>
        <time>2009-06-21T07:20:03Z</time>
      </trkpt>
      <trkpt lat="44.46384" lon="1.10968">
        <ele>243.406876</ele>
        <time>2009-06-21T07:20:06Z</time>
      </trkpt>
      <trkpt lat="44.46389" lon="1.10968">
        <ele>243.886246</ele>
        <time>2009-06-21T07:20:09Z</time>
      </trkpt>
      <trkpt lat="44.46395" lon="1.10968">
        <ele>244.344376</ele>
        <time>2009-06-21T07:20:12Z</time>
      </trkpt>
      <trkpt lat="44.464" lon="1.10968">
        <ele>244.794373</ele>
        <time>2009-06-21T07:20:15Z</time>
      </trkpt>
      <trkpt lat="44.46405" lon="1.10967">
        <ele>245.156586</ele>
        <time>2009-06-21T07:20:18Z</time>
      </trkpt>
      <trkpt lat="44.4641" lon="1.10966">
        <ele>245.589172</ele>
        <time>2009-06-21T07:20:21Z</time>
      </trkpt>
      <trkpt lat="44.46417" lon="1.10966">
        <ele>246.238358</ele>
        <time>2009-06-21T07:20:25Z</time>
      </trkpt>
      <trkpt lat="44.46422" lon="1.10965">
        <ele>246.578827</ele>
        <time>2009-06-21T07:20:28Z</time>
      </trkpt>
      <trkpt lat="44.46427" lon="1.10965">
        <ele>247.014069</ele>
        <time>2009-06-21T07:20:31Z</time>
      </trkpt>
      <trkpt lat="44.46432" lon="1.10965">
        <ele>247.468216</ele>
        <time>2009-06-21T07:20:34Z</time>
      </trkpt>
      <trkpt lat="44.46437" lon="1.10965">
        <ele>247.926025</ele>
        <time>2009-06-21T07:20:37Z</time>
      </trkpt>
      <trkpt lat="44.46442" lon="1.10965">
        <ele>248.375595</ele>
        <time>2009-06-21T07:20:40Z</time>
      </trkpt>
      <trkpt lat="44.46448" lon="1.10968">
        <ele>249.166031</ele>
        <time>2009-06-21T07:20:44Z</time>
      </trkpt>
      <trkpt lat="44.46452" lon="1.10971">
        <ele>249.587372</ele>
        <time>2009-06-21T07:20:47Z</time>
      </trkpt>
      <trkpt lat="44.46455" lon="1.1098">
        <ele>250.27562</ele>
        <time>2009-06-21T07:20:51Z</time>
      </trkpt>
      <trkpt lat="44.46461" lon="1.10987">
        <ele>250.922028</ele>
        <time>2009-06-21T07:20:54Z</time>
      </trkpt>
      <trkpt lat="44.46464" lon="1.10993">
        <ele>251.356033</ele>
        <time>2009-06-21T07:20:58Z</time>
      </trkpt>
      <trkpt lat="44.46467" lon="1.10998">
        <ele>251.714111</ele>
        <time>2009-06-21T07:21:01Z</time>
      </trkpt>
      <trkpt lat="44.4647" lon="1.11006">
        <ele>252.109802</ele>
        <time>2009-06-21T07:21:05Z</time>
      </trkpt>
      <trkpt lat="44.46473" lon="1.11011">
        <ele>252.394852</ele>
        <time>2009-06-21T07:21:08Z</time>
      </trkpt>
      <trkpt lat="44.46477" lon="1.11019">
        <ele>252.722366</ele>
        <time>2009-06-21T07:21:12Z</time>
      </trkpt>
      <trkpt lat="44.4648" lon="1.11023">
        <ele>252.901627</ele>
        <time>2009-06-21T07:21:15Z</time>
      </trkpt>
      <trkpt lat="44.46483" lon="1.11028">
        <ele>252.985901</ele>
        <time>2009-06-21T07:21:18Z</time>
      </trkpt>
      <trkpt lat="44.46487" lon="1.11034">
        <ele>252.927551</ele>
        <time>2009-06-21T07:21:21Z</time>
      </trkpt>
      <trkpt lat="44.46491" lon="1.11041">
        <ele>252.807022</ele>
        <time>2009-06-21T07:21:25Z</time>
      </trkpt>
      <trkpt lat="44.46494" lon="1.11049">
        <ele>252.65567</ele>
        <time>2009-06-21T07:21:28Z</time>
      </trkpt>
      <trkpt lat="44.46496" lon="1.11059">
        <ele>252.386429</ele>
        <time>2009-06-21T07:21:31Z</time>
      </trkpt>
      <trkpt lat="44.46498" lon="1.11069">
        <ele>252.015167</ele>
        <time>2009-06-21T07:21:34Z</time>
      </trkpt>
      <trkpt lat="44.46498" lon="1.11079">
        <ele>251.779953</ele>
        <time>2009-06-21T07:21:37Z</time>
      </trkpt>
      <trkpt lat="44.46497" lon="1.11088">
        <ele>251.723709</ele>
        <time>2009-06-21T07:21:40Z</time>
      </trkpt>
      <trkpt lat="44.46497" lon="1.111">
        <ele>251.452499</ele>
        <time>2009-06-21T07:21:43Z</time>
      </trkpt>
      <trkpt lat="44.46496" lon="1.11122">
        <ele>250.867508</ele>
        <time>2009-06-21T07:21:47Z</time>
      </trkpt>
      <trkpt lat="44.46496" lon="1.11139">
        <ele>250.358749</ele>
        <time>2009-06-21T07:21:50Z</time>
      </trkpt>
      <trkpt lat="44.46496" lon="1.11157">
        <ele>250.081879</ele>
        <time>2009-06-21T07:21:53Z</time>
      </trkpt>
      <trkpt lat="44.46497" lon="1.11173">
        <ele>250.289429</ele>
        <time>2009-06-21T07:21:56Z</time>
      </trkpt>
      <trkpt lat="44.46497" lon="1.11187">
        <ele>250.567505</ele>
        <time>2009-06-21T07:21:59Z</time>
      </trkpt>
      <trkpt lat="44.46499" lon="1.11201">
        <ele>250.464798</ele>
        <time>2009-06-21T07:22:02Z</time>
      </trkpt>
      <trkpt lat="44.46504" lon="1.11221">
        <ele>250.393265</ele>
        <time>2009-06-21T07:22:06Z</time>
      </trkpt>
      <trkpt lat="44.4651" lon="1.11236">
        <ele>250.189926</ele>
        <time>2009-06-21T07:22:09Z</time>
      </trkpt>
      <trkpt lat="44.46523" lon="1.11258">
        <ele>250.020126</ele>
        <time>2009-06-21T07:22:12Z</time>
      </trkpt>
      <trkpt lat="44.46533" lon="1.11275">
        <ele>250.343506</ele>
        <time>2009-06-21T07:22:16Z</time>
      </trkpt>
      <trkpt lat="44.46539" lon="1.11296">
        <ele>249.537506</ele>
        <time>2009-06-21T07:22:19Z</time>
      </trkpt>
      <trkpt lat="44.46536" lon="1.11328">
        <ele>248.682495</ele>
        <time>2009-06-21T07:22:22Z</time>
      </trkpt>
      <trkpt lat="44.46532" lon="1.11352">
        <ele>247.759369</ele>
        <time>2009-06-21T07:22:25Z</time>
      </trkpt>
      <trkpt lat="44.46529" lon="1.11374">
        <ele>246.47226</ele>
        <time>2009-06-21T07:22:28Z</time>
      </trkpt>
      <trkpt lat="44.46528" lon="1.11391">
        <ele>245.351151</ele>
        <time>2009-06-21T07:22:32Z</time>
      </trkpt>
      <trkpt lat="44.46543" lon="1.11406">
        <ele>244.651276</ele>
        <time>2009-06-21T07:22:35Z</time>
      </trkpt>
      <trkpt lat="44.46557" lon="1.11412">
        <ele>245.053452</ele>
        <time>2009-06-21T07:22:38Z</time>
      </trkpt>
      <trkpt lat="44.46568" lon="1.11418">
        <ele>245.468765</ele>
        <time>2009-06-21T07:22:41Z</time>
      </trkpt>
      <trkpt lat="44.46577" lon="1.11421">
        <ele>245.902069</ele>
        <time>2009-06-21T07:22:45Z</time>
      </trkpt>
      <trkpt lat="44.46586" lon="1.11423">
        <ele>246.324356</ele>
        <time>2009-06-21T07:22:48Z</time>
      </trkpt>
      <trkpt lat="44.46593" lon="1.11424">
        <ele>246.816574</ele>
        <time>2009-06-21T07:22:51Z</time>
      </trkpt>
      <trkpt lat="44.46601" lon="1.11426">
        <ele>247.369003</ele>
        <time>2009-06-21T07:22:54Z</time>
      </trkpt>
      <trkpt lat="44.46608" lon="1.11428">
        <ele>247.900665</ele>
        <time>2009-06-21T07:22:57Z</time>
      </trkpt>
      <trkpt lat="44.46616" lon="1.11431">
        <ele>248.412231</ele>
        <time>2009-06-21T07:23:00Z</time>
      </trkpt>
      <trkpt lat="44.46626" lon="1.11434">
        <ele>249.162094</ele>
        <time>2009-06-21T07:23:03Z</time>
      </trkpt>
      <trkpt lat="44.46633" lon="1.11437">
        <ele>249.727478</ele>
        <time>2009-06-21T07:23:07Z</time>
      </trkpt>
      <trkpt lat="44.46641" lon="1.11441">
        <ele>249.964996</ele>
        <time>2009-06-21T07:23:10Z</time>
      </trkpt>
      <trkpt lat="44.46648" lon="1.11443">
        <ele>250.247498</ele>
        <time>2009-06-21T07:23:13Z</time>
      </trkpt>
      <trkpt lat="44.46655" lon="1.11445">
        <ele>250.477493</ele>
        <time>2009-06-21T07:23:16Z</time>
      </trkpt>
      <trkpt lat="44.46662" lon="1.11449">
        <ele>250.661255</ele>
        <time>2009-06-21T07:23:19Z</time>
      </trkpt>
      <trkpt lat="44.46668" lon="1.11452">
        <ele>250.841248</ele>
        <time>2009-06-21T07:23:22Z</time>
      </trkpt>
      <trkpt lat="44.46674" lon="1.11453">
        <ele>251.044998</ele>
        <time>2009-06-21T07:23:25Z</time>
      </trkpt>
      <trkpt lat="44.46679" lon="1.11453">
        <ele>251.277496</ele>
        <time>2009-06-21T07:23:28Z</time>
      </trkpt>
      <trkpt lat="44.46685" lon="1.11454">
        <ele>251.615005</ele>
        <time>2009-06-21T07:23:31Z</time>
      </trkpt>
      <trkpt lat="44.46691" lon="1.11455">
        <ele>251.970001</ele>
        <time>2009-06-21T07:23:34Z</time>
      </trkpt>
      <trkpt lat="44.46697" lon="1.11456">
        <ele>252.308746</ele>
        <time>2009-06-21T07:23:37Z</time>
      </trkpt>
      <trkpt lat="44.46702" lon="1.11457">
        <ele>252.641251</ele>
        <time>2009-06-21T07:23:40Z</time>
      </trkpt>
      <trkpt lat="44.46708" lon="1.11458">
        <ele>252.977493</ele>
        <time>2009-06-21T07:23:43Z</time>
      </trkpt>
      <trkpt lat="44.46713" lon="1.11459">
        <ele>253.336243</ele>
        <time>2009-06-21T07:23:47Z</time>
      </trkpt>
      <trkpt lat="44.46719" lon="1.11459">
        <ele>253.703751</ele>
        <time>2009-06-21T07:23:50Z</time>
      </trkpt>
      <trkpt lat="44.46726" lon="1.1146">
        <ele>254.101242</ele>
        <time>2009-06-21T07:23:53Z</time>
      </trkpt>
      <trkpt lat="44.46732" lon="1.11462">
        <ele>254.373123</ele>
        <time>2009-06-21T07:23:56Z</time>
      </trkpt>
      <trkpt lat="44.46738" lon="1.11463">
        <ele>254.633743</ele>
        <time>2009-06-21T07:23:59Z</time>
      </trkpt>
      <trkpt lat="44.46746" lon="1.11466">
        <ele>254.816254</ele>
        <time>2009-06-21T07:24:02Z</time>
      </trkpt>
      <trkpt lat="44.46755" lon="1.11469">
        <ele>255.095001</ele>
        <time>2009-06-21T07:24:06Z</time>
      </trkpt>
      <trkpt lat="44.46761" lon="1.1147">
        <ele>255.328751</ele>
        <time>2009-06-21T07:24:09Z</time>
      </trkpt>
      <trkpt lat="44.46766" lon="1.11471">
        <ele>255.573746</ele>
        <time>2009-06-21T07:24:12Z</time>
      </trkpt>
      <trkpt lat="44.46774" lon="1.11475">
        <ele>255.471741</ele>
        <time>2009-06-21T07:24:16Z</time>
      </trkpt>
      <trkpt lat="44.4678" lon="1.11476">
        <ele>255.424301</ele>
        <time>2009-06-21T07:24:19Z</time>
      </trkpt>
      <trkpt lat="44.46789" lon="1.1148">
        <ele>255.318588</ele>
        <time>2009-06-21T07:24:23Z</time>
      </trkpt>
      <trkpt lat="44.46794" lon="1.11481">
        <ele>255.288467</ele>
        <time>2009-06-21T07:24:26Z</time>
      </trkpt>
      <trkpt lat="44.46801" lon="1.11483">
        <ele>255.280853</ele>
        <time>2009-06-21T07:24:29Z</time>
      </trkpt>
      <trkpt lat="44.46807" lon="1.11484">
        <ele>255.320969</ele>
        <time>2009-06-21T07:24:32Z</time>
      </trkpt>
      <trkpt lat="44.46818" lon="1.11487">
        <ele>255.292496</ele>
        <time>2009-06-21T07:24:36Z</time>
      </trkpt>
      <trkpt lat="44.46827" lon="1.11489">
        <ele>255.131256</ele>
        <time>2009-06-21T07:24:39Z</time>
      </trkpt>
      <trkpt lat="44.46836" lon="1.11489">
        <ele>255.037506</ele>
        <time>2009-06-21T07:24:42Z</time>
      </trkpt>
      <trkpt lat="44.46847" lon="1.11491">
        <ele>254.868744</ele>
        <time>2009-06-21T07:24:45Z</time>
      </trkpt>
      <trkpt lat="44.46862" lon="1.11491">
        <ele>254.645721</ele>
        <time>2009-06-21T07:24:48Z</time>
      </trkpt>
      <trkpt lat="44.46879" lon="1.11487">
        <ele>252.982101</ele>
        <time>2009-06-21T07:24:51Z</time>
      </trkpt>
      <trkpt lat="44.46899" lon="1.11479">
        <ele>251.201569</ele>
        <time>2009-06-21T07:24:54Z</time>
      </trkpt>
      <trkpt lat="44.46923" lon="1.11472">
        <ele>249.202728</ele>
        <time>2009-06-21T07:24:57Z</time>
      </trkpt>
      <trkpt lat="44.46956" lon="1.11477">
        <ele>246.478119</ele>
        <time>2009-06-21T07:25:00Z</time>
      </trkpt>
      <trkpt lat="44.46979" lon="1.11486">
        <ele>246.975433</ele>
        <time>2009-06-21T07:25:04Z</time>
      </trkpt>
      <trkpt lat="44.46998" lon="1.11493">
        <ele>247.773758</ele>
        <time>2009-06-21T07:25:07Z</time>
      </trkpt>
      <trkpt lat="44.47015" lon="1.115">
        <ele>248.621246</ele>
        <time>2009-06-21T07:25:10Z</time>
      </trkpt>
      <trkpt lat="44.47029" lon="1.11505">
        <ele>249.316254</ele>
        <time>2009-06-21T07:25:13Z</time>
      </trkpt>
      <trkpt lat="44.4704" lon="1.11508">
        <ele>249.896072</ele>
        <time>2009-06-21T07:25:16Z</time>
      </trkpt>
      <trkpt lat="44.47052" lon="1.11512">
        <ele>250.965576</ele>
        <time>2009-06-21T07:25:19Z</time>
      </trkpt>
      <trkpt lat="44.4706" lon="1.11517">
        <ele>251.797424</ele>
        <time>2009-06-21T07:25:22Z</time>
      </trkpt>
      <trkpt lat="44.47068" lon="1.11521">
        <ele>252.355255</ele>
        <time>2009-06-21T07:25:25Z</time>
      </trkpt>
      <trkpt lat="44.47074" lon="1.11524">
        <ele>252.869049</ele>
        <time>2009-06-21T07:25:28Z</time>
      </trkpt>
      <trkpt lat="44.47082" lon="1.11528">
        <ele>253.514694</ele>
        <time>2009-06-21T07:25:31Z</time>
      </trkpt>
      <trkpt lat="44.47088" lon="1.11532">
        <ele>254.20372</ele>
        <time>2009-06-21T07:25:34Z</time>
      </trkpt>
      <trkpt lat="44.47095" lon="1.11537">
        <ele>255.004791</ele>
        <time>2009-06-21T07:25:37Z</time>
      </trkpt>
      <trkpt lat="44.47101" lon="1.11543">
        <ele>255.878006</ele>
        <time>2009-06-21T07:25:40Z</time>
      </trkpt>
      <trkpt lat="44.47107" lon="1.11553">
        <ele>256.635284</ele>
        <time>2009-06-21T07:25:44Z</time>
      </trkpt>
      <trkpt lat="44.47113" lon="1.11559">
        <ele>257.385773</ele>
        <time>2009-06-21T07:25:47Z</time>
      </trkpt>
      <trkpt lat="44.47119" lon="1.11566">
        <ele>258.26474</ele>
        <time>2009-06-21T07:25:50Z</time>
      </trkpt>
      <trkpt lat="44.47125" lon="1.1157">
        <ele>259.140533</ele>
        <time>2009-06-21T07:25:53Z</time>
      </trkpt>
      <trkpt lat="44.47129" lon="1.11574">
        <ele>259.791901</ele>
        <time>2009-06-21T07:25:56Z</time>
      </trkpt>
      <trkpt lat="44.47134" lon="1.11578">
        <ele>260.37674</ele>
        <time>2009-06-21T07:25:59Z</time>
      </trkpt>
      <trkpt lat="44.47138" lon="1.11583">
        <ele>260.552002</ele>
        <time>2009-06-21T07:26:02Z</time>
      </trkpt>
      <trkpt lat="44.47142" lon="1.11587">
        <ele>260.817719</ele>
        <time>2009-06-21T07:26:05Z</time>
      </trkpt>
      <trkpt lat="44.47146" lon="1.11592">
        <ele>261.104095</ele>
        <time>2009-06-21T07:26:08Z</time>
      </trkpt>
      <trkpt lat="44.4715" lon="1.11598">
        <ele>261.387573</ele>
        <time>2009-06-21T07:26:11Z</time>
      </trkpt>
      <trkpt lat="44.47154" lon="1.11604">
        <ele>261.653137</ele>
        <time>2009-06-21T07:26:14Z</time>
      </trkpt>
      <trkpt lat="44.47157" lon="1.1161">
        <ele>261.936676</ele>
        <time>2009-06-21T07:26:17Z</time>
      </trkpt>
      <trkpt lat="44.47159" lon="1.11615">
        <ele>262.077423</ele>
        <time>2009-06-21T07:26:20Z</time>
      </trkpt>
      <trkpt lat="44.47161" lon="1.11621">
        <ele>262.17392</ele>
        <time>2009-06-21T07:26:23Z</time>
      </trkpt>
      <trkpt lat="44.47163" lon="1.11627">
        <ele>262.320007</ele>
        <time>2009-06-21T07:26:26Z</time>
      </trkpt>
      <trkpt lat="44.47166" lon="1.11634">
        <ele>262.505768</ele>
        <time>2009-06-21T07:26:29Z</time>
      </trkpt>
      <trkpt lat="44.47168" lon="1.11642">
        <ele>262.786377</ele>
        <time>2009-06-21T07:26:32Z</time>
      </trkpt>
      <trkpt lat="44.4717" lon="1.11651">
        <ele>262.967957</ele>
        <time>2009-06-21T07:26:35Z</time>
      </trkpt>
      <trkpt lat="44.47172" lon="1.11659">
        <ele>263.254272</ele>
        <time>2009-06-21T07:26:38Z</time>
      </trkpt>
      <trkpt lat="44.47175" lon="1.11667">
        <ele>263.784393</ele>
        <time>2009-06-21T07:26:41Z</time>
      </trkpt>
      <trkpt lat="44.47179" lon="1.1168">
        <ele>264.238037</ele>
        <time>2009-06-21T07:26:45Z</time>
      </trkpt>
      <trkpt lat="44.47182" lon="1.11691">
        <ele>264.494019</ele>
        <time>2009-06-21T07:26:48Z</time>
      </trkpt>
      <trkpt lat="44.47185" lon="1.11701">
        <ele>264.795502</ele>
        <time>2009-06-21T07:26:51Z</time>
      </trkpt>
      <trkpt lat="44.47187" lon="1.11712">
        <ele>265.011261</ele>
        <time>2009-06-21T07:26:54Z</time>
      </trkpt>
      <trkpt lat="44.47189" lon="1.11723">
        <ele>265.066254</ele>
        <time>2009-06-21T07:26:57Z</time>
      </trkpt>
      <trkpt lat="44.47191" lon="1.11733">
        <ele>265.11499</ele>
        <time>2009-06-21T07:27:00Z</time>
      </trkpt>
      <trkpt lat="44.47194" lon="1.11742">
        <ele>265.332489</ele>
        <time>2009-06-21T07:27:03Z</time>
      </trkpt>
      <trkpt lat="44.47196" lon="1.11754">
        <ele>265.367493</ele>
        <time>2009-06-21T07:27:06Z</time>
      </trkpt>
      <trkpt lat="44.47196" lon="1.11764">
        <ele>265.214996</ele>
        <time>2009-06-21T07:27:09Z</time>
      </trkpt>
      <trkpt lat="44.47196" lon="1.11775">
        <ele>265.574188</ele>
        <time>2009-06-21T07:27:12Z</time>
      </trkpt>
      <trkpt lat="44.47195" lon="1.11786">
        <ele>265.811035</ele>
        <time>2009-06-21T07:27:15Z</time>
      </trkpt>
      <trkpt lat="44.47193" lon="1.11797">
        <ele>265.865051</ele>
        <time>2009-06-21T07:27:18Z</time>
      </trkpt>
      <trkpt lat="44.47189" lon="1.11806">
        <ele>265.744751</ele>
        <time>2009-06-21T07:27:21Z</time>
      </trkpt>
      <trkpt lat="44.47182" lon="1.11812">
        <ele>265.266968</ele>
        <time>2009-06-21T07:27:24Z</time>
      </trkpt>
      <trkpt lat="44.4717" lon="1.11817">
        <ele>264.149292</ele>
        <time>2009-06-21T07:27:27Z</time>
      </trkpt>
      <trkpt lat="44.47153" lon="1.11822">
        <ele>262.900482</ele>
        <time>2009-06-21T07:27:30Z</time>
      </trkpt>
      <trkpt lat="44.47134" lon="1.11831">
        <ele>262.185303</ele>
        <time>2009-06-21T07:27:33Z</time>
      </trkpt>
      <trkpt lat="44.47111" lon="1.11841">
        <ele>258.534119</ele>
        <time>2009-06-21T07:27:36Z</time>
      </trkpt>
      <trkpt lat="44.47086" lon="1.11857">
        <ele>255.690948</ele>
        <time>2009-06-21T07:27:39Z</time>
      </trkpt>
      <trkpt lat="44.47059" lon="1.11876">
        <ele>252.326721</ele>
        <time>2009-06-21T07:27:42Z</time>
      </trkpt>
      <trkpt lat="44.47027" lon="1.11897">
        <ele>248.240616</ele>
        <time>2009-06-21T07:27:45Z</time>
      </trkpt>
      <trkpt lat="44.46992" lon="1.11921">
        <ele>243.631256</ele>
        <time>2009-06-21T07:27:48Z</time>
      </trkpt>
      <trkpt lat="44.46954" lon="1.11946">
        <ele>239.038757</ele>
        <time>2009-06-21T07:27:51Z</time>
      </trkpt>
      <trkpt lat="44.46913" lon="1.11966">
        <ele>233.735901</ele>
        <time>2009-06-21T07:27:54Z</time>
      </trkpt>
      <trkpt lat="44.4686" lon="1.11979">
        <ele>227.55777</ele>
        <time>2009-06-21T07:27:57Z</time>
      </trkpt>
      <trkpt lat="44.46833" lon="1.1198">
        <ele>225.402649</ele>
        <time>2009-06-21T07:28:00Z</time>
      </trkpt>
      <trkpt lat="44.46815" lon="1.1198">
        <ele>223.964996</ele>
        <time>2009-06-21T07:28:03Z</time>
      </trkpt>
      <trkpt lat="44.46807" lon="1.11983">
        <ele>223.152496</ele>
        <time>2009-06-21T07:28:06Z</time>
      </trkpt>
      <trkpt lat="44.46805" lon="1.11988">
        <ele>222.777496</ele>
        <time>2009-06-21T07:28:10Z</time>
      </trkpt>
      <trkpt lat="44.46812" lon="1.12">
        <ele>222.977493</ele>
        <time>2009-06-21T07:28:14Z</time>
      </trkpt>
      <trkpt lat="44.4682" lon="1.1201">
        <ele>223.436249</ele>
        <time>2009-06-21T07:28:18Z</time>
      </trkpt>
      <trkpt lat="44.46827" lon="1.12018">
        <ele>223.813232</ele>
        <time>2009-06-21T07:28:22Z</time>
      </trkpt>
      <trkpt lat="44.46831" lon="1.12033">
        <ele>221.812607</ele>
        <time>2009-06-21T07:28:25Z</time>
      </trkpt>
      <trkpt lat="44.46833" lon="1.12038">
        <ele>220.921799</ele>
        <time>2009-06-21T07:28:29Z</time>
      </trkpt>
      <trkpt lat="44.46832" lon="1.1204">
        <ele>220.277206</ele>
        <time>2009-06-21T07:28:34Z</time>
      </trkpt>
      <trkpt lat="44.46832" lon="1.12043">
        <ele>219.675323</ele>
        <time>2009-06-21T07:28:38Z</time>
      </trkpt>
      <trkpt lat="44.46829" lon="1.12046">
        <ele>218.520279</ele>
        <time>2009-06-21T07:28:43Z</time>
      </trkpt>
      <trkpt lat="44.46827" lon="1.12045">
        <ele>218.480057</ele>
        <time>2009-06-21T07:28:47Z</time>
      </trkpt>
      <trkpt lat="44.46824" lon="1.12041">
        <ele>219.19043</ele>
        <time>2009-06-21T07:28:51Z</time>
      </trkpt>
      <trkpt lat="44.46826" lon="1.12037">
        <ele>220.25322</ele>
        <time>2009-06-21T07:28:54Z</time>
      </trkpt>
      <trkpt lat="44.46827" lon="1.12032">
        <ele>221.770004</ele>
        <time>2009-06-21T07:28:59Z</time>
      </trkpt>
      <trkpt lat="44.46824" lon="1.12026">
        <ele>222.805878</ele>
        <time>2009-06-21T07:29:02Z</time>
      </trkpt>
      <trkpt lat="44.46822" lon="1.12022">
        <ele>223.18959</ele>
        <time>2009-06-21T07:29:06Z</time>
      </trkpt>
      <trkpt lat="44.46825" lon="1.12017">
        <ele>223.662155</ele>
        <time>2009-06-21T07:29:09Z</time>
      </trkpt>
      <trkpt lat="44.46831" lon="1.12019">
        <ele>224.257233</ele>
        <time>2009-06-21T07:29:14Z</time>
      </trkpt>
      <trkpt lat="44.46836" lon="1.12021">
        <ele>224.79631</ele>
        <time>2009-06-21T07:29:18Z</time>
      </trkpt>
      <trkpt lat="44.4684" lon="1.12025">
        <ele>224.725479</ele>
        <time>2009-06-21T07:29:24Z</time>
      </trkpt>
      <trkpt lat="44.4684" lon="1.12028">
        <ele>224.15506</ele>
        <time>2009-06-21T07:29:29Z</time>
      </trkpt>
      <trkpt lat="44.4684" lon="1.1203">
        <ele>223.703796</ele>
        <time>2009-06-21T07:29:34Z</time>
      </trkpt>
      <trkpt lat="44.46841" lon="1.1203">
        <ele>223.723007</ele>
        <time>2009-06-21T07:29:40Z</time>
      </trkpt>
      <trkpt lat="44.46839" lon="1.1203">
        <ele>223.569305</ele>
        <time>2009-06-21T07:29:45Z</time>
      </trkpt>
      <trkpt lat="44.46841" lon="1.1203">
        <ele>223.798737</ele>
        <time>2009-06-21T07:29:59Z</time>
      </trkpt>
      <trkpt lat="44.46842" lon="1.12028">
        <ele>224.229141</ele>
        <time>2009-06-21T07:30:11Z</time>
      </trkpt>
      <trkpt lat="44.4684" lon="1.12029">
        <ele>224.007462</ele>
        <time>2009-06-21T07:30:24Z</time>
      </trkpt>
      <trkpt lat="44.46839" lon="1.12028">
        <ele>224.005814</ele>
        <time>2009-06-21T07:30:42Z</time>
      </trkpt>
      <trkpt lat="44.46837" lon="1.12027">
        <ele>223.960648</ele>
        <time>2009-06-21T07:30:46Z</time>
      </trkpt>
      <trkpt lat="44.46836" lon="1.12026">
        <ele>224.165588</ele>
        <time>2009-06-21T07:30:51Z</time>
      </trkpt>
      <trkpt lat="44.46835" lon="1.12025">
        <ele>224.322815</ele>
        <time>2009-06-21T07:30:56Z</time>
      </trkpt>
      <trkpt lat="44.46834" lon="1.12024">
        <ele>224.372528</ele>
        <time>2009-06-21T07:31:02Z</time>
      </trkpt>
      <trkpt lat="44.46835" lon="1.12025">
        <ele>224.270981</ele>
        <time>2009-06-21T07:31:11Z</time>
      </trkpt>
      <trkpt lat="44.46836" lon="1.12025">
        <ele>224.335724</ele>
        <time>2009-06-21T07:31:15Z</time>
      </trkpt>
      <trkpt lat="44.46838" lon="1.12027">
        <ele>224.168121</ele>
        <time>2009-06-21T07:31:25Z</time>
      </trkpt>
      <trkpt lat="44.46839" lon="1.12027">
        <ele>224.302002</ele>
        <time>2009-06-21T07:31:30Z</time>
      </trkpt>
      <trkpt lat="44.4684" lon="1.12028">
        <ele>224.15506</ele>
        <time>2009-06-21T07:31:38Z</time>
      </trkpt>
      <trkpt lat="44.4684" lon="1.12029">
        <ele>223.788834</ele>
        <time>2009-06-21T07:31:46Z</time>
      </trkpt>
      <trkpt lat="44.4684" lon="1.12031">
        <ele>223.522034</ele>
        <time>2009-06-21T07:31:52Z</time>
      </trkpt>
      <trkpt lat="44.46842" lon="1.12031">
        <ele>223.735031</ele>
        <time>2009-06-21T07:32:00Z</time>
      </trkpt>
      <trkpt lat="44.46845" lon="1.12031">
        <ele>223.897644</ele>
        <time>2009-06-21T07:32:07Z</time>
      </trkpt>
      <trkpt lat="44.46846" lon="1.12032">
        <ele>223.825272</ele>
        <time>2009-06-21T07:32:10Z</time>
      </trkpt>
      <trkpt lat="44.46846" lon="1.12035">
        <ele>223.242966</ele>
        <time>2009-06-21T07:32:22Z</time>
      </trkpt>
      <trkpt lat="44.46847" lon="1.12037">
        <ele>222.995483</ele>
        <time>2009-06-21T07:32:29Z</time>
      </trkpt>
      <trkpt lat="44.46847" lon="1.12038">
        <ele>222.663681</ele>
        <time>2009-06-21T07:32:34Z</time>
      </trkpt>
      <trkpt lat="44.46848" lon="1.1204">
        <ele>222.362</ele>
        <time>2009-06-21T07:32:43Z</time>
      </trkpt>
      <trkpt lat="44.46849" lon="1.12042">
        <ele>222.021469</ele>
        <time>2009-06-21T07:32:47Z</time>
      </trkpt>
      <trkpt lat="44.46849" lon="1.1204">
        <ele>222.400574</ele>
        <time>2009-06-21T07:32:52Z</time>
      </trkpt>
      <trkpt lat="44.46848" lon="1.12039">
        <ele>222.714874</ele>
        <time>2009-06-21T07:32:56Z</time>
      </trkpt>
      <trkpt lat="44.46846" lon="1.12036">
        <ele>222.932877</ele>
        <time>2009-06-21T07:33:00Z</time>
      </trkpt>
      <trkpt lat="44.46845" lon="1.12035">
        <ele>223.099548</ele>
        <time>2009-06-21T07:33:04Z</time>
      </trkpt>
      <trkpt lat="44.46843" lon="1.12034">
        <ele>223.225006</ele>
        <time>2009-06-21T07:33:09Z</time>
      </trkpt>
      <trkpt lat="44.46841" lon="1.12034">
        <ele>222.993729</ele>
        <time>2009-06-21T07:33:12Z</time>
      </trkpt>
      <trkpt lat="44.46839" lon="1.12033">
        <ele>222.936905</ele>
        <time>2009-06-21T07:33:16Z</time>
      </trkpt>
      <trkpt lat="44.46839" lon="1.12031">
        <ele>223.250229</ele>
        <time>2009-06-21T07:33:24Z</time>
      </trkpt>
      <trkpt lat="44.46839" lon="1.12029">
        <ele>223.663437</ele>
        <time>2009-06-21T07:33:28Z</time>
      </trkpt>
      <trkpt lat="44.46834" lon="1.12025">
        <ele>224.061707</ele>
        <time>2009-06-21T07:33:31Z</time>
      </trkpt>
      <trkpt lat="44.46828" lon="1.12019">
        <ele>223.964127</ele>
        <time>2009-06-21T07:33:34Z</time>
      </trkpt>
      <trkpt lat="44.46826" lon="1.1202">
        <ele>223.673462</ele>
        <time>2009-06-21T07:33:37Z</time>
      </trkpt>
      <trkpt lat="44.4683" lon="1.1203">
        <ele>222.646164</ele>
        <time>2009-06-21T07:33:42Z</time>
      </trkpt>
      <trkpt lat="44.46833" lon="1.12042">
        <ele>220.00174</ele>
        <time>2009-06-21T07:33:46Z</time>
      </trkpt>
      <trkpt lat="44.46835" lon="1.12048">
        <ele>218.823349</ele>
        <time>2009-06-21T07:33:50Z</time>
      </trkpt>
      <trkpt lat="44.46835" lon="1.12055">
        <ele>217.138794</ele>
        <time>2009-06-21T07:33:53Z</time>
      </trkpt>
      <trkpt lat="44.46839" lon="1.12067">
        <ele>215.059921</ele>
        <time>2009-06-21T07:33:57Z</time>
      </trkpt>
      <trkpt lat="44.46847" lon="1.12077">
        <ele>214.038284</ele>
        <time>2009-06-21T07:34:01Z</time>
      </trkpt>
      <trkpt lat="44.46853" lon="1.12084">
        <ele>213.872757</ele>
        <time>2009-06-21T07:34:04Z</time>
      </trkpt>
      <trkpt lat="44.46859" lon="1.12088">
        <ele>213.85611</ele>
        <time>2009-06-21T07:34:07Z</time>
      </trkpt>
      <trkpt lat="44.46861" lon="1.12089">
        <ele>213.95636</ele>
        <time>2009-06-21T07:34:11Z</time>
      </trkpt>
      <trkpt lat="44.46868" lon="1.12098">
        <ele>212.990646</ele>
        <time>2009-06-21T07:34:14Z</time>
      </trkpt>
      <trkpt lat="44.46878" lon="1.12101">
        <ele>214.713562</ele>
        <time>2009-06-21T07:34:18Z</time>
      </trkpt>
      <trkpt lat="44.46881" lon="1.12103">
        <ele>214.859299</ele>
        <time>2009-06-21T07:34:23Z</time>
      </trkpt>
      <trkpt lat="44.46882" lon="1.12104">
        <ele>214.973755</ele>
        <time>2009-06-21T07:34:27Z</time>
      </trkpt>
      <trkpt lat="44.46885" lon="1.12106">
        <ele>215.192947</ele>
        <time>2009-06-21T07:34:30Z</time>
      </trkpt>
      <trkpt lat="44.46888" lon="1.12107">
        <ele>215.45668</ele>
        <time>2009-06-21T07:34:33Z</time>
      </trkpt>
      <trkpt lat="44.46891" lon="1.12108">
        <ele>216.108902</ele>
        <time>2009-06-21T07:34:38Z</time>
      </trkpt>
      <trkpt lat="44.46895" lon="1.12108">
        <ele>217.327194</ele>
        <time>2009-06-21T07:34:42Z</time>
      </trkpt>
      <trkpt lat="44.46899" lon="1.1211">
        <ele>217.771149</ele>
        <time>2009-06-21T07:34:46Z</time>
      </trkpt>
      <trkpt lat="44.46903" lon="1.12111">
        <ele>218.746567</ele>
        <time>2009-06-21T07:34:50Z</time>
      </trkpt>
      <trkpt lat="44.46906" lon="1.12112">
        <ele>219.295013</ele>
        <time>2009-06-21T07:34:53Z</time>
      </trkpt>
      <trkpt lat="44.46909" lon="1.12115">
        <ele>219.488174</ele>
        <time>2009-06-21T07:34:57Z</time>
      </trkpt>
      <trkpt lat="44.46912" lon="1.12118">
        <ele>219.747375</ele>
        <time>2009-06-21T07:35:00Z</time>
      </trkpt>
      <trkpt lat="44.46917" lon="1.1212">
        <ele>220.651901</ele>
        <time>2009-06-21T07:35:04Z</time>
      </trkpt>
      <trkpt lat="44.46921" lon="1.12121">
        <ele>221.746826</ele>
        <time>2009-06-21T07:35:08Z</time>
      </trkpt>
      <trkpt lat="44.46926" lon="1.1212">
        <ele>223.534531</ele>
        <time>2009-06-21T07:35:12Z</time>
      </trkpt>
      <trkpt lat="44.4693" lon="1.1212">
        <ele>224.865295</ele>
        <time>2009-06-21T07:35:16Z</time>
      </trkpt>
      <trkpt lat="44.46933" lon="1.1212">
        <ele>225.902557</ele>
        <time>2009-06-21T07:35:21Z</time>
      </trkpt>
      <trkpt lat="44.46935" lon="1.12122">
        <ele>225.944</ele>
        <time>2009-06-21T07:35:25Z</time>
      </trkpt>
      <trkpt lat="44.46935" lon="1.12124">
        <ele>225.635406</ele>
        <time>2009-06-21T07:35:29Z</time>
      </trkpt>
      <trkpt lat="44.46937" lon="1.12128">
        <ele>225.42157</ele>
        <time>2009-06-21T07:35:32Z</time>
      </trkpt>
      <trkpt lat="44.4694" lon="1.12134">
        <ele>225.322922</ele>
        <time>2009-06-21T07:35:37Z</time>
      </trkpt>
      <trkpt lat="44.46941" lon="1.12137">
        <ele>225.068695</ele>
        <time>2009-06-21T07:35:42Z</time>
      </trkpt>
      <trkpt lat="44.46941" lon="1.12141">
        <ele>224.529175</ele>
        <time>2009-06-21T07:35:46Z</time>
      </trkpt>
      <trkpt lat="44.46944" lon="1.12147">
        <ele>224.521744</ele>
        <time>2009-06-21T07:35:53Z</time>
      </trkpt>
      <trkpt lat="44.46945" lon="1.1215">
        <ele>224.639999</ele>
        <time>2009-06-21T07:35:56Z</time>
      </trkpt>
      <trkpt lat="44.46946" lon="1.12151">
        <ele>225.066345</ele>
        <time>2009-06-21T07:36:01Z</time>
      </trkpt>
      <trkpt lat="44.46947" lon="1.12155">
        <ele>225.191071</ele>
        <time>2009-06-21T07:36:05Z</time>
      </trkpt>
      <trkpt lat="44.46947" lon="1.12158">
        <ele>225.319427</ele>
        <time>2009-06-21T07:36:11Z</time>
      </trkpt>
      <trkpt lat="44.46949" lon="1.12162">
        <ele>225.908539</ele>
        <time>2009-06-21T07:36:16Z</time>
      </trkpt>
      <trkpt lat="44.46948" lon="1.12164">
        <ele>225.680771</ele>
        <time>2009-06-21T07:36:21Z</time>
      </trkpt>
      <trkpt lat="44.46946" lon="1.12169">
        <ele>224.861282</ele>
        <time>2009-06-21T07:36:24Z</time>
      </trkpt>
      <trkpt lat="44.46947" lon="1.12173">
        <ele>224.904755</ele>
        <time>2009-06-21T07:36:33Z</time>
      </trkpt>
      <trkpt lat="44.46945" lon="1.12172">
        <ele>224.350937</ele>
        <time>2009-06-21T07:36:38Z</time>
      </trkpt>
      <trkpt lat="44.46944" lon="1.12171">
        <ele>223.809479</ele>
        <time>2009-06-21T07:36:42Z</time>
      </trkpt>
      <trkpt lat="44.46945" lon="1.12167">
        <ele>224.33754</ele>
        <time>2009-06-21T07:36:49Z</time>
      </trkpt>
      <trkpt lat="44.46943" lon="1.12166">
        <ele>223.792877</ele>
        <time>2009-06-21T07:36:54Z</time>
      </trkpt>
      <trkpt lat="44.46942" lon="1.12167">
        <ele>223.320908</ele>
        <time>2009-06-21T07:36:57Z</time>
      </trkpt>
      <trkpt lat="44.46941" lon="1.12168">
        <ele>222.832962</ele>
        <time>2009-06-21T07:37:07Z</time>
      </trkpt>
      <trkpt lat="44.46941" lon="1.12172">
        <ele>222.90065</ele>
        <time>2009-06-21T07:37:10Z</time>
      </trkpt>
      <trkpt lat="44.46941" lon="1.12179">
        <ele>222.778854</ele>
        <time>2009-06-21T07:37:14Z</time>
      </trkpt>
      <trkpt lat="44.46938" lon="1.12189">
        <ele>221.15831</ele>
        <time>2009-06-21T07:37:18Z</time>
      </trkpt>
      <trkpt lat="44.46939" lon="1.12196">
        <ele>221.297989</ele>
        <time>2009-06-21T07:37:23Z</time>
      </trkpt>
      <trkpt lat="44.46939" lon="1.12203">
        <ele>221.102417</ele>
        <time>2009-06-21T07:37:26Z</time>
      </trkpt>
      <trkpt lat="44.46937" lon="1.12209">
        <ele>220.460129</ele>
        <time>2009-06-21T07:37:30Z</time>
      </trkpt>
      <trkpt lat="44.46935" lon="1.12217">
        <ele>220.056839</ele>
        <time>2009-06-21T07:37:34Z</time>
      </trkpt>
      <trkpt lat="44.46933" lon="1.12223">
        <ele>219.622498</ele>
        <time>2009-06-21T07:37:37Z</time>
      </trkpt>
      <trkpt lat="44.46929" lon="1.12231">
        <ele>218.800491</ele>
        <time>2009-06-21T07:37:44Z</time>
      </trkpt>
      <trkpt lat="44.46926" lon="1.12236">
        <ele>218.006104</ele>
        <time>2009-06-21T07:37:47Z</time>
      </trkpt>
      <trkpt lat="44.46923" lon="1.12245">
        <ele>217.584183</ele>
        <time>2009-06-21T07:37:51Z</time>
      </trkpt>
      <trkpt lat="44.4692" lon="1.12253">
        <ele>217.257996</ele>
        <time>2009-06-21T07:37:54Z</time>
      </trkpt>
      <trkpt lat="44.46916" lon="1.12262">
        <ele>216.652359</ele>
        <time>2009-06-21T07:37:58Z</time>
      </trkpt>
      <trkpt lat="44.46911" lon="1.1227">
        <ele>215.768723</ele>
        <time>2009-06-21T07:38:01Z</time>
      </trkpt>
      <trkpt lat="44.46908" lon="1.12277">
        <ele>215.154221</ele>
        <time>2009-06-21T07:38:06Z</time>
      </trkpt>
      <trkpt lat="44.46906" lon="1.12283">
        <ele>214.889145</ele>
        <time>2009-06-21T07:38:10Z</time>
      </trkpt>
      <trkpt lat="44.46905" lon="1.1229">
        <ele>214.431503</ele>
        <time>2009-06-21T07:38:16Z</time>
      </trkpt>
      <trkpt lat="44.46902" lon="1.12295">
        <ele>213.619781</ele>
        <time>2009-06-21T07:38:19Z</time>
      </trkpt>
      <trkpt lat="44.46898" lon="1.12301">
        <ele>212.382965</ele>
        <time>2009-06-21T07:38:22Z</time>
      </trkpt>
      <trkpt lat="44.46894" lon="1.12307">
        <ele>210.762451</ele>
        <time>2009-06-21T07:38:25Z</time>
      </trkpt>
      <trkpt lat="44.4689" lon="1.12314">
        <ele>209.345871</ele>
        <time>2009-06-21T07:38:29Z</time>
      </trkpt>
      <trkpt lat="44.46887" lon="1.12331">
        <ele>208.64241</ele>
        <time>2009-06-21T07:38:33Z</time>
      </trkpt>
      <trkpt lat="44.46885" lon="1.1234">
        <ele>207.429153</ele>
        <time>2009-06-21T07:38:36Z</time>
      </trkpt>
      <trkpt lat="44.46884" lon="1.12353">
        <ele>205.443665</ele>
        <time>2009-06-21T07:38:39Z</time>
      </trkpt>
      <trkpt lat="44.46884" lon="1.12362">
        <ele>204.265045</ele>
        <time>2009-06-21T07:38:43Z</time>
      </trkpt>
      <trkpt lat="44.46883" lon="1.12368">
        <ele>203.53389</ele>
        <time>2009-06-21T07:38:46Z</time>
      </trkpt>
      <trkpt lat="44.46884" lon="1.12383">
        <ele>201.981216</ele>
        <time>2009-06-21T07:38:49Z</time>
      </trkpt>
      <trkpt lat="44.46883" lon="1.12393">
        <ele>200.749054</ele>
        <time>2009-06-21T07:38:52Z</time>
      </trkpt>
      <trkpt lat="44.46884" lon="1.12402">
        <ele>199.468018</ele>
        <time>2009-06-21T07:38:55Z</time>
      </trkpt>
      <trkpt lat="44.46885" lon="1.12416">
        <ele>197.191879</ele>
        <time>2009-06-21T07:38:58Z</time>
      </trkpt>
      <trkpt lat="44.46886" lon="1.12428">
        <ele>194.875687</ele>
        <time>2009-06-21T07:39:01Z</time>
      </trkpt>
      <trkpt lat="44.46884" lon="1.1243">
        <ele>193.734039</ele>
        <time>2009-06-21T07:39:06Z</time>
      </trkpt>
      <trkpt lat="44.46883" lon="1.12432">
        <ele>192.912979</ele>
        <time>2009-06-21T07:39:12Z</time>
      </trkpt>
      <trkpt lat="44.46883" lon="1.12442">
        <ele>190.704651</ele>
        <time>2009-06-21T07:39:16Z</time>
      </trkpt>
      <trkpt lat="44.46885" lon="1.12453">
        <ele>188.992645</ele>
        <time>2009-06-21T07:39:19Z</time>
      </trkpt>
      <trkpt lat="44.46887" lon="1.12464">
        <ele>187.278763</ele>
        <time>2009-06-21T07:39:22Z</time>
      </trkpt>
      <trkpt lat="44.46889" lon="1.12475">
        <ele>185.27713</ele>
        <time>2009-06-21T07:39:25Z</time>
      </trkpt>
      <trkpt lat="44.46893" lon="1.12486">
        <ele>183.762497</ele>
        <time>2009-06-21T07:39:30Z</time>
      </trkpt>
      <trkpt lat="44.46896" lon="1.12496">
        <ele>182.059647</ele>
        <time>2009-06-21T07:39:34Z</time>
      </trkpt>
      <trkpt lat="44.469" lon="1.12509">
        <ele>179.868057</ele>
        <time>2009-06-21T07:39:38Z</time>
      </trkpt>
      <trkpt lat="44.46906" lon="1.12522">
        <ele>178.017532</ele>
        <time>2009-06-21T07:39:41Z</time>
      </trkpt>
      <trkpt lat="44.46908" lon="1.12529">
        <ele>176.872116</ele>
        <time>2009-06-21T07:39:44Z</time>
      </trkpt>
      <trkpt lat="44.46912" lon="1.12535">
        <ele>176.256058</ele>
        <time>2009-06-21T07:39:49Z</time>
      </trkpt>
      <trkpt lat="44.46913" lon="1.12537">
        <ele>176.029953</ele>
        <time>2009-06-21T07:39:52Z</time>
      </trkpt>
      <trkpt lat="44.46914" lon="1.12539">
        <ele>175.840942</ele>
        <time>2009-06-21T07:39:56Z</time>
      </trkpt>
      <trkpt lat="44.46919" lon="1.12544">
        <ele>175.352692</ele>
        <time>2009-06-21T07:39:59Z</time>
      </trkpt>
      <trkpt lat="44.46926" lon="1.12549">
        <ele>174.94519</ele>
        <time>2009-06-21T07:40:03Z</time>
      </trkpt>
      <trkpt lat="44.46932" lon="1.12555">
        <ele>173.921021</ele>
        <time>2009-06-21T07:40:06Z</time>
      </trkpt>
      <trkpt lat="44.46938" lon="1.12561">
        <ele>172.728729</ele>
        <time>2009-06-21T07:40:09Z</time>
      </trkpt>
      <trkpt lat="44.46944" lon="1.12569">
        <ele>170.723785</ele>
        <time>2009-06-21T07:40:13Z</time>
      </trkpt>
      <trkpt lat="44.46954" lon="1.12579">
        <ele>168.077545</ele>
        <time>2009-06-21T07:40:16Z</time>
      </trkpt>
      <trkpt lat="44.46965" lon="1.12589">
        <ele>164.977539</ele>
        <time>2009-06-21T07:40:19Z</time>
      </trkpt>
      <trkpt lat="44.46976" lon="1.126">
        <ele>161.722549</ele>
        <time>2009-06-21T07:40:22Z</time>
      </trkpt>
      <trkpt lat="44.46987" lon="1.12609">
        <ele>158.74234</ele>
        <time>2009-06-21T07:40:25Z</time>
      </trkpt>
      <trkpt lat="44.47" lon="1.12619">
        <ele>155.2603</ele>
        <time>2009-06-21T07:40:28Z</time>
      </trkpt>
      <trkpt lat="44.4701" lon="1.12628">
        <ele>152.192261</ele>
        <time>2009-06-21T07:40:31Z</time>
      </trkpt>
      <trkpt lat="44.47023" lon="1.12638">
        <ele>149.699554</ele>
        <time>2009-06-21T07:40:34Z</time>
      </trkpt>
      <trkpt lat="44.47033" lon="1.12648">
        <ele>147.305313</ele>
        <time>2009-06-21T07:40:37Z</time>
      </trkpt>
      <trkpt lat="44.47042" lon="1.12656">
        <ele>145.69899</ele>
        <time>2009-06-21T07:40:40Z</time>
      </trkpt>
      <trkpt lat="44.47049" lon="1.12664">
        <ele>144.079208</ele>
        <time>2009-06-21T07:40:43Z</time>
      </trkpt>
      <trkpt lat="44.47057" lon="1.12669">
        <ele>143.043549</ele>
        <time>2009-06-21T07:40:46Z</time>
      </trkpt>
      <trkpt lat="44.47067" lon="1.12677">
        <ele>141.579712</ele>
        <time>2009-06-21T07:40:49Z</time>
      </trkpt>
      <trkpt lat="44.47076" lon="1.12686">
        <ele>139.556061</ele>
        <time>2009-06-21T07:40:52Z</time>
      </trkpt>
      <trkpt lat="44.47088" lon="1.12693">
        <ele>138.644424</ele>
        <time>2009-06-21T07:40:55Z</time>
      </trkpt>
      <trkpt lat="44.47097" lon="1.12699">
        <ele>137.792068</ele>
        <time>2009-06-21T07:40:58Z</time>
      </trkpt>
      <trkpt lat="44.47109" lon="1.12706">
        <ele>134.979691</ele>
        <time>2009-06-21T07:41:02Z</time>
      </trkpt>
      <trkpt lat="44.47116" lon="1.1271">
        <ele>133.648102</ele>
        <time>2009-06-21T07:41:05Z</time>
      </trkpt>
      <trkpt lat="44.47123" lon="1.12714">
        <ele>132.49472</ele>
        <time>2009-06-21T07:41:08Z</time>
      </trkpt>
      <trkpt lat="44.47128" lon="1.12718">
        <ele>131.366486</ele>
        <time>2009-06-21T07:41:12Z</time>
      </trkpt>
      <trkpt lat="44.47136" lon="1.12722">
        <ele>130.259155</ele>
        <time>2009-06-21T07:41:15Z</time>
      </trkpt>
      <trkpt lat="44.47142" lon="1.12724">
        <ele>129.656708</ele>
        <time>2009-06-21T07:41:18Z</time>
      </trkpt>
      <trkpt lat="44.47147" lon="1.12724">
        <ele>128.778473</ele>
        <time>2009-06-21T07:41:21Z</time>
      </trkpt>
      <trkpt lat="44.47155" lon="1.12724">
        <ele>127.166336</ele>
        <time>2009-06-21T07:41:26Z</time>
      </trkpt>
      <trkpt lat="44.47162" lon="1.12722">
        <ele>126.043999</ele>
        <time>2009-06-21T07:41:29Z</time>
      </trkpt>
      <trkpt lat="44.4717" lon="1.12717">
        <ele>125.253502</ele>
        <time>2009-06-21T07:41:32Z</time>
      </trkpt>
      <trkpt lat="44.47178" lon="1.12706">
        <ele>124.967148</ele>
        <time>2009-06-21T07:41:36Z</time>
      </trkpt>
      <trkpt lat="44.47184" lon="1.12695">
        <ele>125.770515</ele>
        <time>2009-06-21T07:41:39Z</time>
      </trkpt>
      <trkpt lat="44.47187" lon="1.12683">
        <ele>126.988579</ele>
        <time>2009-06-21T07:41:43Z</time>
      </trkpt>
      <trkpt lat="44.47202" lon="1.12671">
        <ele>129.770203</ele>
        <time>2009-06-21T07:41:46Z</time>
      </trkpt>
      <trkpt lat="44.4721" lon="1.12684">
        <ele>128.264633</ele>
        <time>2009-06-21T07:41:49Z</time>
      </trkpt>
      <trkpt lat="44.47215" lon="1.12718">
        <ele>124.403046</ele>
        <time>2009-06-21T07:41:54Z</time>
      </trkpt>
      <trkpt lat="44.47206" lon="1.12751">
        <ele>120.230148</ele>
        <time>2009-06-21T07:41:57Z</time>
      </trkpt>
      <trkpt lat="44.47205" lon="1.12774">
        <ele>117.909592</ele>
        <time>2009-06-21T07:42:00Z</time>
      </trkpt>
      <trkpt lat="44.47203" lon="1.12795">
        <ele>115.542656</ele>
        <time>2009-06-21T07:42:03Z</time>
      </trkpt>
      <trkpt lat="44.47202" lon="1.12806">
        <ele>114.238457</ele>
        <time>2009-06-21T07:42:06Z</time>
      </trkpt>
      <trkpt lat="44.47199" lon="1.12813">
        <ele>113.385002</ele>
        <time>2009-06-21T07:42:20Z</time>
      </trkpt>
      <trkpt lat="44.47195" lon="1.12814">
        <ele>113.105469</ele>
        <time>2009-06-21T07:42:24Z</time>
      </trkpt>
      <trkpt lat="44.47189" lon="1.1281">
        <ele>113.188629</ele>
        <time>2009-06-21T07:42:28Z</time>
      </trkpt>
      <trkpt lat="44.47182" lon="1.12805">
        <ele>113.686409</ele>
        <time>2009-06-21T07:42:31Z</time>
      </trkpt>
      <trkpt lat="44.47175" lon="1.12803">
        <ele>113.990501</ele>
        <time>2009-06-21T07:42:34Z</time>
      </trkpt>
      <trkpt lat="44.47168" lon="1.128">
        <ele>114.335228</ele>
        <time>2009-06-21T07:42:38Z</time>
      </trkpt>
      <trkpt lat="44.47162" lon="1.12797">
        <ele>114.654495</ele>
        <time>2009-06-21T07:42:41Z</time>
      </trkpt>
      <trkpt lat="44.47156" lon="1.12794">
        <ele>114.982437</ele>
        <time>2009-06-21T07:42:44Z</time>
      </trkpt>
      <trkpt lat="44.47149" lon="1.12791">
        <ele>115.359215</ele>
        <time>2009-06-21T07:42:47Z</time>
      </trkpt>
      <trkpt lat="44.47142" lon="1.12786">
        <ele>115.820396</ele>
        <time>2009-06-21T07:42:50Z</time>
      </trkpt>
      <trkpt lat="44.47135" lon="1.12781">
        <ele>116.228378</ele>
        <time>2009-06-21T07:42:53Z</time>
      </trkpt>
      <trkpt lat="44.47127" lon="1.12777">
        <ele>116.446503</ele>
        <time>2009-06-21T07:42:56Z</time>
      </trkpt>
      <trkpt lat="44.4712" lon="1.12772">
        <ele>116.452698</ele>
        <time>2009-06-21T07:42:59Z</time>
      </trkpt>
      <trkpt lat="44.47111" lon="1.12768">
        <ele>117.312332</ele>
        <time>2009-06-21T07:43:02Z</time>
      </trkpt>
      <trkpt lat="44.47103" lon="1.12765">
        <ele>117.959366</ele>
        <time>2009-06-21T07:43:05Z</time>
      </trkpt>
      <trkpt lat="44.47095" lon="1.12762">
        <ele>118.692299</ele>
        <time>2009-06-21T07:43:08Z</time>
      </trkpt>
      <trkpt lat="44.47087" lon="1.1276">
        <ele>119.148438</ele>
        <time>2009-06-21T07:43:11Z</time>
      </trkpt>
      <trkpt lat="44.47079" lon="1.12757">
        <ele>119.516579</ele>
        <time>2009-06-21T07:43:14Z</time>
      </trkpt>
      <trkpt lat="44.4707" lon="1.12756">
        <ele>119.40976</ele>
        <time>2009-06-21T07:43:17Z</time>
      </trkpt>
      <trkpt lat="44.47058" lon="1.12755">
        <ele>119.322472</ele>
        <time>2009-06-21T07:43:20Z</time>
      </trkpt>
      <trkpt lat="44.4705" lon="1.12753">
        <ele>119.338898</ele>
        <time>2009-06-21T07:43:23Z</time>
      </trkpt>
      <trkpt lat="44.47042" lon="1.12751">
        <ele>119.507782</ele>
        <time>2009-06-21T07:43:26Z</time>
      </trkpt>
      <trkpt lat="44.47032" lon="1.12745">
        <ele>119.913902</ele>
        <time>2009-06-21T07:43:30Z</time>
      </trkpt>
      <trkpt lat="44.47025" lon="1.12739">
        <ele>120.11821</ele>
        <time>2009-06-21T07:43:33Z</time>
      </trkpt>
      <trkpt lat="44.47018" lon="1.12732">
        <ele>120.125458</ele>
        <time>2009-06-21T07:43:36Z</time>
      </trkpt>
      <trkpt lat="44.47006" lon="1.12724">
        <ele>119.434616</ele>
        <time>2009-06-21T07:43:40Z</time>
      </trkpt>
      <trkpt lat="44.46998" lon="1.12719">
        <ele>118.717056</ele>
        <time>2009-06-21T07:43:43Z</time>
      </trkpt>
      <trkpt lat="44.46989" lon="1.12715">
        <ele>117.62529</ele>
        <time>2009-06-21T07:43:46Z</time>
      </trkpt>
      <trkpt lat="44.46981" lon="1.12712">
        <ele>116.465576</ele>
        <time>2009-06-21T07:43:49Z</time>
      </trkpt>
      <trkpt lat="44.46972" lon="1.12711">
        <ele>115.230873</ele>
        <time>2009-06-21T07:43:52Z</time>
      </trkpt>
      <trkpt lat="44.46961" lon="1.12712">
        <ele>114.034004</ele>
        <time>2009-06-21T07:43:56Z</time>
      </trkpt>
      <trkpt lat="44.46951" lon="1.12713">
        <ele>113.899765</ele>
        <time>2009-06-21T07:43:59Z</time>
      </trkpt>
      <trkpt lat="44.46941" lon="1.12713">
        <ele>113.760155</ele>
        <time>2009-06-21T07:44:02Z</time>
      </trkpt>
      <trkpt lat="44.46931" lon="1.12714">
        <ele>113.556114</ele>
        <time>2009-06-21T07:44:05Z</time>
      </trkpt>
      <trkpt lat="44.46922" lon="1.12714">
        <ele>113.473312</ele>
        <time>2009-06-21T07:44:08Z</time>
      </trkpt>
      <trkpt lat="44.46913" lon="1.12716">
        <ele>113.923927</ele>
        <time>2009-06-21T07:44:11Z</time>
      </trkpt>
      <trkpt lat="44.46905" lon="1.12717">
        <ele>114.459679</ele>
        <time>2009-06-21T07:44:14Z</time>
      </trkpt>
      <trkpt lat="44.46896" lon="1.12718">
        <ele>114.922501</ele>
        <time>2009-06-21T07:44:17Z</time>
      </trkpt>
      <trkpt lat="44.46887" lon="1.12719">
        <ele>115.457809</ele>
        <time>2009-06-21T07:44:20Z</time>
      </trkpt>
      <trkpt lat="44.46879" lon="1.12721">
        <ele>115.991402</ele>
        <time>2009-06-21T07:44:23Z</time>
      </trkpt>
      <trkpt lat="44.46869" lon="1.12719">
        <ele>116.198219</ele>
        <time>2009-06-21T07:44:28Z</time>
      </trkpt>
      <trkpt lat="44.46859" lon="1.12711">
        <ele>117.070778</ele>
        <time>2009-06-21T07:44:31Z</time>
      </trkpt>
      <trkpt lat="44.46849" lon="1.12702">
        <ele>119.027336</ele>
        <time>2009-06-21T07:44:34Z</time>
      </trkpt>
      <trkpt lat="44.46843" lon="1.12692">
        <ele>119.860504</ele>
        <time>2009-06-21T07:44:38Z</time>
      </trkpt>
      <trkpt lat="44.46842" lon="1.12682">
        <ele>120.429382</ele>
        <time>2009-06-21T07:44:42Z</time>
      </trkpt>
      <trkpt lat="44.46839" lon="1.12673">
        <ele>120.453476</ele>
        <time>2009-06-21T07:44:45Z</time>
      </trkpt>
      <trkpt lat="44.46835" lon="1.12661">
        <ele>120.00206</ele>
        <time>2009-06-21T07:44:49Z</time>
      </trkpt>
      <trkpt lat="44.46831" lon="1.12653">
        <ele>118.997589</ele>
        <time>2009-06-21T07:44:54Z</time>
      </trkpt>
      <trkpt lat="44.46828" lon="1.12647">
        <ele>118.841446</ele>
        <time>2009-06-21T07:44:57Z</time>
      </trkpt>
      <trkpt lat="44.46823" lon="1.12638">
        <ele>121.119148</ele>
        <time>2009-06-21T07:45:01Z</time>
      </trkpt>
      <trkpt lat="44.46819" lon="1.12628">
        <ele>122.903847</ele>
        <time>2009-06-21T07:45:05Z</time>
      </trkpt>
      <trkpt lat="44.46814" lon="1.1262">
        <ele>124.043114</ele>
        <time>2009-06-21T07:45:08Z</time>
      </trkpt>
      <trkpt lat="44.4681" lon="1.12612">
        <ele>124.697029</ele>
        <time>2009-06-21T07:45:11Z</time>
      </trkpt>
      <trkpt lat="44.46807" lon="1.12604">
        <ele>124.971939</ele>
        <time>2009-06-21T07:45:14Z</time>
      </trkpt>
      <trkpt lat="44.46805" lon="1.12595">
        <ele>125.047401</ele>
        <time>2009-06-21T07:45:17Z</time>
      </trkpt>
      <trkpt lat="44.46802" lon="1.1259">
        <ele>124.656113</ele>
        <time>2009-06-21T07:45:22Z</time>
      </trkpt>
      <trkpt lat="44.46799" lon="1.12583">
        <ele>124.970566</ele>
        <time>2009-06-21T07:45:25Z</time>
      </trkpt>
      <trkpt lat="44.46796" lon="1.12573">
        <ele>125.615189</ele>
        <time>2009-06-21T07:45:28Z</time>
      </trkpt>
      <trkpt lat="44.46794" lon="1.12567">
        <ele>125.57402</ele>
        <time>2009-06-21T07:45:32Z</time>
      </trkpt>
      <trkpt lat="44.46792" lon="1.1256">
        <ele>125.649361</ele>
        <time>2009-06-21T07:45:35Z</time>
      </trkpt>
      <trkpt lat="44.4679" lon="1.12554">
        <ele>125.631859</ele>
        <time>2009-06-21T07:45:38Z</time>
      </trkpt>
      <trkpt lat="44.4679" lon="1.12546">
        <ele>126.157707</ele>
        <time>2009-06-21T07:45:42Z</time>
      </trkpt>
      <trkpt lat="44.46786" lon="1.12538">
        <ele>125.502609</ele>
        <time>2009-06-21T07:45:45Z</time>
      </trkpt>
      <trkpt lat="44.46784" lon="1.12529">
        <ele>125.244522</ele>
        <time>2009-06-21T07:45:49Z</time>
      </trkpt>
      <trkpt lat="44.4678" lon="1.12519">
        <ele>125.761772</ele>
        <time>2009-06-21T07:45:52Z</time>
      </trkpt>
      <trkpt lat="44.46777" lon="1.12511">
        <ele>128.073502</ele>
        <time>2009-06-21T07:45:55Z</time>
      </trkpt>
      <trkpt lat="44.46775" lon="1.12505">
        <ele>129.473373</ele>
        <time>2009-06-21T07:45:58Z</time>
      </trkpt>
      <trkpt lat="44.46771" lon="1.12499">
        <ele>131.068604</ele>
        <time>2009-06-21T07:46:01Z</time>
      </trkpt>
      <trkpt lat="44.46767" lon="1.12493">
        <ele>132.563751</ele>
        <time>2009-06-21T07:46:04Z</time>
      </trkpt>
      <trkpt lat="44.46762" lon="1.12487">
        <ele>133.844894</ele>
        <time>2009-06-21T07:46:07Z</time>
      </trkpt>
      <trkpt lat="44.4676" lon="1.12483">
        <ele>134.410355</ele>
        <time>2009-06-21T07:46:10Z</time>
      </trkpt>
      <trkpt lat="44.46756" lon="1.12473">
        <ele>135.2771</ele>
        <time>2009-06-21T07:46:14Z</time>
      </trkpt>
      <trkpt lat="44.46754" lon="1.12467">
        <ele>135.548004</ele>
        <time>2009-06-21T07:46:17Z</time>
      </trkpt>
      <trkpt lat="44.46752" lon="1.12462">
        <ele>135.786255</ele>
        <time>2009-06-21T07:46:20Z</time>
      </trkpt>
      <trkpt lat="44.46751" lon="1.12454">
        <ele>136.122269</ele>
        <time>2009-06-21T07:46:24Z</time>
      </trkpt>
      <trkpt lat="44.46749" lon="1.12449">
        <ele>136.311569</ele>
        <time>2009-06-21T07:46:27Z</time>
      </trkpt>
      <trkpt lat="44.46745" lon="1.12441">
        <ele>136.472809</ele>
        <time>2009-06-21T07:46:31Z</time>
      </trkpt>
      <trkpt lat="44.46745" lon="1.12435">
        <ele>136.591812</ele>
        <time>2009-06-21T07:46:35Z</time>
      </trkpt>
      <trkpt lat="44.46745" lon="1.12425">
        <ele>136.862747</ele>
        <time>2009-06-21T07:46:38Z</time>
      </trkpt>
      <trkpt lat="44.46744" lon="1.12418">
        <ele>137.015778</ele>
        <time>2009-06-21T07:46:42Z</time>
      </trkpt>
      <trkpt lat="44.46744" lon="1.12412">
        <ele>137.187973</ele>
        <time>2009-06-21T07:46:45Z</time>
      </trkpt>
      <trkpt lat="44.46744" lon="1.12406">
        <ele>137.369202</ele>
        <time>2009-06-21T07:46:49Z</time>
      </trkpt>
      <trkpt lat="44.46747" lon="1.12397">
        <ele>138.028519</ele>
        <time>2009-06-21T07:46:53Z</time>
      </trkpt>
      <trkpt lat="44.46749" lon="1.12387">
        <ele>138.505035</ele>
        <time>2009-06-21T07:46:56Z</time>
      </trkpt>
      <trkpt lat="44.4675" lon="1.1238">
        <ele>138.890701</ele>
        <time>2009-06-21T07:47:01Z</time>
      </trkpt>
      <trkpt lat="44.4675" lon="1.12369">
        <ele>139.183243</ele>
        <time>2009-06-21T07:47:04Z</time>
      </trkpt>
      <trkpt lat="44.46749" lon="1.12362">
        <ele>139.153152</ele>
        <time>2009-06-21T07:47:08Z</time>
      </trkpt>
      <trkpt lat="44.46747" lon="1.12356">
        <ele>138.862061</ele>
        <time>2009-06-21T07:47:11Z</time>
      </trkpt>
      <trkpt lat="44.46745" lon="1.12346">
        <ele>138.460434</ele>
        <time>2009-06-21T07:47:15Z</time>
      </trkpt>
      <trkpt lat="44.46742" lon="1.12334">
        <ele>138.054245</ele>
        <time>2009-06-21T07:47:19Z</time>
      </trkpt>
      <trkpt lat="44.46742" lon="1.12328">
        <ele>137.995865</ele>
        <time>2009-06-21T07:47:22Z</time>
      </trkpt>
      <trkpt lat="44.4674" lon="1.12322">
        <ele>137.521683</ele>
        <time>2009-06-21T07:47:25Z</time>
      </trkpt>
      <trkpt lat="44.46738" lon="1.12314">
        <ele>137.111374</ele>
        <time>2009-06-21T07:47:28Z</time>
      </trkpt>
      <trkpt lat="44.46736" lon="1.12307">
        <ele>136.57959</ele>
        <time>2009-06-21T07:47:31Z</time>
      </trkpt>
      <trkpt lat="44.46732" lon="1.12299">
        <ele>136.10347</ele>
        <time>2009-06-21T07:47:35Z</time>
      </trkpt>
      <trkpt lat="44.46728" lon="1.12293">
        <ele>136.315826</ele>
        <time>2009-06-21T07:47:38Z</time>
      </trkpt>
      <trkpt lat="44.46723" lon="1.1229">
        <ele>136.460724</ele>
        <time>2009-06-21T07:47:41Z</time>
      </trkpt>
      <trkpt lat="44.46717" lon="1.12285">
        <ele>136.581131</ele>
        <time>2009-06-21T07:47:44Z</time>
      </trkpt>
      <trkpt lat="44.46713" lon="1.12283">
        <ele>136.642654</ele>
        <time>2009-06-21T07:47:47Z</time>
      </trkpt>
      <trkpt lat="44.46708" lon="1.12278">
        <ele>136.606522</ele>
        <time>2009-06-21T07:47:50Z</time>
      </trkpt>
      <trkpt lat="44.46703" lon="1.12274">
        <ele>137.368454</ele>
        <time>2009-06-21T07:47:53Z</time>
      </trkpt>
      <trkpt lat="44.46697" lon="1.12269">
        <ele>138.184845</ele>
        <time>2009-06-21T07:47:56Z</time>
      </trkpt>
      <trkpt lat="44.46692" lon="1.12263">
        <ele>139.216095</ele>
        <time>2009-06-21T07:47:59Z</time>
      </trkpt>
      <trkpt lat="44.46687" lon="1.12259">
        <ele>139.750397</ele>
        <time>2009-06-21T07:48:03Z</time>
      </trkpt>
      <trkpt lat="44.46684" lon="1.12255">
        <ele>140.523499</ele>
        <time>2009-06-21T07:48:06Z</time>
      </trkpt>
      <trkpt lat="44.46679" lon="1.12249">
        <ele>141.251801</ele>
        <time>2009-06-21T07:48:10Z</time>
      </trkpt>
      <trkpt lat="44.46676" lon="1.12243">
        <ele>141.79097</ele>
        <time>2009-06-21T07:48:14Z</time>
      </trkpt>
      <trkpt lat="44.46672" lon="1.1224">
        <ele>141.884628</ele>
        <time>2009-06-21T07:48:17Z</time>
      </trkpt>
      <trkpt lat="44.46665" lon="1.12233">
        <ele>141.704117</ele>
        <time>2009-06-21T07:48:20Z</time>
      </trkpt>
      <trkpt lat="44.46658" lon="1.12226">
        <ele>140.914124</ele>
        <time>2009-06-21T07:48:24Z</time>
      </trkpt>
      <trkpt lat="44.46654" lon="1.12221">
        <ele>140.189606</ele>
        <time>2009-06-21T07:48:27Z</time>
      </trkpt>
      <trkpt lat="44.4665" lon="1.12214">
        <ele>139.5737</ele>
        <time>2009-06-21T07:48:30Z</time>
      </trkpt>
      <trkpt lat="44.46647" lon="1.12209">
        <ele>139.79393</ele>
        <time>2009-06-21T07:48:33Z</time>
      </trkpt>
      <trkpt lat="44.46642" lon="1.12205">
        <ele>139.693375</ele>
        <time>2009-06-21T07:48:36Z</time>
      </trkpt>
      <trkpt lat="44.46637" lon="1.12197">
        <ele>141.229172</ele>
        <time>2009-06-21T07:48:40Z</time>
      </trkpt>
      <trkpt lat="44.46633" lon="1.1219">
        <ele>142.095169</ele>
        <time>2009-06-21T07:48:43Z</time>
      </trkpt>
      <trkpt lat="44.46631" lon="1.1218">
        <ele>143.002945</ele>
        <time>2009-06-21T07:48:48Z</time>
      </trkpt>
      <trkpt lat="44.46626" lon="1.12174">
        <ele>143.344864</ele>
        <time>2009-06-21T07:48:51Z</time>
      </trkpt>
      <trkpt lat="44.46625" lon="1.12165">
        <ele>143.699066</ele>
        <time>2009-06-21T07:48:55Z</time>
      </trkpt>
      <trkpt lat="44.46622" lon="1.12158">
        <ele>143.687302</ele>
        <time>2009-06-21T07:48:58Z</time>
      </trkpt>
      <trkpt lat="44.46617" lon="1.12149">
        <ele>144.002884</ele>
        <time>2009-06-21T07:49:02Z</time>
      </trkpt>
      <trkpt lat="44.46615" lon="1.12145">
        <ele>144.26442</ele>
        <time>2009-06-21T07:49:06Z</time>
      </trkpt>
      <trkpt lat="44.46609" lon="1.12138">
        <ele>143.921097</ele>
        <time>2009-06-21T07:49:09Z</time>
      </trkpt>
      <trkpt lat="44.46604" lon="1.1213">
        <ele>143.41655</ele>
        <time>2009-06-21T07:49:13Z</time>
      </trkpt>
      <trkpt lat="44.46599" lon="1.12124">
        <ele>142.597443</ele>
        <time>2009-06-21T07:49:16Z</time>
      </trkpt>
      <trkpt lat="44.46595" lon="1.12117">
        <ele>142.551468</ele>
        <time>2009-06-21T07:49:19Z</time>
      </trkpt>
      <trkpt lat="44.4659" lon="1.12111">
        <ele>143.104721</ele>
        <time>2009-06-21T07:49:22Z</time>
      </trkpt>
      <trkpt lat="44.46585" lon="1.12102">
        <ele>143.417114</ele>
        <time>2009-06-21T07:49:26Z</time>
      </trkpt>
      <trkpt lat="44.46581" lon="1.12097">
        <ele>143.377472</ele>
        <time>2009-06-21T07:49:29Z</time>
      </trkpt>
      <trkpt lat="44.46578" lon="1.12088">
        <ele>143.611023</ele>
        <time>2009-06-21T07:49:33Z</time>
      </trkpt>
      <trkpt lat="44.46573" lon="1.1208">
        <ele>143.98233</ele>
        <time>2009-06-21T07:49:36Z</time>
      </trkpt>
      <trkpt lat="44.4657" lon="1.12069">
        <ele>144.215881</ele>
        <time>2009-06-21T07:49:40Z</time>
      </trkpt>
      <trkpt lat="44.46566" lon="1.12064">
        <ele>143.876007</ele>
        <time>2009-06-21T07:49:44Z</time>
      </trkpt>
      <trkpt lat="44.46564" lon="1.12056">
        <ele>143.508942</ele>
        <time>2009-06-21T07:49:48Z</time>
      </trkpt>
      <trkpt lat="44.46561" lon="1.12046">
        <ele>143.093155</ele>
        <time>2009-06-21T07:49:51Z</time>
      </trkpt>
      <trkpt lat="44.46558" lon="1.12041">
        <ele>141.970337</ele>
        <time>2009-06-21T07:49:54Z</time>
      </trkpt>
      <trkpt lat="44.46555" lon="1.12033">
        <ele>140.930527</ele>
        <time>2009-06-21T07:49:57Z</time>
      </trkpt>
      <trkpt lat="44.46553" lon="1.1202">
        <ele>141.057846</ele>
        <time>2009-06-21T07:50:01Z</time>
      </trkpt>
      <trkpt lat="44.4655" lon="1.12012">
        <ele>141.333557</ele>
        <time>2009-06-21T07:50:04Z</time>
      </trkpt>
      <trkpt lat="44.46546" lon="1.12003">
        <ele>143.023621</ele>
        <time>2009-06-21T07:50:07Z</time>
      </trkpt>
      <trkpt lat="44.46541" lon="1.11996">
        <ele>144.495071</ele>
        <time>2009-06-21T07:50:10Z</time>
      </trkpt>
      <trkpt lat="44.46535" lon="1.11987">
        <ele>145.954056</ele>
        <time>2009-06-21T07:50:14Z</time>
      </trkpt>
      <trkpt lat="44.4653" lon="1.11976">
        <ele>146.953445</ele>
        <time>2009-06-21T07:50:17Z</time>
      </trkpt>
      <trkpt lat="44.46531" lon="1.11967">
        <ele>147.422653</ele>
        <time>2009-06-21T07:50:21Z</time>
      </trkpt>
      <trkpt lat="44.4653" lon="1.11955">
        <ele>148.332123</ele>
        <time>2009-06-21T07:50:24Z</time>
      </trkpt>
      <trkpt lat="44.46528" lon="1.11944">
        <ele>149.188431</ele>
        <time>2009-06-21T07:50:28Z</time>
      </trkpt>
      <trkpt lat="44.46525" lon="1.11936">
        <ele>149.744171</ele>
        <time>2009-06-21T07:50:31Z</time>
      </trkpt>
      <trkpt lat="44.46522" lon="1.1193">
        <ele>150.109177</ele>
        <time>2009-06-21T07:50:34Z</time>
      </trkpt>
      <trkpt lat="44.4652" lon="1.11924">
        <ele>150.465485</ele>
        <time>2009-06-21T07:50:37Z</time>
      </trkpt>
      <trkpt lat="44.46516" lon="1.11918">
        <ele>150.737137</ele>
        <time>2009-06-21T07:50:40Z</time>
      </trkpt>
      <trkpt lat="44.46511" lon="1.11913">
        <ele>150.855179</ele>
        <time>2009-06-21T07:50:43Z</time>
      </trkpt>
      <trkpt lat="44.46504" lon="1.11909">
        <ele>150.854309</ele>
        <time>2009-06-21T07:50:47Z</time>
      </trkpt>
      <trkpt lat="44.46496" lon="1.11905">
        <ele>151.274887</ele>
        <time>2009-06-21T07:50:51Z</time>
      </trkpt>
      <trkpt lat="44.4649" lon="1.11902">
        <ele>152.077759</ele>
        <time>2009-06-21T07:50:54Z</time>
      </trkpt>
      <trkpt lat="44.46484" lon="1.11899">
        <ele>152.722763</ele>
        <time>2009-06-21T07:50:57Z</time>
      </trkpt>
      <trkpt lat="44.46476" lon="1.11894">
        <ele>153.698517</ele>
        <time>2009-06-21T07:51:01Z</time>
      </trkpt>
      <trkpt lat="44.4647" lon="1.11888">
        <ele>154.680832</ele>
        <time>2009-06-21T07:51:05Z</time>
      </trkpt>
      <trkpt lat="44.46463" lon="1.11886">
        <ele>154.953033</ele>
        <time>2009-06-21T07:51:08Z</time>
      </trkpt>
      <trkpt lat="44.46457" lon="1.11882">
        <ele>155.57283</ele>
        <time>2009-06-21T07:51:11Z</time>
      </trkpt>
      <trkpt lat="44.46449" lon="1.11878">
        <ele>156.398758</ele>
        <time>2009-06-21T07:51:15Z</time>
      </trkpt>
      <trkpt lat="44.46443" lon="1.1187">
        <ele>157.305069</ele>
        <time>2009-06-21T07:51:19Z</time>
      </trkpt>
      <trkpt lat="44.46438" lon="1.11868">
        <ele>157.488174</ele>
        <time>2009-06-21T07:51:22Z</time>
      </trkpt>
      <trkpt lat="44.46434" lon="1.11863">
        <ele>157.731796</ele>
        <time>2009-06-21T07:51:26Z</time>
      </trkpt>
      <trkpt lat="44.46427" lon="1.11856">
        <ele>157.784393</ele>
        <time>2009-06-21T07:51:29Z</time>
      </trkpt>
      <trkpt lat="44.4642" lon="1.1185">
        <ele>157.475311</ele>
        <time>2009-06-21T07:51:32Z</time>
      </trkpt>
      <trkpt lat="44.46414" lon="1.11846">
        <ele>157.063065</ele>
        <time>2009-06-21T07:51:36Z</time>
      </trkpt>
      <trkpt lat="44.46406" lon="1.1184">
        <ele>157.57373</ele>
        <time>2009-06-21T07:51:39Z</time>
      </trkpt>
      <trkpt lat="44.46399" lon="1.11834">
        <ele>158.369247</ele>
        <time>2009-06-21T07:51:42Z</time>
      </trkpt>
      <trkpt lat="44.46392" lon="1.11831">
        <ele>158.776031</ele>
        <time>2009-06-21T07:51:45Z</time>
      </trkpt>
      <trkpt lat="44.46386" lon="1.11828">
        <ele>159.051559</ele>
        <time>2009-06-21T07:51:48Z</time>
      </trkpt>
      <trkpt lat="44.46379" lon="1.11827">
        <ele>159.165451</ele>
        <time>2009-06-21T07:51:52Z</time>
      </trkpt>
      <trkpt lat="44.46372" lon="1.11826">
        <ele>159.149414</ele>
        <time>2009-06-21T07:51:55Z</time>
      </trkpt>
      <trkpt lat="44.46364" lon="1.11828">
        <ele>159.216446</ele>
        <time>2009-06-21T07:51:58Z</time>
      </trkpt>
      <trkpt lat="44.46357" lon="1.11828">
        <ele>159.480545</ele>
        <time>2009-06-21T07:52:01Z</time>
      </trkpt>
      <trkpt lat="44.46349" lon="1.11831">
        <ele>159.530258</ele>
        <time>2009-06-21T07:52:05Z</time>
      </trkpt>
      <trkpt lat="44.46344" lon="1.11833">
        <ele>159.422043</ele>
        <time>2009-06-21T07:52:08Z</time>
      </trkpt>
      <trkpt lat="44.46338" lon="1.11835">
        <ele>159.422394</ele>
        <time>2009-06-21T07:52:12Z</time>
      </trkpt>
      <trkpt lat="44.46332" lon="1.11836">
        <ele>159.388443</ele>
        <time>2009-06-21T07:52:15Z</time>
      </trkpt>
      <trkpt lat="44.46324" lon="1.11837">
        <ele>159.53125</ele>
        <time>2009-06-21T07:52:18Z</time>
      </trkpt>
      <trkpt lat="44.46319" lon="1.1184">
        <ele>158.939713</ele>
        <time>2009-06-21T07:52:21Z</time>
      </trkpt>
      <trkpt lat="44.4631" lon="1.11844">
        <ele>157.975281</ele>
        <time>2009-06-21T07:52:25Z</time>
      </trkpt>
      <trkpt lat="44.46303" lon="1.11847">
        <ele>157.122131</ele>
        <time>2009-06-21T07:52:28Z</time>
      </trkpt>
      <trkpt lat="44.46297" lon="1.11849">
        <ele>157.121826</ele>
        <time>2009-06-21T07:52:31Z</time>
      </trkpt>
      <trkpt lat="44.46289" lon="1.1185">
        <ele>156.889984</ele>
        <time>2009-06-21T07:52:34Z</time>
      </trkpt>
      <trkpt lat="44.46281" lon="1.11853">
        <ele>157.158234</ele>
        <time>2009-06-21T07:52:39Z</time>
      </trkpt>
      <trkpt lat="44.46275" lon="1.11853">
        <ele>157.381088</ele>
        <time>2009-06-21T07:52:42Z</time>
      </trkpt>
      <trkpt lat="44.46264" lon="1.1185">
        <ele>157.767685</ele>
        <time>2009-06-21T07:52:45Z</time>
      </trkpt>
      <trkpt lat="44.46259" lon="1.11847">
        <ele>157.897552</ele>
        <time>2009-06-21T07:52:48Z</time>
      </trkpt>
      <trkpt lat="44.46253" lon="1.11847">
        <ele>158.468842</ele>
        <time>2009-06-21T07:52:52Z</time>
      </trkpt>
      <trkpt lat="44.46245" lon="1.11846">
        <ele>159.606445</ele>
        <time>2009-06-21T07:52:56Z</time>
      </trkpt>
      <trkpt lat="44.46238" lon="1.11841">
        <ele>161.442444</ele>
        <time>2009-06-21T07:53:00Z</time>
      </trkpt>
      <trkpt lat="44.46231" lon="1.11838">
        <ele>162.430725</ele>
        <time>2009-06-21T07:53:03Z</time>
      </trkpt>
      <trkpt lat="44.46224" lon="1.11836">
        <ele>163.036499</ele>
        <time>2009-06-21T07:53:07Z</time>
      </trkpt>
      <trkpt lat="44.46218" lon="1.11835">
        <ele>163.482346</ele>
        <time>2009-06-21T07:53:10Z</time>
      </trkpt>
      <trkpt lat="44.46213" lon="1.11834">
        <ele>163.774094</ele>
        <time>2009-06-21T07:53:13Z</time>
      </trkpt>
      <trkpt lat="44.46208" lon="1.11832">
        <ele>164.361191</ele>
        <time>2009-06-21T07:53:17Z</time>
      </trkpt>
      <trkpt lat="44.462" lon="1.11831">
        <ele>164.694473</ele>
        <time>2009-06-21T07:53:21Z</time>
      </trkpt>
      <trkpt lat="44.46194" lon="1.11829">
        <ele>165.091064</ele>
        <time>2009-06-21T07:53:24Z</time>
      </trkpt>
      <trkpt lat="44.46189" lon="1.11826">
        <ele>165.775513</ele>
        <time>2009-06-21T07:53:27Z</time>
      </trkpt>
      <trkpt lat="44.46181" lon="1.11824">
        <ele>166.708069</ele>
        <time>2009-06-21T07:53:30Z</time>
      </trkpt>
      <trkpt lat="44.46175" lon="1.11822">
        <ele>167.259995</ele>
        <time>2009-06-21T07:53:34Z</time>
      </trkpt>
      <trkpt lat="44.46167" lon="1.1182">
        <ele>168.031631</ele>
        <time>2009-06-21T07:53:38Z</time>
      </trkpt>
      <trkpt lat="44.46159" lon="1.11817">
        <ele>168.687622</ele>
        <time>2009-06-21T07:53:42Z</time>
      </trkpt>
      <trkpt lat="44.46151" lon="1.11815">
        <ele>169.130966</ele>
        <time>2009-06-21T07:53:45Z</time>
      </trkpt>
      <trkpt lat="44.46146" lon="1.11813">
        <ele>169.505981</ele>
        <time>2009-06-21T07:53:49Z</time>
      </trkpt>
      <trkpt lat="44.46138" lon="1.11811">
        <ele>169.934387</ele>
        <time>2009-06-21T07:53:53Z</time>
      </trkpt>
      <trkpt lat="44.46129" lon="1.11809">
        <ele>170.389297</ele>
        <time>2009-06-21T07:53:56Z</time>
      </trkpt>
      <trkpt lat="44.46124" lon="1.11808">
        <ele>170.658066</ele>
        <time>2009-06-21T07:53:59Z</time>
      </trkpt>
      <trkpt lat="44.46113" lon="1.11807">
        <ele>171.01413</ele>
        <time>2009-06-21T07:54:04Z</time>
      </trkpt>
      <trkpt lat="44.46107" lon="1.11806">
        <ele>171.250748</ele>
        <time>2009-06-21T07:54:07Z</time>
      </trkpt>
      <trkpt lat="44.46098" lon="1.118">
        <ele>171.623444</ele>
        <time>2009-06-21T07:54:10Z</time>
      </trkpt>
      <trkpt lat="44.46092" lon="1.11798">
        <ele>171.808746</ele>
        <time>2009-06-21T07:54:14Z</time>
      </trkpt>
      <trkpt lat="44.46087" lon="1.11796">
        <ele>171.920074</ele>
        <time>2009-06-21T07:54:17Z</time>
      </trkpt>
      <trkpt lat="44.46077" lon="1.11791">
        <ele>172.014435</ele>
        <time>2009-06-21T07:54:21Z</time>
      </trkpt>
      <trkpt lat="44.46069" lon="1.11789">
        <ele>172.081604</ele>
        <time>2009-06-21T07:54:24Z</time>
      </trkpt>
      <trkpt lat="44.46065" lon="1.11786">
        <ele>172.702896</ele>
        <time>2009-06-21T07:54:27Z</time>
      </trkpt>
      <trkpt lat="44.46055" lon="1.1178">
        <ele>173.805939</ele>
        <time>2009-06-21T07:54:31Z</time>
      </trkpt>
      <trkpt lat="44.46047" lon="1.11778">
        <ele>174.194275</ele>
        <time>2009-06-21T07:54:34Z</time>
      </trkpt>
      <trkpt lat="44.46043" lon="1.11779">
        <ele>174.074951</ele>
        <time>2009-06-21T07:54:38Z</time>
      </trkpt>
      <trkpt lat="44.46038" lon="1.11779">
        <ele>174.152969</ele>
        <time>2009-06-21T07:54:41Z</time>
      </trkpt>
      <trkpt lat="44.46031" lon="1.1178">
        <ele>174.204971</ele>
        <time>2009-06-21T07:54:44Z</time>
      </trkpt>
      <trkpt lat="44.46022" lon="1.11778">
        <ele>174.521957</ele>
        <time>2009-06-21T07:54:47Z</time>
      </trkpt>
      <trkpt lat="44.46011" lon="1.11776">
        <ele>175.053726</ele>
        <time>2009-06-21T07:54:50Z</time>
      </trkpt>
      <trkpt lat="44.46" lon="1.11773">
        <ele>175.921982</ele>
        <time>2009-06-21T07:54:54Z</time>
      </trkpt>
      <trkpt lat="44.45993" lon="1.11769">
        <ele>176.598389</ele>
        <time>2009-06-21T07:54:57Z</time>
      </trkpt>
      <trkpt lat="44.45987" lon="1.11767">
        <ele>177.071503</ele>
        <time>2009-06-21T07:55:00Z</time>
      </trkpt>
      <trkpt lat="44.45982" lon="1.11761">
        <ele>177.674103</ele>
        <time>2009-06-21T07:55:04Z</time>
      </trkpt>
      <trkpt lat="44.45978" lon="1.11753">
        <ele>178.264771</ele>
        <time>2009-06-21T07:55:08Z</time>
      </trkpt>
      <trkpt lat="44.45976" lon="1.11749">
        <ele>178.5233</ele>
        <time>2009-06-21T07:55:11Z</time>
      </trkpt>
      <trkpt lat="44.45972" lon="1.11744">
        <ele>178.717819</ele>
        <time>2009-06-21T07:55:14Z</time>
      </trkpt>
      <trkpt lat="44.45968" lon="1.1174">
        <ele>178.82959</ele>
        <time>2009-06-21T07:55:17Z</time>
      </trkpt>
      <trkpt lat="44.45965" lon="1.11738">
        <ele>178.803848</ele>
        <time>2009-06-21T07:55:20Z</time>
      </trkpt>
      <trkpt lat="44.4596" lon="1.11732">
        <ele>178.910339</ele>
        <time>2009-06-21T07:55:25Z</time>
      </trkpt>
      <trkpt lat="44.45957" lon="1.11729">
        <ele>178.989349</ele>
        <time>2009-06-21T07:55:28Z</time>
      </trkpt>
      <trkpt lat="44.45952" lon="1.11724">
        <ele>180.025894</ele>
        <time>2009-06-21T07:55:31Z</time>
      </trkpt>
      <trkpt lat="44.45946" lon="1.11719">
        <ele>180.882401</ele>
        <time>2009-06-21T07:55:34Z</time>
      </trkpt>
      <trkpt lat="44.45939" lon="1.11712">
        <ele>181.910599</ele>
        <time>2009-06-21T07:55:38Z</time>
      </trkpt>
      <trkpt lat="44.45935" lon="1.11708">
        <ele>182.385971</ele>
        <time>2009-06-21T07:55:41Z</time>
      </trkpt>
      <trkpt lat="44.45928" lon="1.11706">
        <ele>182.499908</ele>
        <time>2009-06-21T07:55:45Z</time>
      </trkpt>
      <trkpt lat="44.45924" lon="1.11704">
        <ele>182.602875</ele>
        <time>2009-06-21T07:55:48Z</time>
      </trkpt>
      <trkpt lat="44.45919" lon="1.11701">
        <ele>182.730423</ele>
        <time>2009-06-21T07:55:51Z</time>
      </trkpt>
      <trkpt lat="44.45915" lon="1.11698">
        <ele>182.947098</ele>
        <time>2009-06-21T07:55:54Z</time>
      </trkpt>
      <trkpt lat="44.4591" lon="1.11695">
        <ele>183.324661</ele>
        <time>2009-06-21T07:55:58Z</time>
      </trkpt>
      <trkpt lat="44.45905" lon="1.11692">
        <ele>183.544098</ele>
        <time>2009-06-21T07:56:01Z</time>
      </trkpt>
      <trkpt lat="44.45902" lon="1.11691">
        <ele>183.574997</ele>
        <time>2009-06-21T07:56:04Z</time>
      </trkpt>
      <trkpt lat="44.45897" lon="1.11689">
        <ele>183.687439</ele>
        <time>2009-06-21T07:56:08Z</time>
      </trkpt>
      <trkpt lat="44.45893" lon="1.11685">
        <ele>183.846313</ele>
        <time>2009-06-21T07:56:11Z</time>
      </trkpt>
      <trkpt lat="44.45887" lon="1.11684">
        <ele>183.750961</ele>
        <time>2009-06-21T07:56:14Z</time>
      </trkpt>
      <trkpt lat="44.45882" lon="1.11683">
        <ele>183.615646</ele>
        <time>2009-06-21T07:56:17Z</time>
      </trkpt>
      <trkpt lat="44.45874" lon="1.11676">
        <ele>183.656723</ele>
        <time>2009-06-21T07:56:21Z</time>
      </trkpt>
      <trkpt lat="44.45869" lon="1.11673">
        <ele>183.591675</ele>
        <time>2009-06-21T07:56:25Z</time>
      </trkpt>
      <trkpt lat="44.45865" lon="1.1167">
        <ele>183.449753</ele>
        <time>2009-06-21T07:56:29Z</time>
      </trkpt>
      <trkpt lat="44.45858" lon="1.11666">
        <ele>183.487305</ele>
        <time>2009-06-21T07:56:32Z</time>
      </trkpt>
      <trkpt lat="44.45854" lon="1.11664">
        <ele>183.791367</ele>
        <time>2009-06-21T07:56:35Z</time>
      </trkpt>
      <trkpt lat="44.45843" lon="1.1166">
        <ele>184.195663</ele>
        <time>2009-06-21T07:56:39Z</time>
      </trkpt>
      <trkpt lat="44.45834" lon="1.11655">
        <ele>184.688644</ele>
        <time>2009-06-21T07:56:42Z</time>
      </trkpt>
      <trkpt lat="44.45829" lon="1.11652">
        <ele>185.180405</ele>
        <time>2009-06-21T07:56:45Z</time>
      </trkpt>
      <trkpt lat="44.45826" lon="1.11649">
        <ele>185.737</ele>
        <time>2009-06-21T07:56:48Z</time>
      </trkpt>
      <trkpt lat="44.45821" lon="1.11643">
        <ele>187.16362</ele>
        <time>2009-06-21T07:56:52Z</time>
      </trkpt>
      <trkpt lat="44.45816" lon="1.11637">
        <ele>188.396255</ele>
        <time>2009-06-21T07:56:55Z</time>
      </trkpt>
      <trkpt lat="44.4581" lon="1.11632">
        <ele>189.220688</ele>
        <time>2009-06-21T07:56:59Z</time>
      </trkpt>
      <trkpt lat="44.45803" lon="1.11625">
        <ele>190.107681</ele>
        <time>2009-06-21T07:57:02Z</time>
      </trkpt>
      <trkpt lat="44.45799" lon="1.1162">
        <ele>190.699295</ele>
        <time>2009-06-21T07:57:05Z</time>
      </trkpt>
      <trkpt lat="44.45795" lon="1.11613">
        <ele>191.437744</ele>
        <time>2009-06-21T07:57:09Z</time>
      </trkpt>
      <trkpt lat="44.45794" lon="1.11608">
        <ele>192.062241</ele>
        <time>2009-06-21T07:57:13Z</time>
      </trkpt>
      <trkpt lat="44.45793" lon="1.11601">
        <ele>193.100006</ele>
        <time>2009-06-21T07:57:17Z</time>
      </trkpt>
      <trkpt lat="44.45794" lon="1.11598">
        <ele>193.793747</ele>
        <time>2009-06-21T07:57:20Z</time>
      </trkpt>
      <trkpt lat="44.45792" lon="1.11591">
        <ele>194.668747</ele>
        <time>2009-06-21T07:57:23Z</time>
      </trkpt>
      <trkpt lat="44.45791" lon="1.11586">
        <ele>195.356247</ele>
        <time>2009-06-21T07:57:26Z</time>
      </trkpt>
      <trkpt lat="44.45789" lon="1.1158">
        <ele>195.987503</ele>
        <time>2009-06-21T07:57:30Z</time>
      </trkpt>
      <trkpt lat="44.45784" lon="1.11575">
        <ele>196.350006</ele>
        <time>2009-06-21T07:57:34Z</time>
      </trkpt>
      <trkpt lat="44.45781" lon="1.11575">
        <ele>196.04248</ele>
        <time>2009-06-21T07:57:38Z</time>
      </trkpt>
      <trkpt lat="44.4578" lon="1.11579">
        <ele>195.484375</ele>
        <time>2009-06-21T07:57:42Z</time>
      </trkpt>
      <trkpt lat="44.45778" lon="1.11585">
        <ele>194.747665</ele>
        <time>2009-06-21T07:57:48Z</time>
      </trkpt>
      <trkpt lat="44.45774" lon="1.1159">
        <ele>194.290817</ele>
        <time>2009-06-21T07:57:51Z</time>
      </trkpt>
      <trkpt lat="44.4577" lon="1.11595">
        <ele>193.832855</ele>
        <time>2009-06-21T07:57:54Z</time>
      </trkpt>
      <trkpt lat="44.45763" lon="1.116">
        <ele>193.646088</ele>
        <time>2009-06-21T07:57:58Z</time>
      </trkpt>
      <trkpt lat="44.45759" lon="1.11603">
        <ele>193.608414</ele>
        <time>2009-06-21T07:58:02Z</time>
      </trkpt>
      <trkpt lat="44.45753" lon="1.11606">
        <ele>193.760635</ele>
        <time>2009-06-21T07:58:06Z</time>
      </trkpt>
      <trkpt lat="44.45746" lon="1.11608">
        <ele>194.155441</ele>
        <time>2009-06-21T07:58:09Z</time>
      </trkpt>
      <trkpt lat="44.45742" lon="1.11609">
        <ele>194.453827</ele>
        <time>2009-06-21T07:58:12Z</time>
      </trkpt>
      <trkpt lat="44.45735" lon="1.11611">
        <ele>194.998245</ele>
        <time>2009-06-21T07:58:16Z</time>
      </trkpt>
      <trkpt lat="44.4573" lon="1.11613">
        <ele>195.410217</ele>
        <time>2009-06-21T07:58:19Z</time>
      </trkpt>
      <trkpt lat="44.45724" lon="1.11614">
        <ele>196.014114</ele>
        <time>2009-06-21T07:58:22Z</time>
      </trkpt>
      <trkpt lat="44.4572" lon="1.11616">
        <ele>196.333344</ele>
        <time>2009-06-21T07:58:25Z</time>
      </trkpt>
      <trkpt lat="44.45714" lon="1.11618">
        <ele>196.819366</ele>
        <time>2009-06-21T07:58:28Z</time>
      </trkpt>
      <trkpt lat="44.45708" lon="1.11618">
        <ele>197.54718</ele>
        <time>2009-06-21T07:58:31Z</time>
      </trkpt>
      <trkpt lat="44.45703" lon="1.1162">
        <ele>197.850143</ele>
        <time>2009-06-21T07:58:34Z</time>
      </trkpt>
      <trkpt lat="44.457" lon="1.11622">
        <ele>198.072556</ele>
        <time>2009-06-21T07:58:37Z</time>
      </trkpt>
      <trkpt lat="44.45695" lon="1.11624">
        <ele>198.490601</ele>
        <time>2009-06-21T07:58:40Z</time>
      </trkpt>
      <trkpt lat="44.4569" lon="1.11626">
        <ele>198.803925</ele>
        <time>2009-06-21T07:58:43Z</time>
      </trkpt>
      <trkpt lat="44.45686" lon="1.11628">
        <ele>198.965561</ele>
        <time>2009-06-21T07:58:46Z</time>
      </trkpt>
      <trkpt lat="44.45682" lon="1.11632">
        <ele>199.091797</ele>
        <time>2009-06-21T07:58:49Z</time>
      </trkpt>
      <trkpt lat="44.45677" lon="1.11636">
        <ele>199.132187</ele>
        <time>2009-06-21T07:58:53Z</time>
      </trkpt>
      <trkpt lat="44.45672" lon="1.11638">
        <ele>199.360748</ele>
        <time>2009-06-21T07:58:57Z</time>
      </trkpt>
      <trkpt lat="44.45668" lon="1.1164">
        <ele>199.511734</ele>
        <time>2009-06-21T07:59:00Z</time>
      </trkpt>
      <trkpt lat="44.45664" lon="1.11641">
        <ele>199.6577</ele>
        <time>2009-06-21T07:59:03Z</time>
      </trkpt>
      <trkpt lat="44.45659" lon="1.11645">
        <ele>199.609283</ele>
        <time>2009-06-21T07:59:06Z</time>
      </trkpt>
      <trkpt lat="44.45654" lon="1.11647">
        <ele>199.751617</ele>
        <time>2009-06-21T07:59:09Z</time>
      </trkpt>
      <trkpt lat="44.45649" lon="1.1165">
        <ele>199.811676</ele>
        <time>2009-06-21T07:59:13Z</time>
      </trkpt>
      <trkpt lat="44.45645" lon="1.11651">
        <ele>199.964508</ele>
        <time>2009-06-21T07:59:16Z</time>
      </trkpt>
      <trkpt lat="44.45639" lon="1.11654">
        <ele>200.173996</ele>
        <time>2009-06-21T07:59:20Z</time>
      </trkpt>
      <trkpt lat="44.45634" lon="1.11656">
        <ele>200.440994</ele>
        <time>2009-06-21T07:59:24Z</time>
      </trkpt>
      <trkpt lat="44.45628" lon="1.11658">
        <ele>200.780212</ele>
        <time>2009-06-21T07:59:27Z</time>
      </trkpt>
      <trkpt lat="44.45622" lon="1.11661">
        <ele>201.009644</ele>
        <time>2009-06-21T07:59:30Z</time>
      </trkpt>
      <trkpt lat="44.45617" lon="1.11662">
        <ele>201.251434</ele>
        <time>2009-06-21T07:59:34Z</time>
      </trkpt>
      <trkpt lat="44.45612" lon="1.11662">
        <ele>201.65596</ele>
        <time>2009-06-21T07:59:37Z</time>
      </trkpt>
      <trkpt lat="44.45608" lon="1.11664">
        <ele>201.879745</ele>
        <time>2009-06-21T07:59:40Z</time>
      </trkpt>
      <trkpt lat="44.45604" lon="1.11666">
        <ele>201.955292</ele>
        <time>2009-06-21T07:59:43Z</time>
      </trkpt>
      <trkpt lat="44.45599" lon="1.11668">
        <ele>202.033127</ele>
        <time>2009-06-21T07:59:46Z</time>
      </trkpt>
      <trkpt lat="44.45594" lon="1.1167">
        <ele>202.10437</ele>
        <time>2009-06-21T07:59:49Z</time>
      </trkpt>
      <trkpt lat="44.4559" lon="1.11671">
        <ele>202.278748</ele>
        <time>2009-06-21T07:59:52Z</time>
      </trkpt>
      <trkpt lat="44.45584" lon="1.11672">
        <ele>202.445618</ele>
        <time>2009-06-21T07:59:55Z</time>
      </trkpt>
      <trkpt lat="44.45578" lon="1.11673">
        <ele>202.702499</ele>
        <time>2009-06-21T07:59:58Z</time>
      </trkpt>
      <trkpt lat="44.45573" lon="1.11675">
        <ele>202.918259</ele>
        <time>2009-06-21T08:00:01Z</time>
      </trkpt>
      <trkpt lat="44.45567" lon="1.11674">
        <ele>203.375626</ele>
        <time>2009-06-21T08:00:04Z</time>
      </trkpt>
      <trkpt lat="44.4556" lon="1.11675">
        <ele>203.781509</ele>
        <time>2009-06-21T08:00:07Z</time>
      </trkpt>
      <trkpt lat="44.45548" lon="1.11677">
        <ele>204.740005</ele>
        <time>2009-06-21T08:00:10Z</time>
      </trkpt>
      <trkpt lat="44.45536" lon="1.11687">
        <ele>205.112503</ele>
        <time>2009-06-21T08:00:14Z</time>
      </trkpt>
      <trkpt lat="44.4553" lon="1.11695">
        <ele>205.225006</ele>
        <time>2009-06-21T08:00:19Z</time>
      </trkpt>
      <trkpt lat="44.45525" lon="1.117">
        <ele>205.339996</ele>
        <time>2009-06-21T08:00:22Z</time>
      </trkpt>
      <trkpt lat="44.4552" lon="1.11705">
        <ele>205.464996</ele>
        <time>2009-06-21T08:00:25Z</time>
      </trkpt>
      <trkpt lat="44.45515" lon="1.11709">
        <ele>205.625</ele>
        <time>2009-06-21T08:00:28Z</time>
      </trkpt>
      <trkpt lat="44.45509" lon="1.11716">
        <ele>205.870804</ele>
        <time>2009-06-21T08:00:31Z</time>
      </trkpt>
      <trkpt lat="44.45503" lon="1.11722">
        <ele>206.312363</ele>
        <time>2009-06-21T08:00:34Z</time>
      </trkpt>
      <trkpt lat="44.45496" lon="1.11727">
        <ele>206.849106</ele>
        <time>2009-06-21T08:00:37Z</time>
      </trkpt>
      <trkpt lat="44.4549" lon="1.11733">
        <ele>207.395645</ele>
        <time>2009-06-21T08:00:40Z</time>
      </trkpt>
      <trkpt lat="44.45483" lon="1.1174">
        <ele>208.146118</ele>
        <time>2009-06-21T08:00:43Z</time>
      </trkpt>
      <trkpt lat="44.45477" lon="1.11745">
        <ele>209.31488</ele>
        <time>2009-06-21T08:00:46Z</time>
      </trkpt>
      <trkpt lat="44.45471" lon="1.11749">
        <ele>210.174194</ele>
        <time>2009-06-21T08:00:49Z</time>
      </trkpt>
      <trkpt lat="44.45463" lon="1.11752">
        <ele>211.065033</ele>
        <time>2009-06-21T08:00:53Z</time>
      </trkpt>
      <trkpt lat="44.45457" lon="1.11752">
        <ele>211.494125</ele>
        <time>2009-06-21T08:00:56Z</time>
      </trkpt>
      <trkpt lat="44.4545" lon="1.11753">
        <ele>212.099777</ele>
        <time>2009-06-21T08:00:59Z</time>
      </trkpt>
      <trkpt lat="44.45445" lon="1.11752">
        <ele>212.482224</ele>
        <time>2009-06-21T08:01:03Z</time>
      </trkpt>
      <trkpt lat="44.45437" lon="1.11751">
        <ele>213.050613</ele>
        <time>2009-06-21T08:01:06Z</time>
      </trkpt>
      <trkpt lat="44.45432" lon="1.1175">
        <ele>213.451309</ele>
        <time>2009-06-21T08:01:09Z</time>
      </trkpt>
      <trkpt lat="44.45428" lon="1.11749">
        <ele>213.813309</ele>
        <time>2009-06-21T08:01:12Z</time>
      </trkpt>
      <trkpt lat="44.45422" lon="1.11749">
        <ele>214.249374</ele>
        <time>2009-06-21T08:01:15Z</time>
      </trkpt>
      <trkpt lat="44.45417" lon="1.11748">
        <ele>214.539368</ele>
        <time>2009-06-21T08:01:18Z</time>
      </trkpt>
      <trkpt lat="44.45413" lon="1.11747">
        <ele>214.800629</ele>
        <time>2009-06-21T08:01:21Z</time>
      </trkpt>
      <trkpt lat="44.45408" lon="1.11744">
        <ele>215.089371</ele>
        <time>2009-06-21T08:01:24Z</time>
      </trkpt>
      <trkpt lat="44.45404" lon="1.11744">
        <ele>215.368118</ele>
        <time>2009-06-21T08:01:27Z</time>
      </trkpt>
      <trkpt lat="44.45399" lon="1.11744">
        <ele>215.673752</ele>
        <time>2009-06-21T08:01:30Z</time>
      </trkpt>
      <trkpt lat="44.45394" lon="1.11744">
        <ele>216.002502</ele>
        <time>2009-06-21T08:01:33Z</time>
      </trkpt>
      <trkpt lat="44.45389" lon="1.11745">
        <ele>216.338745</ele>
        <time>2009-06-21T08:01:36Z</time>
      </trkpt>
      <trkpt lat="44.45384" lon="1.11744">
        <ele>216.669373</ele>
        <time>2009-06-21T08:01:39Z</time>
      </trkpt>
      <trkpt lat="44.4538" lon="1.11744">
        <ele>216.969376</ele>
        <time>2009-06-21T08:01:42Z</time>
      </trkpt>
      <trkpt lat="44.45373" lon="1.11744">
        <ele>217.628021</ele>
        <time>2009-06-21T08:01:46Z</time>
      </trkpt>
      <trkpt lat="44.45367" lon="1.11743">
        <ele>218.261871</ele>
        <time>2009-06-21T08:01:50Z</time>
      </trkpt>
      <trkpt lat="44.45361" lon="1.11743">
        <ele>218.906006</ele>
        <time>2009-06-21T08:01:54Z</time>
      </trkpt>
      <trkpt lat="44.45357" lon="1.11742">
        <ele>219.437607</ele>
        <time>2009-06-21T08:01:57Z</time>
      </trkpt>
      <trkpt lat="44.45352" lon="1.1174">
        <ele>220.02356</ele>
        <time>2009-06-21T08:02:00Z</time>
      </trkpt>
      <trkpt lat="44.45349" lon="1.11743">
        <ele>220.233627</ele>
        <time>2009-06-21T08:02:03Z</time>
      </trkpt>
      <trkpt lat="44.45347" lon="1.1175">
        <ele>220.44725</ele>
        <time>2009-06-21T08:02:07Z</time>
      </trkpt>
      <trkpt lat="44.45349" lon="1.11756">
        <ele>220.271591</ele>
        <time>2009-06-21T08:02:10Z</time>
      </trkpt>
      <trkpt lat="44.45348" lon="1.11762">
        <ele>220.263</ele>
        <time>2009-06-21T08:02:14Z</time>
      </trkpt>
      <trkpt lat="44.45348" lon="1.11771">
        <ele>220.291946</ele>
        <time>2009-06-21T08:02:17Z</time>
      </trkpt>
      <trkpt lat="44.45347" lon="1.11778">
        <ele>220.27861</ele>
        <time>2009-06-21T08:02:20Z</time>
      </trkpt>
      <trkpt lat="44.45346" lon="1.11784">
        <ele>220.387848</ele>
        <time>2009-06-21T08:02:23Z</time>
      </trkpt>
      <trkpt lat="44.45341" lon="1.11792">
        <ele>220.68869</ele>
        <time>2009-06-21T08:02:28Z</time>
      </trkpt>
      <trkpt lat="44.45336" lon="1.118">
        <ele>220.954559</ele>
        <time>2009-06-21T08:02:31Z</time>
      </trkpt>
      <trkpt lat="44.45331" lon="1.11808">
        <ele>221.346252</ele>
        <time>2009-06-21T08:02:34Z</time>
      </trkpt>
      <trkpt lat="44.45325" lon="1.11815">
        <ele>221.93959</ele>
        <time>2009-06-21T08:02:37Z</time>
      </trkpt>
      <trkpt lat="44.45319" lon="1.11823">
        <ele>222.592102</ele>
        <time>2009-06-21T08:02:41Z</time>
      </trkpt>
      <trkpt lat="44.45313" lon="1.11828">
        <ele>223.073776</ele>
        <time>2009-06-21T08:02:44Z</time>
      </trkpt>
      <trkpt lat="44.45308" lon="1.11833">
        <ele>223.513702</ele>
        <time>2009-06-21T08:02:47Z</time>
      </trkpt>
      <trkpt lat="44.45302" lon="1.11838">
        <ele>224.016373</ele>
        <time>2009-06-21T08:02:50Z</time>
      </trkpt>
      <trkpt lat="44.45297" lon="1.11843">
        <ele>224.480835</ele>
        <time>2009-06-21T08:02:53Z</time>
      </trkpt>
      <trkpt lat="44.45292" lon="1.11849">
        <ele>224.8508</ele>
        <time>2009-06-21T08:02:57Z</time>
      </trkpt>
      <trkpt lat="44.45285" lon="1.11854">
        <ele>225.250732</ele>
        <time>2009-06-21T08:03:01Z</time>
      </trkpt>
      <trkpt lat="44.45281" lon="1.1186">
        <ele>225.416199</ele>
        <time>2009-06-21T08:03:04Z</time>
      </trkpt>
      <trkpt lat="44.45283" lon="1.11868">
        <ele>225.297302</ele>
        <time>2009-06-21T08:03:08Z</time>
      </trkpt>
      <trkpt lat="44.45286" lon="1.11871">
        <ele>225.218613</ele>
        <time>2009-06-21T08:03:11Z</time>
      </trkpt>
      <trkpt lat="44.45291" lon="1.1188">
        <ele>225.114639</ele>
        <time>2009-06-21T08:03:15Z</time>
      </trkpt>
      <trkpt lat="44.45298" lon="1.11887">
        <ele>224.842468</ele>
        <time>2009-06-21T08:03:18Z</time>
      </trkpt>
      <trkpt lat="44.4531" lon="1.11898">
        <ele>224.403595</ele>
        <time>2009-06-21T08:03:22Z</time>
      </trkpt>
      <trkpt lat="44.45323" lon="1.11913">
        <ele>224.035828</ele>
        <time>2009-06-21T08:03:26Z</time>
      </trkpt>
      <trkpt lat="44.45335" lon="1.11925">
        <ele>223.861282</ele>
        <time>2009-06-21T08:03:29Z</time>
      </trkpt>
      <trkpt lat="44.45348" lon="1.11939">
        <ele>224.274994</ele>
        <time>2009-06-21T08:03:32Z</time>
      </trkpt>
      <trkpt lat="44.45361" lon="1.11956">
        <ele>224.828751</ele>
        <time>2009-06-21T08:03:35Z</time>
      </trkpt>
      <trkpt lat="44.45381" lon="1.1197">
        <ele>225.278748</ele>
        <time>2009-06-21T08:03:39Z</time>
      </trkpt>
      <trkpt lat="44.45394" lon="1.11973">
        <ele>225.398743</ele>
        <time>2009-06-21T08:03:42Z</time>
      </trkpt>
      <trkpt lat="44.45404" lon="1.11974">
        <ele>225.422501</ele>
        <time>2009-06-21T08:03:46Z</time>
      </trkpt>
      <trkpt lat="44.45412" lon="1.11975">
        <ele>225.460007</ele>
        <time>2009-06-21T08:03:49Z</time>
      </trkpt>
      <trkpt lat="44.4542" lon="1.11977">
        <ele>225.544998</ele>
        <time>2009-06-21T08:03:52Z</time>
      </trkpt>
      <trkpt lat="44.45427" lon="1.11977">
        <ele>225.550598</ele>
        <time>2009-06-21T08:03:55Z</time>
      </trkpt>
      <trkpt lat="44.45439" lon="1.11978">
        <ele>225.653275</ele>
        <time>2009-06-21T08:03:59Z</time>
      </trkpt>
      <trkpt lat="44.45446" lon="1.11977">
        <ele>225.65416</ele>
        <time>2009-06-21T08:04:02Z</time>
      </trkpt>
      <trkpt lat="44.45457" lon="1.11977">
        <ele>225.713165</ele>
        <time>2009-06-21T08:04:06Z</time>
      </trkpt>
      <trkpt lat="44.45464" lon="1.11977">
        <ele>225.748795</ele>
        <time>2009-06-21T08:04:09Z</time>
      </trkpt>
      <trkpt lat="44.4547" lon="1.11978">
        <ele>225.799042</ele>
        <time>2009-06-21T08:04:12Z</time>
      </trkpt>
      <trkpt lat="44.45477" lon="1.1198">
        <ele>225.954376</ele>
        <time>2009-06-21T08:04:15Z</time>
      </trkpt>
      <trkpt lat="44.45485" lon="1.11986">
        <ele>226.235626</ele>
        <time>2009-06-21T08:04:20Z</time>
      </trkpt>
      <trkpt lat="44.45489" lon="1.11994">
        <ele>226.374496</ele>
        <time>2009-06-21T08:04:24Z</time>
      </trkpt>
      <trkpt lat="44.45491" lon="1.12">
        <ele>226.366852</ele>
        <time>2009-06-21T08:04:27Z</time>
      </trkpt>
      <trkpt lat="44.45494" lon="1.12007">
        <ele>226.364227</ele>
        <time>2009-06-21T08:04:30Z</time>
      </trkpt>
      <trkpt lat="44.45497" lon="1.12012">
        <ele>226.368881</ele>
        <time>2009-06-21T08:04:33Z</time>
      </trkpt>
      <trkpt lat="44.45502" lon="1.12018">
        <ele>226.378983</ele>
        <time>2009-06-21T08:04:36Z</time>
      </trkpt>
      <trkpt lat="44.45507" lon="1.12022">
        <ele>226.378616</ele>
        <time>2009-06-21T08:04:39Z</time>
      </trkpt>
      <trkpt lat="44.45512" lon="1.12025">
        <ele>226.388519</ele>
        <time>2009-06-21T08:04:42Z</time>
      </trkpt>
      <trkpt lat="44.45518" lon="1.12028">
        <ele>226.384995</ele>
        <time>2009-06-21T08:04:45Z</time>
      </trkpt>
      <trkpt lat="44.45524" lon="1.12033">
        <ele>226.308121</ele>
        <time>2009-06-21T08:04:48Z</time>
      </trkpt>
      <trkpt lat="44.4553" lon="1.12038">
        <ele>226.221252</ele>
        <time>2009-06-21T08:04:51Z</time>
      </trkpt>
      <trkpt lat="44.45537" lon="1.12041">
        <ele>226.163132</ele>
        <time>2009-06-21T08:04:54Z</time>
      </trkpt>
      <trkpt lat="44.45545" lon="1.12047">
        <ele>226.074371</ele>
        <time>2009-06-21T08:04:58Z</time>
      </trkpt>
      <trkpt lat="44.4555" lon="1.1205">
        <ele>226.016876</ele>
        <time>2009-06-21T08:05:01Z</time>
      </trkpt>
      <trkpt lat="44.45551" lon="1.12052">
        <ele>225.972427</ele>
        <time>2009-06-21T08:05:11Z</time>
      </trkpt>
      <trkpt lat="44.45552" lon="1.12054">
        <ele>225.927994</ele>
        <time>2009-06-21T08:05:16Z</time>
      </trkpt>
      <trkpt lat="44.45552" lon="1.12055">
        <ele>225.884781</ele>
        <time>2009-06-21T08:05:25Z</time>
      </trkpt>
      <trkpt lat="44.45552" lon="1.12057">
        <ele>225.841797</ele>
        <time>2009-06-21T08:05:44Z</time>
      </trkpt>
      <trkpt lat="44.45553" lon="1.12058">
        <ele>225.795807</ele>
        <time>2009-06-21T08:06:04Z</time>
      </trkpt>
      <trkpt lat="44.45554" lon="1.1206">
        <ele>225.757523</ele>
        <time>2009-06-21T08:06:46Z</time>
      </trkpt>
      <trkpt lat="44.45553" lon="1.12061">
        <ele>225.711533</ele>
        <time>2009-06-21T08:07:00Z</time>
      </trkpt>
      <trkpt lat="44.45552" lon="1.12063">
        <ele>225.673126</ele>
        <time>2009-06-21T08:07:06Z</time>
      </trkpt>
      <trkpt lat="44.45552" lon="1.12061">
        <ele>225.718216</ele>
        <time>2009-06-21T08:07:18Z</time>
      </trkpt>
      <trkpt lat="44.45552" lon="1.1206">
        <ele>225.760376</ele>
        <time>2009-06-21T08:07:25Z</time>
      </trkpt>
      <trkpt lat="44.45552" lon="1.12058">
        <ele>225.802536</ele>
        <time>2009-06-21T08:07:35Z</time>
      </trkpt>
      <trkpt lat="44.45551" lon="1.12058">
        <ele>225.820877</ele>
        <time>2009-06-21T08:07:56Z</time>
      </trkpt>
      <trkpt lat="44.45549" lon="1.12057">
        <ele>225.851654</ele>
        <time>2009-06-21T08:08:30Z</time>
      </trkpt>
      <trkpt lat="44.45548" lon="1.12055">
        <ele>225.895432</ele>
        <time>2009-06-21T08:08:36Z</time>
      </trkpt>
      <trkpt lat="44.45547" lon="1.12055">
        <ele>225.91571</ele>
        <time>2009-06-21T08:08:45Z</time>
      </trkpt>
      <trkpt lat="44.45547" lon="1.12056">
        <ele>225.867447</ele>
        <time>2009-06-21T08:09:06Z</time>
      </trkpt>
      <trkpt lat="44.45551" lon="1.12067">
        <ele>225.569672</ele>
        <time>2009-06-21T08:09:10Z</time>
      </trkpt>
      <trkpt lat="44.45555" lon="1.12079">
        <ele>225.180023</ele>
        <time>2009-06-21T08:09:14Z</time>
      </trkpt>
      <trkpt lat="44.45559" lon="1.12107">
        <ele>224.304031</ele>
        <time>2009-06-21T08:09:17Z</time>
      </trkpt>
      <trkpt lat="44.4556" lon="1.12135">
        <ele>223.732712</ele>
        <time>2009-06-21T08:09:20Z</time>
      </trkpt>
      <trkpt lat="44.45559" lon="1.12166">
        <ele>223.317535</ele>
        <time>2009-06-21T08:09:23Z</time>
      </trkpt>
      <trkpt lat="44.4556" lon="1.12196">
        <ele>222.874786</ele>
        <time>2009-06-21T08:09:26Z</time>
      </trkpt>
      <trkpt lat="44.45557" lon="1.12221">
        <ele>222.71788</ele>
        <time>2009-06-21T08:09:29Z</time>
      </trkpt>
      <trkpt lat="44.45557" lon="1.1224">
        <ele>222.471252</ele>
        <time>2009-06-21T08:09:33Z</time>
      </trkpt>
      <trkpt lat="44.45552" lon="1.12254">
        <ele>222.350006</ele>
        <time>2009-06-21T08:09:36Z</time>
      </trkpt>
      <trkpt lat="44.4555" lon="1.12267">
        <ele>222.051254</ele>
        <time>2009-06-21T08:09:40Z</time>
      </trkpt>
      <trkpt lat="44.45543" lon="1.12277">
        <ele>222.225006</ele>
        <time>2009-06-21T08:09:43Z</time>
      </trkpt>
      <trkpt lat="44.45541" lon="1.12289">
        <ele>222.008743</ele>
        <time>2009-06-21T08:09:47Z</time>
      </trkpt>
      <trkpt lat="44.45546" lon="1.12304">
        <ele>221.102081</ele>
        <time>2009-06-21T08:09:50Z</time>
      </trkpt>
      <trkpt lat="44.45547" lon="1.12323">
        <ele>219.163147</ele>
        <time>2009-06-21T08:09:54Z</time>
      </trkpt>
      <trkpt lat="44.45547" lon="1.12356">
        <ele>215.969116</ele>
        <time>2009-06-21T08:09:57Z</time>
      </trkpt>
      <trkpt lat="44.45543" lon="1.12378">
        <ele>213.90387</ele>
        <time>2009-06-21T08:10:00Z</time>
      </trkpt>
      <trkpt lat="44.45538" lon="1.12387">
        <ele>213.182281</ele>
        <time>2009-06-21T08:10:03Z</time>
      </trkpt>
      <trkpt lat="44.45548" lon="1.12388">
        <ele>212.179367</ele>
        <time>2009-06-21T08:10:07Z</time>
      </trkpt>
      <trkpt lat="44.45554" lon="1.12394">
        <ele>210.873703</ele>
        <time>2009-06-21T08:10:10Z</time>
      </trkpt>
      <trkpt lat="44.4555" lon="1.12418">
        <ele>208.313049</ele>
        <time>2009-06-21T08:10:14Z</time>
      </trkpt>
      <trkpt lat="44.45541" lon="1.12435">
        <ele>205.715469</ele>
        <time>2009-06-21T08:10:17Z</time>
      </trkpt>
      <trkpt lat="44.45529" lon="1.12446">
        <ele>203.593567</ele>
        <time>2009-06-21T08:10:21Z</time>
      </trkpt>
      <trkpt lat="44.45539" lon="1.12453">
        <ele>200.825531</ele>
        <time>2009-06-21T08:10:24Z</time>
      </trkpt>
      <trkpt lat="44.4557" lon="1.12459">
        <ele>196.821899</ele>
        <time>2009-06-21T08:10:28Z</time>
      </trkpt>
      <trkpt lat="44.45594" lon="1.12463">
        <ele>191.38385</ele>
        <time>2009-06-21T08:10:31Z</time>
      </trkpt>
      <trkpt lat="44.45617" lon="1.1247">
        <ele>185.743362</ele>
        <time>2009-06-21T08:10:34Z</time>
      </trkpt>
      <trkpt lat="44.45636" lon="1.12476">
        <ele>180.417648</ele>
        <time>2009-06-21T08:10:37Z</time>
      </trkpt>
      <trkpt lat="44.45651" lon="1.1246">
        <ele>179.271194</ele>
        <time>2009-06-21T08:10:41Z</time>
      </trkpt>
      <trkpt lat="44.45648" lon="1.12431">
        <ele>184.302979</ele>
        <time>2009-06-21T08:10:44Z</time>
      </trkpt>
      <trkpt lat="44.45648" lon="1.12404">
        <ele>188.382294</ele>
        <time>2009-06-21T08:10:48Z</time>
      </trkpt>
      <trkpt lat="44.45658" lon="1.1242">
        <ele>184.094742</ele>
        <time>2009-06-21T08:10:51Z</time>
      </trkpt>
      <trkpt lat="44.45671" lon="1.12458">
        <ele>177.413452</ele>
        <time>2009-06-21T08:10:55Z</time>
      </trkpt>
      <trkpt lat="44.45685" lon="1.12483">
        <ele>171.331512</ele>
        <time>2009-06-21T08:10:58Z</time>
      </trkpt>
      <trkpt lat="44.45693" lon="1.12507">
        <ele>165.387497</ele>
        <time>2009-06-21T08:11:01Z</time>
      </trkpt>
      <trkpt lat="44.45689" lon="1.12529">
        <ele>161.655304</ele>
        <time>2009-06-21T08:11:04Z</time>
      </trkpt>
      <trkpt lat="44.45673" lon="1.12547">
        <ele>159.990021</ele>
        <time>2009-06-21T08:11:08Z</time>
      </trkpt>
      <trkpt lat="44.45666" lon="1.12556">
        <ele>160.222565</ele>
        <time>2009-06-21T08:11:11Z</time>
      </trkpt>
      <trkpt lat="44.45672" lon="1.12556">
        <ele>159.598251</ele>
        <time>2009-06-21T08:11:15Z</time>
      </trkpt>
      <trkpt lat="44.45689" lon="1.12551">
        <ele>157.454605</ele>
        <time>2009-06-21T08:11:18Z</time>
      </trkpt>
      <trkpt lat="44.45699" lon="1.1255">
        <ele>156.445648</ele>
        <time>2009-06-21T08:11:21Z</time>
      </trkpt>
      <trkpt lat="44.45699" lon="1.12548">
        <ele>156.86792</ele>
        <time>2009-06-21T08:11:27Z</time>
      </trkpt>
      <trkpt lat="44.45702" lon="1.12551">
        <ele>156.104584</ele>
        <time>2009-06-21T08:11:31Z</time>
      </trkpt>
      <trkpt lat="44.45704" lon="1.12556">
        <ele>156.400696</ele>
        <time>2009-06-21T08:11:35Z</time>
      </trkpt>
      <trkpt lat="44.45705" lon="1.12563">
        <ele>156.940201</ele>
        <time>2009-06-21T08:11:38Z</time>
      </trkpt>
      <trkpt lat="44.45703" lon="1.12567">
        <ele>157.541595</ele>
        <time>2009-06-21T08:11:42Z</time>
      </trkpt>
      <trkpt lat="44.45699" lon="1.12572">
        <ele>158.349503</ele>
        <time>2009-06-21T08:11:46Z</time>
      </trkpt>
      <trkpt lat="44.45697" lon="1.12578">
        <ele>158.939224</ele>
        <time>2009-06-21T08:11:50Z</time>
      </trkpt>
      <trkpt lat="44.45691" lon="1.12588">
        <ele>160.04953</ele>
        <time>2009-06-21T08:11:54Z</time>
      </trkpt>
      <trkpt lat="44.45687" lon="1.12592">
        <ele>160.521881</ele>
        <time>2009-06-21T08:11:58Z</time>
      </trkpt>
      <trkpt lat="44.45683" lon="1.12596">
        <ele>160.934738</ele>
        <time>2009-06-21T08:12:02Z</time>
      </trkpt>
      <trkpt lat="44.45678" lon="1.12598">
        <ele>161.200729</ele>
        <time>2009-06-21T08:12:06Z</time>
      </trkpt>
      <trkpt lat="44.4567" lon="1.12599">
        <ele>161.444809</ele>
        <time>2009-06-21T08:12:09Z</time>
      </trkpt>
      <trkpt lat="44.4566" lon="1.12604">
        <ele>161.80777</ele>
        <time>2009-06-21T08:12:13Z</time>
      </trkpt>
      <trkpt lat="44.45654" lon="1.12607">
        <ele>161.86026</ele>
        <time>2009-06-21T08:12:16Z</time>
      </trkpt>
      <trkpt lat="44.45645" lon="1.1261">
        <ele>161.760269</ele>
        <time>2009-06-21T08:12:20Z</time>
      </trkpt>
      <trkpt lat="44.45638" lon="1.12613">
        <ele>161.603012</ele>
        <time>2009-06-21T08:12:23Z</time>
      </trkpt>
      <trkpt lat="44.45633" lon="1.12612">
        <ele>161.539566</ele>
        <time>2009-06-21T08:12:27Z</time>
      </trkpt>
      <trkpt lat="44.45622" lon="1.12609">
        <ele>161.536087</ele>
        <time>2009-06-21T08:12:30Z</time>
      </trkpt>
      <trkpt lat="44.45615" lon="1.12608">
        <ele>161.540939</ele>
        <time>2009-06-21T08:12:33Z</time>
      </trkpt>
      <trkpt lat="44.45611" lon="1.12609">
        <ele>161.388489</ele>
        <time>2009-06-21T08:12:36Z</time>
      </trkpt>
      <trkpt lat="44.45606" lon="1.12607">
        <ele>161.334839</ele>
        <time>2009-06-21T08:12:40Z</time>
      </trkpt>
      <trkpt lat="44.45599" lon="1.12606">
        <ele>161.083786</ele>
        <time>2009-06-21T08:12:43Z</time>
      </trkpt>
      <trkpt lat="44.45594" lon="1.12606">
        <ele>160.811554</ele>
        <time>2009-06-21T08:12:46Z</time>
      </trkpt>
      <trkpt lat="44.45587" lon="1.12609">
        <ele>160.112976</ele>
        <time>2009-06-21T08:12:50Z</time>
      </trkpt>
      <trkpt lat="44.45576" lon="1.1261">
        <ele>159.44043</ele>
        <time>2009-06-21T08:12:55Z</time>
      </trkpt>
      <trkpt lat="44.4557" lon="1.12613">
        <ele>158.542618</ele>
        <time>2009-06-21T08:12:59Z</time>
      </trkpt>
      <trkpt lat="44.45566" lon="1.12617">
        <ele>158.228333</ele>
        <time>2009-06-21T08:13:02Z</time>
      </trkpt>
      <trkpt lat="44.45562" lon="1.12622">
        <ele>158.959457</ele>
        <time>2009-06-21T08:13:06Z</time>
      </trkpt>
      <trkpt lat="44.4556" lon="1.12629">
        <ele>159.999008</ele>
        <time>2009-06-21T08:13:11Z</time>
      </trkpt>
      <trkpt lat="44.45555" lon="1.1264">
        <ele>161.235916</ele>
        <time>2009-06-21T08:13:16Z</time>
      </trkpt>
      <trkpt lat="44.45552" lon="1.12647">
        <ele>161.959213</ele>
        <time>2009-06-21T08:13:20Z</time>
      </trkpt>
      <trkpt lat="44.45551" lon="1.12655">
        <ele>162.876862</ele>
        <time>2009-06-21T08:13:25Z</time>
      </trkpt>
      <trkpt lat="44.45549" lon="1.12661">
        <ele>163.376541</ele>
        <time>2009-06-21T08:13:28Z</time>
      </trkpt>
      <trkpt lat="44.45547" lon="1.12666">
        <ele>163.714279</ele>
        <time>2009-06-21T08:13:31Z</time>
      </trkpt>
      <trkpt lat="44.4554" lon="1.12672">
        <ele>163.497604</ele>
        <time>2009-06-21T08:13:35Z</time>
      </trkpt>
      <trkpt lat="44.45536" lon="1.12678">
        <ele>163.45578</ele>
        <time>2009-06-21T08:13:39Z</time>
      </trkpt>
      <trkpt lat="44.45532" lon="1.12682">
        <ele>163.470551</ele>
        <time>2009-06-21T08:13:42Z</time>
      </trkpt>
      <trkpt lat="44.45526" lon="1.12687">
        <ele>163.462036</ele>
        <time>2009-06-21T08:13:46Z</time>
      </trkpt>
      <trkpt lat="44.45521" lon="1.12696">
        <ele>164.840805</ele>
        <time>2009-06-21T08:13:51Z</time>
      </trkpt>
      <trkpt lat="44.45518" lon="1.12702">
        <ele>165.849274</ele>
        <time>2009-06-21T08:13:55Z</time>
      </trkpt>
      <trkpt lat="44.45515" lon="1.12707">
        <ele>166.531998</ele>
        <time>2009-06-21T08:13:58Z</time>
      </trkpt>
      <trkpt lat="44.45513" lon="1.12712">
        <ele>167.053955</ele>
        <time>2009-06-21T08:14:01Z</time>
      </trkpt>
      <trkpt lat="44.45511" lon="1.12719">
        <ele>167.679657</ele>
        <time>2009-06-21T08:14:04Z</time>
      </trkpt>
      <trkpt lat="44.45509" lon="1.12723">
        <ele>167.920639</ele>
        <time>2009-06-21T08:14:07Z</time>
      </trkpt>
      <trkpt lat="44.45505" lon="1.12731">
        <ele>168.195831</ele>
        <time>2009-06-21T08:14:12Z</time>
      </trkpt>
      <trkpt lat="44.45502" lon="1.12736">
        <ele>168.158752</ele>
        <time>2009-06-21T08:14:15Z</time>
      </trkpt>
      <trkpt lat="44.45499" lon="1.1274">
        <ele>167.920364</ele>
        <time>2009-06-21T08:14:18Z</time>
      </trkpt>
      <trkpt lat="44.45496" lon="1.12744">
        <ele>167.710571</ele>
        <time>2009-06-21T08:14:21Z</time>
      </trkpt>
      <trkpt lat="44.45493" lon="1.1275">
        <ele>168.062149</ele>
        <time>2009-06-21T08:14:24Z</time>
      </trkpt>
      <trkpt lat="44.4549" lon="1.12757">
        <ele>168.495193</ele>
        <time>2009-06-21T08:14:28Z</time>
      </trkpt>
      <trkpt lat="44.45487" lon="1.12763">
        <ele>168.560486</ele>
        <time>2009-06-21T08:14:31Z</time>
      </trkpt>
      <trkpt lat="44.45484" lon="1.12769">
        <ele>168.603699</ele>
        <time>2009-06-21T08:14:35Z</time>
      </trkpt>
      <trkpt lat="44.45482" lon="1.12776">
        <ele>168.983368</ele>
        <time>2009-06-21T08:14:39Z</time>
      </trkpt>
      <trkpt lat="44.4548" lon="1.12784">
        <ele>169.564621</ele>
        <time>2009-06-21T08:14:43Z</time>
      </trkpt>
      <trkpt lat="44.45478" lon="1.12794">
        <ele>170.862411</ele>
        <time>2009-06-21T08:14:47Z</time>
      </trkpt>
      <trkpt lat="44.45476" lon="1.128">
        <ele>171.514221</ele>
        <time>2009-06-21T08:14:50Z</time>
      </trkpt>
      <trkpt lat="44.45475" lon="1.12805">
        <ele>172.053543</ele>
        <time>2009-06-21T08:14:53Z</time>
      </trkpt>
      <trkpt lat="44.45474" lon="1.12811">
        <ele>172.740601</ele>
        <time>2009-06-21T08:14:56Z</time>
      </trkpt>
      <trkpt lat="44.4547" lon="1.12816">
        <ele>173.334</ele>
        <time>2009-06-21T08:15:00Z</time>
      </trkpt>
      <trkpt lat="44.45467" lon="1.12821">
        <ele>173.756256</ele>
        <time>2009-06-21T08:15:03Z</time>
      </trkpt>
      <trkpt lat="44.45467" lon="1.12826">
        <ele>174.125931</ele>
        <time>2009-06-21T08:15:06Z</time>
      </trkpt>
      <trkpt lat="44.45466" lon="1.12832">
        <ele>174.59816</ele>
        <time>2009-06-21T08:15:11Z</time>
      </trkpt>
      <trkpt lat="44.45463" lon="1.12837">
        <ele>174.755951</ele>
        <time>2009-06-21T08:15:15Z</time>
      </trkpt>
      <trkpt lat="44.45461" lon="1.12846">
        <ele>175.170181</ele>
        <time>2009-06-21T08:15:18Z</time>
      </trkpt>
      <trkpt lat="44.45461" lon="1.12853">
        <ele>175.497025</ele>
        <time>2009-06-21T08:15:21Z</time>
      </trkpt>
      <trkpt lat="44.45458" lon="1.1286">
        <ele>175.546768</ele>
        <time>2009-06-21T08:15:25Z</time>
      </trkpt>
      <trkpt lat="44.45458" lon="1.12867">
        <ele>175.81752</ele>
        <time>2009-06-21T08:15:28Z</time>
      </trkpt>
      <trkpt lat="44.45455" lon="1.12873">
        <ele>175.743729</ele>
        <time>2009-06-21T08:15:31Z</time>
      </trkpt>
      <trkpt lat="44.45452" lon="1.12879">
        <ele>175.400177</ele>
        <time>2009-06-21T08:15:34Z</time>
      </trkpt>
      <trkpt lat="44.45451" lon="1.12886">
        <ele>175.667709</ele>
        <time>2009-06-21T08:15:38Z</time>
      </trkpt>
      <trkpt lat="44.45448" lon="1.12893">
        <ele>175.574982</ele>
        <time>2009-06-21T08:15:42Z</time>
      </trkpt>
      <trkpt lat="44.45446" lon="1.12901">
        <ele>175.393311</ele>
        <time>2009-06-21T08:15:45Z</time>
      </trkpt>
      <trkpt lat="44.45443" lon="1.12906">
        <ele>175.021591</ele>
        <time>2009-06-21T08:15:48Z</time>
      </trkpt>
      <trkpt lat="44.4544" lon="1.12913">
        <ele>174.412796</ele>
        <time>2009-06-21T08:15:52Z</time>
      </trkpt>
      <trkpt lat="44.45438" lon="1.12919">
        <ele>173.924667</ele>
        <time>2009-06-21T08:15:55Z</time>
      </trkpt>
      <trkpt lat="44.45436" lon="1.12927">
        <ele>173.911011</ele>
        <time>2009-06-21T08:15:59Z</time>
      </trkpt>
      <trkpt lat="44.45438" lon="1.12934">
        <ele>174.448196</ele>
        <time>2009-06-21T08:16:02Z</time>
      </trkpt>
      <trkpt lat="44.45437" lon="1.12943">
        <ele>175.073532</ele>
        <time>2009-06-21T08:16:06Z</time>
      </trkpt>
      <trkpt lat="44.45438" lon="1.12948">
        <ele>175.764832</ele>
        <time>2009-06-21T08:16:09Z</time>
      </trkpt>
      <trkpt lat="44.45438" lon="1.12952">
        <ele>176.192398</ele>
        <time>2009-06-21T08:16:13Z</time>
      </trkpt>
      <trkpt lat="44.45436" lon="1.12959">
        <ele>176.511658</ele>
        <time>2009-06-21T08:16:16Z</time>
      </trkpt>
      <trkpt lat="44.45434" lon="1.12967">
        <ele>177.296936</ele>
        <time>2009-06-21T08:16:20Z</time>
      </trkpt>
      <trkpt lat="44.45432" lon="1.12975">
        <ele>177.906067</ele>
        <time>2009-06-21T08:16:24Z</time>
      </trkpt>
      <trkpt lat="44.45427" lon="1.12983">
        <ele>178.295898</ele>
        <time>2009-06-21T08:16:27Z</time>
      </trkpt>
      <trkpt lat="44.45422" lon="1.12993">
        <ele>178.536865</ele>
        <time>2009-06-21T08:16:32Z</time>
      </trkpt>
      <trkpt lat="44.4542" lon="1.13001">
        <ele>178.939087</ele>
        <time>2009-06-21T08:16:36Z</time>
      </trkpt>
      <trkpt lat="44.45418" lon="1.13009">
        <ele>179.454178</ele>
        <time>2009-06-21T08:16:39Z</time>
      </trkpt>
      <trkpt lat="44.45417" lon="1.13015">
        <ele>179.842773</ele>
        <time>2009-06-21T08:16:43Z</time>
      </trkpt>
      <trkpt lat="44.45416" lon="1.13023">
        <ele>180.245605</ele>
        <time>2009-06-21T08:16:47Z</time>
      </trkpt>
      <trkpt lat="44.45415" lon="1.13032">
        <ele>180.785919</ele>
        <time>2009-06-21T08:16:51Z</time>
      </trkpt>
      <trkpt lat="44.45416" lon="1.1304">
        <ele>181.703049</ele>
        <time>2009-06-21T08:16:55Z</time>
      </trkpt>
      <trkpt lat="44.45415" lon="1.13047">
        <ele>181.923294</ele>
        <time>2009-06-21T08:16:58Z</time>
      </trkpt>
      <trkpt lat="44.45411" lon="1.13054">
        <ele>181.578491</ele>
        <time>2009-06-21T08:17:03Z</time>
      </trkpt>
      <trkpt lat="44.45408" lon="1.1306">
        <ele>181.178604</ele>
        <time>2009-06-21T08:17:06Z</time>
      </trkpt>
      <trkpt lat="44.45405" lon="1.13067">
        <ele>180.775894</ele>
        <time>2009-06-21T08:17:12Z</time>
      </trkpt>
      <trkpt lat="44.45406" lon="1.13071">
        <ele>181.312256</ele>
        <time>2009-06-21T08:17:16Z</time>
      </trkpt>
      <trkpt lat="44.45405" lon="1.13072">
        <ele>181.124374</ele>
        <time>2009-06-21T08:17:19Z</time>
      </trkpt>
      <trkpt lat="44.45403" lon="1.13074">
        <ele>180.798874</ele>
        <time>2009-06-21T08:17:25Z</time>
      </trkpt>
      <trkpt lat="44.45401" lon="1.13076">
        <ele>180.534317</ele>
        <time>2009-06-21T08:17:28Z</time>
      </trkpt>
      <trkpt lat="44.45401" lon="1.13076">
        <ele>180.5616</ele>
        <time>2009-06-21T08:17:39Z</time>
      </trkpt>
      <trkpt lat="44.45403" lon="1.13076">
        <ele>180.963028</ele>
        <time>2009-06-21T08:17:42Z</time>
      </trkpt>
      <trkpt lat="44.45403" lon="1.1308">
        <ele>181.20256</ele>
        <time>2009-06-21T08:17:50Z</time>
      </trkpt>
      <trkpt lat="44.45405" lon="1.13084">
        <ele>182.100906</ele>
        <time>2009-06-21T08:17:54Z</time>
      </trkpt>
      <trkpt lat="44.45406" lon="1.13091">
        <ele>182.814728</ele>
        <time>2009-06-21T08:17:58Z</time>
      </trkpt>
      <trkpt lat="44.45407" lon="1.13098">
        <ele>183.5522</ele>
        <time>2009-06-21T08:18:02Z</time>
      </trkpt>
      <trkpt lat="44.45408" lon="1.13107">
        <ele>184.458435</ele>
        <time>2009-06-21T08:18:07Z</time>
      </trkpt>
      <trkpt lat="44.4541" lon="1.13113">
        <ele>185.361099</ele>
        <time>2009-06-21T08:18:12Z</time>
      </trkpt>
      <trkpt lat="44.45411" lon="1.1312">
        <ele>185.946198</ele>
        <time>2009-06-21T08:18:15Z</time>
      </trkpt>
      <trkpt lat="44.45413" lon="1.13125">
        <ele>186.772507</ele>
        <time>2009-06-21T08:18:18Z</time>
      </trkpt>
      <trkpt lat="44.45416" lon="1.13132">
        <ele>188.194382</ele>
        <time>2009-06-21T08:18:24Z</time>
      </trkpt>
      <trkpt lat="44.45418" lon="1.1314">
        <ele>189.203629</ele>
        <time>2009-06-21T08:18:27Z</time>
      </trkpt>
      <trkpt lat="44.45418" lon="1.13149">
        <ele>190.161987</ele>
        <time>2009-06-21T08:18:31Z</time>
      </trkpt>
      <trkpt lat="44.45416" lon="1.13154">
        <ele>190.612198</ele>
        <time>2009-06-21T08:18:35Z</time>
      </trkpt>
      <trkpt lat="44.45417" lon="1.1316">
        <ele>191.37413</ele>
        <time>2009-06-21T08:18:40Z</time>
      </trkpt>
      <trkpt lat="44.45417" lon="1.13166">
        <ele>192.043381</ele>
        <time>2009-06-21T08:18:43Z</time>
      </trkpt>
      <trkpt lat="44.45417" lon="1.13173">
        <ele>192.73024</ele>
        <time>2009-06-21T08:18:46Z</time>
      </trkpt>
      <trkpt lat="44.45416" lon="1.13179">
        <ele>193.373535</ele>
        <time>2009-06-21T08:18:49Z</time>
      </trkpt>
      <trkpt lat="44.45414" lon="1.13185">
        <ele>193.881561</ele>
        <time>2009-06-21T08:18:52Z</time>
      </trkpt>
      <trkpt lat="44.45413" lon="1.13192">
        <ele>194.416885</ele>
        <time>2009-06-21T08:18:56Z</time>
      </trkpt>
      <trkpt lat="44.45411" lon="1.13197">
        <ele>194.732956</ele>
        <time>2009-06-21T08:19:00Z</time>
      </trkpt>
      <trkpt lat="44.45411" lon="1.13203">
        <ele>195.186844</ele>
        <time>2009-06-21T08:19:03Z</time>
      </trkpt>
      <trkpt lat="44.45409" lon="1.13208">
        <ele>195.478317</ele>
        <time>2009-06-21T08:19:06Z</time>
      </trkpt>
      <trkpt lat="44.45408" lon="1.13213">
        <ele>195.798035</ele>
        <time>2009-06-21T08:19:09Z</time>
      </trkpt>
      <trkpt lat="44.45405" lon="1.1322">
        <ele>196.090378</ele>
        <time>2009-06-21T08:19:13Z</time>
      </trkpt>
      <trkpt lat="44.45404" lon="1.13227">
        <ele>196.55394</ele>
        <time>2009-06-21T08:19:17Z</time>
      </trkpt>
      <trkpt lat="44.45403" lon="1.13235">
        <ele>196.986969</ele>
        <time>2009-06-21T08:19:22Z</time>
      </trkpt>
      <trkpt lat="44.45401" lon="1.13241">
        <ele>197.20488</ele>
        <time>2009-06-21T08:19:26Z</time>
      </trkpt>
      <trkpt lat="44.45401" lon="1.13247">
        <ele>197.615784</ele>
        <time>2009-06-21T08:19:30Z</time>
      </trkpt>
      <trkpt lat="44.454" lon="1.13253">
        <ele>197.563187</ele>
        <time>2009-06-21T08:19:33Z</time>
      </trkpt>
      <trkpt lat="44.45398" lon="1.13258">
        <ele>197.44191</ele>
        <time>2009-06-21T08:19:36Z</time>
      </trkpt>
      <trkpt lat="44.45398" lon="1.13264">
        <ele>197.404007</ele>
        <time>2009-06-21T08:19:39Z</time>
      </trkpt>
      <trkpt lat="44.45398" lon="1.1327">
        <ele>197.393265</ele>
        <time>2009-06-21T08:19:43Z</time>
      </trkpt>
      <trkpt lat="44.45397" lon="1.13275">
        <ele>197.380325</ele>
        <time>2009-06-21T08:19:47Z</time>
      </trkpt>
      <trkpt lat="44.45397" lon="1.13281">
        <ele>197.391251</ele>
        <time>2009-06-21T08:19:50Z</time>
      </trkpt>
      <trkpt lat="44.45398" lon="1.13288">
        <ele>197.537155</ele>
        <time>2009-06-21T08:19:54Z</time>
      </trkpt>
      <trkpt lat="44.45397" lon="1.13297">
        <ele>197.302612</ele>
        <time>2009-06-21T08:19:59Z</time>
      </trkpt>
      <trkpt lat="44.45397" lon="1.13302">
        <ele>197.321167</ele>
        <time>2009-06-21T08:20:02Z</time>
      </trkpt>
      <trkpt lat="44.45397" lon="1.13309">
        <ele>197.380051</ele>
        <time>2009-06-21T08:20:06Z</time>
      </trkpt>
      <trkpt lat="44.45396" lon="1.13314">
        <ele>197.302643</ele>
        <time>2009-06-21T08:20:09Z</time>
      </trkpt>
      <trkpt lat="44.45395" lon="1.13322">
        <ele>198.049149</ele>
        <time>2009-06-21T08:20:13Z</time>
      </trkpt>
      <trkpt lat="44.45394" lon="1.13328">
        <ele>198.863647</ele>
        <time>2009-06-21T08:20:17Z</time>
      </trkpt>
      <trkpt lat="44.45394" lon="1.13334">
        <ele>199.415344</ele>
        <time>2009-06-21T08:20:21Z</time>
      </trkpt>
      <trkpt lat="44.45396" lon="1.13339">
        <ele>199.278625</ele>
        <time>2009-06-21T08:20:25Z</time>
      </trkpt>
      <trkpt lat="44.45398" lon="1.13344">
        <ele>200.043671</ele>
        <time>2009-06-21T08:20:28Z</time>
      </trkpt>
      <trkpt lat="44.454" lon="1.13349">
        <ele>200.910873</ele>
        <time>2009-06-21T08:20:32Z</time>
      </trkpt>
      <trkpt lat="44.45399" lon="1.13356">
        <ele>201.276382</ele>
        <time>2009-06-21T08:20:35Z</time>
      </trkpt>
      <trkpt lat="44.45401" lon="1.13363">
        <ele>202.0905</ele>
        <time>2009-06-21T08:20:39Z</time>
      </trkpt>
      <trkpt lat="44.45403" lon="1.13369">
        <ele>202.987671</ele>
        <time>2009-06-21T08:20:43Z</time>
      </trkpt>
      <trkpt lat="44.45404" lon="1.13375">
        <ele>203.482391</ele>
        <time>2009-06-21T08:20:46Z</time>
      </trkpt>
      <trkpt lat="44.45405" lon="1.13379">
        <ele>204.115967</ele>
        <time>2009-06-21T08:20:49Z</time>
      </trkpt>
      <trkpt lat="44.45405" lon="1.13384">
        <ele>204.703644</ele>
        <time>2009-06-21T08:20:53Z</time>
      </trkpt>
      <trkpt lat="44.45407" lon="1.13392">
        <ele>205.778381</ele>
        <time>2009-06-21T08:20:57Z</time>
      </trkpt>
      <trkpt lat="44.45411" lon="1.13397">
        <ele>206.867523</ele>
        <time>2009-06-21T08:21:01Z</time>
      </trkpt>
      <trkpt lat="44.45415" lon="1.13402">
        <ele>207.772507</ele>
        <time>2009-06-21T08:21:05Z</time>
      </trkpt>
      <trkpt lat="44.45419" lon="1.13406">
        <ele>208.592316</ele>
        <time>2009-06-21T08:21:09Z</time>
      </trkpt>
      <trkpt lat="44.45421" lon="1.1341">
        <ele>209.189957</ele>
        <time>2009-06-21T08:21:12Z</time>
      </trkpt>
      <trkpt lat="44.45422" lon="1.13415">
        <ele>209.64328</ele>
        <time>2009-06-21T08:21:15Z</time>
      </trkpt>
      <trkpt lat="44.45425" lon="1.13421">
        <ele>210.27565</ele>
        <time>2009-06-21T08:21:19Z</time>
      </trkpt>
      <trkpt lat="44.45429" lon="1.13426">
        <ele>210.868179</ele>
        <time>2009-06-21T08:21:23Z</time>
      </trkpt>
      <trkpt lat="44.45434" lon="1.13433">
        <ele>211.537537</ele>
        <time>2009-06-21T08:21:28Z</time>
      </trkpt>
      <trkpt lat="44.45438" lon="1.13439">
        <ele>212.068329</ele>
        <time>2009-06-21T08:21:32Z</time>
      </trkpt>
      <trkpt lat="44.45441" lon="1.13443">
        <ele>212.486618</ele>
        <time>2009-06-21T08:21:35Z</time>
      </trkpt>
      <trkpt lat="44.45444" lon="1.13447">
        <ele>213.265015</ele>
        <time>2009-06-21T08:21:38Z</time>
      </trkpt>
      <trkpt lat="44.45446" lon="1.13451">
        <ele>213.947159</ele>
        <time>2009-06-21T08:21:41Z</time>
      </trkpt>
      <trkpt lat="44.45448" lon="1.13456">
        <ele>214.636688</ele>
        <time>2009-06-21T08:21:45Z</time>
      </trkpt>
      <trkpt lat="44.45449" lon="1.13463">
        <ele>215.03157</ele>
        <time>2009-06-21T08:21:50Z</time>
      </trkpt>
      <trkpt lat="44.45448" lon="1.13465">
        <ele>215.129745</ele>
        <time>2009-06-21T08:22:03Z</time>
      </trkpt>
      <trkpt lat="44.45445" lon="1.13465">
        <ele>214.448975</ele>
        <time>2009-06-21T08:22:07Z</time>
      </trkpt>
      <trkpt lat="44.45441" lon="1.13465">
        <ele>213.842606</ele>
        <time>2009-06-21T08:22:10Z</time>
      </trkpt>
      <trkpt lat="44.4543" lon="1.1346">
        <ele>213.255783</ele>
        <time>2009-06-21T08:22:14Z</time>
      </trkpt>
      <trkpt lat="44.4542" lon="1.13457">
        <ele>212.75325</ele>
        <time>2009-06-21T08:22:17Z</time>
      </trkpt>
      <trkpt lat="44.45412" lon="1.13454">
        <ele>212.205048</ele>
        <time>2009-06-21T08:22:20Z</time>
      </trkpt>
      <trkpt lat="44.45408" lon="1.13453">
        <ele>211.998184</ele>
        <time>2009-06-21T08:22:24Z</time>
      </trkpt>
      <trkpt lat="44.45403" lon="1.13451">
        <ele>211.626007</ele>
        <time>2009-06-21T08:22:27Z</time>
      </trkpt>
      <trkpt lat="44.45399" lon="1.1345">
        <ele>211.415375</ele>
        <time>2009-06-21T08:22:30Z</time>
      </trkpt>
      <trkpt lat="44.45395" lon="1.13449">
        <ele>211.578934</ele>
        <time>2009-06-21T08:22:33Z</time>
      </trkpt>
      <trkpt lat="44.45392" lon="1.1345">
        <ele>212.309036</ele>
        <time>2009-06-21T08:22:36Z</time>
      </trkpt>
      <trkpt lat="44.45388" lon="1.13455">
        <ele>213.378204</ele>
        <time>2009-06-21T08:22:40Z</time>
      </trkpt>
      <trkpt lat="44.45383" lon="1.13461">
        <ele>214.616409</ele>
        <time>2009-06-21T08:22:45Z</time>
      </trkpt>
      <trkpt lat="44.4538" lon="1.13465">
        <ele>215.422287</ele>
        <time>2009-06-21T08:22:49Z</time>
      </trkpt>
      <trkpt lat="44.45377" lon="1.1347">
        <ele>216.427811</ele>
        <time>2009-06-21T08:22:54Z</time>
      </trkpt>
      <trkpt lat="44.45374" lon="1.13476">
        <ele>217.307541</ele>
        <time>2009-06-21T08:22:59Z</time>
      </trkpt>
      <trkpt lat="44.4537" lon="1.13479">
        <ele>218.12442</ele>
        <time>2009-06-21T08:23:02Z</time>
      </trkpt>
      <trkpt lat="44.45365" lon="1.13484">
        <ele>219.204788</ele>
        <time>2009-06-21T08:23:07Z</time>
      </trkpt>
      <trkpt lat="44.45363" lon="1.13488">
        <ele>219.910553</ele>
        <time>2009-06-21T08:23:10Z</time>
      </trkpt>
      <trkpt lat="44.45358" lon="1.13495">
        <ele>220.951935</ele>
        <time>2009-06-21T08:23:15Z</time>
      </trkpt>
      <trkpt lat="44.45354" lon="1.13499">
        <ele>221.829742</ele>
        <time>2009-06-21T08:23:19Z</time>
      </trkpt>
      <trkpt lat="44.45351" lon="1.13503">
        <ele>222.550568</ele>
        <time>2009-06-21T08:23:22Z</time>
      </trkpt>
      <trkpt lat="44.45347" lon="1.1351">
        <ele>223.643158</ele>
        <time>2009-06-21T08:23:27Z</time>
      </trkpt>
      <trkpt lat="44.45342" lon="1.13514">
        <ele>224.674393</ele>
        <time>2009-06-21T08:23:32Z</time>
      </trkpt>
      <trkpt lat="44.45339" lon="1.13519">
        <ele>225.484726</ele>
        <time>2009-06-21T08:23:35Z</time>
      </trkpt>
      <trkpt lat="44.45335" lon="1.13524">
        <ele>226.338013</ele>
        <time>2009-06-21T08:23:40Z</time>
      </trkpt>
      <trkpt lat="44.45331" lon="1.13529">
        <ele>227.064087</ele>
        <time>2009-06-21T08:23:44Z</time>
      </trkpt>
      <trkpt lat="44.45328" lon="1.13534">
        <ele>227.774902</ele>
        <time>2009-06-21T08:23:48Z</time>
      </trkpt>
      <trkpt lat="44.45324" lon="1.13537">
        <ele>228.365448</ele>
        <time>2009-06-21T08:23:51Z</time>
      </trkpt>
      <trkpt lat="44.45322" lon="1.13542">
        <ele>228.8797</ele>
        <time>2009-06-21T08:23:55Z</time>
      </trkpt>
      <trkpt lat="44.45318" lon="1.13546">
        <ele>229.516312</ele>
        <time>2009-06-21T08:23:59Z</time>
      </trkpt>
      <trkpt lat="44.45314" lon="1.13551">
        <ele>230.084274</ele>
        <time>2009-06-21T08:24:03Z</time>
      </trkpt>
      <trkpt lat="44.45311" lon="1.13555">
        <ele>230.538315</ele>
        <time>2009-06-21T08:24:07Z</time>
      </trkpt>
      <trkpt lat="44.45309" lon="1.1356">
        <ele>230.94812</ele>
        <time>2009-06-21T08:24:11Z</time>
      </trkpt>
      <trkpt lat="44.45305" lon="1.13565">
        <ele>231.392349</ele>
        <time>2009-06-21T08:24:15Z</time>
      </trkpt>
      <trkpt lat="44.45301" lon="1.13569">
        <ele>231.891022</ele>
        <time>2009-06-21T08:24:19Z</time>
      </trkpt>
      <trkpt lat="44.45297" lon="1.13574">
        <ele>232.390976</ele>
        <time>2009-06-21T08:24:23Z</time>
      </trkpt>
      <trkpt lat="44.45294" lon="1.13578">
        <ele>232.79512</ele>
        <time>2009-06-21T08:24:26Z</time>
      </trkpt>
      <trkpt lat="44.45291" lon="1.13583">
        <ele>233.182999</ele>
        <time>2009-06-21T08:24:29Z</time>
      </trkpt>
      <trkpt lat="44.45289" lon="1.13588">
        <ele>233.448837</ele>
        <time>2009-06-21T08:24:32Z</time>
      </trkpt>
      <trkpt lat="44.45291" lon="1.13593">
        <ele>233.291824</ele>
        <time>2009-06-21T08:24:35Z</time>
      </trkpt>
      <trkpt lat="44.45296" lon="1.136">
        <ele>232.865799</ele>
        <time>2009-06-21T08:24:39Z</time>
      </trkpt>
      <trkpt lat="44.453" lon="1.13607">
        <ele>232.55928</ele>
        <time>2009-06-21T08:24:42Z</time>
      </trkpt>
      <trkpt lat="44.45304" lon="1.13612">
        <ele>232.243637</ele>
        <time>2009-06-21T08:24:45Z</time>
      </trkpt>
      <trkpt lat="44.45309" lon="1.13618">
        <ele>231.916245</ele>
        <time>2009-06-21T08:24:48Z</time>
      </trkpt>
      <trkpt lat="44.45313" lon="1.13625">
        <ele>231.65715</ele>
        <time>2009-06-21T08:24:51Z</time>
      </trkpt>
      <trkpt lat="44.45318" lon="1.13633">
        <ele>231.051758</ele>
        <time>2009-06-21T08:24:54Z</time>
      </trkpt>
      <trkpt lat="44.45323" lon="1.1364">
        <ele>230.412308</ele>
        <time>2009-06-21T08:24:57Z</time>
      </trkpt>
      <trkpt lat="44.45328" lon="1.13647">
        <ele>229.795151</ele>
        <time>2009-06-21T08:25:00Z</time>
      </trkpt>
      <trkpt lat="44.45333" lon="1.13655">
        <ele>229.218735</ele>
        <time>2009-06-21T08:25:03Z</time>
      </trkpt>
      <trkpt lat="44.45338" lon="1.13662">
        <ele>228.655487</ele>
        <time>2009-06-21T08:25:06Z</time>
      </trkpt>
      <trkpt lat="44.45343" lon="1.13669">
        <ele>228.140717</ele>
        <time>2009-06-21T08:25:09Z</time>
      </trkpt>
      <trkpt lat="44.45348" lon="1.13676">
        <ele>227.66922</ele>
        <time>2009-06-21T08:25:12Z</time>
      </trkpt>
      <trkpt lat="44.45353" lon="1.13682">
        <ele>227.243973</ele>
        <time>2009-06-21T08:25:15Z</time>
      </trkpt>
      <trkpt lat="44.45357" lon="1.13688">
        <ele>227.016251</ele>
        <time>2009-06-21T08:25:18Z</time>
      </trkpt>
      <trkpt lat="44.45359" lon="1.13696">
        <ele>226.639252</ele>
        <time>2009-06-21T08:25:21Z</time>
      </trkpt>
      <trkpt lat="44.45362" lon="1.13704">
        <ele>226.337051</ele>
        <time>2009-06-21T08:25:24Z</time>
      </trkpt>
      <trkpt lat="44.45368" lon="1.13714">
        <ele>226.174637</ele>
        <time>2009-06-21T08:25:28Z</time>
      </trkpt>
      <trkpt lat="44.45372" lon="1.13722">
        <ele>226.199615</ele>
        <time>2009-06-21T08:25:31Z</time>
      </trkpt>
      <trkpt lat="44.45377" lon="1.13732">
        <ele>226.289215</ele>
        <time>2009-06-21T08:25:34Z</time>
      </trkpt>
      <trkpt lat="44.45381" lon="1.13744">
        <ele>226.481506</ele>
        <time>2009-06-21T08:25:37Z</time>
      </trkpt>
      <trkpt lat="44.45384" lon="1.13754">
        <ele>226.81015</ele>
        <time>2009-06-21T08:25:40Z</time>
      </trkpt>
      <trkpt lat="44.45385" lon="1.13765">
        <ele>227.180832</ele>
        <time>2009-06-21T08:25:43Z</time>
      </trkpt>
      <trkpt lat="44.45388" lon="1.13778">
        <ele>227.747314</ele>
        <time>2009-06-21T08:25:46Z</time>
      </trkpt>
      <trkpt lat="44.45389" lon="1.1379">
        <ele>228.126236</ele>
        <time>2009-06-21T08:25:49Z</time>
      </trkpt>
      <trkpt lat="44.45391" lon="1.13803">
        <ele>228.767136</ele>
        <time>2009-06-21T08:25:52Z</time>
      </trkpt>
      <trkpt lat="44.45393" lon="1.13815">
        <ele>229.493683</ele>
        <time>2009-06-21T08:25:55Z</time>
      </trkpt>
      <trkpt lat="44.45396" lon="1.13827">
        <ele>230.33252</ele>
        <time>2009-06-21T08:25:58Z</time>
      </trkpt>
      <trkpt lat="44.45399" lon="1.13842">
        <ele>231.391403</ele>
        <time>2009-06-21T08:26:02Z</time>
      </trkpt>
      <trkpt lat="44.45401" lon="1.13854">
        <ele>232.193634</ele>
        <time>2009-06-21T08:26:05Z</time>
      </trkpt>
      <trkpt lat="44.45404" lon="1.13866">
        <ele>233.006317</ele>
        <time>2009-06-21T08:26:08Z</time>
      </trkpt>
      <trkpt lat="44.45406" lon="1.13877">
        <ele>233.66185</ele>
        <time>2009-06-21T08:26:11Z</time>
      </trkpt>
      <trkpt lat="44.45409" lon="1.13889">
        <ele>234.219513</ele>
        <time>2009-06-21T08:26:14Z</time>
      </trkpt>
      <trkpt lat="44.45413" lon="1.13902">
        <ele>235.040588</ele>
        <time>2009-06-21T08:26:18Z</time>
      </trkpt>
      <trkpt lat="44.45417" lon="1.13912">
        <ele>235.660614</ele>
        <time>2009-06-21T08:26:21Z</time>
      </trkpt>
      <trkpt lat="44.45421" lon="1.13923">
        <ele>236.38298</ele>
        <time>2009-06-21T08:26:24Z</time>
      </trkpt>
      <trkpt lat="44.45426" lon="1.13934">
        <ele>237.074539</ele>
        <time>2009-06-21T08:26:27Z</time>
      </trkpt>
      <trkpt lat="44.45431" lon="1.13943">
        <ele>237.647491</ele>
        <time>2009-06-21T08:26:30Z</time>
      </trkpt>
      <trkpt lat="44.45436" lon="1.13953">
        <ele>238.182663</ele>
        <time>2009-06-21T08:26:33Z</time>
      </trkpt>
      <trkpt lat="44.45441" lon="1.13963">
        <ele>238.731705</ele>
        <time>2009-06-21T08:26:36Z</time>
      </trkpt>
      <trkpt lat="44.45446" lon="1.13972">
        <ele>239.221802</ele>
        <time>2009-06-21T08:26:39Z</time>
      </trkpt>
      <trkpt lat="44.45452" lon="1.13981">
        <ele>239.549683</ele>
        <time>2009-06-21T08:26:42Z</time>
      </trkpt>
      <trkpt lat="44.45457" lon="1.1399">
        <ele>239.775116</ele>
        <time>2009-06-21T08:26:45Z</time>
      </trkpt>
      <trkpt lat="44.45462" lon="1.13998">
        <ele>239.962112</ele>
        <time>2009-06-21T08:26:48Z</time>
      </trkpt>
      <trkpt lat="44.45467" lon="1.14007">
        <ele>239.813858</ele>
        <time>2009-06-21T08:26:51Z</time>
      </trkpt>
      <trkpt lat="44.45471" lon="1.14016">
        <ele>239.57222</ele>
        <time>2009-06-21T08:26:54Z</time>
      </trkpt>
      <trkpt lat="44.45474" lon="1.14023">
        <ele>239.342773</ele>
        <time>2009-06-21T08:26:57Z</time>
      </trkpt>
      <trkpt lat="44.45478" lon="1.1403">
        <ele>239.165436</ele>
        <time>2009-06-21T08:27:00Z</time>
      </trkpt>
      <trkpt lat="44.45484" lon="1.14039">
        <ele>238.920792</ele>
        <time>2009-06-21T08:27:04Z</time>
      </trkpt>
      <trkpt lat="44.45491" lon="1.14047">
        <ele>238.810822</ele>
        <time>2009-06-21T08:27:07Z</time>
      </trkpt>
      <trkpt lat="44.45502" lon="1.14056">
        <ele>237.984421</ele>
        <time>2009-06-21T08:27:10Z</time>
      </trkpt>
      <trkpt lat="44.45514" lon="1.14066">
        <ele>236.647736</ele>
        <time>2009-06-21T08:27:13Z</time>
      </trkpt>
      <trkpt lat="44.45527" lon="1.14077">
        <ele>235.189636</ele>
        <time>2009-06-21T08:27:16Z</time>
      </trkpt>
      <trkpt lat="44.45544" lon="1.1409">
        <ele>233.317719</ele>
        <time>2009-06-21T08:27:19Z</time>
      </trkpt>
      <trkpt lat="44.45566" lon="1.14107">
        <ele>230.330246</ele>
        <time>2009-06-21T08:27:22Z</time>
      </trkpt>
      <trkpt lat="44.45595" lon="1.14125">
        <ele>226.640991</ele>
        <time>2009-06-21T08:27:25Z</time>
      </trkpt>
      <trkpt lat="44.4562" lon="1.14144">
        <ele>222.491943</ele>
        <time>2009-06-21T08:27:28Z</time>
      </trkpt>
      <trkpt lat="44.45638" lon="1.1416">
        <ele>219.110001</ele>
        <time>2009-06-21T08:27:31Z</time>
      </trkpt>
      <trkpt lat="44.45658" lon="1.14169">
        <ele>215.659332</ele>
        <time>2009-06-21T08:27:34Z</time>
      </trkpt>
      <trkpt lat="44.4568" lon="1.14183">
        <ele>212.213409</ele>
        <time>2009-06-21T08:27:37Z</time>
      </trkpt>
      <trkpt lat="44.45703" lon="1.14202">
        <ele>207.742661</ele>
        <time>2009-06-21T08:27:40Z</time>
      </trkpt>
      <trkpt lat="44.45728" lon="1.14224">
        <ele>205.193741</ele>
        <time>2009-06-21T08:27:43Z</time>
      </trkpt>
      <trkpt lat="44.45753" lon="1.14241">
        <ele>204.387283</ele>
        <time>2009-06-21T08:27:46Z</time>
      </trkpt>
      <trkpt lat="44.45779" lon="1.14259">
        <ele>202.990005</ele>
        <time>2009-06-21T08:27:49Z</time>
      </trkpt>
      <trkpt lat="44.45804" lon="1.14281">
        <ele>201.36438</ele>
        <time>2009-06-21T08:27:52Z</time>
      </trkpt>
      <trkpt lat="44.45823" lon="1.143">
        <ele>200.033752</ele>
        <time>2009-06-21T08:27:55Z</time>
      </trkpt>
      <trkpt lat="44.45835" lon="1.14311">
        <ele>198.728134</ele>
        <time>2009-06-21T08:27:58Z</time>
      </trkpt>
      <trkpt lat="44.45854" lon="1.14317">
        <ele>197.553787</ele>
        <time>2009-06-21T08:28:02Z</time>
      </trkpt>
      <trkpt lat="44.45865" lon="1.14306">
        <ele>198.824997</ele>
        <time>2009-06-21T08:28:06Z</time>
      </trkpt>
      <trkpt lat="44.45867" lon="1.143">
        <ele>199.211014</ele>
        <time>2009-06-21T08:28:09Z</time>
      </trkpt>
      <trkpt lat="44.45869" lon="1.14296">
        <ele>199.393784</ele>
        <time>2009-06-21T08:28:12Z</time>
      </trkpt>
      <trkpt lat="44.45874" lon="1.1429">
        <ele>199.599731</ele>
        <time>2009-06-21T08:28:16Z</time>
      </trkpt>
      <trkpt lat="44.45876" lon="1.14286">
        <ele>199.778442</ele>
        <time>2009-06-21T08:28:20Z</time>
      </trkpt>
      <trkpt lat="44.45875" lon="1.14285">
        <ele>199.807816</ele>
        <time>2009-06-21T08:28:27Z</time>
      </trkpt>
      <trkpt lat="44.45876" lon="1.14285">
        <ele>199.796066</ele>
        <time>2009-06-21T08:28:32Z</time>
      </trkpt>
      <trkpt lat="44.45877" lon="1.14282">
        <ele>199.921875</ele>
        <time>2009-06-21T08:28:42Z</time>
      </trkpt>
      <trkpt lat="44.45879" lon="1.14281">
        <ele>199.949051</ele>
        <time>2009-06-21T08:28:46Z</time>
      </trkpt>
      <trkpt lat="44.45879" lon="1.14284">
        <ele>199.831635</ele>
        <time>2009-06-21T08:28:51Z</time>
      </trkpt>
      <trkpt lat="44.45877" lon="1.14289">
        <ele>199.620468</ele>
        <time>2009-06-21T08:28:55Z</time>
      </trkpt>
      <trkpt lat="44.45873" lon="1.14295">
        <ele>199.393982</ele>
        <time>2009-06-21T08:28:58Z</time>
      </trkpt>
      <trkpt lat="44.45869" lon="1.14302">
        <ele>199.127151</ele>
        <time>2009-06-21T08:29:01Z</time>
      </trkpt>
      <trkpt lat="44.45861" lon="1.14311">
        <ele>198.25</ele>
        <time>2009-06-21T08:29:04Z</time>
      </trkpt>
      <trkpt lat="44.45847" lon="1.14311">
        <ele>198.476807</ele>
        <time>2009-06-21T08:29:08Z</time>
      </trkpt>
      <trkpt lat="44.45845" lon="1.14307">
        <ele>199.056229</ele>
        <time>2009-06-21T08:29:12Z</time>
      </trkpt>
      <trkpt lat="44.45843" lon="1.14306">
        <ele>199.18808</ele>
        <time>2009-06-21T08:29:16Z</time>
      </trkpt>
      <trkpt lat="44.45841" lon="1.14309">
        <ele>198.889359</ele>
        <time>2009-06-21T08:29:36Z</time>
      </trkpt>
      <trkpt lat="44.45843" lon="1.1431">
        <ele>198.723648</ele>
        <time>2009-06-21T08:29:43Z</time>
      </trkpt>
      <trkpt lat="44.45844" lon="1.14312">
        <ele>198.395081</ele>
        <time>2009-06-21T08:29:47Z</time>
      </trkpt>
      <trkpt lat="44.45838" lon="1.1431">
        <ele>198.746048</ele>
        <time>2009-06-21T08:29:52Z</time>
      </trkpt>
      <trkpt lat="44.45841" lon="1.14317">
        <ele>197.763794</ele>
        <time>2009-06-21T08:29:56Z</time>
      </trkpt>
      <trkpt lat="44.45847" lon="1.14324">
        <ele>196.789658</ele>
        <time>2009-06-21T08:29:59Z</time>
      </trkpt>
      <trkpt lat="44.45857" lon="1.14331">
        <ele>195.649994</ele>
        <time>2009-06-21T08:30:02Z</time>
      </trkpt>
      <trkpt lat="44.45873" lon="1.14354">
        <ele>192.690002</ele>
        <time>2009-06-21T08:30:06Z</time>
      </trkpt>
      <trkpt lat="44.45888" lon="1.14385">
        <ele>188.034439</ele>
        <time>2009-06-21T08:30:10Z</time>
      </trkpt>
      <trkpt lat="44.45898" lon="1.14407">
        <ele>184.524979</ele>
        <time>2009-06-21T08:30:13Z</time>
      </trkpt>
      <trkpt lat="44.45904" lon="1.1443">
        <ele>180.930618</ele>
        <time>2009-06-21T08:30:16Z</time>
      </trkpt>
      <trkpt lat="44.45906" lon="1.14462">
        <ele>175.34375</ele>
        <time>2009-06-21T08:30:20Z</time>
      </trkpt>
      <trkpt lat="44.4591" lon="1.14488">
        <ele>170.689377</ele>
        <time>2009-06-21T08:30:23Z</time>
      </trkpt>
      <trkpt lat="44.45911" lon="1.14511">
        <ele>167.043671</ele>
        <time>2009-06-21T08:30:26Z</time>
      </trkpt>
      <trkpt lat="44.45912" lon="1.14526">
        <ele>164.725922</ele>
        <time>2009-06-21T08:30:29Z</time>
      </trkpt>
      <trkpt lat="44.45919" lon="1.14537">
        <ele>162.720779</ele>
        <time>2009-06-21T08:30:32Z</time>
      </trkpt>
      <trkpt lat="44.45943" lon="1.14549">
        <ele>159.342499</ele>
        <time>2009-06-21T08:30:36Z</time>
      </trkpt>
      <trkpt lat="44.45969" lon="1.14559">
        <ele>154.990234</ele>
        <time>2009-06-21T08:30:39Z</time>
      </trkpt>
      <trkpt lat="44.45997" lon="1.14562">
        <ele>151.979294</ele>
        <time>2009-06-21T08:30:42Z</time>
      </trkpt>
      <trkpt lat="44.4603" lon="1.14584">
        <ele>146.154373</ele>
        <time>2009-06-21T08:30:46Z</time>
      </trkpt>
      <trkpt lat="44.46055" lon="1.14607">
        <ele>138.582733</ele>
        <time>2009-06-21T08:30:49Z</time>
      </trkpt>
      <trkpt lat="44.46094" lon="1.14612">
        <ele>134.514053</ele>
        <time>2009-06-21T08:30:53Z</time>
      </trkpt>
      <trkpt lat="44.46138" lon="1.14617">
        <ele>126.839622</ele>
        <time>2009-06-21T08:30:57Z</time>
      </trkpt>
      <trkpt lat="44.46182" lon="1.1463">
        <ele>118.852402</ele>
        <time>2009-06-21T08:31:01Z</time>
      </trkpt>
      <trkpt lat="44.46212" lon="1.14636">
        <ele>113.108635</ele>
        <time>2009-06-21T08:31:04Z</time>
      </trkpt>
      <trkpt lat="44.46239" lon="1.14649">
        <ele>107.923744</ele>
        <time>2009-06-21T08:31:07Z</time>
      </trkpt>
      <trkpt lat="44.46261" lon="1.1466">
        <ele>104.951691</ele>
        <time>2009-06-21T08:31:10Z</time>
      </trkpt>
      <trkpt lat="44.46274" lon="1.14668">
        <ele>105.25</ele>
        <time>2009-06-21T08:31:13Z</time>
      </trkpt>
      <trkpt lat="44.4628" lon="1.14678">
        <ele>105.215767</ele>
        <time>2009-06-21T08:31:16Z</time>
      </trkpt>
      <trkpt lat="44.46277" lon="1.14697">
        <ele>103.135941</ele>
        <time>2009-06-21T08:31:19Z</time>
      </trkpt>
      <trkpt lat="44.46275" lon="1.14731">
        <ele>100.040962</ele>
        <time>2009-06-21T08:31:23Z</time>
      </trkpt>
      <trkpt lat="44.46264" lon="1.14753">
        <ele>98.166252</ele>
        <time>2009-06-21T08:31:26Z</time>
      </trkpt>
      <trkpt lat="44.46252" lon="1.14779">
        <ele>96.658752</ele>
        <time>2009-06-21T08:31:30Z</time>
      </trkpt>
      <trkpt lat="44.46247" lon="1.14797">
        <ele>95.654373</ele>
        <time>2009-06-21T08:31:33Z</time>
      </trkpt>
      <trkpt lat="44.46244" lon="1.14815">
        <ele>95.747551</ele>
        <time>2009-06-21T08:31:36Z</time>
      </trkpt>
      <trkpt lat="44.4624" lon="1.14829">
        <ele>95.96402</ele>
        <time>2009-06-21T08:31:39Z</time>
      </trkpt>
      <trkpt lat="44.46238" lon="1.1484">
        <ele>96.198196</ele>
        <time>2009-06-21T08:31:42Z</time>
      </trkpt>
      <trkpt lat="44.46237" lon="1.1485">
        <ele>96.409386</ele>
        <time>2009-06-21T08:31:45Z</time>
      </trkpt>
      <trkpt lat="44.46236" lon="1.1486">
        <ele>96.639954</ele>
        <time>2009-06-21T08:31:48Z</time>
      </trkpt>
      <trkpt lat="44.46233" lon="1.14872">
        <ele>97.4832</ele>
        <time>2009-06-21T08:31:52Z</time>
      </trkpt>
      <trkpt lat="44.4623" lon="1.14884">
        <ele>98.439972</ele>
        <time>2009-06-21T08:31:55Z</time>
      </trkpt>
      <trkpt lat="44.46226" lon="1.14893">
        <ele>99.321617</ele>
        <time>2009-06-21T08:31:58Z</time>
      </trkpt>
      <trkpt lat="44.46222" lon="1.14902">
        <ele>100.145622</ele>
        <time>2009-06-21T08:32:01Z</time>
      </trkpt>
      <trkpt lat="44.46221" lon="1.14911">
        <ele>100.868126</ele>
        <time>2009-06-21T08:32:04Z</time>
      </trkpt>
      <trkpt lat="44.46225" lon="1.14918">
        <ele>101.250458</ele>
        <time>2009-06-21T08:32:08Z</time>
      </trkpt>
      <trkpt lat="44.46232" lon="1.14925">
        <ele>101.422501</ele>
        <time>2009-06-21T08:32:12Z</time>
      </trkpt>
      <trkpt lat="44.46236" lon="1.14931">
        <ele>102.062004</ele>
        <time>2009-06-21T08:32:15Z</time>
      </trkpt>
      <trkpt lat="44.46243" lon="1.14937">
        <ele>102.535309</ele>
        <time>2009-06-21T08:32:19Z</time>
      </trkpt>
      <trkpt lat="44.46248" lon="1.14941">
        <ele>102.886169</ele>
        <time>2009-06-21T08:32:22Z</time>
      </trkpt>
      <trkpt lat="44.46254" lon="1.14946">
        <ele>103.17675</ele>
        <time>2009-06-21T08:32:25Z</time>
      </trkpt>
      <trkpt lat="44.4626" lon="1.14953">
        <ele>103.705231</ele>
        <time>2009-06-21T08:32:28Z</time>
      </trkpt>
      <trkpt lat="44.46267" lon="1.14959">
        <ele>104.100807</ele>
        <time>2009-06-21T08:32:31Z</time>
      </trkpt>
      <trkpt lat="44.46275" lon="1.14967">
        <ele>103.96376</ele>
        <time>2009-06-21T08:32:34Z</time>
      </trkpt>
      <trkpt lat="44.46283" lon="1.14975">
        <ele>103.658691</ele>
        <time>2009-06-21T08:32:37Z</time>
      </trkpt>
      <trkpt lat="44.46292" lon="1.14984">
        <ele>102.954803</ele>
        <time>2009-06-21T08:32:40Z</time>
      </trkpt>
      <trkpt lat="44.46302" lon="1.14993">
        <ele>102.836037</ele>
        <time>2009-06-21T08:32:43Z</time>
      </trkpt>
      <trkpt lat="44.46312" lon="1.15003">
        <ele>102.755211</ele>
        <time>2009-06-21T08:32:46Z</time>
      </trkpt>
      <trkpt lat="44.46324" lon="1.15014">
        <ele>103.546509</ele>
        <time>2009-06-21T08:32:49Z</time>
      </trkpt>
      <trkpt lat="44.46337" lon="1.15025">
        <ele>103.628952</ele>
        <time>2009-06-21T08:32:52Z</time>
      </trkpt>
      <trkpt lat="44.46351" lon="1.15037">
        <ele>103.186378</ele>
        <time>2009-06-21T08:32:55Z</time>
      </trkpt>
      <trkpt lat="44.46365" lon="1.15048">
        <ele>102.393127</ele>
        <time>2009-06-21T08:32:58Z</time>
      </trkpt>
      <trkpt lat="44.46378" lon="1.15059">
        <ele>102.548126</ele>
        <time>2009-06-21T08:33:01Z</time>
      </trkpt>
      <trkpt lat="44.46391" lon="1.15067">
        <ele>102.363129</ele>
        <time>2009-06-21T08:33:04Z</time>
      </trkpt>
      <trkpt lat="44.46405" lon="1.15077">
        <ele>102.224991</ele>
        <time>2009-06-21T08:33:07Z</time>
      </trkpt>
      <trkpt lat="44.4642" lon="1.15087">
        <ele>101.593124</ele>
        <time>2009-06-21T08:33:10Z</time>
      </trkpt>
      <trkpt lat="44.46436" lon="1.15098">
        <ele>100.848434</ele>
        <time>2009-06-21T08:33:13Z</time>
      </trkpt>
      <trkpt lat="44.46452" lon="1.15112">
        <ele>100.542969</ele>
        <time>2009-06-21T08:33:17Z</time>
      </trkpt>
      <trkpt lat="44.46474" lon="1.1513">
        <ele>102.389465</ele>
        <time>2009-06-21T08:33:20Z</time>
      </trkpt>
      <trkpt lat="44.46491" lon="1.1514">
        <ele>101.801582</ele>
        <time>2009-06-21T08:33:23Z</time>
      </trkpt>
      <trkpt lat="44.46509" lon="1.15151">
        <ele>101.219704</ele>
        <time>2009-06-21T08:33:26Z</time>
      </trkpt>
      <trkpt lat="44.46529" lon="1.15161">
        <ele>100.377853</ele>
        <time>2009-06-21T08:33:29Z</time>
      </trkpt>
      <trkpt lat="44.46549" lon="1.15172">
        <ele>99.647469</ele>
        <time>2009-06-21T08:33:32Z</time>
      </trkpt>
      <trkpt lat="44.46569" lon="1.15181">
        <ele>99.033722</ele>
        <time>2009-06-21T08:33:35Z</time>
      </trkpt>
      <trkpt lat="44.46589" lon="1.1519">
        <ele>97.837502</ele>
        <time>2009-06-21T08:33:38Z</time>
      </trkpt>
      <trkpt lat="44.46609" lon="1.152">
        <ele>96.483749</ele>
        <time>2009-06-21T08:33:41Z</time>
      </trkpt>
      <trkpt lat="44.46626" lon="1.15209">
        <ele>95.177498</ele>
        <time>2009-06-21T08:33:44Z</time>
      </trkpt>
      <trkpt lat="44.46642" lon="1.15215">
        <ele>94.704536</ele>
        <time>2009-06-21T08:33:47Z</time>
      </trkpt>
      <trkpt lat="44.46656" lon="1.15218">
        <ele>94.435898</ele>
        <time>2009-06-21T08:33:50Z</time>
      </trkpt>
      <trkpt lat="44.46672" lon="1.15218">
        <ele>93.665627</ele>
        <time>2009-06-21T08:33:53Z</time>
      </trkpt>
      <trkpt lat="44.46693" lon="1.15217">
        <ele>93.106277</ele>
        <time>2009-06-21T08:33:56Z</time>
      </trkpt>
      <trkpt lat="44.46715" lon="1.15218">
        <ele>92.940178</ele>
        <time>2009-06-21T08:33:59Z</time>
      </trkpt>
      <trkpt lat="44.46738" lon="1.15225">
        <ele>93.620789</ele>
        <time>2009-06-21T08:34:02Z</time>
      </trkpt>
      <trkpt lat="44.46757" lon="1.15235">
        <ele>94.948936</ele>
        <time>2009-06-21T08:34:05Z</time>
      </trkpt>
      <trkpt lat="44.46779" lon="1.15249">
        <ele>95.960846</ele>
        <time>2009-06-21T08:34:09Z</time>
      </trkpt>
      <trkpt lat="44.468" lon="1.15263">
        <ele>96.265701</ele>
        <time>2009-06-21T08:34:13Z</time>
      </trkpt>
      <trkpt lat="44.46814" lon="1.15275">
        <ele>96.318764</ele>
        <time>2009-06-21T08:34:16Z</time>
      </trkpt>
      <trkpt lat="44.46829" lon="1.15285">
        <ele>95.625381</ele>
        <time>2009-06-21T08:34:19Z</time>
      </trkpt>
      <trkpt lat="44.46844" lon="1.15296">
        <ele>95.802528</ele>
        <time>2009-06-21T08:34:22Z</time>
      </trkpt>
      <trkpt lat="44.46859" lon="1.15306">
        <ele>96.054001</ele>
        <time>2009-06-21T08:34:25Z</time>
      </trkpt>
      <trkpt lat="44.46877" lon="1.15315">
        <ele>95.971222</ele>
        <time>2009-06-21T08:34:28Z</time>
      </trkpt>
      <trkpt lat="44.46897" lon="1.15321">
        <ele>94.722748</ele>
        <time>2009-06-21T08:34:31Z</time>
      </trkpt>
      <trkpt lat="44.46916" lon="1.15319">
        <ele>92.824982</ele>
        <time>2009-06-21T08:34:34Z</time>
      </trkpt>
      <trkpt lat="44.46935" lon="1.15323">
        <ele>91.864227</ele>
        <time>2009-06-21T08:34:37Z</time>
      </trkpt>
      <trkpt lat="44.46953" lon="1.15325">
        <ele>91.164413</ele>
        <time>2009-06-21T08:34:40Z</time>
      </trkpt>
      <trkpt lat="44.46972" lon="1.15328">
        <ele>91.323853</ele>
        <time>2009-06-21T08:34:43Z</time>
      </trkpt>
      <trkpt lat="44.4699" lon="1.15331">
        <ele>91.296371</ele>
        <time>2009-06-21T08:34:46Z</time>
      </trkpt>
      <trkpt lat="44.4701" lon="1.15332">
        <ele>91.189735</ele>
        <time>2009-06-21T08:34:49Z</time>
      </trkpt>
      <trkpt lat="44.47029" lon="1.15334">
        <ele>91.035828</ele>
        <time>2009-06-21T08:34:52Z</time>
      </trkpt>
      <trkpt lat="44.4705" lon="1.15337">
        <ele>90.57312</ele>
        <time>2009-06-21T08:34:55Z</time>
      </trkpt>
      <trkpt lat="44.47069" lon="1.15336">
        <ele>89.655624</ele>
        <time>2009-06-21T08:34:58Z</time>
      </trkpt>
      <trkpt lat="44.47089" lon="1.15333">
        <ele>88.801361</ele>
        <time>2009-06-21T08:35:01Z</time>
      </trkpt>
      <trkpt lat="44.47108" lon="1.15329">
        <ele>88.206459</ele>
        <time>2009-06-21T08:35:05Z</time>
      </trkpt>
      <trkpt lat="44.47133" lon="1.15323">
        <ele>87.569748</ele>
        <time>2009-06-21T08:35:08Z</time>
      </trkpt>
      <trkpt lat="44.47152" lon="1.15318">
        <ele>87.326721</ele>
        <time>2009-06-21T08:35:11Z</time>
      </trkpt>
      <trkpt lat="44.4717" lon="1.15315">
        <ele>87.171066</ele>
        <time>2009-06-21T08:35:14Z</time>
      </trkpt>
      <trkpt lat="44.47189" lon="1.15315">
        <ele>86.985176</ele>
        <time>2009-06-21T08:35:17Z</time>
      </trkpt>
      <trkpt lat="44.47207" lon="1.15313">
        <ele>86.678368</ele>
        <time>2009-06-21T08:35:20Z</time>
      </trkpt>
      <trkpt lat="44.47222" lon="1.15309">
        <ele>86.538788</ele>
        <time>2009-06-21T08:35:23Z</time>
      </trkpt>
      <trkpt lat="44.47238" lon="1.15306">
        <ele>87.137001</ele>
        <time>2009-06-21T08:35:26Z</time>
      </trkpt>
      <trkpt lat="44.47253" lon="1.15303">
        <ele>87.802963</ele>
        <time>2009-06-21T08:35:29Z</time>
      </trkpt>
      <trkpt lat="44.47269" lon="1.153">
        <ele>88.582001</ele>
        <time>2009-06-21T08:35:32Z</time>
      </trkpt>
      <trkpt lat="44.47282" lon="1.15299">
        <ele>89.725304</ele>
        <time>2009-06-21T08:35:35Z</time>
      </trkpt>
      <trkpt lat="44.47295" lon="1.15296">
        <ele>90.643173</ele>
        <time>2009-06-21T08:35:38Z</time>
      </trkpt>
      <trkpt lat="44.47308" lon="1.15293">
        <ele>91.285767</ele>
        <time>2009-06-21T08:35:41Z</time>
      </trkpt>
      <trkpt lat="44.47324" lon="1.15289">
        <ele>90.943428</ele>
        <time>2009-06-21T08:35:44Z</time>
      </trkpt>
      <trkpt lat="44.47337" lon="1.15285">
        <ele>90.537216</ele>
        <time>2009-06-21T08:35:47Z</time>
      </trkpt>
      <trkpt lat="44.47348" lon="1.15281">
        <ele>90.313828</ele>
        <time>2009-06-21T08:35:51Z</time>
      </trkpt>
      <trkpt lat="44.47361" lon="1.15278">
        <ele>90.003838</ele>
        <time>2009-06-21T08:35:54Z</time>
      </trkpt>
      <trkpt lat="44.4737" lon="1.15274">
        <ele>89.688843</ele>
        <time>2009-06-21T08:35:57Z</time>
      </trkpt>
      <trkpt lat="44.47377" lon="1.15274">
        <ele>89.729889</ele>
        <time>2009-06-21T08:36:00Z</time>
      </trkpt>
      <trkpt lat="44.47384" lon="1.15279">
        <ele>90.041466</ele>
        <time>2009-06-21T08:36:03Z</time>
      </trkpt>
      <trkpt lat="44.47391" lon="1.15283">
        <ele>90.078186</ele>
        <time>2009-06-21T08:36:06Z</time>
      </trkpt>
      <trkpt lat="44.47394" lon="1.15278">
        <ele>90.002274</ele>
        <time>2009-06-21T08:36:10Z</time>
      </trkpt>
      <trkpt lat="44.47394" lon="1.15257">
        <ele>88.712387</ele>
        <time>2009-06-21T08:36:14Z</time>
      </trkpt>
      <trkpt lat="44.47392" lon="1.15242">
        <ele>87.678673</ele>
        <time>2009-06-21T08:36:17Z</time>
      </trkpt>
      <trkpt lat="44.474" lon="1.15232">
        <ele>87.130302</ele>
        <time>2009-06-21T08:36:21Z</time>
      </trkpt>
      <trkpt lat="44.47405" lon="1.15219">
        <ele>86.446037</ele>
        <time>2009-06-21T08:36:24Z</time>
      </trkpt>
      <trkpt lat="44.47406" lon="1.15203">
        <ele>85.902496</ele>
        <time>2009-06-21T08:36:27Z</time>
      </trkpt>
      <trkpt lat="44.47414" lon="1.15188">
        <ele>85.59375</ele>
        <time>2009-06-21T08:36:31Z</time>
      </trkpt>
      <trkpt lat="44.47423" lon="1.15176">
        <ele>85.404999</ele>
        <time>2009-06-21T08:36:35Z</time>
      </trkpt>
      <trkpt lat="44.47425" lon="1.15165">
        <ele>85.09375</ele>
        <time>2009-06-21T08:36:39Z</time>
      </trkpt>
      <trkpt lat="44.47423" lon="1.15164">
        <ele>85.040001</ele>
        <time>2009-06-21T08:36:47Z</time>
      </trkpt>
      <trkpt lat="44.47422" lon="1.15164">
        <ele>85.014999</ele>
        <time>2009-06-21T08:36:55Z</time>
      </trkpt>
      <trkpt lat="44.47422" lon="1.15162">
        <ele>84.962502</ele>
        <time>2009-06-21T08:37:09Z</time>
      </trkpt>
      <trkpt lat="44.47421" lon="1.1516">
        <ele>84.8825</ele>
        <time>2009-06-21T08:37:18Z</time>
      </trkpt>
      <trkpt lat="44.47421" lon="1.15159">
        <ele>84.827499</ele>
        <time>2009-06-21T08:37:23Z</time>
      </trkpt>
      <trkpt lat="44.47421" lon="1.15157">
        <ele>84.771248</ele>
        <time>2009-06-21T08:37:29Z</time>
      </trkpt>
      <trkpt lat="44.4742" lon="1.15156">
        <ele>84.71875</ele>
        <time>2009-06-21T08:37:40Z</time>
      </trkpt>
      <trkpt lat="44.4742" lon="1.15154">
        <ele>84.644997</ele>
        <time>2009-06-21T08:37:56Z</time>
      </trkpt>
      <trkpt lat="44.47419" lon="1.15152">
        <ele>84.589996</ele>
        <time>2009-06-21T08:38:06Z</time>
      </trkpt>
      <trkpt lat="44.47418" lon="1.15152">
        <ele>84.53875</ele>
        <time>2009-06-21T08:38:28Z</time>
      </trkpt>
      <trkpt lat="44.47417" lon="1.1515">
        <ele>84.504997</ele>
        <time>2009-06-21T08:38:45Z</time>
      </trkpt>
      <trkpt lat="44.47419" lon="1.15154">
        <ele>84.616249</ele>
        <time>2009-06-21T08:38:56Z</time>
      </trkpt>
      <trkpt lat="44.47422" lon="1.15155">
        <ele>84.708748</ele>
        <time>2009-06-21T08:39:00Z</time>
      </trkpt>
      <trkpt lat="44.47419" lon="1.15151">
        <ele>84.552498</ele>
        <time>2009-06-21T08:39:03Z</time>
      </trkpt>
      <trkpt lat="44.47414" lon="1.15147">
        <ele>84.440002</ele>
        <time>2009-06-21T08:39:07Z</time>
      </trkpt>
      <trkpt lat="44.47412" lon="1.15141">
        <ele>84.400002</ele>
        <time>2009-06-21T08:39:11Z</time>
      </trkpt>
      <trkpt lat="44.47417" lon="1.15141">
        <ele>84.5075</ele>
        <time>2009-06-21T08:39:15Z</time>
      </trkpt>
      <trkpt lat="44.4742" lon="1.15149">
        <ele>84.557503</ele>
        <time>2009-06-21T08:39:19Z</time>
      </trkpt>
      <trkpt lat="44.47423" lon="1.15162">
        <ele>84.964996</ele>
        <time>2009-06-21T08:39:23Z</time>
      </trkpt>
      <trkpt lat="44.47422" lon="1.15173">
        <ele>85.293747</ele>
        <time>2009-06-21T08:39:26Z</time>
      </trkpt>
      <trkpt lat="44.47415" lon="1.15182">
        <ele>85.440002</ele>
        <time>2009-06-21T08:39:29Z</time>
      </trkpt>
      <trkpt lat="44.47407" lon="1.15198">
        <ele>85.752502</ele>
        <time>2009-06-21T08:39:33Z</time>
      </trkpt>
      <trkpt lat="44.47404" lon="1.15213">
        <ele>86.158752</ele>
        <time>2009-06-21T08:39:36Z</time>
      </trkpt>
      <trkpt lat="44.474" lon="1.15233">
        <ele>87.216934</ele>
        <time>2009-06-21T08:39:41Z</time>
      </trkpt>
      <trkpt lat="44.47393" lon="1.15248">
        <ele>88.09903</ele>
        <time>2009-06-21T08:39:46Z</time>
      </trkpt>
      <trkpt lat="44.47396" lon="1.15261">
        <ele>88.944344</ele>
        <time>2009-06-21T08:39:49Z</time>
      </trkpt>
      <trkpt lat="44.47396" lon="1.15274">
        <ele>89.762352</ele>
        <time>2009-06-21T08:39:52Z</time>
      </trkpt>
      <trkpt lat="44.47396" lon="1.15284">
        <ele>90.006447</ele>
        <time>2009-06-21T08:39:55Z</time>
      </trkpt>
      <trkpt lat="44.4739" lon="1.15287">
        <ele>90.163628</ele>
        <time>2009-06-21T08:39:58Z</time>
      </trkpt>
      <trkpt lat="44.47385" lon="1.15287">
        <ele>90.297501</ele>
        <time>2009-06-21T08:40:01Z</time>
      </trkpt>
      <trkpt lat="44.47378" lon="1.15288">
        <ele>90.540001</ele>
        <time>2009-06-21T08:40:05Z</time>
      </trkpt>
      <trkpt lat="44.47374" lon="1.1529">
        <ele>90.78244</ele>
        <time>2009-06-21T08:40:08Z</time>
      </trkpt>
      <trkpt lat="44.4737" lon="1.15294">
        <ele>91.1679</ele>
        <time>2009-06-21T08:40:11Z</time>
      </trkpt>
      <trkpt lat="44.47366" lon="1.153">
        <ele>91.941399</ele>
        <time>2009-06-21T08:40:15Z</time>
      </trkpt>
      <trkpt lat="44.47362" lon="1.15308">
        <ele>92.861397</ele>
        <time>2009-06-21T08:40:19Z</time>
      </trkpt>
      <trkpt lat="44.4736" lon="1.15314">
        <ele>93.696877</ele>
        <time>2009-06-21T08:40:23Z</time>
      </trkpt>
      <trkpt lat="44.47358" lon="1.1532">
        <ele>94.548599</ele>
        <time>2009-06-21T08:40:27Z</time>
      </trkpt>
      <trkpt lat="44.47355" lon="1.15326">
        <ele>95.612</ele>
        <time>2009-06-21T08:40:31Z</time>
      </trkpt>
      <trkpt lat="44.47351" lon="1.15329">
        <ele>96.45417</ele>
        <time>2009-06-21T08:40:35Z</time>
      </trkpt>
      <trkpt lat="44.47346" lon="1.15333">
        <ele>97.084846</ele>
        <time>2009-06-21T08:40:40Z</time>
      </trkpt>
      <trkpt lat="44.47341" lon="1.15335">
        <ele>97.438904</ele>
        <time>2009-06-21T08:40:44Z</time>
      </trkpt>
      <trkpt lat="44.47335" lon="1.15338">
        <ele>97.942612</ele>
        <time>2009-06-21T08:40:48Z</time>
      </trkpt>
      <trkpt lat="44.47332" lon="1.15341">
        <ele>98.307495</ele>
        <time>2009-06-21T08:40:51Z</time>
      </trkpt>
      <trkpt lat="44.47328" lon="1.15345">
        <ele>98.539185</ele>
        <time>2009-06-21T08:40:55Z</time>
      </trkpt>
      <trkpt lat="44.47324" lon="1.15349">
        <ele>98.717255</ele>
        <time>2009-06-21T08:40:59Z</time>
      </trkpt>
      <trkpt lat="44.47322" lon="1.15354">
        <ele>98.887352</ele>
        <time>2009-06-21T08:41:02Z</time>
      </trkpt>
      <trkpt lat="44.4732" lon="1.15358">
        <ele>99.150253</ele>
        <time>2009-06-21T08:41:05Z</time>
      </trkpt>
      <trkpt lat="44.47314" lon="1.15363">
        <ele>99.732796</ele>
        <time>2009-06-21T08:41:10Z</time>
      </trkpt>
      <trkpt lat="44.47311" lon="1.15366">
        <ele>100.166496</ele>
        <time>2009-06-21T08:41:13Z</time>
      </trkpt>
      <trkpt lat="44.47308" lon="1.15369">
        <ele>100.646126</ele>
        <time>2009-06-21T08:41:17Z</time>
      </trkpt>
      <trkpt lat="44.47303" lon="1.15372">
        <ele>100.85675</ele>
        <time>2009-06-21T08:41:20Z</time>
      </trkpt>
      <trkpt lat="44.47299" lon="1.15376">
        <ele>101.162903</ele>
        <time>2009-06-21T08:41:23Z</time>
      </trkpt>
      <trkpt lat="44.47296" lon="1.15381">
        <ele>101.588554</ele>
        <time>2009-06-21T08:41:26Z</time>
      </trkpt>
      <trkpt lat="44.47291" lon="1.15385">
        <ele>102.061005</ele>
        <time>2009-06-21T08:41:29Z</time>
      </trkpt>
      <trkpt lat="44.47288" lon="1.15388">
        <ele>102.584259</ele>
        <time>2009-06-21T08:41:32Z</time>
      </trkpt>
      <trkpt lat="44.47285" lon="1.15393">
        <ele>103.282982</ele>
        <time>2009-06-21T08:41:36Z</time>
      </trkpt>
      <trkpt lat="44.47281" lon="1.15398">
        <ele>104.215126</ele>
        <time>2009-06-21T08:41:40Z</time>
      </trkpt>
      <trkpt lat="44.47277" lon="1.15399">
        <ele>104.671379</ele>
        <time>2009-06-21T08:41:43Z</time>
      </trkpt>
      <trkpt lat="44.47272" lon="1.15401">
        <ele>105.415451</ele>
        <time>2009-06-21T08:41:46Z</time>
      </trkpt>
      <trkpt lat="44.47267" lon="1.15405">
        <ele>106.531937</ele>
        <time>2009-06-21T08:41:50Z</time>
      </trkpt>
      <trkpt lat="44.47262" lon="1.1541">
        <ele>107.113297</ele>
        <time>2009-06-21T08:41:54Z</time>
      </trkpt>
      <trkpt lat="44.47256" lon="1.15414">
        <ele>107.295517</ele>
        <time>2009-06-21T08:41:58Z</time>
      </trkpt>
      <trkpt lat="44.47251" lon="1.15419">
        <ele>107.600639</ele>
        <time>2009-06-21T08:42:02Z</time>
      </trkpt>
      <trkpt lat="44.47248" lon="1.15422">
        <ele>107.918648</ele>
        <time>2009-06-21T08:42:05Z</time>
      </trkpt>
      <trkpt lat="44.47244" lon="1.15426">
        <ele>108.344948</ele>
        <time>2009-06-21T08:42:08Z</time>
      </trkpt>
      <trkpt lat="44.4724" lon="1.15428">
        <ele>108.789871</ele>
        <time>2009-06-21T08:42:11Z</time>
      </trkpt>
      <trkpt lat="44.47236" lon="1.15432">
        <ele>109.352272</ele>
        <time>2009-06-21T08:42:14Z</time>
      </trkpt>
      <trkpt lat="44.47231" lon="1.15436">
        <ele>110.151535</ele>
        <time>2009-06-21T08:42:18Z</time>
      </trkpt>
      <trkpt lat="44.47228" lon="1.15438">
        <ele>110.7742</ele>
        <time>2009-06-21T08:42:21Z</time>
      </trkpt>
      <trkpt lat="44.47224" lon="1.15442">
        <ele>111.679626</ele>
        <time>2009-06-21T08:42:25Z</time>
      </trkpt>
      <trkpt lat="44.47218" lon="1.15448">
        <ele>113.143814</ele>
        <time>2009-06-21T08:42:30Z</time>
      </trkpt>
      <trkpt lat="44.47214" lon="1.15452">
        <ele>114.020935</ele>
        <time>2009-06-21T08:42:34Z</time>
      </trkpt>
      <trkpt lat="44.47209" lon="1.15455">
        <ele>114.961739</ele>
        <time>2009-06-21T08:42:37Z</time>
      </trkpt>
      <trkpt lat="44.47205" lon="1.15458">
        <ele>115.682823</ele>
        <time>2009-06-21T08:42:40Z</time>
      </trkpt>
      <trkpt lat="44.472" lon="1.1546">
        <ele>116.416473</ele>
        <time>2009-06-21T08:42:43Z</time>
      </trkpt>
      <trkpt lat="44.47194" lon="1.15464">
        <ele>117.708748</ele>
        <time>2009-06-21T08:42:48Z</time>
      </trkpt>
      <trkpt lat="44.4719" lon="1.15466">
        <ele>118.413284</ele>
        <time>2009-06-21T08:42:51Z</time>
      </trkpt>
      <trkpt lat="44.47187" lon="1.15469">
        <ele>119.402504</ele>
        <time>2009-06-21T08:42:55Z</time>
      </trkpt>
      <trkpt lat="44.47181" lon="1.15473">
        <ele>120.425499</ele>
        <time>2009-06-21T08:43:00Z</time>
      </trkpt>
      <trkpt lat="44.47178" lon="1.15476">
        <ele>120.841637</ele>
        <time>2009-06-21T08:43:03Z</time>
      </trkpt>
      <trkpt lat="44.47174" lon="1.15478">
        <ele>121.300148</ele>
        <time>2009-06-21T08:43:06Z</time>
      </trkpt>
      <trkpt lat="44.4717" lon="1.1548">
        <ele>121.584534</ele>
        <time>2009-06-21T08:43:09Z</time>
      </trkpt>
      <trkpt lat="44.47167" lon="1.15483">
        <ele>121.862297</ele>
        <time>2009-06-21T08:43:12Z</time>
      </trkpt>
      <trkpt lat="44.47163" lon="1.15484">
        <ele>122.153519</ele>
        <time>2009-06-21T08:43:15Z</time>
      </trkpt>
      <trkpt lat="44.47158" lon="1.15486">
        <ele>122.508842</ele>
        <time>2009-06-21T08:43:18Z</time>
      </trkpt>
      <trkpt lat="44.47154" lon="1.15489">
        <ele>122.916344</ele>
        <time>2009-06-21T08:43:21Z</time>
      </trkpt>
      <trkpt lat="44.47148" lon="1.15492">
        <ele>123.489075</ele>
        <time>2009-06-21T08:43:25Z</time>
      </trkpt>
      <trkpt lat="44.47145" lon="1.15494">
        <ele>123.923607</ele>
        <time>2009-06-21T08:43:28Z</time>
      </trkpt>
      <trkpt lat="44.47141" lon="1.15497">
        <ele>124.481438</ele>
        <time>2009-06-21T08:43:31Z</time>
      </trkpt>
      <trkpt lat="44.47137" lon="1.15499">
        <ele>124.97506</ele>
        <time>2009-06-21T08:43:34Z</time>
      </trkpt>
      <trkpt lat="44.47133" lon="1.15501">
        <ele>125.529282</ele>
        <time>2009-06-21T08:43:37Z</time>
      </trkpt>
      <trkpt lat="44.47127" lon="1.15504">
        <ele>126.142281</ele>
        <time>2009-06-21T08:43:41Z</time>
      </trkpt>
      <trkpt lat="44.47123" lon="1.15506">
        <ele>126.642891</ele>
        <time>2009-06-21T08:43:44Z</time>
      </trkpt>
      <trkpt lat="44.47119" lon="1.15511">
        <ele>127.352066</ele>
        <time>2009-06-21T08:43:48Z</time>
      </trkpt>
      <trkpt lat="44.47113" lon="1.15515">
        <ele>128.182281</ele>
        <time>2009-06-21T08:43:53Z</time>
      </trkpt>
      <trkpt lat="44.47108" lon="1.15518">
        <ele>128.930405</ele>
        <time>2009-06-21T08:43:57Z</time>
      </trkpt>
      <trkpt lat="44.47105" lon="1.15521">
        <ele>129.474197</ele>
        <time>2009-06-21T08:44:00Z</time>
      </trkpt>
      <trkpt lat="44.47101" lon="1.15523">
        <ele>129.974457</ele>
        <time>2009-06-21T08:44:03Z</time>
      </trkpt>
      <trkpt lat="44.47097" lon="1.15525">
        <ele>130.490097</ele>
        <time>2009-06-21T08:44:06Z</time>
      </trkpt>
      <trkpt lat="44.47092" lon="1.15526">
        <ele>130.963287</ele>
        <time>2009-06-21T08:44:09Z</time>
      </trkpt>
      <trkpt lat="44.47089" lon="1.15528">
        <ele>131.416412</ele>
        <time>2009-06-21T08:44:12Z</time>
      </trkpt>
      <trkpt lat="44.47085" lon="1.15531">
        <ele>132.201706</ele>
        <time>2009-06-21T08:44:16Z</time>
      </trkpt>
      <trkpt lat="44.47081" lon="1.15533">
        <ele>132.859909</ele>
        <time>2009-06-21T08:44:19Z</time>
      </trkpt>
      <trkpt lat="44.47077" lon="1.15534">
        <ele>133.442566</ele>
        <time>2009-06-21T08:44:22Z</time>
      </trkpt>
      <trkpt lat="44.47073" lon="1.15536">
        <ele>133.94516</ele>
        <time>2009-06-21T08:44:25Z</time>
      </trkpt>
      <trkpt lat="44.4707" lon="1.15537">
        <ele>134.327148</ele>
        <time>2009-06-21T08:44:28Z</time>
      </trkpt>
      <trkpt lat="44.47065" lon="1.1554">
        <ele>134.94165</ele>
        <time>2009-06-21T08:44:33Z</time>
      </trkpt>
      <trkpt lat="44.47062" lon="1.15543">
        <ele>135.465637</ele>
        <time>2009-06-21T08:44:37Z</time>
      </trkpt>
      <trkpt lat="44.47058" lon="1.15547">
        <ele>136.087509</ele>
        <time>2009-06-21T08:44:41Z</time>
      </trkpt>
      <trkpt lat="44.47054" lon="1.15551">
        <ele>136.796021</ele>
        <time>2009-06-21T08:44:45Z</time>
      </trkpt>
      <trkpt lat="44.4705" lon="1.15555">
        <ele>137.461227</ele>
        <time>2009-06-21T08:44:49Z</time>
      </trkpt>
      <trkpt lat="44.47046" lon="1.15559">
        <ele>138.150757</ele>
        <time>2009-06-21T08:44:53Z</time>
      </trkpt>
      <trkpt lat="44.47043" lon="1.15562">
        <ele>138.715775</ele>
        <time>2009-06-21T08:44:56Z</time>
      </trkpt>
      <trkpt lat="44.47038" lon="1.15566">
        <ele>139.573868</ele>
        <time>2009-06-21T08:45:01Z</time>
      </trkpt>
      <trkpt lat="44.47032" lon="1.15569">
        <ele>140.384521</ele>
        <time>2009-06-21T08:45:05Z</time>
      </trkpt>
      <trkpt lat="44.47027" lon="1.15572">
        <ele>141.167175</ele>
        <time>2009-06-21T08:45:09Z</time>
      </trkpt>
      <trkpt lat="44.47024" lon="1.15575">
        <ele>141.861572</ele>
        <time>2009-06-21T08:45:12Z</time>
      </trkpt>
      <trkpt lat="44.47021" lon="1.15578">
        <ele>142.568512</ele>
        <time>2009-06-21T08:45:16Z</time>
      </trkpt>
      <trkpt lat="44.47015" lon="1.15582">
        <ele>143.514191</ele>
        <time>2009-06-21T08:45:21Z</time>
      </trkpt>
      <trkpt lat="44.47012" lon="1.15584">
        <ele>144.102524</ele>
        <time>2009-06-21T08:45:24Z</time>
      </trkpt>
      <trkpt lat="44.47009" lon="1.15586">
        <ele>144.641052</ele>
        <time>2009-06-21T08:45:27Z</time>
      </trkpt>
      <trkpt lat="44.47005" lon="1.15589">
        <ele>145.475494</ele>
        <time>2009-06-21T08:45:30Z</time>
      </trkpt>
      <trkpt lat="44.46998" lon="1.15592">
        <ele>146.712418</ele>
        <time>2009-06-21T08:45:36Z</time>
      </trkpt>
      <trkpt lat="44.46993" lon="1.15595">
        <ele>147.635056</ele>
        <time>2009-06-21T08:45:40Z</time>
      </trkpt>
      <trkpt lat="44.4699" lon="1.15598">
        <ele>148.326904</ele>
        <time>2009-06-21T08:45:43Z</time>
      </trkpt>
      <trkpt lat="44.46985" lon="1.15601">
        <ele>149.118744</ele>
        <time>2009-06-21T08:45:47Z</time>
      </trkpt>
      <trkpt lat="44.46981" lon="1.15603">
        <ele>149.59375</ele>
        <time>2009-06-21T08:45:50Z</time>
      </trkpt>
      <trkpt lat="44.46978" lon="1.15606">
        <ele>150.065002</ele>
        <time>2009-06-21T08:45:53Z</time>
      </trkpt>
      <trkpt lat="44.46975" lon="1.1561">
        <ele>150.458755</ele>
        <time>2009-06-21T08:45:57Z</time>
      </trkpt>
      <trkpt lat="44.46971" lon="1.15612">
        <ele>150.982498</ele>
        <time>2009-06-21T08:46:00Z</time>
      </trkpt>
      <trkpt lat="44.46965" lon="1.15614">
        <ele>151.744995</ele>
        <time>2009-06-21T08:46:04Z</time>
      </trkpt>
      <trkpt lat="44.46961" lon="1.15615">
        <ele>152.262497</ele>
        <time>2009-06-21T08:46:07Z</time>
      </trkpt>
      <trkpt lat="44.46956" lon="1.15617">
        <ele>152.803757</ele>
        <time>2009-06-21T08:46:10Z</time>
      </trkpt>
      <trkpt lat="44.46952" lon="1.15619">
        <ele>153.398743</ele>
        <time>2009-06-21T08:46:13Z</time>
      </trkpt>
      <trkpt lat="44.46947" lon="1.15621">
        <ele>153.948868</ele>
        <time>2009-06-21T08:46:17Z</time>
      </trkpt>
      <trkpt lat="44.46942" lon="1.15623">
        <ele>154.504745</ele>
        <time>2009-06-21T08:46:21Z</time>
      </trkpt>
      <trkpt lat="44.46938" lon="1.15624">
        <ele>154.922745</ele>
        <time>2009-06-21T08:46:24Z</time>
      </trkpt>
      <trkpt lat="44.46934" lon="1.15626">
        <ele>155.296021</ele>
        <time>2009-06-21T08:46:27Z</time>
      </trkpt>
      <trkpt lat="44.46931" lon="1.15626">
        <ele>155.621033</ele>
        <time>2009-06-21T08:46:30Z</time>
      </trkpt>
      <trkpt lat="44.46928" lon="1.15629">
        <ele>156.087341</ele>
        <time>2009-06-21T08:46:34Z</time>
      </trkpt>
      <trkpt lat="44.46924" lon="1.15632">
        <ele>156.597046</ele>
        <time>2009-06-21T08:46:38Z</time>
      </trkpt>
      <trkpt lat="44.4692" lon="1.15635">
        <ele>157.115128</ele>
        <time>2009-06-21T08:46:41Z</time>
      </trkpt>
      <trkpt lat="44.46914" lon="1.15637">
        <ele>157.774887</ele>
        <time>2009-06-21T08:46:45Z</time>
      </trkpt>
      <trkpt lat="44.4691" lon="1.1564">
        <ele>158.356812</ele>
        <time>2009-06-21T08:46:49Z</time>
      </trkpt>
      <trkpt lat="44.46908" lon="1.15642">
        <ele>158.64711</ele>
        <time>2009-06-21T08:46:55Z</time>
      </trkpt>
      <trkpt lat="44.46906" lon="1.15643">
        <ele>158.838852</ele>
        <time>2009-06-21T08:46:58Z</time>
      </trkpt>
      <trkpt lat="44.46905" lon="1.15643">
        <ele>159.051422</ele>
        <time>2009-06-21T08:47:01Z</time>
      </trkpt>
      <trkpt lat="44.469" lon="1.15646">
        <ele>159.599426</ele>
        <time>2009-06-21T08:47:06Z</time>
      </trkpt>
      <trkpt lat="44.46897" lon="1.15648">
        <ele>160.013779</ele>
        <time>2009-06-21T08:47:09Z</time>
      </trkpt>
      <trkpt lat="44.46893" lon="1.1565">
        <ele>160.565887</ele>
        <time>2009-06-21T08:47:12Z</time>
      </trkpt>
      <trkpt lat="44.4689" lon="1.15653">
        <ele>161.040863</ele>
        <time>2009-06-21T08:47:15Z</time>
      </trkpt>
      <trkpt lat="44.46886" lon="1.15654">
        <ele>161.526398</ele>
        <time>2009-06-21T08:47:18Z</time>
      </trkpt>
      <trkpt lat="44.46883" lon="1.15655">
        <ele>161.944199</ele>
        <time>2009-06-21T08:47:21Z</time>
      </trkpt>
      <trkpt lat="44.4688" lon="1.15657">
        <ele>162.3284</ele>
        <time>2009-06-21T08:47:24Z</time>
      </trkpt>
      <trkpt lat="44.46875" lon="1.15659">
        <ele>162.999832</ele>
        <time>2009-06-21T08:47:28Z</time>
      </trkpt>
      <trkpt lat="44.46871" lon="1.1566">
        <ele>163.519623</ele>
        <time>2009-06-21T08:47:32Z</time>
      </trkpt>
      <trkpt lat="44.46867" lon="1.15661">
        <ele>163.982605</ele>
        <time>2009-06-21T08:47:36Z</time>
      </trkpt>
      <trkpt lat="44.46863" lon="1.15663">
        <ele>164.572128</ele>
        <time>2009-06-21T08:47:42Z</time>
      </trkpt>
      <trkpt lat="44.46858" lon="1.15664">
        <ele>165.281387</ele>
        <time>2009-06-21T08:47:47Z</time>
      </trkpt>
      <trkpt lat="44.46854" lon="1.15665">
        <ele>165.986496</ele>
        <time>2009-06-21T08:47:51Z</time>
      </trkpt>
      <trkpt lat="44.4685" lon="1.15666">
        <ele>166.578384</ele>
        <time>2009-06-21T08:47:54Z</time>
      </trkpt>
      <trkpt lat="44.46848" lon="1.15666">
        <ele>167.003494</ele>
        <time>2009-06-21T08:47:58Z</time>
      </trkpt>
      <trkpt lat="44.46845" lon="1.15668">
        <ele>167.486526</ele>
        <time>2009-06-21T08:48:02Z</time>
      </trkpt>
      <trkpt lat="44.46841" lon="1.15668">
        <ele>168.033508</ele>
        <time>2009-06-21T08:48:05Z</time>
      </trkpt>
      <trkpt lat="44.46837" lon="1.1567">
        <ele>168.635315</ele>
        <time>2009-06-21T08:48:09Z</time>
      </trkpt>
      <trkpt lat="44.46834" lon="1.15671">
        <ele>169.215454</ele>
        <time>2009-06-21T08:48:12Z</time>
      </trkpt>
      <trkpt lat="44.4683" lon="1.15672">
        <ele>169.774551</ele>
        <time>2009-06-21T08:48:15Z</time>
      </trkpt>
      <trkpt lat="44.46827" lon="1.15673">
        <ele>170.226151</ele>
        <time>2009-06-21T08:48:19Z</time>
      </trkpt>
      <trkpt lat="44.46824" lon="1.15673">
        <ele>170.777023</ele>
        <time>2009-06-21T08:48:23Z</time>
      </trkpt>
      <trkpt lat="44.4682" lon="1.15673">
        <ele>171.31012</ele>
        <time>2009-06-21T08:48:27Z</time>
      </trkpt>
      <trkpt lat="44.46817" lon="1.15672">
        <ele>171.844681</ele>
        <time>2009-06-21T08:48:31Z</time>
      </trkpt>
      <trkpt lat="44.46813" lon="1.15672">
        <ele>172.330002</ele>
        <time>2009-06-21T08:48:35Z</time>
      </trkpt>
      <trkpt lat="44.46807" lon="1.15672">
        <ele>173.154999</ele>
        <time>2009-06-21T08:48:39Z</time>
      </trkpt>
      <trkpt lat="44.46803" lon="1.15671">
        <ele>173.725006</ele>
        <time>2009-06-21T08:48:43Z</time>
      </trkpt>
      <trkpt lat="44.46798" lon="1.1567">
        <ele>174.354996</ele>
        <time>2009-06-21T08:48:47Z</time>
      </trkpt>
      <trkpt lat="44.46795" lon="1.1567">
        <ele>174.789993</ele>
        <time>2009-06-21T08:48:50Z</time>
      </trkpt>
      <trkpt lat="44.46791" lon="1.1567">
        <ele>175.330002</ele>
        <time>2009-06-21T08:48:54Z</time>
      </trkpt>
      <trkpt lat="44.46787" lon="1.15671">
        <ele>175.839996</ele>
        <time>2009-06-21T08:48:57Z</time>
      </trkpt>
      <trkpt lat="44.46783" lon="1.15671">
        <ele>176.350006</ele>
        <time>2009-06-21T08:49:00Z</time>
      </trkpt>
      <trkpt lat="44.4678" lon="1.15672">
        <ele>176.770004</ele>
        <time>2009-06-21T08:49:05Z</time>
      </trkpt>
      <trkpt lat="44.46776" lon="1.15673">
        <ele>177.309998</ele>
        <time>2009-06-21T08:49:10Z</time>
      </trkpt>
      <trkpt lat="44.46772" lon="1.15674">
        <ele>177.804993</ele>
        <time>2009-06-21T08:49:13Z</time>
      </trkpt>
      <trkpt lat="44.46768" lon="1.15674">
        <ele>178.116119</ele>
        <time>2009-06-21T08:49:17Z</time>
      </trkpt>
      <trkpt lat="44.46764" lon="1.15674">
        <ele>178.324631</ele>
        <time>2009-06-21T08:49:22Z</time>
      </trkpt>
      <trkpt lat="44.4676" lon="1.15675">
        <ele>178.551956</ele>
        <time>2009-06-21T08:49:25Z</time>
      </trkpt>
      <trkpt lat="44.46756" lon="1.15676">
        <ele>178.789322</ele>
        <time>2009-06-21T08:49:29Z</time>
      </trkpt>
      <trkpt lat="44.46752" lon="1.15677">
        <ele>179.00444</ele>
        <time>2009-06-21T08:49:32Z</time>
      </trkpt>
      <trkpt lat="44.46745" lon="1.15679">
        <ele>179.439117</ele>
        <time>2009-06-21T08:49:36Z</time>
      </trkpt>
      <trkpt lat="44.46739" lon="1.1568">
        <ele>179.783539</ele>
        <time>2009-06-21T08:49:39Z</time>
      </trkpt>
      <trkpt lat="44.46732" lon="1.15682">
        <ele>180.275635</ele>
        <time>2009-06-21T08:49:43Z</time>
      </trkpt>
      <trkpt lat="44.46727" lon="1.15684">
        <ele>180.639282</ele>
        <time>2009-06-21T08:49:46Z</time>
      </trkpt>
      <trkpt lat="44.46721" lon="1.15685">
        <ele>181.011871</ele>
        <time>2009-06-21T08:49:49Z</time>
      </trkpt>
      <trkpt lat="44.46715" lon="1.15687">
        <ele>181.370621</ele>
        <time>2009-06-21T08:49:52Z</time>
      </trkpt>
      <trkpt lat="44.4671" lon="1.15689">
        <ele>181.666245</ele>
        <time>2009-06-21T08:49:55Z</time>
      </trkpt>
      <trkpt lat="44.46703" lon="1.1569">
        <ele>182.003754</ele>
        <time>2009-06-21T08:49:58Z</time>
      </trkpt>
      <trkpt lat="44.46698" lon="1.15691">
        <ele>182.294998</ele>
        <time>2009-06-21T08:50:01Z</time>
      </trkpt>
      <trkpt lat="44.46691" lon="1.15691">
        <ele>182.617493</ele>
        <time>2009-06-21T08:50:04Z</time>
      </trkpt>
      <trkpt lat="44.46684" lon="1.15693">
        <ele>182.973129</ele>
        <time>2009-06-21T08:50:07Z</time>
      </trkpt>
      <trkpt lat="44.46675" lon="1.15694">
        <ele>183.491516</ele>
        <time>2009-06-21T08:50:10Z</time>
      </trkpt>
      <trkpt lat="44.46669" lon="1.15694">
        <ele>183.864365</ele>
        <time>2009-06-21T08:50:14Z</time>
      </trkpt>
      <trkpt lat="44.46664" lon="1.15696">
        <ele>184.274551</ele>
        <time>2009-06-21T08:50:17Z</time>
      </trkpt>
      <trkpt lat="44.46657" lon="1.15698">
        <ele>184.719086</ele>
        <time>2009-06-21T08:50:20Z</time>
      </trkpt>
      <trkpt lat="44.4665" lon="1.157">
        <ele>185.165695</ele>
        <time>2009-06-21T08:50:23Z</time>
      </trkpt>
      <trkpt lat="44.46645" lon="1.15702">
        <ele>185.561951</ele>
        <time>2009-06-21T08:50:26Z</time>
      </trkpt>
      <trkpt lat="44.46638" lon="1.15708">
        <ele>186.111267</ele>
        <time>2009-06-21T08:50:30Z</time>
      </trkpt>
      <trkpt lat="44.46633" lon="1.15711">
        <ele>186.327286</ele>
        <time>2009-06-21T08:50:33Z</time>
      </trkpt>
      <trkpt lat="44.46628" lon="1.15714">
        <ele>186.481949</ele>
        <time>2009-06-21T08:50:36Z</time>
      </trkpt>
      <trkpt lat="44.4662" lon="1.15719">
        <ele>186.750931</ele>
        <time>2009-06-21T08:50:40Z</time>
      </trkpt>
      <trkpt lat="44.46615" lon="1.15722">
        <ele>186.957336</ele>
        <time>2009-06-21T08:50:43Z</time>
      </trkpt>
      <trkpt lat="44.46609" lon="1.15727">
        <ele>187.25</ele>
        <time>2009-06-21T08:50:46Z</time>
      </trkpt>
      <trkpt lat="44.46604" lon="1.1573">
        <ele>187.524124</ele>
        <time>2009-06-21T08:50:49Z</time>
      </trkpt>
      <trkpt lat="44.46599" lon="1.15733">
        <ele>187.816467</ele>
        <time>2009-06-21T08:50:52Z</time>
      </trkpt>
      <trkpt lat="44.46593" lon="1.15737">
        <ele>188.05632</ele>
        <time>2009-06-21T08:50:55Z</time>
      </trkpt>
      <trkpt lat="44.46587" lon="1.1574">
        <ele>188.240723</ele>
        <time>2009-06-21T08:50:58Z</time>
      </trkpt>
      <trkpt lat="44.46581" lon="1.15742">
        <ele>188.428131</ele>
        <time>2009-06-21T08:51:01Z</time>
      </trkpt>
      <trkpt lat="44.46574" lon="1.1575">
        <ele>189.073746</ele>
        <time>2009-06-21T08:51:05Z</time>
      </trkpt>
      <trkpt lat="44.46572" lon="1.15757">
        <ele>189.677643</ele>
        <time>2009-06-21T08:51:08Z</time>
      </trkpt>
      <trkpt lat="44.46572" lon="1.15761">
        <ele>189.98085</ele>
        <time>2009-06-21T08:51:11Z</time>
      </trkpt>
      <trkpt lat="44.46571" lon="1.15768">
        <ele>190.501892</ele>
        <time>2009-06-21T08:51:14Z</time>
      </trkpt>
      <trkpt lat="44.46571" lon="1.15774">
        <ele>190.995819</ele>
        <time>2009-06-21T08:51:17Z</time>
      </trkpt>
      <trkpt lat="44.46571" lon="1.1578">
        <ele>191.468613</ele>
        <time>2009-06-21T08:51:20Z</time>
      </trkpt>
      <trkpt lat="44.4657" lon="1.15786">
        <ele>192.050751</ele>
        <time>2009-06-21T08:51:24Z</time>
      </trkpt>
      <trkpt lat="44.46567" lon="1.15794">
        <ele>193.02507</ele>
        <time>2009-06-21T08:51:27Z</time>
      </trkpt>
      <trkpt lat="44.46563" lon="1.15799">
        <ele>193.818405</ele>
        <time>2009-06-21T08:51:30Z</time>
      </trkpt>
      <trkpt lat="44.46559" lon="1.15803">
        <ele>194.35965</ele>
        <time>2009-06-21T08:51:33Z</time>
      </trkpt>
      <trkpt lat="44.46555" lon="1.15806">
        <ele>194.900345</ele>
        <time>2009-06-21T08:51:36Z</time>
      </trkpt>
      <trkpt lat="44.46552" lon="1.15809">
        <ele>195.346436</ele>
        <time>2009-06-21T08:51:39Z</time>
      </trkpt>
      <trkpt lat="44.46548" lon="1.1581">
        <ele>195.871826</ele>
        <time>2009-06-21T08:51:43Z</time>
      </trkpt>
      <trkpt lat="44.46544" lon="1.15813">
        <ele>196.336945</ele>
        <time>2009-06-21T08:51:46Z</time>
      </trkpt>
      <trkpt lat="44.4654" lon="1.15815">
        <ele>196.762756</ele>
        <time>2009-06-21T08:51:49Z</time>
      </trkpt>
      <trkpt lat="44.46536" lon="1.15818">
        <ele>197.210632</ele>
        <time>2009-06-21T08:51:53Z</time>
      </trkpt>
      <trkpt lat="44.46531" lon="1.1582">
        <ele>197.697845</ele>
        <time>2009-06-21T08:51:58Z</time>
      </trkpt>
      <trkpt lat="44.46526" lon="1.15824">
        <ele>198.314194</ele>
        <time>2009-06-21T08:52:02Z</time>
      </trkpt>
      <trkpt lat="44.46521" lon="1.15825">
        <ele>198.843094</ele>
        <time>2009-06-21T08:52:05Z</time>
      </trkpt>
      <trkpt lat="44.46518" lon="1.15827">
        <ele>199.239838</ele>
        <time>2009-06-21T08:52:08Z</time>
      </trkpt>
      <trkpt lat="44.46513" lon="1.15829">
        <ele>199.76857</ele>
        <time>2009-06-21T08:52:11Z</time>
      </trkpt>
      <trkpt lat="44.46509" lon="1.15831">
        <ele>200.290207</ele>
        <time>2009-06-21T08:52:14Z</time>
      </trkpt>
      <trkpt lat="44.46505" lon="1.15832">
        <ele>200.817688</ele>
        <time>2009-06-21T08:52:17Z</time>
      </trkpt>
      <trkpt lat="44.46502" lon="1.15834">
        <ele>201.159363</ele>
        <time>2009-06-21T08:52:20Z</time>
      </trkpt>
      <trkpt lat="44.46499" lon="1.15837">
        <ele>201.535873</ele>
        <time>2009-06-21T08:52:25Z</time>
      </trkpt>
      <trkpt lat="44.46496" lon="1.15839">
        <ele>201.836121</ele>
        <time>2009-06-21T08:52:28Z</time>
      </trkpt>
      <trkpt lat="44.46492" lon="1.1584">
        <ele>202.158218</ele>
        <time>2009-06-21T08:52:31Z</time>
      </trkpt>
      <trkpt lat="44.46488" lon="1.15842">
        <ele>202.540909</ele>
        <time>2009-06-21T08:52:34Z</time>
      </trkpt>
      <trkpt lat="44.46485" lon="1.15843">
        <ele>202.865402</ele>
        <time>2009-06-21T08:52:38Z</time>
      </trkpt>
      <trkpt lat="44.46481" lon="1.15845">
        <ele>203.289246</ele>
        <time>2009-06-21T08:52:42Z</time>
      </trkpt>
      <trkpt lat="44.46477" lon="1.15846">
        <ele>203.681458</ele>
        <time>2009-06-21T08:52:45Z</time>
      </trkpt>
      <trkpt lat="44.46471" lon="1.1585">
        <ele>204.262894</ele>
        <time>2009-06-21T08:52:50Z</time>
      </trkpt>
      <trkpt lat="44.46467" lon="1.15852">
        <ele>204.70575</ele>
        <time>2009-06-21T08:52:53Z</time>
      </trkpt>
      <trkpt lat="44.46462" lon="1.15853">
        <ele>205.173492</ele>
        <time>2009-06-21T08:52:56Z</time>
      </trkpt>
      <trkpt lat="44.46459" lon="1.15852">
        <ele>205.444763</ele>
        <time>2009-06-21T08:53:00Z</time>
      </trkpt>
      <trkpt lat="44.46452" lon="1.15855">
        <ele>205.783737</ele>
        <time>2009-06-21T08:53:04Z</time>
      </trkpt>
      <trkpt lat="44.46448" lon="1.15858">
        <ele>206.013672</ele>
        <time>2009-06-21T08:53:07Z</time>
      </trkpt>
      <trkpt lat="44.46442" lon="1.15861">
        <ele>206.27742</ele>
        <time>2009-06-21T08:53:10Z</time>
      </trkpt>
      <trkpt lat="44.46437" lon="1.15865">
        <ele>206.462494</ele>
        <time>2009-06-21T08:53:14Z</time>
      </trkpt>
      <trkpt lat="44.46431" lon="1.1587">
        <ele>206.600006</ele>
        <time>2009-06-21T08:53:18Z</time>
      </trkpt>
      <trkpt lat="44.46427" lon="1.15876">
        <ele>206.695007</ele>
        <time>2009-06-21T08:53:21Z</time>
      </trkpt>
      <trkpt lat="44.46423" lon="1.15882">
        <ele>206.777496</ele>
        <time>2009-06-21T08:53:25Z</time>
      </trkpt>
      <trkpt lat="44.46419" lon="1.15887">
        <ele>206.872498</ele>
        <time>2009-06-21T08:53:28Z</time>
      </trkpt>
      <trkpt lat="44.46415" lon="1.15891">
        <ele>206.949997</ele>
        <time>2009-06-21T08:53:31Z</time>
      </trkpt>
      <trkpt lat="44.46413" lon="1.15896">
        <ele>206.990555</ele>
        <time>2009-06-21T08:53:34Z</time>
      </trkpt>
      <trkpt lat="44.46408" lon="1.15901">
        <ele>206.903687</ele>
        <time>2009-06-21T08:53:37Z</time>
      </trkpt>
      <trkpt lat="44.46401" lon="1.15911">
        <ele>206.866455</ele>
        <time>2009-06-21T08:53:41Z</time>
      </trkpt>
      <trkpt lat="44.46395" lon="1.15918">
        <ele>206.88501</ele>
        <time>2009-06-21T08:53:45Z</time>
      </trkpt>
      <trkpt lat="44.46391" lon="1.15923">
        <ele>206.942505</ele>
        <time>2009-06-21T08:53:48Z</time>
      </trkpt>
      <trkpt lat="44.46386" lon="1.1593">
        <ele>206.925552</ele>
        <time>2009-06-21T08:53:51Z</time>
      </trkpt>
      <trkpt lat="44.4638" lon="1.15938">
        <ele>206.773987</ele>
        <time>2009-06-21T08:53:54Z</time>
      </trkpt>
      <trkpt lat="44.46374" lon="1.15949">
        <ele>206.597702</ele>
        <time>2009-06-21T08:53:57Z</time>
      </trkpt>
      <trkpt lat="44.46366" lon="1.15963">
        <ele>206.380051</ele>
        <time>2009-06-21T08:54:00Z</time>
      </trkpt>
      <trkpt lat="44.46358" lon="1.15977">
        <ele>206.102325</ele>
        <time>2009-06-21T08:54:03Z</time>
      </trkpt>
      <trkpt lat="44.46352" lon="1.15992">
        <ele>205.959747</ele>
        <time>2009-06-21T08:54:06Z</time>
      </trkpt>
      <trkpt lat="44.46342" lon="1.16008">
        <ele>205.601089</ele>
        <time>2009-06-21T08:54:09Z</time>
      </trkpt>
      <trkpt lat="44.46335" lon="1.16019">
        <ele>205.450638</ele>
        <time>2009-06-21T08:54:13Z</time>
      </trkpt>
      <trkpt lat="44.46329" lon="1.16028">
        <ele>205.34259</ele>
        <time>2009-06-21T08:54:16Z</time>
      </trkpt>
      <trkpt lat="44.46322" lon="1.16039">
        <ele>205.164124</ele>
        <time>2009-06-21T08:54:19Z</time>
      </trkpt>
      <trkpt lat="44.46317" lon="1.16049">
        <ele>204.892761</ele>
        <time>2009-06-21T08:54:22Z</time>
      </trkpt>
      <trkpt lat="44.4631" lon="1.16059">
        <ele>204.610352</ele>
        <time>2009-06-21T08:54:25Z</time>
      </trkpt>
      <trkpt lat="44.46304" lon="1.16071">
        <ele>204.384888</ele>
        <time>2009-06-21T08:54:28Z</time>
      </trkpt>
      <trkpt lat="44.46298" lon="1.16082">
        <ele>204.216751</ele>
        <time>2009-06-21T08:54:31Z</time>
      </trkpt>
      <trkpt lat="44.46291" lon="1.16094">
        <ele>204.083511</ele>
        <time>2009-06-21T08:54:34Z</time>
      </trkpt>
      <trkpt lat="44.46283" lon="1.16111">
        <ele>204.005005</ele>
        <time>2009-06-21T08:54:38Z</time>
      </trkpt>
      <trkpt lat="44.46278" lon="1.16121">
        <ele>203.875</ele>
        <time>2009-06-21T08:54:41Z</time>
      </trkpt>
      <trkpt lat="44.46275" lon="1.1613">
        <ele>203.735001</ele>
        <time>2009-06-21T08:54:44Z</time>
      </trkpt>
      <trkpt lat="44.46269" lon="1.16141">
        <ele>203.479996</ele>
        <time>2009-06-21T08:54:47Z</time>
      </trkpt>
      <trkpt lat="44.46265" lon="1.16152">
        <ele>203.289993</ele>
        <time>2009-06-21T08:54:50Z</time>
      </trkpt>
      <trkpt lat="44.46258" lon="1.1617">
        <ele>202.955002</ele>
        <time>2009-06-21T08:54:54Z</time>
      </trkpt>
      <trkpt lat="44.46253" lon="1.16185">
        <ele>202.687515</ele>
        <time>2009-06-21T08:54:57Z</time>
      </trkpt>
      <trkpt lat="44.46247" lon="1.16201">
        <ele>202.371292</ele>
        <time>2009-06-21T08:55:00Z</time>
      </trkpt>
      <trkpt lat="44.46238" lon="1.16225">
        <ele>202.038681</ele>
        <time>2009-06-21T08:55:03Z</time>
      </trkpt>
      <trkpt lat="44.46232" lon="1.16243">
        <ele>201.997467</ele>
        <time>2009-06-21T08:55:07Z</time>
      </trkpt>
      <trkpt lat="44.46224" lon="1.1626">
        <ele>202</ele>
        <time>2009-06-21T08:55:10Z</time>
      </trkpt>
      <trkpt lat="44.46215" lon="1.16272">
        <ele>202</ele>
        <time>2009-06-21T08:55:13Z</time>
      </trkpt>
      <trkpt lat="44.46203" lon="1.16278">
        <ele>202</ele>
        <time>2009-06-21T08:55:16Z</time>
      </trkpt>
      <trkpt lat="44.4619" lon="1.16282">
        <ele>202.079712</ele>
        <time>2009-06-21T08:55:19Z</time>
      </trkpt>
      <trkpt lat="44.46182" lon="1.16286">
        <ele>202.396896</ele>
        <time>2009-06-21T08:55:22Z</time>
      </trkpt>
      <trkpt lat="44.46173" lon="1.16289">
        <ele>202.749374</ele>
        <time>2009-06-21T08:55:25Z</time>
      </trkpt>
      <trkpt lat="44.46163" lon="1.16292">
        <ele>203.13588</ele>
        <time>2009-06-21T08:55:28Z</time>
      </trkpt>
      <trkpt lat="44.46154" lon="1.16294">
        <ele>203.520462</ele>
        <time>2009-06-21T08:55:31Z</time>
      </trkpt>
      <trkpt lat="44.46143" lon="1.16297">
        <ele>203.859634</ele>
        <time>2009-06-21T08:55:34Z</time>
      </trkpt>
      <trkpt lat="44.46133" lon="1.163">
        <ele>203.951401</ele>
        <time>2009-06-21T08:55:37Z</time>
      </trkpt>
      <trkpt lat="44.46124" lon="1.16304">
        <ele>204.005035</ele>
        <time>2009-06-21T08:55:40Z</time>
      </trkpt>
      <trkpt lat="44.46114" lon="1.16306">
        <ele>204.025101</ele>
        <time>2009-06-21T08:55:44Z</time>
      </trkpt>
      <trkpt lat="44.46105" lon="1.16309">
        <ele>204.008087</ele>
        <time>2009-06-21T08:55:47Z</time>
      </trkpt>
      <trkpt lat="44.46096" lon="1.16309">
        <ele>203.998032</ele>
        <time>2009-06-21T08:55:50Z</time>
      </trkpt>
      <trkpt lat="44.46083" lon="1.16312">
        <ele>203.853806</ele>
        <time>2009-06-21T08:55:53Z</time>
      </trkpt>
      <trkpt lat="44.46073" lon="1.16313">
        <ele>203.837692</ele>
        <time>2009-06-21T08:55:56Z</time>
      </trkpt>
      <trkpt lat="44.46065" lon="1.16312">
        <ele>203.858398</ele>
        <time>2009-06-21T08:55:59Z</time>
      </trkpt>
      <trkpt lat="44.46055" lon="1.16315">
        <ele>203.729446</ele>
        <time>2009-06-21T08:56:02Z</time>
      </trkpt>
      <trkpt lat="44.46045" lon="1.16319">
        <ele>203.511948</ele>
        <time>2009-06-21T08:56:06Z</time>
      </trkpt>
      <trkpt lat="44.46037" lon="1.16326">
        <ele>203.238937</ele>
        <time>2009-06-21T08:56:09Z</time>
      </trkpt>
      <trkpt lat="44.46028" lon="1.16333">
        <ele>203.077393</ele>
        <time>2009-06-21T08:56:12Z</time>
      </trkpt>
      <trkpt lat="44.46018" lon="1.16338">
        <ele>203.025772</ele>
        <time>2009-06-21T08:56:15Z</time>
      </trkpt>
      <trkpt lat="44.4601" lon="1.16344">
        <ele>203.031921</ele>
        <time>2009-06-21T08:56:18Z</time>
      </trkpt>
      <trkpt lat="44.46001" lon="1.1635">
        <ele>203.095367</ele>
        <time>2009-06-21T08:56:21Z</time>
      </trkpt>
      <trkpt lat="44.45991" lon="1.16356">
        <ele>203.279343</ele>
        <time>2009-06-21T08:56:24Z</time>
      </trkpt>
      <trkpt lat="44.45977" lon="1.16366">
        <ele>203.692032</ele>
        <time>2009-06-21T08:56:28Z</time>
      </trkpt>
      <trkpt lat="44.45959" lon="1.16376">
        <ele>204.154694</ele>
        <time>2009-06-21T08:56:32Z</time>
      </trkpt>
      <trkpt lat="44.45951" lon="1.16389">
        <ele>203.88884</ele>
        <time>2009-06-21T08:56:35Z</time>
      </trkpt>
      <trkpt lat="44.4594" lon="1.16401">
        <ele>204.043701</ele>
        <time>2009-06-21T08:56:38Z</time>
      </trkpt>
      <trkpt lat="44.45927" lon="1.16411">
        <ele>204.762375</ele>
        <time>2009-06-21T08:56:41Z</time>
      </trkpt>
      <trkpt lat="44.45916" lon="1.16423">
        <ele>205.129059</ele>
        <time>2009-06-21T08:56:44Z</time>
      </trkpt>
      <trkpt lat="44.45904" lon="1.16437">
        <ele>205.845154</ele>
        <time>2009-06-21T08:56:47Z</time>
      </trkpt>
      <trkpt lat="44.45894" lon="1.16447">
        <ele>206.459946</ele>
        <time>2009-06-21T08:56:51Z</time>
      </trkpt>
      <trkpt lat="44.45885" lon="1.16456">
        <ele>207.177689</ele>
        <time>2009-06-21T08:56:54Z</time>
      </trkpt>
      <trkpt lat="44.45876" lon="1.16464">
        <ele>207.940323</ele>
        <time>2009-06-21T08:56:57Z</time>
      </trkpt>
      <trkpt lat="44.45867" lon="1.1647">
        <ele>208.695435</ele>
        <time>2009-06-21T08:57:00Z</time>
      </trkpt>
      <trkpt lat="44.45858" lon="1.16475">
        <ele>209.318985</ele>
        <time>2009-06-21T08:57:03Z</time>
      </trkpt>
      <trkpt lat="44.45848" lon="1.16481">
        <ele>210.198441</ele>
        <time>2009-06-21T08:57:06Z</time>
      </trkpt>
      <trkpt lat="44.45838" lon="1.1649">
        <ele>211.157089</ele>
        <time>2009-06-21T08:57:09Z</time>
      </trkpt>
      <trkpt lat="44.45825" lon="1.16497">
        <ele>211.907822</ele>
        <time>2009-06-21T08:57:13Z</time>
      </trkpt>
      <trkpt lat="44.45816" lon="1.16501">
        <ele>212.300018</ele>
        <time>2009-06-21T08:57:16Z</time>
      </trkpt>
      <trkpt lat="44.45807" lon="1.16505">
        <ele>212.6035</ele>
        <time>2009-06-21T08:57:19Z</time>
      </trkpt>
      <trkpt lat="44.45793" lon="1.16512">
        <ele>212.795593</ele>
        <time>2009-06-21T08:57:22Z</time>
      </trkpt>
      <trkpt lat="44.4578" lon="1.16518">
        <ele>212.881348</ele>
        <time>2009-06-21T08:57:25Z</time>
      </trkpt>
      <trkpt lat="44.45768" lon="1.16526">
        <ele>212.994965</ele>
        <time>2009-06-21T08:57:28Z</time>
      </trkpt>
      <trkpt lat="44.45756" lon="1.16534">
        <ele>213.252106</ele>
        <time>2009-06-21T08:57:31Z</time>
      </trkpt>
      <trkpt lat="44.45739" lon="1.16545">
        <ele>213.679794</ele>
        <time>2009-06-21T08:57:35Z</time>
      </trkpt>
      <trkpt lat="44.45728" lon="1.16554">
        <ele>213.980118</ele>
        <time>2009-06-21T08:57:38Z</time>
      </trkpt>
      <trkpt lat="44.45719" lon="1.16561">
        <ele>214.345627</ele>
        <time>2009-06-21T08:57:41Z</time>
      </trkpt>
      <trkpt lat="44.45708" lon="1.16569">
        <ele>214.847504</ele>
        <time>2009-06-21T08:57:44Z</time>
      </trkpt>
      <trkpt lat="44.45697" lon="1.16577">
        <ele>214.767899</ele>
        <time>2009-06-21T08:57:47Z</time>
      </trkpt>
      <trkpt lat="44.45687" lon="1.16585">
        <ele>214.730789</ele>
        <time>2009-06-21T08:57:50Z</time>
      </trkpt>
      <trkpt lat="44.45674" lon="1.16596">
        <ele>214.912979</ele>
        <time>2009-06-21T08:57:53Z</time>
      </trkpt>
      <trkpt lat="44.45665" lon="1.16605">
        <ele>215.225006</ele>
        <time>2009-06-21T08:57:57Z</time>
      </trkpt>
      <trkpt lat="44.45657" lon="1.16611">
        <ele>215.613113</ele>
        <time>2009-06-21T08:58:00Z</time>
      </trkpt>
      <trkpt lat="44.45647" lon="1.1662">
        <ele>215.836456</ele>
        <time>2009-06-21T08:58:04Z</time>
      </trkpt>
      <trkpt lat="44.45638" lon="1.16632">
        <ele>216.399139</ele>
        <time>2009-06-21T08:58:08Z</time>
      </trkpt>
      <trkpt lat="44.45629" lon="1.16642">
        <ele>216.625504</ele>
        <time>2009-06-21T08:58:11Z</time>
      </trkpt>
      <trkpt lat="44.45621" lon="1.16651">
        <ele>217.064316</ele>
        <time>2009-06-21T08:58:14Z</time>
      </trkpt>
      <trkpt lat="44.45614" lon="1.16661">
        <ele>217.747498</ele>
        <time>2009-06-21T08:58:17Z</time>
      </trkpt>
      <trkpt lat="44.45607" lon="1.16671">
        <ele>218.235001</ele>
        <time>2009-06-21T08:58:20Z</time>
      </trkpt>
      <trkpt lat="44.45598" lon="1.16681">
        <ele>218.815582</ele>
        <time>2009-06-21T08:58:23Z</time>
      </trkpt>
      <trkpt lat="44.45585" lon="1.16691">
        <ele>219.827286</ele>
        <time>2009-06-21T08:58:26Z</time>
      </trkpt>
      <trkpt lat="44.45576" lon="1.16697">
        <ele>220.622696</ele>
        <time>2009-06-21T08:58:30Z</time>
      </trkpt>
      <trkpt lat="44.45567" lon="1.16702">
        <ele>221.086899</ele>
        <time>2009-06-21T08:58:33Z</time>
      </trkpt>
      <trkpt lat="44.45561" lon="1.16707">
        <ele>221.196823</ele>
        <time>2009-06-21T08:58:36Z</time>
      </trkpt>
      <trkpt lat="44.45548" lon="1.16717">
        <ele>221.596893</ele>
        <time>2009-06-21T08:58:39Z</time>
      </trkpt>
      <trkpt lat="44.45537" lon="1.16724">
        <ele>221.976715</ele>
        <time>2009-06-21T08:58:42Z</time>
      </trkpt>
      <trkpt lat="44.45528" lon="1.16728">
        <ele>222.341721</ele>
        <time>2009-06-21T08:58:45Z</time>
      </trkpt>
      <trkpt lat="44.4552" lon="1.16731">
        <ele>222.526642</ele>
        <time>2009-06-21T08:58:48Z</time>
      </trkpt>
      <trkpt lat="44.45513" lon="1.16735">
        <ele>222.578934</ele>
        <time>2009-06-21T08:58:51Z</time>
      </trkpt>
      <trkpt lat="44.45506" lon="1.16739">
        <ele>222.679306</ele>
        <time>2009-06-21T08:58:54Z</time>
      </trkpt>
      <trkpt lat="44.45498" lon="1.16742">
        <ele>222.745407</ele>
        <time>2009-06-21T08:58:58Z</time>
      </trkpt>
      <trkpt lat="44.45489" lon="1.16745">
        <ele>222.849442</ele>
        <time>2009-06-21T08:59:02Z</time>
      </trkpt>
      <trkpt lat="44.45483" lon="1.16748">
        <ele>222.951691</ele>
        <time>2009-06-21T08:59:05Z</time>
      </trkpt>
      <trkpt lat="44.45475" lon="1.16751">
        <ele>222.972748</ele>
        <time>2009-06-21T08:59:08Z</time>
      </trkpt>
      <trkpt lat="44.45468" lon="1.16753">
        <ele>222.808456</ele>
        <time>2009-06-21T08:59:12Z</time>
      </trkpt>
      <trkpt lat="44.45462" lon="1.16756">
        <ele>222.797607</ele>
        <time>2009-06-21T08:59:15Z</time>
      </trkpt>
      <trkpt lat="44.45452" lon="1.16762">
        <ele>222.813202</ele>
        <time>2009-06-21T08:59:19Z</time>
      </trkpt>
      <trkpt lat="44.45446" lon="1.16766">
        <ele>222.610931</ele>
        <time>2009-06-21T08:59:22Z</time>
      </trkpt>
      <trkpt lat="44.45439" lon="1.16772">
        <ele>222.357773</ele>
        <time>2009-06-21T08:59:25Z</time>
      </trkpt>
      <trkpt lat="44.45434" lon="1.16779">
        <ele>222.277283</ele>
        <time>2009-06-21T08:59:29Z</time>
      </trkpt>
      <trkpt lat="44.45428" lon="1.16786">
        <ele>222.124176</ele>
        <time>2009-06-21T08:59:32Z</time>
      </trkpt>
      <trkpt lat="44.45423" lon="1.16792">
        <ele>221.963959</ele>
        <time>2009-06-21T08:59:35Z</time>
      </trkpt>
      <trkpt lat="44.45414" lon="1.16803">
        <ele>221.855698</ele>
        <time>2009-06-21T08:59:39Z</time>
      </trkpt>
      <trkpt lat="44.45407" lon="1.16806">
        <ele>221.709824</ele>
        <time>2009-06-21T08:59:43Z</time>
      </trkpt>
      <trkpt lat="44.45397" lon="1.16808">
        <ele>221.426926</ele>
        <time>2009-06-21T08:59:46Z</time>
      </trkpt>
      <trkpt lat="44.45391" lon="1.16815">
        <ele>221.5121</ele>
        <time>2009-06-21T08:59:50Z</time>
      </trkpt>
      <trkpt lat="44.45382" lon="1.16823">
        <ele>221.632324</ele>
        <time>2009-06-21T08:59:53Z</time>
      </trkpt>
      <trkpt lat="44.45367" lon="1.16839">
        <ele>221.604309</ele>
        <time>2009-06-21T08:59:56Z</time>
      </trkpt>
      <trkpt lat="44.4535" lon="1.16857">
        <ele>221.540466</ele>
        <time>2009-06-21T09:00:00Z</time>
      </trkpt>
      <trkpt lat="44.45331" lon="1.1688">
        <ele>221.376633</ele>
        <time>2009-06-21T09:00:03Z</time>
      </trkpt>
      <trkpt lat="44.45312" lon="1.169">
        <ele>221.042099</ele>
        <time>2009-06-21T09:00:06Z</time>
      </trkpt>
      <trkpt lat="44.45296" lon="1.16921">
        <ele>220.472031</ele>
        <time>2009-06-21T09:00:09Z</time>
      </trkpt>
      <trkpt lat="44.45278" lon="1.16936">
        <ele>220.353119</ele>
        <time>2009-06-21T09:00:12Z</time>
      </trkpt>
      <trkpt lat="44.45262" lon="1.16949">
        <ele>220.714569</ele>
        <time>2009-06-21T09:00:15Z</time>
      </trkpt>
      <trkpt lat="44.45237" lon="1.16968">
        <ele>220.162003</ele>
        <time>2009-06-21T09:00:19Z</time>
      </trkpt>
      <trkpt lat="44.45219" lon="1.16976">
        <ele>219.879471</ele>
        <time>2009-06-21T09:00:22Z</time>
      </trkpt>
      <trkpt lat="44.45201" lon="1.16986">
        <ele>219.526993</ele>
        <time>2009-06-21T09:00:25Z</time>
      </trkpt>
      <trkpt lat="44.45185" lon="1.16996">
        <ele>219.411591</ele>
        <time>2009-06-21T09:00:28Z</time>
      </trkpt>
      <trkpt lat="44.45168" lon="1.17004">
        <ele>219.703918</ele>
        <time>2009-06-21T09:00:31Z</time>
      </trkpt>
      <trkpt lat="44.45145" lon="1.17008">
        <ele>219.913132</ele>
        <time>2009-06-21T09:00:34Z</time>
      </trkpt>
      <trkpt lat="44.4513" lon="1.1701">
        <ele>220.132339</ele>
        <time>2009-06-21T09:00:37Z</time>
      </trkpt>
      <trkpt lat="44.45115" lon="1.17013">
        <ele>220.422028</ele>
        <time>2009-06-21T09:00:41Z</time>
      </trkpt>
      <trkpt lat="44.45103" lon="1.17009">
        <ele>220.032959</ele>
        <time>2009-06-21T09:00:44Z</time>
      </trkpt>
      <trkpt lat="44.45088" lon="1.17012">
        <ele>220.170563</ele>
        <time>2009-06-21T09:00:47Z</time>
      </trkpt>
      <trkpt lat="44.45077" lon="1.17013">
        <ele>220.202576</ele>
        <time>2009-06-21T09:00:50Z</time>
      </trkpt>
      <trkpt lat="44.45067" lon="1.17012">
        <ele>220.170593</ele>
        <time>2009-06-21T09:00:54Z</time>
      </trkpt>
      <trkpt lat="44.45058" lon="1.1702">
        <ele>220.842361</ele>
        <time>2009-06-21T09:00:57Z</time>
      </trkpt>
      <trkpt lat="44.45056" lon="1.17028">
        <ele>220.749176</ele>
        <time>2009-06-21T09:01:00Z</time>
      </trkpt>
      <trkpt lat="44.45052" lon="1.17035">
        <ele>220.468658</ele>
        <time>2009-06-21T09:01:03Z</time>
      </trkpt>
      <trkpt lat="44.45044" lon="1.1704">
        <ele>220.331726</ele>
        <time>2009-06-21T09:01:06Z</time>
      </trkpt>
      <trkpt lat="44.45035" lon="1.17042">
        <ele>220.328552</ele>
        <time>2009-06-21T09:01:10Z</time>
      </trkpt>
      <trkpt lat="44.45025" lon="1.17046">
        <ele>220.541245</ele>
        <time>2009-06-21T09:01:13Z</time>
      </trkpt>
      <trkpt lat="44.45015" lon="1.17048">
        <ele>220.922501</ele>
        <time>2009-06-21T09:01:16Z</time>
      </trkpt>
      <trkpt lat="44.45006" lon="1.17048">
        <ele>221.338745</ele>
        <time>2009-06-21T09:01:19Z</time>
      </trkpt>
      <trkpt lat="44.44991" lon="1.1705">
        <ele>221.941254</ele>
        <time>2009-06-21T09:01:22Z</time>
      </trkpt>
      <trkpt lat="44.44976" lon="1.17051">
        <ele>222.331253</ele>
        <time>2009-06-21T09:01:26Z</time>
      </trkpt>
      <trkpt lat="44.44964" lon="1.17056">
        <ele>222.458755</ele>
        <time>2009-06-21T09:01:30Z</time>
      </trkpt>
      <trkpt lat="44.44951" lon="1.17062">
        <ele>222.591248</ele>
        <time>2009-06-21T09:01:34Z</time>
      </trkpt>
      <trkpt lat="44.44933" lon="1.17061">
        <ele>222.947617</ele>
        <time>2009-06-21T09:01:38Z</time>
      </trkpt>
      <trkpt lat="44.44921" lon="1.17061">
        <ele>223.089874</ele>
        <time>2009-06-21T09:01:41Z</time>
      </trkpt>
      <trkpt lat="44.44911" lon="1.17063">
        <ele>223.201401</ele>
        <time>2009-06-21T09:01:44Z</time>
      </trkpt>
      <trkpt lat="44.44898" lon="1.17067">
        <ele>223.313889</ele>
        <time>2009-06-21T09:01:47Z</time>
      </trkpt>
      <trkpt lat="44.44885" lon="1.17072">
        <ele>223.390808</ele>
        <time>2009-06-21T09:01:50Z</time>
      </trkpt>
      <trkpt lat="44.44873" lon="1.17077">
        <ele>223.526245</ele>
        <time>2009-06-21T09:01:53Z</time>
      </trkpt>
      <trkpt lat="44.44862" lon="1.17083">
        <ele>223.734833</ele>
        <time>2009-06-21T09:01:56Z</time>
      </trkpt>
      <trkpt lat="44.44849" lon="1.17089">
        <ele>223.962402</ele>
        <time>2009-06-21T09:01:59Z</time>
      </trkpt>
      <trkpt lat="44.44839" lon="1.17092">
        <ele>223.8638</ele>
        <time>2009-06-21T09:02:02Z</time>
      </trkpt>
      <trkpt lat="44.44821" lon="1.17095">
        <ele>223.880646</ele>
        <time>2009-06-21T09:02:05Z</time>
      </trkpt>
      <trkpt lat="44.44809" lon="1.17099">
        <ele>223.977036</ele>
        <time>2009-06-21T09:02:08Z</time>
      </trkpt>
      <trkpt lat="44.44799" lon="1.17102">
        <ele>224.462723</ele>
        <time>2009-06-21T09:02:11Z</time>
      </trkpt>
      <trkpt lat="44.4479" lon="1.17105">
        <ele>224.966324</ele>
        <time>2009-06-21T09:02:14Z</time>
      </trkpt>
      <trkpt lat="44.4478" lon="1.17108">
        <ele>225.54425</ele>
        <time>2009-06-21T09:02:17Z</time>
      </trkpt>
      <trkpt lat="44.44772" lon="1.17111">
        <ele>226.12265</ele>
        <time>2009-06-21T09:02:20Z</time>
      </trkpt>
      <trkpt lat="44.44766" lon="1.17114">
        <ele>226.500259</ele>
        <time>2009-06-21T09:02:23Z</time>
      </trkpt>
      <trkpt lat="44.44764" lon="1.17116">
        <ele>226.683395</ele>
        <time>2009-06-21T09:02:28Z</time>
      </trkpt>
      <trkpt lat="44.44757" lon="1.17119">
        <ele>227.203278</ele>
        <time>2009-06-21T09:02:31Z</time>
      </trkpt>
      <trkpt lat="44.4475" lon="1.17123">
        <ele>227.700531</ele>
        <time>2009-06-21T09:02:34Z</time>
      </trkpt>
      <trkpt lat="44.44743" lon="1.17127">
        <ele>228.281128</ele>
        <time>2009-06-21T09:02:37Z</time>
      </trkpt>
      <trkpt lat="44.44736" lon="1.17132">
        <ele>228.87999</ele>
        <time>2009-06-21T09:02:40Z</time>
      </trkpt>
      <trkpt lat="44.4473" lon="1.17137">
        <ele>229.47168</ele>
        <time>2009-06-21T09:02:43Z</time>
      </trkpt>
      <trkpt lat="44.44725" lon="1.17142">
        <ele>229.992569</ele>
        <time>2009-06-21T09:02:46Z</time>
      </trkpt>
      <trkpt lat="44.4472" lon="1.17145">
        <ele>230.447845</ele>
        <time>2009-06-21T09:02:49Z</time>
      </trkpt>
      <trkpt lat="44.44716" lon="1.1715">
        <ele>230.919907</ele>
        <time>2009-06-21T09:02:52Z</time>
      </trkpt>
      <trkpt lat="44.44712" lon="1.17152">
        <ele>231.295578</ele>
        <time>2009-06-21T09:02:55Z</time>
      </trkpt>
      <trkpt lat="44.44706" lon="1.17147">
        <ele>231.346146</ele>
        <time>2009-06-21T09:03:00Z</time>
      </trkpt>
      <trkpt lat="44.44705" lon="1.17136">
        <ele>230.684174</ele>
        <time>2009-06-21T09:03:04Z</time>
      </trkpt>
      <trkpt lat="44.44704" lon="1.1712">
        <ele>229.725494</ele>
        <time>2009-06-21T09:03:07Z</time>
      </trkpt>
      <trkpt lat="44.44703" lon="1.17106">
        <ele>228.908325</ele>
        <time>2009-06-21T09:03:10Z</time>
      </trkpt>
      <trkpt lat="44.44701" lon="1.17089">
        <ele>227.758682</ele>
        <time>2009-06-21T09:03:13Z</time>
      </trkpt>
      <trkpt lat="44.44699" lon="1.17059">
        <ele>225.18602</ele>
        <time>2009-06-21T09:03:16Z</time>
      </trkpt>
      <trkpt lat="44.44697" lon="1.17022">
        <ele>221.887497</ele>
        <time>2009-06-21T09:03:19Z</time>
      </trkpt>
      <trkpt lat="44.44693" lon="1.16983">
        <ele>218.0625</ele>
        <time>2009-06-21T09:03:22Z</time>
      </trkpt>
      <trkpt lat="44.44681" lon="1.16946">
        <ele>214.791519</ele>
        <time>2009-06-21T09:03:25Z</time>
      </trkpt>
      <trkpt lat="44.44656" lon="1.1692">
        <ele>213.506348</ele>
        <time>2009-06-21T09:03:29Z</time>
      </trkpt>
      <trkpt lat="44.44627" lon="1.1689">
        <ele>213.875565</ele>
        <time>2009-06-21T09:03:32Z</time>
      </trkpt>
      <trkpt lat="44.44619" lon="1.16868">
        <ele>214.375</ele>
        <time>2009-06-21T09:03:35Z</time>
      </trkpt>
      <trkpt lat="44.44616" lon="1.16856">
        <ele>214.577499</ele>
        <time>2009-06-21T09:03:38Z</time>
      </trkpt>
      <trkpt lat="44.44616" lon="1.16848">
        <ele>214.554993</ele>
        <time>2009-06-21T09:03:41Z</time>
      </trkpt>
      <trkpt lat="44.44616" lon="1.16839">
        <ele>214.61351</ele>
        <time>2009-06-21T09:03:44Z</time>
      </trkpt>
      <trkpt lat="44.44615" lon="1.16831">
        <ele>214.869781</ele>
        <time>2009-06-21T09:03:48Z</time>
      </trkpt>
      <trkpt lat="44.44613" lon="1.16823">
        <ele>215.122986</ele>
        <time>2009-06-21T09:03:51Z</time>
      </trkpt>
      <trkpt lat="44.44615" lon="1.16813">
        <ele>215.199463</ele>
        <time>2009-06-21T09:03:55Z</time>
      </trkpt>
      <trkpt lat="44.44613" lon="1.16808">
        <ele>215.453415</ele>
        <time>2009-06-21T09:03:58Z</time>
      </trkpt>
      <trkpt lat="44.44609" lon="1.16804">
        <ele>215.81044</ele>
        <time>2009-06-21T09:04:02Z</time>
      </trkpt>
      <trkpt lat="44.44603" lon="1.16801">
        <ele>216.406799</ele>
        <time>2009-06-21T09:04:05Z</time>
      </trkpt>
      <trkpt lat="44.446" lon="1.168">
        <ele>216.68219</ele>
        <time>2009-06-21T09:04:10Z</time>
      </trkpt>
      <trkpt lat="44.44603" lon="1.16801">
        <ele>216.388428</ele>
        <time>2009-06-21T09:04:13Z</time>
      </trkpt>
      <trkpt lat="44.44614" lon="1.16797">
        <ele>215.565536</ele>
        <time>2009-06-21T09:04:16Z</time>
      </trkpt>
      <trkpt lat="44.44615" lon="1.16789">
        <ele>215.638641</ele>
        <time>2009-06-21T09:04:21Z</time>
      </trkpt>
      <trkpt lat="44.44613" lon="1.16781">
        <ele>215.976334</ele>
        <time>2009-06-21T09:04:25Z</time>
      </trkpt>
      <trkpt lat="44.44611" lon="1.16776">
        <ele>216.350006</ele>
        <time>2009-06-21T09:04:28Z</time>
      </trkpt>
      <trkpt lat="44.4461" lon="1.16771">
        <ele>216.782501</ele>
        <time>2009-06-21T09:04:32Z</time>
      </trkpt>
      <trkpt lat="44.44607" lon="1.16763">
        <ele>217.547501</ele>
        <time>2009-06-21T09:04:35Z</time>
      </trkpt>
      <trkpt lat="44.44604" lon="1.16754">
        <ele>218.414993</ele>
        <time>2009-06-21T09:04:39Z</time>
      </trkpt>
      <trkpt lat="44.44602" lon="1.16745">
        <ele>219.169998</ele>
        <time>2009-06-21T09:04:44Z</time>
      </trkpt>
      <trkpt lat="44.446" lon="1.16738">
        <ele>219.757492</ele>
        <time>2009-06-21T09:04:47Z</time>
      </trkpt>
      <trkpt lat="44.446" lon="1.1673">
        <ele>220.277496</ele>
        <time>2009-06-21T09:04:50Z</time>
      </trkpt>
      <trkpt lat="44.44599" lon="1.16723">
        <ele>220.794998</ele>
        <time>2009-06-21T09:04:53Z</time>
      </trkpt>
      <trkpt lat="44.44598" lon="1.16716">
        <ele>221.375214</ele>
        <time>2009-06-21T09:04:56Z</time>
      </trkpt>
      <trkpt lat="44.44599" lon="1.16708">
        <ele>222.12561</ele>
        <time>2009-06-21T09:04:59Z</time>
      </trkpt>
      <trkpt lat="44.44599" lon="1.16701">
        <ele>222.839844</ele>
        <time>2009-06-21T09:05:02Z</time>
      </trkpt>
      <trkpt lat="44.446" lon="1.16693">
        <ele>223.583267</ele>
        <time>2009-06-21T09:05:05Z</time>
      </trkpt>
      <trkpt lat="44.44601" lon="1.16686">
        <ele>224.187561</ele>
        <time>2009-06-21T09:05:08Z</time>
      </trkpt>
      <trkpt lat="44.44602" lon="1.16679">
        <ele>224.763367</ele>
        <time>2009-06-21T09:05:11Z</time>
      </trkpt>
      <trkpt lat="44.44603" lon="1.16673">
        <ele>225.335464</ele>
        <time>2009-06-21T09:05:14Z</time>
      </trkpt>
      <trkpt lat="44.44605" lon="1.16666">
        <ele>225.929764</ele>
        <time>2009-06-21T09:05:17Z</time>
      </trkpt>
      <trkpt lat="44.44606" lon="1.16659">
        <ele>226.548203</ele>
        <time>2009-06-21T09:05:20Z</time>
      </trkpt>
      <trkpt lat="44.44608" lon="1.16653">
        <ele>226.971848</ele>
        <time>2009-06-21T09:05:23Z</time>
      </trkpt>
      <trkpt lat="44.44611" lon="1.16647">
        <ele>226.767242</ele>
        <time>2009-06-21T09:05:26Z</time>
      </trkpt>
      <trkpt lat="44.44616" lon="1.16642">
        <ele>226.365631</ele>
        <time>2009-06-21T09:05:30Z</time>
      </trkpt>
      <trkpt lat="44.44621" lon="1.16637">
        <ele>225.866409</ele>
        <time>2009-06-21T09:05:34Z</time>
      </trkpt>
      <trkpt lat="44.44628" lon="1.16631">
        <ele>225.485092</ele>
        <time>2009-06-21T09:05:38Z</time>
      </trkpt>
      <trkpt lat="44.44633" lon="1.16629">
        <ele>225.311737</ele>
        <time>2009-06-21T09:05:41Z</time>
      </trkpt>
      <trkpt lat="44.44637" lon="1.16624">
        <ele>225.187027</ele>
        <time>2009-06-21T09:05:44Z</time>
      </trkpt>
      <trkpt lat="44.44634" lon="1.16625">
        <ele>225.260956</ele>
        <time>2009-06-21T09:05:48Z</time>
      </trkpt>
      <trkpt lat="44.44631" lon="1.16628">
        <ele>225.36348</ele>
        <time>2009-06-21T09:05:51Z</time>
      </trkpt>
      <trkpt lat="44.44627" lon="1.16629">
        <ele>225.46904</ele>
        <time>2009-06-21T09:05:55Z</time>
      </trkpt>
      <trkpt lat="44.44624" lon="1.16629">
        <ele>225.559479</ele>
        <time>2009-06-21T09:05:58Z</time>
      </trkpt>
      <trkpt lat="44.44619" lon="1.16632">
        <ele>226.002426</ele>
        <time>2009-06-21T09:06:03Z</time>
      </trkpt>
      <trkpt lat="44.44611" lon="1.16631">
        <ele>226.727554</ele>
        <time>2009-06-21T09:06:07Z</time>
      </trkpt>
      <trkpt lat="44.44604" lon="1.16631">
        <ele>227.444397</ele>
        <time>2009-06-21T09:06:13Z</time>
      </trkpt>
      <trkpt lat="44.44597" lon="1.16633">
        <ele>228.096848</ele>
        <time>2009-06-21T09:06:16Z</time>
      </trkpt>
      <trkpt lat="44.44592" lon="1.16633">
        <ele>228.634476</ele>
        <time>2009-06-21T09:06:19Z</time>
      </trkpt>
      <trkpt lat="44.44587" lon="1.16631">
        <ele>229.118469</ele>
        <time>2009-06-21T09:06:23Z</time>
      </trkpt>
      <trkpt lat="44.44582" lon="1.1663">
        <ele>229.72023</ele>
        <time>2009-06-21T09:06:26Z</time>
      </trkpt>
      <trkpt lat="44.44578" lon="1.1663">
        <ele>230.106171</ele>
        <time>2009-06-21T09:06:29Z</time>
      </trkpt>
      <trkpt lat="44.44573" lon="1.16629">
        <ele>230.845718</ele>
        <time>2009-06-21T09:06:32Z</time>
      </trkpt>
      <trkpt lat="44.44567" lon="1.16626">
        <ele>231.67453</ele>
        <time>2009-06-21T09:06:36Z</time>
      </trkpt>
      <trkpt lat="44.44563" lon="1.16626">
        <ele>232.298248</ele>
        <time>2009-06-21T09:06:41Z</time>
      </trkpt>
      <trkpt lat="44.44558" lon="1.16627">
        <ele>232.774124</ele>
        <time>2009-06-21T09:06:44Z</time>
      </trkpt>
      <trkpt lat="44.44555" lon="1.16628">
        <ele>233.124512</ele>
        <time>2009-06-21T09:06:47Z</time>
      </trkpt>
      <trkpt lat="44.4455" lon="1.16629">
        <ele>233.641006</ele>
        <time>2009-06-21T09:06:50Z</time>
      </trkpt>
      <trkpt lat="44.44546" lon="1.16629">
        <ele>234.268616</ele>
        <time>2009-06-21T09:06:54Z</time>
      </trkpt>
      <trkpt lat="44.44542" lon="1.1663">
        <ele>234.622742</ele>
        <time>2009-06-21T09:06:57Z</time>
      </trkpt>
      <trkpt lat="44.4454" lon="1.16629">
        <ele>235.070953</ele>
        <time>2009-06-21T09:07:00Z</time>
      </trkpt>
      <trkpt lat="44.44535" lon="1.1663">
        <ele>235.620575</ele>
        <time>2009-06-21T09:07:03Z</time>
      </trkpt>
      <trkpt lat="44.44531" lon="1.16629">
        <ele>236.141357</ele>
        <time>2009-06-21T09:07:07Z</time>
      </trkpt>
      <trkpt lat="44.44529" lon="1.16628">
        <ele>236.576797</ele>
        <time>2009-06-21T09:07:12Z</time>
      </trkpt>
      <trkpt lat="44.44522" lon="1.16628">
        <ele>237.403564</ele>
        <time>2009-06-21T09:07:16Z</time>
      </trkpt>
      <trkpt lat="44.44518" lon="1.16629">
        <ele>237.852432</ele>
        <time>2009-06-21T09:07:19Z</time>
      </trkpt>
      <trkpt lat="44.44514" lon="1.16629">
        <ele>238.269028</ele>
        <time>2009-06-21T09:07:22Z</time>
      </trkpt>
      <trkpt lat="44.4451" lon="1.1663">
        <ele>238.66037</ele>
        <time>2009-06-21T09:07:25Z</time>
      </trkpt>
      <trkpt lat="44.44506" lon="1.1663">
        <ele>239.134399</ele>
        <time>2009-06-21T09:07:28Z</time>
      </trkpt>
      <trkpt lat="44.44503" lon="1.16629">
        <ele>239.557861</ele>
        <time>2009-06-21T09:07:31Z</time>
      </trkpt>
      <trkpt lat="44.44499" lon="1.1663">
        <ele>240.062164</ele>
        <time>2009-06-21T09:07:37Z</time>
      </trkpt>
      <trkpt lat="44.44494" lon="1.16629">
        <ele>240.702881</ele>
        <time>2009-06-21T09:07:40Z</time>
      </trkpt>
      <trkpt lat="44.4449" lon="1.1663">
        <ele>241.129089</ele>
        <time>2009-06-21T09:07:43Z</time>
      </trkpt>
      <trkpt lat="44.44486" lon="1.1663">
        <ele>241.559692</ele>
        <time>2009-06-21T09:07:46Z</time>
      </trkpt>
      <trkpt lat="44.44482" lon="1.1663">
        <ele>242.241409</ele>
        <time>2009-06-21T09:07:49Z</time>
      </trkpt>
      <trkpt lat="44.44479" lon="1.1663">
        <ele>242.680099</ele>
        <time>2009-06-21T09:07:52Z</time>
      </trkpt>
      <trkpt lat="44.44475" lon="1.16629">
        <ele>243.278793</ele>
        <time>2009-06-21T09:07:57Z</time>
      </trkpt>
      <trkpt lat="44.44469" lon="1.1663">
        <ele>243.893356</ele>
        <time>2009-06-21T09:08:01Z</time>
      </trkpt>
      <trkpt lat="44.44466" lon="1.1663">
        <ele>244.407074</ele>
        <time>2009-06-21T09:08:04Z</time>
      </trkpt>
      <trkpt lat="44.44462" lon="1.16631">
        <ele>244.794205</ele>
        <time>2009-06-21T09:08:07Z</time>
      </trkpt>
      <trkpt lat="44.44458" lon="1.16633">
        <ele>245.155334</ele>
        <time>2009-06-21T09:08:10Z</time>
      </trkpt>
      <trkpt lat="44.44457" lon="1.16635">
        <ele>245.186844</ele>
        <time>2009-06-21T09:08:14Z</time>
      </trkpt>
      <trkpt lat="44.44453" lon="1.16636">
        <ele>245.558136</ele>
        <time>2009-06-21T09:08:17Z</time>
      </trkpt>
      <trkpt lat="44.44449" lon="1.16639">
        <ele>245.884369</ele>
        <time>2009-06-21T09:08:21Z</time>
      </trkpt>
      <trkpt lat="44.44445" lon="1.16642">
        <ele>246.193085</ele>
        <time>2009-06-21T09:08:26Z</time>
      </trkpt>
      <trkpt lat="44.44441" lon="1.16644">
        <ele>246.546799</ele>
        <time>2009-06-21T09:08:29Z</time>
      </trkpt>
      <trkpt lat="44.44438" lon="1.16647">
        <ele>246.853256</ele>
        <time>2009-06-21T09:08:35Z</time>
      </trkpt>
      <trkpt lat="44.44434" lon="1.1665">
        <ele>247.194305</ele>
        <time>2009-06-21T09:08:39Z</time>
      </trkpt>
      <trkpt lat="44.44431" lon="1.16653">
        <ele>247.481659</ele>
        <time>2009-06-21T09:08:42Z</time>
      </trkpt>
      <trkpt lat="44.44427" lon="1.16656">
        <ele>247.915939</ele>
        <time>2009-06-21T09:08:46Z</time>
      </trkpt>
      <trkpt lat="44.44423" lon="1.1666">
        <ele>248.2547</ele>
        <time>2009-06-21T09:08:51Z</time>
      </trkpt>
      <trkpt lat="44.4442" lon="1.16665">
        <ele>248.500122</ele>
        <time>2009-06-21T09:08:54Z</time>
      </trkpt>
      <trkpt lat="44.44417" lon="1.1667">
        <ele>248.640686</ele>
        <time>2009-06-21T09:08:58Z</time>
      </trkpt>
      <trkpt lat="44.44413" lon="1.16674">
        <ele>249.044159</ele>
        <time>2009-06-21T09:09:02Z</time>
      </trkpt>
      <trkpt lat="44.44409" lon="1.16678">
        <ele>249.345169</ele>
        <time>2009-06-21T09:09:07Z</time>
      </trkpt>
      <trkpt lat="44.44406" lon="1.16683">
        <ele>249.565704</ele>
        <time>2009-06-21T09:09:10Z</time>
      </trkpt>
      <trkpt lat="44.44403" lon="1.16687">
        <ele>249.812149</ele>
        <time>2009-06-21T09:09:14Z</time>
      </trkpt>
      <trkpt lat="44.44399" lon="1.16691">
        <ele>250.25853</ele>
        <time>2009-06-21T09:09:19Z</time>
      </trkpt>
      <trkpt lat="44.44395" lon="1.16694">
        <ele>250.835846</ele>
        <time>2009-06-21T09:09:22Z</time>
      </trkpt>
      <trkpt lat="44.44391" lon="1.16697">
        <ele>251.274841</ele>
        <time>2009-06-21T09:09:25Z</time>
      </trkpt>
      <trkpt lat="44.44388" lon="1.16701">
        <ele>251.664963</ele>
        <time>2009-06-21T09:09:29Z</time>
      </trkpt>
      <trkpt lat="44.44385" lon="1.16704">
        <ele>252.016006</ele>
        <time>2009-06-21T09:09:34Z</time>
      </trkpt>
      <trkpt lat="44.44381" lon="1.16708">
        <ele>252.505127</ele>
        <time>2009-06-21T09:09:37Z</time>
      </trkpt>
      <trkpt lat="44.44377" lon="1.16712">
        <ele>252.910034</ele>
        <time>2009-06-21T09:09:41Z</time>
      </trkpt>
      <trkpt lat="44.44373" lon="1.16716">
        <ele>253.392273</ele>
        <time>2009-06-21T09:09:46Z</time>
      </trkpt>
      <trkpt lat="44.4437" lon="1.1672">
        <ele>253.775391</ele>
        <time>2009-06-21T09:09:49Z</time>
      </trkpt>
      <trkpt lat="44.44366" lon="1.16722">
        <ele>254.407135</ele>
        <time>2009-06-21T09:09:52Z</time>
      </trkpt>
      <trkpt lat="44.44364" lon="1.16723">
        <ele>254.874481</ele>
        <time>2009-06-21T09:09:56Z</time>
      </trkpt>
      <trkpt lat="44.4436" lon="1.16724">
        <ele>255.531479</ele>
        <time>2009-06-21T09:09:59Z</time>
      </trkpt>
      <trkpt lat="44.44356" lon="1.16725">
        <ele>256.249847</ele>
        <time>2009-06-21T09:10:03Z</time>
      </trkpt>
      <trkpt lat="44.44354" lon="1.16728">
        <ele>256.662506</ele>
        <time>2009-06-21T09:10:08Z</time>
      </trkpt>
      <trkpt lat="44.4435" lon="1.16735">
        <ele>256.669037</ele>
        <time>2009-06-21T09:10:12Z</time>
      </trkpt>
      <trkpt lat="44.44346" lon="1.16739">
        <ele>256.907135</ele>
        <time>2009-06-21T09:10:15Z</time>
      </trkpt>
      <trkpt lat="44.44344" lon="1.16745">
        <ele>256.914307</ele>
        <time>2009-06-21T09:10:18Z</time>
      </trkpt>
      <trkpt lat="44.4434" lon="1.16749">
        <ele>257.262512</ele>
        <time>2009-06-21T09:10:22Z</time>
      </trkpt>
      <trkpt lat="44.44337" lon="1.16754">
        <ele>257.457489</ele>
        <time>2009-06-21T09:10:25Z</time>
      </trkpt>
      <trkpt lat="44.44332" lon="1.16761">
        <ele>257.826141</ele>
        <time>2009-06-21T09:10:28Z</time>
      </trkpt>
      <trkpt lat="44.44329" lon="1.16765">
        <ele>258.261932</ele>
        <time>2009-06-21T09:10:31Z</time>
      </trkpt>
      <trkpt lat="44.44324" lon="1.16768">
        <ele>258.875153</ele>
        <time>2009-06-21T09:10:35Z</time>
      </trkpt>
      <trkpt lat="44.44317" lon="1.16768">
        <ele>260.043213</ele>
        <time>2009-06-21T09:10:38Z</time>
      </trkpt>
      <trkpt lat="44.44315" lon="1.16762">
        <ele>260.473663</ele>
        <time>2009-06-21T09:10:42Z</time>
      </trkpt>
      <trkpt lat="44.44312" lon="1.16755">
        <ele>261.056732</ele>
        <time>2009-06-21T09:10:45Z</time>
      </trkpt>
      <trkpt lat="44.44311" lon="1.16747">
        <ele>261.337311</ele>
        <time>2009-06-21T09:10:48Z</time>
      </trkpt>
      <trkpt lat="44.4431" lon="1.16739">
        <ele>261.574097</ele>
        <time>2009-06-21T09:10:51Z</time>
      </trkpt>
      <trkpt lat="44.44309" lon="1.16732">
        <ele>261.771729</ele>
        <time>2009-06-21T09:10:54Z</time>
      </trkpt>
      <trkpt lat="44.44307" lon="1.16724">
        <ele>261.96524</ele>
        <time>2009-06-21T09:10:57Z</time>
      </trkpt>
      <trkpt lat="44.44307" lon="1.16716">
        <ele>262.176239</ele>
        <time>2009-06-21T09:11:01Z</time>
      </trkpt>
      <trkpt lat="44.44304" lon="1.16708">
        <ele>262.389984</ele>
        <time>2009-06-21T09:11:04Z</time>
      </trkpt>
      <trkpt lat="44.44303" lon="1.16701">
        <ele>262.602509</ele>
        <time>2009-06-21T09:11:07Z</time>
      </trkpt>
      <trkpt lat="44.44302" lon="1.16692">
        <ele>262.848755</ele>
        <time>2009-06-21T09:11:10Z</time>
      </trkpt>
      <trkpt lat="44.44301" lon="1.16683">
        <ele>263.123749</ele>
        <time>2009-06-21T09:11:13Z</time>
      </trkpt>
      <trkpt lat="44.44299" lon="1.16674">
        <ele>263.369995</ele>
        <time>2009-06-21T09:11:16Z</time>
      </trkpt>
      <trkpt lat="44.44298" lon="1.16666">
        <ele>263.611237</ele>
        <time>2009-06-21T09:11:19Z</time>
      </trkpt>
      <trkpt lat="44.44297" lon="1.16657">
        <ele>263.745453</ele>
        <time>2009-06-21T09:11:22Z</time>
      </trkpt>
      <trkpt lat="44.44296" lon="1.16648">
        <ele>263.68335</ele>
        <time>2009-06-21T09:11:25Z</time>
      </trkpt>
      <trkpt lat="44.44295" lon="1.16637">
        <ele>263.61792</ele>
        <time>2009-06-21T09:11:28Z</time>
      </trkpt>
      <trkpt lat="44.44294" lon="1.16627">
        <ele>263.531433</ele>
        <time>2009-06-21T09:11:31Z</time>
      </trkpt>
      <trkpt lat="44.44293" lon="1.16617">
        <ele>263.440247</ele>
        <time>2009-06-21T09:11:34Z</time>
      </trkpt>
      <trkpt lat="44.44292" lon="1.16607">
        <ele>263.350525</ele>
        <time>2009-06-21T09:11:37Z</time>
      </trkpt>
      <trkpt lat="44.44291" lon="1.16595">
        <ele>263.215179</ele>
        <time>2009-06-21T09:11:40Z</time>
      </trkpt>
      <trkpt lat="44.4429" lon="1.16586">
        <ele>262.939667</ele>
        <time>2009-06-21T09:11:43Z</time>
      </trkpt>
      <trkpt lat="44.44289" lon="1.16573">
        <ele>262.538055</ele>
        <time>2009-06-21T09:11:47Z</time>
      </trkpt>
      <trkpt lat="44.44287" lon="1.16558">
        <ele>262.116241</ele>
        <time>2009-06-21T09:11:52Z</time>
      </trkpt>
      <trkpt lat="44.44285" lon="1.16547">
        <ele>261.79245</ele>
        <time>2009-06-21T09:11:55Z</time>
      </trkpt>
      <trkpt lat="44.44283" lon="1.1653">
        <ele>261.151398</ele>
        <time>2009-06-21T09:11:58Z</time>
      </trkpt>
      <trkpt lat="44.44281" lon="1.16516">
        <ele>260.370575</ele>
        <time>2009-06-21T09:12:01Z</time>
      </trkpt>
      <trkpt lat="44.44279" lon="1.16499">
        <ele>259.445007</ele>
        <time>2009-06-21T09:12:04Z</time>
      </trkpt>
      <trkpt lat="44.44276" lon="1.16479">
        <ele>258.347565</ele>
        <time>2009-06-21T09:12:07Z</time>
      </trkpt>
      <trkpt lat="44.44273" lon="1.16454">
        <ele>256.09079</ele>
        <time>2009-06-21T09:12:10Z</time>
      </trkpt>
      <trkpt lat="44.4427" lon="1.16426">
        <ele>253.38504</ele>
        <time>2009-06-21T09:12:13Z</time>
      </trkpt>
      <trkpt lat="44.44267" lon="1.16397">
        <ele>251.398544</ele>
        <time>2009-06-21T09:12:16Z</time>
      </trkpt>
      <trkpt lat="44.44265" lon="1.16368">
        <ele>250.46907</ele>
        <time>2009-06-21T09:12:20Z</time>
      </trkpt>
      <trkpt lat="44.44262" lon="1.16337">
        <ele>249.405411</ele>
        <time>2009-06-21T09:12:23Z</time>
      </trkpt>
      <trkpt lat="44.44261" lon="1.16303">
        <ele>247.82869</ele>
        <time>2009-06-21T09:12:26Z</time>
      </trkpt>
      <trkpt lat="44.44264" lon="1.16265">
        <ele>245.574341</ele>
        <time>2009-06-21T09:12:29Z</time>
      </trkpt>
      <trkpt lat="44.44265" lon="1.16233">
        <ele>243.222458</ele>
        <time>2009-06-21T09:12:32Z</time>
      </trkpt>
      <trkpt lat="44.44265" lon="1.16203">
        <ele>243.20578</ele>
        <time>2009-06-21T09:12:35Z</time>
      </trkpt>
      <trkpt lat="44.44267" lon="1.16177">
        <ele>244.18013</ele>
        <time>2009-06-21T09:12:38Z</time>
      </trkpt>
      <trkpt lat="44.44264" lon="1.16158">
        <ele>244.888931</ele>
        <time>2009-06-21T09:12:41Z</time>
      </trkpt>
      <trkpt lat="44.44261" lon="1.16143">
        <ele>245.369858</ele>
        <time>2009-06-21T09:12:44Z</time>
      </trkpt>
      <trkpt lat="44.44258" lon="1.16129">
        <ele>245.918518</ele>
        <time>2009-06-21T09:12:47Z</time>
      </trkpt>
      <trkpt lat="44.44254" lon="1.16116">
        <ele>245.360916</ele>
        <time>2009-06-21T09:12:50Z</time>
      </trkpt>
      <trkpt lat="44.4425" lon="1.16103">
        <ele>245.070465</ele>
        <time>2009-06-21T09:12:53Z</time>
      </trkpt>
      <trkpt lat="44.44249" lon="1.16092">
        <ele>245.486954</ele>
        <time>2009-06-21T09:12:56Z</time>
      </trkpt>
      <trkpt lat="44.4425" lon="1.16081">
        <ele>246.333923</ele>
        <time>2009-06-21T09:12:59Z</time>
      </trkpt>
      <trkpt lat="44.44252" lon="1.1607">
        <ele>247.288116</ele>
        <time>2009-06-21T09:13:02Z</time>
      </trkpt>
      <trkpt lat="44.44255" lon="1.16056">
        <ele>248.759064</ele>
        <time>2009-06-21T09:13:05Z</time>
      </trkpt>
      <trkpt lat="44.44257" lon="1.16046">
        <ele>249.36499</ele>
        <time>2009-06-21T09:13:08Z</time>
      </trkpt>
      <trkpt lat="44.44259" lon="1.16035">
        <ele>249.691254</ele>
        <time>2009-06-21T09:13:12Z</time>
      </trkpt>
      <trkpt lat="44.44263" lon="1.16024">
        <ele>249.377029</ele>
        <time>2009-06-21T09:13:15Z</time>
      </trkpt>
      <trkpt lat="44.44267" lon="1.16013">
        <ele>249.07663</ele>
        <time>2009-06-21T09:13:18Z</time>
      </trkpt>
      <trkpt lat="44.44273" lon="1.15998">
        <ele>248.984558</ele>
        <time>2009-06-21T09:13:21Z</time>
      </trkpt>
      <trkpt lat="44.44277" lon="1.15985">
        <ele>249.1595</ele>
        <time>2009-06-21T09:13:24Z</time>
      </trkpt>
      <trkpt lat="44.44278" lon="1.15968">
        <ele>249.311584</ele>
        <time>2009-06-21T09:13:28Z</time>
      </trkpt>
      <trkpt lat="44.44278" lon="1.15955">
        <ele>248.363754</ele>
        <time>2009-06-21T09:13:31Z</time>
      </trkpt>
      <trkpt lat="44.44276" lon="1.15941">
        <ele>247.276794</ele>
        <time>2009-06-21T09:13:35Z</time>
      </trkpt>
      <trkpt lat="44.44275" lon="1.1592">
        <ele>245.654846</ele>
        <time>2009-06-21T09:13:38Z</time>
      </trkpt>
      <trkpt lat="44.44281" lon="1.15896">
        <ele>243.926224</ele>
        <time>2009-06-21T09:13:42Z</time>
      </trkpt>
      <trkpt lat="44.44289" lon="1.15867">
        <ele>242.304947</ele>
        <time>2009-06-21T09:13:45Z</time>
      </trkpt>
      <trkpt lat="44.44295" lon="1.15843">
        <ele>241.936356</ele>
        <time>2009-06-21T09:13:48Z</time>
      </trkpt>
      <trkpt lat="44.44299" lon="1.15824">
        <ele>242.684799</ele>
        <time>2009-06-21T09:13:51Z</time>
      </trkpt>
      <trkpt lat="44.44302" lon="1.15809">
        <ele>242.635193</ele>
        <time>2009-06-21T09:13:54Z</time>
      </trkpt>
      <trkpt lat="44.44304" lon="1.15794">
        <ele>242.47139</ele>
        <time>2009-06-21T09:13:57Z</time>
      </trkpt>
      <trkpt lat="44.44305" lon="1.15779">
        <ele>242.050369</ele>
        <time>2009-06-21T09:14:00Z</time>
      </trkpt>
      <trkpt lat="44.44304" lon="1.15764">
        <ele>240.805389</ele>
        <time>2009-06-21T09:14:03Z</time>
      </trkpt>
      <trkpt lat="44.44301" lon="1.15748">
        <ele>239.415054</ele>
        <time>2009-06-21T09:14:06Z</time>
      </trkpt>
      <trkpt lat="44.44297" lon="1.1573">
        <ele>237.445679</ele>
        <time>2009-06-21T09:14:09Z</time>
      </trkpt>
      <trkpt lat="44.44295" lon="1.15708">
        <ele>234.226761</ele>
        <time>2009-06-21T09:14:12Z</time>
      </trkpt>
      <trkpt lat="44.44293" lon="1.15686">
        <ele>229.984314</ele>
        <time>2009-06-21T09:14:15Z</time>
      </trkpt>
      <trkpt lat="44.44289" lon="1.15655">
        <ele>224.230423</ele>
        <time>2009-06-21T09:14:18Z</time>
      </trkpt>
      <trkpt lat="44.44281" lon="1.1563">
        <ele>218.482971</ele>
        <time>2009-06-21T09:14:21Z</time>
      </trkpt>
      <trkpt lat="44.44278" lon="1.15596">
        <ele>213.805206</ele>
        <time>2009-06-21T09:14:25Z</time>
      </trkpt>
      <trkpt lat="44.44285" lon="1.15575">
        <ele>213.102676</ele>
        <time>2009-06-21T09:14:29Z</time>
      </trkpt>
      <trkpt lat="44.44282" lon="1.15553">
        <ele>209.43277</ele>
        <time>2009-06-21T09:14:33Z</time>
      </trkpt>
      <trkpt lat="44.44275" lon="1.15519">
        <ele>204.77095</ele>
        <time>2009-06-21T09:14:37Z</time>
      </trkpt>
      <trkpt lat="44.44268" lon="1.15467">
        <ele>202.420502</ele>
        <time>2009-06-21T09:14:41Z</time>
      </trkpt>
      <trkpt lat="44.44267" lon="1.15434">
        <ele>203.070313</ele>
        <time>2009-06-21T09:14:44Z</time>
      </trkpt>
      <trkpt lat="44.44264" lon="1.15407">
        <ele>203.657288</ele>
        <time>2009-06-21T09:14:47Z</time>
      </trkpt>
      <trkpt lat="44.44259" lon="1.15408">
        <ele>203.73027</ele>
        <time>2009-06-21T09:14:50Z</time>
      </trkpt>
      <trkpt lat="44.44258" lon="1.15405">
        <ele>203.925323</ele>
        <time>2009-06-21T09:14:53Z</time>
      </trkpt>
      <trkpt lat="44.44257" lon="1.154">
        <ele>204.52211</ele>
        <time>2009-06-21T09:14:58Z</time>
      </trkpt>
      <trkpt lat="44.44258" lon="1.15391">
        <ele>205.3703</ele>
        <time>2009-06-21T09:15:02Z</time>
      </trkpt>
      <trkpt lat="44.44256" lon="1.15386">
        <ele>205.952545</ele>
        <time>2009-06-21T09:15:06Z</time>
      </trkpt>
      <trkpt lat="44.44256" lon="1.15379">
        <ele>206.695694</ele>
        <time>2009-06-21T09:15:09Z</time>
      </trkpt>
      <trkpt lat="44.44255" lon="1.15372">
        <ele>207.560196</ele>
        <time>2009-06-21T09:15:13Z</time>
      </trkpt>
      <trkpt lat="44.44254" lon="1.15363">
        <ele>208.507202</ele>
        <time>2009-06-21T09:15:17Z</time>
      </trkpt>
      <trkpt lat="44.44253" lon="1.15357">
        <ele>209.206161</ele>
        <time>2009-06-21T09:15:20Z</time>
      </trkpt>
      <trkpt lat="44.44254" lon="1.1535">
        <ele>209.997513</ele>
        <time>2009-06-21T09:15:24Z</time>
      </trkpt>
      <trkpt lat="44.44252" lon="1.15345">
        <ele>210.587814</ele>
        <time>2009-06-21T09:15:27Z</time>
      </trkpt>
      <trkpt lat="44.44253" lon="1.1534">
        <ele>211.343216</ele>
        <time>2009-06-21T09:15:30Z</time>
      </trkpt>
      <trkpt lat="44.44253" lon="1.15335">
        <ele>212.196442</ele>
        <time>2009-06-21T09:15:33Z</time>
      </trkpt>
      <trkpt lat="44.44249" lon="1.15326">
        <ele>214.052338</ele>
        <time>2009-06-21T09:15:38Z</time>
      </trkpt>
      <trkpt lat="44.44248" lon="1.15319">
        <ele>214.870407</ele>
        <time>2009-06-21T09:15:42Z</time>
      </trkpt>
      <trkpt lat="44.44246" lon="1.15315">
        <ele>214.996048</ele>
        <time>2009-06-21T09:15:45Z</time>
      </trkpt>
      <trkpt lat="44.44247" lon="1.15308">
        <ele>216.541748</ele>
        <time>2009-06-21T09:15:48Z</time>
      </trkpt>
      <trkpt lat="44.44247" lon="1.15302">
        <ele>217.815262</ele>
        <time>2009-06-21T09:15:52Z</time>
      </trkpt>
      <trkpt lat="44.44248" lon="1.15295">
        <ele>219.405594</ele>
        <time>2009-06-21T09:15:56Z</time>
      </trkpt>
      <trkpt lat="44.44249" lon="1.15288">
        <ele>220.657761</ele>
        <time>2009-06-21T09:15:59Z</time>
      </trkpt>
      <trkpt lat="44.44251" lon="1.15282">
        <ele>221.252502</ele>
        <time>2009-06-21T09:16:03Z</time>
      </trkpt>
      <trkpt lat="44.44252" lon="1.15278">
        <ele>221.679688</ele>
        <time>2009-06-21T09:16:07Z</time>
      </trkpt>
      <trkpt lat="44.44253" lon="1.15273">
        <ele>222.15921</ele>
        <time>2009-06-21T09:16:10Z</time>
      </trkpt>
      <trkpt lat="44.44252" lon="1.15269">
        <ele>222.974686</ele>
        <time>2009-06-21T09:16:13Z</time>
      </trkpt>
      <trkpt lat="44.4425" lon="1.15261">
        <ele>224.374496</ele>
        <time>2009-06-21T09:16:16Z</time>
      </trkpt>
      <trkpt lat="44.4425" lon="1.15253">
        <ele>225.672791</ele>
        <time>2009-06-21T09:16:19Z</time>
      </trkpt>
      <trkpt lat="44.44249" lon="1.15245">
        <ele>226.864639</ele>
        <time>2009-06-21T09:16:23Z</time>
      </trkpt>
      <trkpt lat="44.44249" lon="1.15239">
        <ele>227.664154</ele>
        <time>2009-06-21T09:16:27Z</time>
      </trkpt>
      <trkpt lat="44.44248" lon="1.15233">
        <ele>228.835556</ele>
        <time>2009-06-21T09:16:32Z</time>
      </trkpt>
      <trkpt lat="44.44247" lon="1.1523">
        <ele>229.26123</ele>
        <time>2009-06-21T09:16:38Z</time>
      </trkpt>
      <trkpt lat="44.44245" lon="1.15228">
        <ele>228.679184</ele>
        <time>2009-06-21T09:16:44Z</time>
      </trkpt>
      <trkpt lat="44.44243" lon="1.15225">
        <ele>228.831223</ele>
        <time>2009-06-21T09:16:47Z</time>
      </trkpt>
      <trkpt lat="44.44242" lon="1.1522">
        <ele>229.212662</ele>
        <time>2009-06-21T09:16:54Z</time>
      </trkpt>
      <trkpt lat="44.44241" lon="1.15217">
        <ele>229.232437</ele>
        <time>2009-06-21T09:16:58Z</time>
      </trkpt>
      <trkpt lat="44.44239" lon="1.15213">
        <ele>229.457352</ele>
        <time>2009-06-21T09:17:03Z</time>
      </trkpt>
      <trkpt lat="44.44238" lon="1.1521">
        <ele>229.422867</ele>
        <time>2009-06-21T09:17:06Z</time>
      </trkpt>
      <trkpt lat="44.44237" lon="1.15206">
        <ele>229.780472</ele>
        <time>2009-06-21T09:17:10Z</time>
      </trkpt>
      <trkpt lat="44.44237" lon="1.15201">
        <ele>230.648132</ele>
        <time>2009-06-21T09:17:14Z</time>
      </trkpt>
      <trkpt lat="44.44237" lon="1.15197">
        <ele>231.27153</ele>
        <time>2009-06-21T09:17:18Z</time>
      </trkpt>
      <trkpt lat="44.44238" lon="1.15193">
        <ele>232.181122</ele>
        <time>2009-06-21T09:17:24Z</time>
      </trkpt>
      <trkpt lat="44.44239" lon="1.15191">
        <ele>232.681107</ele>
        <time>2009-06-21T09:17:31Z</time>
      </trkpt>
      <trkpt lat="44.44238" lon="1.1519">
        <ele>232.442352</ele>
        <time>2009-06-21T09:17:39Z</time>
      </trkpt>
      <trkpt lat="44.44235" lon="1.1519">
        <ele>231.987732</ele>
        <time>2009-06-21T09:17:42Z</time>
      </trkpt>
      <trkpt lat="44.44233" lon="1.15187">
        <ele>231.799835</ele>
        <time>2009-06-21T09:17:48Z</time>
      </trkpt>
      <trkpt lat="44.44231" lon="1.15183">
        <ele>232.108444</ele>
        <time>2009-06-21T09:17:51Z</time>
      </trkpt>
      <trkpt lat="44.4423" lon="1.15178">
        <ele>232.690598</ele>
        <time>2009-06-21T09:17:55Z</time>
      </trkpt>
      <trkpt lat="44.4423" lon="1.15173">
        <ele>233.437531</ele>
        <time>2009-06-21T09:18:00Z</time>
      </trkpt>
      <trkpt lat="44.44227" lon="1.15168">
        <ele>233.824356</ele>
        <time>2009-06-21T09:18:05Z</time>
      </trkpt>
      <trkpt lat="44.44223" lon="1.15163">
        <ele>233.981705</ele>
        <time>2009-06-21T09:18:08Z</time>
      </trkpt>
      <trkpt lat="44.44217" lon="1.15155">
        <ele>234.405716</ele>
        <time>2009-06-21T09:18:12Z</time>
      </trkpt>
      <trkpt lat="44.44213" lon="1.15146">
        <ele>233.812561</ele>
        <time>2009-06-21T09:18:16Z</time>
      </trkpt>
      <trkpt lat="44.4421" lon="1.15134">
        <ele>233.682877</ele>
        <time>2009-06-21T09:18:19Z</time>
      </trkpt>
      <trkpt lat="44.4421" lon="1.15125">
        <ele>233.848007</ele>
        <time>2009-06-21T09:18:22Z</time>
      </trkpt>
      <trkpt lat="44.44213" lon="1.15119">
        <ele>234.049377</ele>
        <time>2009-06-21T09:18:26Z</time>
      </trkpt>
      <trkpt lat="44.44214" lon="1.15111">
        <ele>234.10144</ele>
        <time>2009-06-21T09:18:29Z</time>
      </trkpt>
      <trkpt lat="44.44213" lon="1.15106">
        <ele>234.134216</ele>
        <time>2009-06-21T09:18:32Z</time>
      </trkpt>
      <trkpt lat="44.44205" lon="1.15094">
        <ele>234.727539</ele>
        <time>2009-06-21T09:18:37Z</time>
      </trkpt>
      <trkpt lat="44.44193" lon="1.15085">
        <ele>229.841415</ele>
        <time>2009-06-21T09:18:41Z</time>
      </trkpt>
      <trkpt lat="44.44185" lon="1.15079">
        <ele>225.735565</ele>
        <time>2009-06-21T09:18:44Z</time>
      </trkpt>
      <trkpt lat="44.44175" lon="1.15066">
        <ele>220.990814</ele>
        <time>2009-06-21T09:18:49Z</time>
      </trkpt>
      <trkpt lat="44.44156" lon="1.15047">
        <ele>216.577515</ele>
        <time>2009-06-21T09:18:52Z</time>
      </trkpt>
      <trkpt lat="44.44145" lon="1.15043">
        <ele>213.310638</ele>
        <time>2009-06-21T09:18:56Z</time>
      </trkpt>
      <trkpt lat="44.44131" lon="1.15034">
        <ele>210.738647</ele>
        <time>2009-06-21T09:19:00Z</time>
      </trkpt>
      <trkpt lat="44.44125" lon="1.15024">
        <ele>208.00296</ele>
        <time>2009-06-21T09:19:03Z</time>
      </trkpt>
      <trkpt lat="44.44115" lon="1.15018">
        <ele>205.301605</ele>
        <time>2009-06-21T09:19:06Z</time>
      </trkpt>
      <trkpt lat="44.44105" lon="1.15015">
        <ele>202.846085</ele>
        <time>2009-06-21T09:19:09Z</time>
      </trkpt>
      <trkpt lat="44.44091" lon="1.15008">
        <ele>199.835114</ele>
        <time>2009-06-21T09:19:13Z</time>
      </trkpt>
      <trkpt lat="44.44076" lon="1.15003">
        <ele>197.567017</ele>
        <time>2009-06-21T09:19:16Z</time>
      </trkpt>
      <trkpt lat="44.44065" lon="1.14997">
        <ele>196.497375</ele>
        <time>2009-06-21T09:19:20Z</time>
      </trkpt>
      <trkpt lat="44.44049" lon="1.14989">
        <ele>193.79187</ele>
        <time>2009-06-21T09:19:24Z</time>
      </trkpt>
      <trkpt lat="44.4403" lon="1.14975">
        <ele>191.460861</ele>
        <time>2009-06-21T09:19:27Z</time>
      </trkpt>
      <trkpt lat="44.44015" lon="1.14972">
        <ele>189.293625</ele>
        <time>2009-06-21T09:19:31Z</time>
      </trkpt>
      <trkpt lat="44.44004" lon="1.14969">
        <ele>187.117935</ele>
        <time>2009-06-21T09:19:34Z</time>
      </trkpt>
      <trkpt lat="44.43989" lon="1.14969">
        <ele>184.921188</ele>
        <time>2009-06-21T09:19:37Z</time>
      </trkpt>
      <trkpt lat="44.43983" lon="1.14978">
        <ele>183.154663</ele>
        <time>2009-06-21T09:19:40Z</time>
      </trkpt>
      <trkpt lat="44.43982" lon="1.14991">
        <ele>180.687592</ele>
        <time>2009-06-21T09:19:43Z</time>
      </trkpt>
      <trkpt lat="44.4398" lon="1.15001">
        <ele>178.301498</ele>
        <time>2009-06-21T09:19:52Z</time>
      </trkpt>
      <trkpt lat="44.43988" lon="1.15007">
        <ele>178.663345</ele>
        <time>2009-06-21T09:19:57Z</time>
      </trkpt>
      <trkpt lat="44.44001" lon="1.15021">
        <ele>178.561996</ele>
        <time>2009-06-21T09:20:00Z</time>
      </trkpt>
      <trkpt lat="44.44013" lon="1.15036">
        <ele>178.128006</ele>
        <time>2009-06-21T09:20:03Z</time>
      </trkpt>
      <trkpt lat="44.44032" lon="1.15061">
        <ele>176.038956</ele>
        <time>2009-06-21T09:20:07Z</time>
      </trkpt>
      <trkpt lat="44.44049" lon="1.15075">
        <ele>175.906555</ele>
        <time>2009-06-21T09:20:10Z</time>
      </trkpt>
      <trkpt lat="44.44063" lon="1.15089">
        <ele>174.615128</ele>
        <time>2009-06-21T09:20:13Z</time>
      </trkpt>
      <trkpt lat="44.44075" lon="1.15105">
        <ele>174.751755</ele>
        <time>2009-06-21T09:20:16Z</time>
      </trkpt>
      <trkpt lat="44.44085" lon="1.15119">
        <ele>175.59491</ele>
        <time>2009-06-21T09:20:19Z</time>
      </trkpt>
      <trkpt lat="44.44092" lon="1.15132">
        <ele>175.188812</ele>
        <time>2009-06-21T09:20:22Z</time>
      </trkpt>
      <trkpt lat="44.44098" lon="1.15144">
        <ele>174.457565</ele>
        <time>2009-06-21T09:20:25Z</time>
      </trkpt>
      <trkpt lat="44.44105" lon="1.15152">
        <ele>174.522568</ele>
        <time>2009-06-21T09:20:29Z</time>
      </trkpt>
      <trkpt lat="44.4411" lon="1.15163">
        <ele>173.795807</ele>
        <time>2009-06-21T09:20:32Z</time>
      </trkpt>
      <trkpt lat="44.44105" lon="1.15176">
        <ele>171.244019</ele>
        <time>2009-06-21T09:20:36Z</time>
      </trkpt>
      <trkpt lat="44.441" lon="1.15193">
        <ele>168.703461</ele>
        <time>2009-06-21T09:20:40Z</time>
      </trkpt>
      <trkpt lat="44.44095" lon="1.15204">
        <ele>167.069977</ele>
        <time>2009-06-21T09:20:43Z</time>
      </trkpt>
      <trkpt lat="44.44086" lon="1.15201">
        <ele>166.124146</ele>
        <time>2009-06-21T09:20:46Z</time>
      </trkpt>
      <trkpt lat="44.44068" lon="1.15183">
        <ele>163.550583</ele>
        <time>2009-06-21T09:20:49Z</time>
      </trkpt>
      <trkpt lat="44.44045" lon="1.1516">
        <ele>161.521255</ele>
        <time>2009-06-21T09:20:54Z</time>
      </trkpt>
      <trkpt lat="44.44025" lon="1.15145">
        <ele>161.276321</ele>
        <time>2009-06-21T09:20:57Z</time>
      </trkpt>
      <trkpt lat="44.44002" lon="1.15131">
        <ele>160.835876</ele>
        <time>2009-06-21T09:21:00Z</time>
      </trkpt>
      <trkpt lat="44.43981" lon="1.1512">
        <ele>159.667206</ele>
        <time>2009-06-21T09:21:03Z</time>
      </trkpt>
      <trkpt lat="44.43963" lon="1.15118">
        <ele>158.888535</ele>
        <time>2009-06-21T09:21:07Z</time>
      </trkpt>
      <trkpt lat="44.43943" lon="1.1513">
        <ele>158.734375</ele>
        <time>2009-06-21T09:21:11Z</time>
      </trkpt>
      <trkpt lat="44.43933" lon="1.15139">
        <ele>158.921387</ele>
        <time>2009-06-21T09:21:14Z</time>
      </trkpt>
      <trkpt lat="44.43927" lon="1.15151">
        <ele>159.146362</ele>
        <time>2009-06-21T09:21:17Z</time>
      </trkpt>
      <trkpt lat="44.43925" lon="1.15165">
        <ele>159.580627</ele>
        <time>2009-06-21T09:21:21Z</time>
      </trkpt>
      <trkpt lat="44.43925" lon="1.15177">
        <ele>159.78688</ele>
        <time>2009-06-21T09:21:24Z</time>
      </trkpt>
      <trkpt lat="44.43927" lon="1.15189">
        <ele>160.082504</ele>
        <time>2009-06-21T09:21:27Z</time>
      </trkpt>
      <trkpt lat="44.43928" lon="1.15208">
        <ele>160.460632</ele>
        <time>2009-06-21T09:21:30Z</time>
      </trkpt>
      <trkpt lat="44.4393" lon="1.15222">
        <ele>160.768127</ele>
        <time>2009-06-21T09:21:33Z</time>
      </trkpt>
      <trkpt lat="44.4393" lon="1.15236">
        <ele>160.793427</ele>
        <time>2009-06-21T09:21:36Z</time>
      </trkpt>
      <trkpt lat="44.43929" lon="1.15246">
        <ele>160.699341</ele>
        <time>2009-06-21T09:21:39Z</time>
      </trkpt>
      <trkpt lat="44.43923" lon="1.1526">
        <ele>160.180908</ele>
        <time>2009-06-21T09:21:43Z</time>
      </trkpt>
      <trkpt lat="44.43908" lon="1.15265">
        <ele>158.997314</ele>
        <time>2009-06-21T09:21:46Z</time>
      </trkpt>
      <trkpt lat="44.43885" lon="1.15256">
        <ele>157.444595</ele>
        <time>2009-06-21T09:21:50Z</time>
      </trkpt>
      <trkpt lat="44.43873" lon="1.15249">
        <ele>157.221817</ele>
        <time>2009-06-21T09:21:53Z</time>
      </trkpt>
      <trkpt lat="44.43862" lon="1.15243">
        <ele>156.880066</ele>
        <time>2009-06-21T09:21:57Z</time>
      </trkpt>
      <trkpt lat="44.43853" lon="1.15239">
        <ele>156.552002</ele>
        <time>2009-06-21T09:22:00Z</time>
      </trkpt>
      <trkpt lat="44.43844" lon="1.15238">
        <ele>156.228119</ele>
        <time>2009-06-21T09:22:03Z</time>
      </trkpt>
      <trkpt lat="44.43836" lon="1.15243">
        <ele>157.212494</ele>
        <time>2009-06-21T09:22:06Z</time>
      </trkpt>
      <trkpt lat="44.43828" lon="1.15245">
        <ele>158.340012</ele>
        <time>2009-06-21T09:22:09Z</time>
      </trkpt>
      <trkpt lat="44.43819" lon="1.15246">
        <ele>159.621338</ele>
        <time>2009-06-21T09:22:12Z</time>
      </trkpt>
      <trkpt lat="44.43813" lon="1.1524">
        <ele>160.292038</ele>
        <time>2009-06-21T09:22:15Z</time>
      </trkpt>
      <trkpt lat="44.43808" lon="1.15234">
        <ele>160.802734</ele>
        <time>2009-06-21T09:22:19Z</time>
      </trkpt>
      <trkpt lat="44.43807" lon="1.15219">
        <ele>160.537506</ele>
        <time>2009-06-21T09:22:22Z</time>
      </trkpt>
      <trkpt lat="44.43803" lon="1.152">
        <ele>160.335007</ele>
        <time>2009-06-21T09:22:25Z</time>
      </trkpt>
      <trkpt lat="44.43797" lon="1.15174">
        <ele>160.307495</ele>
        <time>2009-06-21T09:22:28Z</time>
      </trkpt>
      <trkpt lat="44.43785" lon="1.15149">
        <ele>159.306244</ele>
        <time>2009-06-21T09:22:31Z</time>
      </trkpt>
      <trkpt lat="44.43757" lon="1.15119">
        <ele>158.031876</ele>
        <time>2009-06-21T09:22:35Z</time>
      </trkpt>
      <trkpt lat="44.43743" lon="1.15083">
        <ele>156.796204</ele>
        <time>2009-06-21T09:22:38Z</time>
      </trkpt>
      <trkpt lat="44.43732" lon="1.15047">
        <ele>156.663361</ele>
        <time>2009-06-21T09:22:41Z</time>
      </trkpt>
      <trkpt lat="44.4372" lon="1.15014">
        <ele>156.233627</ele>
        <time>2009-06-21T09:22:44Z</time>
      </trkpt>
      <trkpt lat="44.43704" lon="1.14981">
        <ele>155.278397</ele>
        <time>2009-06-21T09:22:47Z</time>
      </trkpt>
      <trkpt lat="44.43689" lon="1.14949">
        <ele>154.677887</ele>
        <time>2009-06-21T09:22:50Z</time>
      </trkpt>
      <trkpt lat="44.43679" lon="1.14916">
        <ele>153.853745</ele>
        <time>2009-06-21T09:22:53Z</time>
      </trkpt>
      <trkpt lat="44.43673" lon="1.14882">
        <ele>153.391251</ele>
        <time>2009-06-21T09:22:56Z</time>
      </trkpt>
      <trkpt lat="44.43668" lon="1.14851">
        <ele>152.853745</ele>
        <time>2009-06-21T09:22:59Z</time>
      </trkpt>
      <trkpt lat="44.43663" lon="1.14822">
        <ele>151.999374</ele>
        <time>2009-06-21T09:23:02Z</time>
      </trkpt>
      <trkpt lat="44.43658" lon="1.14795">
        <ele>151.193756</ele>
        <time>2009-06-21T09:23:05Z</time>
      </trkpt>
      <trkpt lat="44.43655" lon="1.1477">
        <ele>150.482925</ele>
        <time>2009-06-21T09:23:08Z</time>
      </trkpt>
      <trkpt lat="44.43652" lon="1.14745">
        <ele>149.613998</ele>
        <time>2009-06-21T09:23:11Z</time>
      </trkpt>
      <trkpt lat="44.43651" lon="1.1472">
        <ele>148.939438</ele>
        <time>2009-06-21T09:23:14Z</time>
      </trkpt>
      <trkpt lat="44.4365" lon="1.14696">
        <ele>148.764343</ele>
        <time>2009-06-21T09:23:17Z</time>
      </trkpt>
      <trkpt lat="44.43651" lon="1.14671">
        <ele>148.379608</ele>
        <time>2009-06-21T09:23:20Z</time>
      </trkpt>
      <trkpt lat="44.43651" lon="1.14646">
        <ele>147.593552</ele>
        <time>2009-06-21T09:23:23Z</time>
      </trkpt>
      <trkpt lat="44.43651" lon="1.14622">
        <ele>146.341599</ele>
        <time>2009-06-21T09:23:26Z</time>
      </trkpt>
      <trkpt lat="44.43651" lon="1.14596">
        <ele>145.657242</ele>
        <time>2009-06-21T09:23:29Z</time>
      </trkpt>
      <trkpt lat="44.43652" lon="1.1457">
        <ele>145.645294</ele>
        <time>2009-06-21T09:23:32Z</time>
      </trkpt>
      <trkpt lat="44.43653" lon="1.14544">
        <ele>145.795746</ele>
        <time>2009-06-21T09:23:35Z</time>
      </trkpt>
      <trkpt lat="44.43653" lon="1.14518">
        <ele>146.118301</ele>
        <time>2009-06-21T09:23:38Z</time>
      </trkpt>
      <trkpt lat="44.43652" lon="1.14493">
        <ele>146.582275</ele>
        <time>2009-06-21T09:23:41Z</time>
      </trkpt>
      <trkpt lat="44.43649" lon="1.14467">
        <ele>146.379944</ele>
        <time>2009-06-21T09:23:44Z</time>
      </trkpt>
      <trkpt lat="44.43644" lon="1.14439">
        <ele>144.170563</ele>
        <time>2009-06-21T09:23:47Z</time>
      </trkpt>
      <trkpt lat="44.43638" lon="1.14414">
        <ele>141.942749</ele>
        <time>2009-06-21T09:23:50Z</time>
      </trkpt>
      <trkpt lat="44.43627" lon="1.14394">
        <ele>140.72406</ele>
        <time>2009-06-21T09:23:53Z</time>
      </trkpt>
      <trkpt lat="44.43607" lon="1.14379">
        <ele>140.34877</ele>
        <time>2009-06-21T09:23:56Z</time>
      </trkpt>
      <trkpt lat="44.4359" lon="1.14363">
        <ele>138.78363</ele>
        <time>2009-06-21T09:23:59Z</time>
      </trkpt>
      <trkpt lat="44.43595" lon="1.14325">
        <ele>137.17778</ele>
        <time>2009-06-21T09:24:03Z</time>
      </trkpt>
      <trkpt lat="44.43615" lon="1.14303">
        <ele>136.47937</ele>
        <time>2009-06-21T09:24:06Z</time>
      </trkpt>
      <trkpt lat="44.4363" lon="1.14271">
        <ele>136.575806</ele>
        <time>2009-06-21T09:24:10Z</time>
      </trkpt>
      <trkpt lat="44.4363" lon="1.14238">
        <ele>137.624664</ele>
        <time>2009-06-21T09:24:14Z</time>
      </trkpt>
      <trkpt lat="44.43629" lon="1.14213">
        <ele>137.918259</ele>
        <time>2009-06-21T09:24:17Z</time>
      </trkpt>
      <trkpt lat="44.43629" lon="1.1419">
        <ele>137.740036</ele>
        <time>2009-06-21T09:24:20Z</time>
      </trkpt>
      <trkpt lat="44.43627" lon="1.14169">
        <ele>137.762543</ele>
        <time>2009-06-21T09:24:23Z</time>
      </trkpt>
      <trkpt lat="44.43625" lon="1.14148">
        <ele>137.523758</ele>
        <time>2009-06-21T09:24:26Z</time>
      </trkpt>
      <trkpt lat="44.43623" lon="1.14127">
        <ele>137.152039</ele>
        <time>2009-06-21T09:24:29Z</time>
      </trkpt>
      <trkpt lat="44.43621" lon="1.14105">
        <ele>136.702759</ele>
        <time>2009-06-21T09:24:32Z</time>
      </trkpt>
      <trkpt lat="44.43621" lon="1.14084">
        <ele>136.915009</ele>
        <time>2009-06-21T09:24:35Z</time>
      </trkpt>
      <trkpt lat="44.4362" lon="1.14066">
        <ele>137.238754</ele>
        <time>2009-06-21T09:24:38Z</time>
      </trkpt>
      <trkpt lat="44.43622" lon="1.14044">
        <ele>137.433746</ele>
        <time>2009-06-21T09:24:42Z</time>
      </trkpt>
      <trkpt lat="44.43623" lon="1.1403">
        <ele>138.473495</ele>
        <time>2009-06-21T09:24:45Z</time>
      </trkpt>
      <trkpt lat="44.43624" lon="1.14016">
        <ele>140.006851</ele>
        <time>2009-06-21T09:24:48Z</time>
      </trkpt>
      <trkpt lat="44.43623" lon="1.14008">
        <ele>140.990219</ele>
        <time>2009-06-21T09:24:54Z</time>
      </trkpt>
      <trkpt lat="44.43622" lon="1.14004">
        <ele>141.642471</ele>
        <time>2009-06-21T09:24:57Z</time>
      </trkpt>
      <trkpt lat="44.43623" lon="1.13999">
        <ele>142.134369</ele>
        <time>2009-06-21T09:25:01Z</time>
      </trkpt>
      <trkpt lat="44.43624" lon="1.13994">
        <ele>142.506897</ele>
        <time>2009-06-21T09:25:05Z</time>
      </trkpt>
      <trkpt lat="44.43625" lon="1.13993">
        <ele>142.386368</ele>
        <time>2009-06-21T09:25:10Z</time>
      </trkpt>
      <trkpt lat="44.43627" lon="1.13995">
        <ele>141.902969</ele>
        <time>2009-06-21T09:25:16Z</time>
      </trkpt>
      <trkpt lat="44.43629" lon="1.1399">
        <ele>142.057373</ele>
        <time>2009-06-21T09:25:20Z</time>
      </trkpt>
      <trkpt lat="44.43629" lon="1.13985">
        <ele>142.56488</ele>
        <time>2009-06-21T09:25:24Z</time>
      </trkpt>
      <trkpt lat="44.43631" lon="1.13981">
        <ele>142.642395</ele>
        <time>2009-06-21T09:25:28Z</time>
      </trkpt>
      <trkpt lat="44.4363" lon="1.13975">
        <ele>143.432037</ele>
        <time>2009-06-21T09:25:32Z</time>
      </trkpt>
      <trkpt lat="44.4363" lon="1.1397">
        <ele>144.42157</ele>
        <time>2009-06-21T09:25:37Z</time>
      </trkpt>
      <trkpt lat="44.4363" lon="1.13966">
        <ele>145.139908</ele>
        <time>2009-06-21T09:25:40Z</time>
      </trkpt>
      <trkpt lat="44.4363" lon="1.13959">
        <ele>146.2948</ele>
        <time>2009-06-21T09:25:44Z</time>
      </trkpt>
      <trkpt lat="44.4363" lon="1.13954">
        <ele>147.180923</ele>
        <time>2009-06-21T09:25:49Z</time>
      </trkpt>
      <trkpt lat="44.43632" lon="1.1395">
        <ele>147.562958</ele>
        <time>2009-06-21T09:25:54Z</time>
      </trkpt>
      <trkpt lat="44.43634" lon="1.13944">
        <ele>148.052917</ele>
        <time>2009-06-21T09:25:58Z</time>
      </trkpt>
      <trkpt lat="44.43636" lon="1.13938">
        <ele>148.762299</ele>
        <time>2009-06-21T09:26:03Z</time>
      </trkpt>
      <trkpt lat="44.43636" lon="1.13934">
        <ele>149.315292</ele>
        <time>2009-06-21T09:26:08Z</time>
      </trkpt>
      <trkpt lat="44.43637" lon="1.13931">
        <ele>149.676315</ele>
        <time>2009-06-21T09:26:11Z</time>
      </trkpt>
      <trkpt lat="44.43638" lon="1.13927">
        <ele>150.093369</ele>
        <time>2009-06-21T09:26:18Z</time>
      </trkpt>
      <trkpt lat="44.4364" lon="1.13922">
        <ele>150.56813</ele>
        <time>2009-06-21T09:26:23Z</time>
      </trkpt>
      <trkpt lat="44.43642" lon="1.13918">
        <ele>150.687714</ele>
        <time>2009-06-21T09:26:28Z</time>
      </trkpt>
      <trkpt lat="44.43646" lon="1.13913">
        <ele>150.556473</ele>
        <time>2009-06-21T09:26:33Z</time>
      </trkpt>
      <trkpt lat="44.43649" lon="1.13907">
        <ele>150.429977</ele>
        <time>2009-06-21T09:26:37Z</time>
      </trkpt>
      <trkpt lat="44.43652" lon="1.13904">
        <ele>150.233124</ele>
        <time>2009-06-21T09:26:42Z</time>
      </trkpt>
      <trkpt lat="44.43653" lon="1.13899">
        <ele>150.646713</ele>
        <time>2009-06-21T09:26:46Z</time>
      </trkpt>
      <trkpt lat="44.43653" lon="1.13895">
        <ele>151.091293</ele>
        <time>2009-06-21T09:26:51Z</time>
      </trkpt>
      <trkpt lat="44.43654" lon="1.13891">
        <ele>151.266129</ele>
        <time>2009-06-21T09:26:54Z</time>
      </trkpt>
      <trkpt lat="44.43654" lon="1.13887">
        <ele>151.705048</ele>
        <time>2009-06-21T09:26:59Z</time>
      </trkpt>
      <trkpt lat="44.43655" lon="1.13883">
        <ele>151.867432</ele>
        <time>2009-06-21T09:27:02Z</time>
      </trkpt>
      <trkpt lat="44.43657" lon="1.13878">
        <ele>152.032166</ele>
        <time>2009-06-21T09:27:06Z</time>
      </trkpt>
      <trkpt lat="44.43658" lon="1.13871">
        <ele>152.615784</ele>
        <time>2009-06-21T09:27:09Z</time>
      </trkpt>
      <trkpt lat="44.43656" lon="1.13866">
        <ele>153.626831</ele>
        <time>2009-06-21T09:27:13Z</time>
      </trkpt>
      <trkpt lat="44.43655" lon="1.13857">
        <ele>154.905746</ele>
        <time>2009-06-21T09:27:16Z</time>
      </trkpt>
      <trkpt lat="44.43654" lon="1.13849">
        <ele>156.015472</ele>
        <time>2009-06-21T09:27:19Z</time>
      </trkpt>
      <trkpt lat="44.43654" lon="1.13841">
        <ele>156.201431</ele>
        <time>2009-06-21T09:27:22Z</time>
      </trkpt>
      <trkpt lat="44.43653" lon="1.13835">
        <ele>156.550385</ele>
        <time>2009-06-21T09:27:25Z</time>
      </trkpt>
      <trkpt lat="44.43652" lon="1.13826">
        <ele>157.094772</ele>
        <time>2009-06-21T09:27:28Z</time>
      </trkpt>
      <trkpt lat="44.43653" lon="1.13812">
        <ele>157.383835</ele>
        <time>2009-06-21T09:27:32Z</time>
      </trkpt>
      <trkpt lat="44.43652" lon="1.13801">
        <ele>157.97113</ele>
        <time>2009-06-21T09:27:35Z</time>
      </trkpt>
      <trkpt lat="44.4365" lon="1.13788">
        <ele>158.578522</ele>
        <time>2009-06-21T09:27:39Z</time>
      </trkpt>
      <trkpt lat="44.43649" lon="1.13771">
        <ele>159.277496</ele>
        <time>2009-06-21T09:27:43Z</time>
      </trkpt>
      <trkpt lat="44.43648" lon="1.13761">
        <ele>159.701248</ele>
        <time>2009-06-21T09:27:46Z</time>
      </trkpt>
      <trkpt lat="44.43647" lon="1.13751">
        <ele>160.147507</ele>
        <time>2009-06-21T09:27:50Z</time>
      </trkpt>
      <trkpt lat="44.43646" lon="1.13742">
        <ele>160.486191</ele>
        <time>2009-06-21T09:27:53Z</time>
      </trkpt>
      <trkpt lat="44.43646" lon="1.13732">
        <ele>160.847198</ele>
        <time>2009-06-21T09:27:56Z</time>
      </trkpt>
      <trkpt lat="44.43643" lon="1.1372">
        <ele>160.846451</ele>
        <time>2009-06-21T09:28:01Z</time>
      </trkpt>
      <trkpt lat="44.43643" lon="1.13698">
        <ele>158.708389</ele>
        <time>2009-06-21T09:28:04Z</time>
      </trkpt>
      <trkpt lat="44.43641" lon="1.13679">
        <ele>156.902222</ele>
        <time>2009-06-21T09:28:07Z</time>
      </trkpt>
      <trkpt lat="44.43634" lon="1.13647">
        <ele>153.158203</ele>
        <time>2009-06-21T09:28:10Z</time>
      </trkpt>
      <trkpt lat="44.43625" lon="1.13617">
        <ele>148.457489</ele>
        <time>2009-06-21T09:28:13Z</time>
      </trkpt>
      <trkpt lat="44.43623" lon="1.13595">
        <ele>144.885742</ele>
        <time>2009-06-21T09:28:16Z</time>
      </trkpt>
      <trkpt lat="44.43622" lon="1.13602">
        <ele>146.018356</ele>
        <time>2009-06-21T09:28:20Z</time>
      </trkpt>
      <trkpt lat="44.43618" lon="1.13609">
        <ele>147.19487</ele>
        <time>2009-06-21T09:28:23Z</time>
      </trkpt>
      <trkpt lat="44.43611" lon="1.13612">
        <ele>147.902283</ele>
        <time>2009-06-21T09:28:27Z</time>
      </trkpt>
      <trkpt lat="44.43606" lon="1.13619">
        <ele>149.252548</ele>
        <time>2009-06-21T09:28:32Z</time>
      </trkpt>
      <trkpt lat="44.43601" lon="1.13622">
        <ele>149.92926</ele>
        <time>2009-06-21T09:28:35Z</time>
      </trkpt>
      <trkpt lat="44.43598" lon="1.13625">
        <ele>150.313828</ele>
        <time>2009-06-21T09:28:39Z</time>
      </trkpt>
      <trkpt lat="44.43593" lon="1.13626">
        <ele>150.579407</ele>
        <time>2009-06-21T09:28:42Z</time>
      </trkpt>
      <trkpt lat="44.43589" lon="1.13631">
        <ele>151.380005</ele>
        <time>2009-06-21T09:28:45Z</time>
      </trkpt>
      <trkpt lat="44.43584" lon="1.13632">
        <ele>151.55455</ele>
        <time>2009-06-21T09:28:49Z</time>
      </trkpt>
      <trkpt lat="44.43577" lon="1.13636">
        <ele>152.316879</ele>
        <time>2009-06-21T09:28:52Z</time>
      </trkpt>
      <trkpt lat="44.43572" lon="1.13637">
        <ele>152.644119</ele>
        <time>2009-06-21T09:28:55Z</time>
      </trkpt>
      <trkpt lat="44.43566" lon="1.1364">
        <ele>153.335281</ele>
        <time>2009-06-21T09:28:58Z</time>
      </trkpt>
      <trkpt lat="44.4356" lon="1.13643">
        <ele>154.142548</ele>
        <time>2009-06-21T09:29:02Z</time>
      </trkpt>
      <trkpt lat="44.43553" lon="1.13647">
        <ele>154.824402</ele>
        <time>2009-06-21T09:29:06Z</time>
      </trkpt>
      <trkpt lat="44.43543" lon="1.1365">
        <ele>154.407104</ele>
        <time>2009-06-21T09:29:10Z</time>
      </trkpt>
      <trkpt lat="44.43533" lon="1.13655">
        <ele>154.418121</ele>
        <time>2009-06-21T09:29:14Z</time>
      </trkpt>
      <trkpt lat="44.43526" lon="1.1366">
        <ele>154.74881</ele>
        <time>2009-06-21T09:29:17Z</time>
      </trkpt>
      <trkpt lat="44.4352" lon="1.13666">
        <ele>155.249451</ele>
        <time>2009-06-21T09:29:21Z</time>
      </trkpt>
      <trkpt lat="44.43514" lon="1.13676">
        <ele>155.977036</ele>
        <time>2009-06-21T09:29:24Z</time>
      </trkpt>
      <trkpt lat="44.43511" lon="1.13686">
        <ele>157.049713</ele>
        <time>2009-06-21T09:29:28Z</time>
      </trkpt>
      <trkpt lat="44.43508" lon="1.13695">
        <ele>157.853394</ele>
        <time>2009-06-21T09:29:31Z</time>
      </trkpt>
      <trkpt lat="44.43505" lon="1.13704">
        <ele>158.805359</ele>
        <time>2009-06-21T09:29:34Z</time>
      </trkpt>
      <trkpt lat="44.43502" lon="1.13713">
        <ele>159.847656</ele>
        <time>2009-06-21T09:29:37Z</time>
      </trkpt>
      <trkpt lat="44.43499" lon="1.13722">
        <ele>160.963699</ele>
        <time>2009-06-21T09:29:40Z</time>
      </trkpt>
      <trkpt lat="44.43496" lon="1.13731">
        <ele>162.037262</ele>
        <time>2009-06-21T09:29:43Z</time>
      </trkpt>
      <trkpt lat="44.43494" lon="1.13739">
        <ele>162.835007</ele>
        <time>2009-06-21T09:29:46Z</time>
      </trkpt>
      <trkpt lat="44.43492" lon="1.13749">
        <ele>164.036026</ele>
        <time>2009-06-21T09:29:50Z</time>
      </trkpt>
      <trkpt lat="44.43489" lon="1.13756">
        <ele>164.730515</ele>
        <time>2009-06-21T09:29:53Z</time>
      </trkpt>
      <trkpt lat="44.43487" lon="1.13761">
        <ele>165.414658</ele>
        <time>2009-06-21T09:29:56Z</time>
      </trkpt>
      <trkpt lat="44.43485" lon="1.13768">
        <ele>166.232941</ele>
        <time>2009-06-21T09:29:59Z</time>
      </trkpt>
      <trkpt lat="44.43483" lon="1.13774">
        <ele>166.94603</ele>
        <time>2009-06-21T09:30:02Z</time>
      </trkpt>
      <trkpt lat="44.43482" lon="1.13781">
        <ele>167.915131</ele>
        <time>2009-06-21T09:30:06Z</time>
      </trkpt>
      <trkpt lat="44.43481" lon="1.13787">
        <ele>168.765579</ele>
        <time>2009-06-21T09:30:09Z</time>
      </trkpt>
      <trkpt lat="44.43481" lon="1.13793">
        <ele>169.49379</ele>
        <time>2009-06-21T09:30:12Z</time>
      </trkpt>
      <trkpt lat="44.43481" lon="1.13799">
        <ele>170.00737</ele>
        <time>2009-06-21T09:30:15Z</time>
      </trkpt>
      <trkpt lat="44.4348" lon="1.13805">
        <ele>170.483673</ele>
        <time>2009-06-21T09:30:18Z</time>
      </trkpt>
      <trkpt lat="44.4348" lon="1.13811">
        <ele>170.917831</ele>
        <time>2009-06-21T09:30:21Z</time>
      </trkpt>
      <trkpt lat="44.4348" lon="1.13818">
        <ele>171.521912</ele>
        <time>2009-06-21T09:30:25Z</time>
      </trkpt>
      <trkpt lat="44.4348" lon="1.13823">
        <ele>171.972992</ele>
        <time>2009-06-21T09:30:29Z</time>
      </trkpt>
      <trkpt lat="44.43478" lon="1.13831">
        <ele>172.628632</ele>
        <time>2009-06-21T09:30:32Z</time>
      </trkpt>
      <trkpt lat="44.43478" lon="1.13838">
        <ele>173.235886</ele>
        <time>2009-06-21T09:30:36Z</time>
      </trkpt>
      <trkpt lat="44.43478" lon="1.13844">
        <ele>173.750702</ele>
        <time>2009-06-21T09:30:39Z</time>
      </trkpt>
      <trkpt lat="44.43479" lon="1.1385">
        <ele>174.228851</ele>
        <time>2009-06-21T09:30:42Z</time>
      </trkpt>
      <trkpt lat="44.43478" lon="1.13855">
        <ele>174.532791</ele>
        <time>2009-06-21T09:30:45Z</time>
      </trkpt>
      <trkpt lat="44.43478" lon="1.13861">
        <ele>174.421219</ele>
        <time>2009-06-21T09:30:48Z</time>
      </trkpt>
      <trkpt lat="44.43479" lon="1.13868">
        <ele>174.247101</ele>
        <time>2009-06-21T09:30:52Z</time>
      </trkpt>
      <trkpt lat="44.43479" lon="1.13877">
        <ele>174.050613</ele>
        <time>2009-06-21T09:30:56Z</time>
      </trkpt>
      <trkpt lat="44.43479" lon="1.13882">
        <ele>173.964264</ele>
        <time>2009-06-21T09:30:59Z</time>
      </trkpt>
      <trkpt lat="44.43479" lon="1.13887">
        <ele>173.884262</ele>
        <time>2009-06-21T09:31:02Z</time>
      </trkpt>
      <trkpt lat="44.43478" lon="1.13892">
        <ele>173.815033</ele>
        <time>2009-06-21T09:31:05Z</time>
      </trkpt>
      <trkpt lat="44.43477" lon="1.13897">
        <ele>173.81012</ele>
        <time>2009-06-21T09:31:08Z</time>
      </trkpt>
      <trkpt lat="44.43476" lon="1.13903">
        <ele>173.754745</ele>
        <time>2009-06-21T09:31:13Z</time>
      </trkpt>
      <trkpt lat="44.43475" lon="1.1391">
        <ele>173.707077</ele>
        <time>2009-06-21T09:31:16Z</time>
      </trkpt>
      <trkpt lat="44.43473" lon="1.13915">
        <ele>173.745117</ele>
        <time>2009-06-21T09:31:20Z</time>
      </trkpt>
      <trkpt lat="44.43469" lon="1.13918">
        <ele>173.858887</ele>
        <time>2009-06-21T09:31:23Z</time>
      </trkpt>
      <trkpt lat="44.43464" lon="1.13921">
        <ele>174.001083</ele>
        <time>2009-06-21T09:31:26Z</time>
      </trkpt>
      <trkpt lat="44.43457" lon="1.13925">
        <ele>174.317612</ele>
        <time>2009-06-21T09:31:30Z</time>
      </trkpt>
      <trkpt lat="44.43452" lon="1.13928">
        <ele>174.550552</ele>
        <time>2009-06-21T09:31:33Z</time>
      </trkpt>
      <trkpt lat="44.43447" lon="1.1393">
        <ele>174.761169</ele>
        <time>2009-06-21T09:31:36Z</time>
      </trkpt>
      <trkpt lat="44.43442" lon="1.13934">
        <ele>174.947678</ele>
        <time>2009-06-21T09:31:39Z</time>
      </trkpt>
      <trkpt lat="44.43438" lon="1.13937">
        <ele>175.118042</ele>
        <time>2009-06-21T09:31:42Z</time>
      </trkpt>
      <trkpt lat="44.43433" lon="1.1394">
        <ele>175.292038</ele>
        <time>2009-06-21T09:31:45Z</time>
      </trkpt>
      <trkpt lat="44.43429" lon="1.13942">
        <ele>175.560333</ele>
        <time>2009-06-21T09:31:49Z</time>
      </trkpt>
      <trkpt lat="44.43424" lon="1.13944">
        <ele>175.865494</ele>
        <time>2009-06-21T09:31:52Z</time>
      </trkpt>
      <trkpt lat="44.43418" lon="1.13946">
        <ele>176.186798</ele>
        <time>2009-06-21T09:31:55Z</time>
      </trkpt>
      <trkpt lat="44.43413" lon="1.13948">
        <ele>176.567352</ele>
        <time>2009-06-21T09:31:58Z</time>
      </trkpt>
      <trkpt lat="44.43408" lon="1.13949">
        <ele>176.960007</ele>
        <time>2009-06-21T09:32:01Z</time>
      </trkpt>
      <trkpt lat="44.43402" lon="1.13952">
        <ele>177.377121</ele>
        <time>2009-06-21T09:32:04Z</time>
      </trkpt>
      <trkpt lat="44.43395" lon="1.13954">
        <ele>177.904556</ele>
        <time>2009-06-21T09:32:07Z</time>
      </trkpt>
      <trkpt lat="44.43389" lon="1.13956">
        <ele>178.446503</ele>
        <time>2009-06-21T09:32:10Z</time>
      </trkpt>
      <trkpt lat="44.43383" lon="1.13959">
        <ele>179.011658</ele>
        <time>2009-06-21T09:32:13Z</time>
      </trkpt>
      <trkpt lat="44.43377" lon="1.13964">
        <ele>179.394043</ele>
        <time>2009-06-21T09:32:16Z</time>
      </trkpt>
      <trkpt lat="44.43371" lon="1.13969">
        <ele>179.733948</ele>
        <time>2009-06-21T09:32:19Z</time>
      </trkpt>
      <trkpt lat="44.43363" lon="1.13975">
        <ele>180.142365</ele>
        <time>2009-06-21T09:32:22Z</time>
      </trkpt>
      <trkpt lat="44.43356" lon="1.13978">
        <ele>180.61026</ele>
        <time>2009-06-21T09:32:25Z</time>
      </trkpt>
      <trkpt lat="44.43349" lon="1.13982">
        <ele>180.975906</ele>
        <time>2009-06-21T09:32:28Z</time>
      </trkpt>
      <trkpt lat="44.43345" lon="1.13984">
        <ele>181.07872</ele>
        <time>2009-06-21T09:32:33Z</time>
      </trkpt>
      <trkpt lat="44.43343" lon="1.13983">
        <ele>181.364227</ele>
        <time>2009-06-21T09:32:39Z</time>
      </trkpt>
      <trkpt lat="44.4334" lon="1.13983">
        <ele>181.511108</ele>
        <time>2009-06-21T09:32:45Z</time>
      </trkpt>
      <trkpt lat="44.43338" lon="1.13982">
        <ele>181.747787</ele>
        <time>2009-06-21T09:32:49Z</time>
      </trkpt>
      <trkpt lat="44.43333" lon="1.13985">
        <ele>181.861252</ele>
        <time>2009-06-21T09:32:53Z</time>
      </trkpt>
      <trkpt lat="44.43325" lon="1.13989">
        <ele>182.048752</ele>
        <time>2009-06-21T09:32:57Z</time>
      </trkpt>
      <trkpt lat="44.43318" lon="1.1399">
        <ele>182.322495</ele>
        <time>2009-06-21T09:33:00Z</time>
      </trkpt>
      <trkpt lat="44.4331" lon="1.13993">
        <ele>182.600006</ele>
        <time>2009-06-21T09:33:04Z</time>
      </trkpt>
      <trkpt lat="44.43304" lon="1.13994">
        <ele>182.960007</ele>
        <time>2009-06-21T09:33:07Z</time>
      </trkpt>
      <trkpt lat="44.43294" lon="1.13993">
        <ele>183.743744</ele>
        <time>2009-06-21T09:33:11Z</time>
      </trkpt>
      <trkpt lat="44.43285" lon="1.13993">
        <ele>184.426712</ele>
        <time>2009-06-21T09:33:15Z</time>
      </trkpt>
      <trkpt lat="44.43279" lon="1.13993">
        <ele>184.948547</ele>
        <time>2009-06-21T09:33:18Z</time>
      </trkpt>
      <trkpt lat="44.43272" lon="1.13994">
        <ele>185.390823</ele>
        <time>2009-06-21T09:33:21Z</time>
      </trkpt>
      <trkpt lat="44.43266" lon="1.13994">
        <ele>185.794098</ele>
        <time>2009-06-21T09:33:24Z</time>
      </trkpt>
      <trkpt lat="44.4326" lon="1.13996">
        <ele>186.195511</ele>
        <time>2009-06-21T09:33:27Z</time>
      </trkpt>
      <trkpt lat="44.43254" lon="1.13998">
        <ele>186.574493</ele>
        <time>2009-06-21T09:33:30Z</time>
      </trkpt>
      <trkpt lat="44.43247" lon="1.14002">
        <ele>186.936691</ele>
        <time>2009-06-21T09:33:33Z</time>
      </trkpt>
      <trkpt lat="44.43241" lon="1.14004">
        <ele>187.164734</ele>
        <time>2009-06-21T09:33:36Z</time>
      </trkpt>
      <trkpt lat="44.43235" lon="1.14007">
        <ele>187.305084</ele>
        <time>2009-06-21T09:33:39Z</time>
      </trkpt>
      <trkpt lat="44.43229" lon="1.14012">
        <ele>187.451569</ele>
        <time>2009-06-21T09:33:42Z</time>
      </trkpt>
      <trkpt lat="44.4322" lon="1.14018">
        <ele>187.867966</ele>
        <time>2009-06-21T09:33:46Z</time>
      </trkpt>
      <trkpt lat="44.43215" lon="1.14023">
        <ele>188.220673</ele>
        <time>2009-06-21T09:33:49Z</time>
      </trkpt>
      <trkpt lat="44.43209" lon="1.14028">
        <ele>188.695465</ele>
        <time>2009-06-21T09:33:52Z</time>
      </trkpt>
      <trkpt lat="44.43204" lon="1.14033">
        <ele>189.197372</ele>
        <time>2009-06-21T09:33:55Z</time>
      </trkpt>
      <trkpt lat="44.43199" lon="1.14039">
        <ele>189.737289</ele>
        <time>2009-06-21T09:33:58Z</time>
      </trkpt>
      <trkpt lat="44.43195" lon="1.14042">
        <ele>189.877579</ele>
        <time>2009-06-21T09:34:01Z</time>
      </trkpt>
      <trkpt lat="44.4319" lon="1.14046">
        <ele>190.159592</ele>
        <time>2009-06-21T09:34:04Z</time>
      </trkpt>
      <trkpt lat="44.43185" lon="1.14051">
        <ele>190.432983</ele>
        <time>2009-06-21T09:34:07Z</time>
      </trkpt>
      <trkpt lat="44.43183" lon="1.14054">
        <ele>190.627594</ele>
        <time>2009-06-21T09:34:10Z</time>
      </trkpt>
      <trkpt lat="44.43179" lon="1.14058">
        <ele>190.949463</ele>
        <time>2009-06-21T09:34:13Z</time>
      </trkpt>
      <trkpt lat="44.43175" lon="1.14063">
        <ele>191.343597</ele>
        <time>2009-06-21T09:34:16Z</time>
      </trkpt>
      <trkpt lat="44.4317" lon="1.14069">
        <ele>191.930847</ele>
        <time>2009-06-21T09:34:20Z</time>
      </trkpt>
      <trkpt lat="44.43166" lon="1.14075">
        <ele>192.493805</ele>
        <time>2009-06-21T09:34:24Z</time>
      </trkpt>
      <trkpt lat="44.43161" lon="1.14081">
        <ele>193.238403</ele>
        <time>2009-06-21T09:34:28Z</time>
      </trkpt>
      <trkpt lat="44.43157" lon="1.14086">
        <ele>193.898178</ele>
        <time>2009-06-21T09:34:31Z</time>
      </trkpt>
      <trkpt lat="44.43153" lon="1.1409">
        <ele>194.174454</ele>
        <time>2009-06-21T09:34:34Z</time>
      </trkpt>
      <trkpt lat="44.4315" lon="1.14094">
        <ele>194.331009</ele>
        <time>2009-06-21T09:34:37Z</time>
      </trkpt>
      <trkpt lat="44.43147" lon="1.14099">
        <ele>194.564056</ele>
        <time>2009-06-21T09:34:40Z</time>
      </trkpt>
      <trkpt lat="44.43143" lon="1.14105">
        <ele>194.85463</ele>
        <time>2009-06-21T09:34:43Z</time>
      </trkpt>
      <trkpt lat="44.43138" lon="1.14114">
        <ele>195.352783</ele>
        <time>2009-06-21T09:34:47Z</time>
      </trkpt>
      <trkpt lat="44.43135" lon="1.1412">
        <ele>195.621506</ele>
        <time>2009-06-21T09:34:50Z</time>
      </trkpt>
      <trkpt lat="44.43131" lon="1.14127">
        <ele>195.981842</ele>
        <time>2009-06-21T09:34:53Z</time>
      </trkpt>
      <trkpt lat="44.43126" lon="1.14136">
        <ele>196.536301</ele>
        <time>2009-06-21T09:34:56Z</time>
      </trkpt>
      <trkpt lat="44.43121" lon="1.14145">
        <ele>197.216934</ele>
        <time>2009-06-21T09:34:59Z</time>
      </trkpt>
      <trkpt lat="44.43116" lon="1.14152">
        <ele>197.851761</ele>
        <time>2009-06-21T09:35:02Z</time>
      </trkpt>
      <trkpt lat="44.43112" lon="1.1416">
        <ele>198.540573</ele>
        <time>2009-06-21T09:35:05Z</time>
      </trkpt>
      <trkpt lat="44.43103" lon="1.1417">
        <ele>199.059631</ele>
        <time>2009-06-21T09:35:09Z</time>
      </trkpt>
      <trkpt lat="44.43094" lon="1.14177">
        <ele>199.331253</ele>
        <time>2009-06-21T09:35:12Z</time>
      </trkpt>
      <trkpt lat="44.43087" lon="1.14181">
        <ele>199.273438</ele>
        <time>2009-06-21T09:35:15Z</time>
      </trkpt>
      <trkpt lat="44.43079" lon="1.14184">
        <ele>199.168442</ele>
        <time>2009-06-21T09:35:18Z</time>
      </trkpt>
      <trkpt lat="44.43068" lon="1.1419">
        <ele>199.341736</ele>
        <time>2009-06-21T09:35:22Z</time>
      </trkpt>
      <trkpt lat="44.43061" lon="1.14194">
        <ele>199.273422</ele>
        <time>2009-06-21T09:35:25Z</time>
      </trkpt>
      <trkpt lat="44.43053" lon="1.14198">
        <ele>199.217545</ele>
        <time>2009-06-21T09:35:28Z</time>
      </trkpt>
      <trkpt lat="44.43044" lon="1.14204">
        <ele>199.256393</ele>
        <time>2009-06-21T09:35:31Z</time>
      </trkpt>
      <trkpt lat="44.43034" lon="1.14209">
        <ele>199.327576</ele>
        <time>2009-06-21T09:35:34Z</time>
      </trkpt>
      <trkpt lat="44.43023" lon="1.14215">
        <ele>199.505768</ele>
        <time>2009-06-21T09:35:37Z</time>
      </trkpt>
      <trkpt lat="44.43013" lon="1.14221">
        <ele>199.294891</ele>
        <time>2009-06-21T09:35:40Z</time>
      </trkpt>
      <trkpt lat="44.43004" lon="1.14228">
        <ele>199.403519</ele>
        <time>2009-06-21T09:35:43Z</time>
      </trkpt>
      <trkpt lat="44.42996" lon="1.14236">
        <ele>199.928726</ele>
        <time>2009-06-21T09:35:46Z</time>
      </trkpt>
      <trkpt lat="44.42987" lon="1.14245">
        <ele>199.917053</ele>
        <time>2009-06-21T09:35:49Z</time>
      </trkpt>
      <trkpt lat="44.4298" lon="1.14254">
        <ele>199.570068</ele>
        <time>2009-06-21T09:35:52Z</time>
      </trkpt>
      <trkpt lat="44.42972" lon="1.14264">
        <ele>198.804993</ele>
        <time>2009-06-21T09:35:55Z</time>
      </trkpt>
      <trkpt lat="44.42963" lon="1.14274">
        <ele>198.173431</ele>
        <time>2009-06-21T09:35:58Z</time>
      </trkpt>
      <trkpt lat="44.42955" lon="1.14285">
        <ele>197.941925</ele>
        <time>2009-06-21T09:36:01Z</time>
      </trkpt>
      <trkpt lat="44.42947" lon="1.14295">
        <ele>197.993256</ele>
        <time>2009-06-21T09:36:04Z</time>
      </trkpt>
      <trkpt lat="44.42937" lon="1.14303">
        <ele>198.130234</ele>
        <time>2009-06-21T09:36:07Z</time>
      </trkpt>
      <trkpt lat="44.42926" lon="1.14311">
        <ele>196.968994</ele>
        <time>2009-06-21T09:36:10Z</time>
      </trkpt>
      <trkpt lat="44.42915" lon="1.14319">
        <ele>195.751968</ele>
        <time>2009-06-21T09:36:13Z</time>
      </trkpt>
      <trkpt lat="44.42904" lon="1.14327">
        <ele>194.787933</ele>
        <time>2009-06-21T09:36:16Z</time>
      </trkpt>
      <trkpt lat="44.42892" lon="1.14334">
        <ele>194.127579</ele>
        <time>2009-06-21T09:36:19Z</time>
      </trkpt>
      <trkpt lat="44.4288" lon="1.14342">
        <ele>193.424988</ele>
        <time>2009-06-21T09:36:22Z</time>
      </trkpt>
      <trkpt lat="44.42867" lon="1.14348">
        <ele>192.720718</ele>
        <time>2009-06-21T09:36:25Z</time>
      </trkpt>
      <trkpt lat="44.42854" lon="1.14353">
        <ele>192.118393</ele>
        <time>2009-06-21T09:36:28Z</time>
      </trkpt>
      <trkpt lat="44.42841" lon="1.14359">
        <ele>191.863281</ele>
        <time>2009-06-21T09:36:31Z</time>
      </trkpt>
      <trkpt lat="44.4283" lon="1.14367">
        <ele>192.074203</ele>
        <time>2009-06-21T09:36:34Z</time>
      </trkpt>
      <trkpt lat="44.42818" lon="1.14374">
        <ele>191.900909</ele>
        <time>2009-06-21T09:36:37Z</time>
      </trkpt>
      <trkpt lat="44.42805" lon="1.1438">
        <ele>191.535004</ele>
        <time>2009-06-21T09:36:40Z</time>
      </trkpt>
      <trkpt lat="44.42793" lon="1.14383">
        <ele>191.028732</ele>
        <time>2009-06-21T09:36:43Z</time>
      </trkpt>
      <trkpt lat="44.42779" lon="1.14386">
        <ele>190.340668</ele>
        <time>2009-06-21T09:36:46Z</time>
      </trkpt>
      <trkpt lat="44.42762" lon="1.14389">
        <ele>189.550949</ele>
        <time>2009-06-21T09:36:49Z</time>
      </trkpt>
      <trkpt lat="44.42742" lon="1.14392">
        <ele>188.349304</ele>
        <time>2009-06-21T09:36:52Z</time>
      </trkpt>
      <trkpt lat="44.42722" lon="1.144">
        <ele>187.252838</ele>
        <time>2009-06-21T09:36:55Z</time>
      </trkpt>
      <trkpt lat="44.427" lon="1.14413">
        <ele>186.09584</ele>
        <time>2009-06-21T09:36:58Z</time>
      </trkpt>
      <trkpt lat="44.42676" lon="1.14425">
        <ele>184.243057</ele>
        <time>2009-06-21T09:37:01Z</time>
      </trkpt>
      <trkpt lat="44.42643" lon="1.14444">
        <ele>182.834381</ele>
        <time>2009-06-21T09:37:05Z</time>
      </trkpt>
      <trkpt lat="44.42614" lon="1.14455">
        <ele>180.878845</ele>
        <time>2009-06-21T09:37:08Z</time>
      </trkpt>
      <trkpt lat="44.42586" lon="1.14463">
        <ele>177.827316</ele>
        <time>2009-06-21T09:37:11Z</time>
      </trkpt>
      <trkpt lat="44.42557" lon="1.14476">
        <ele>175.440002</ele>
        <time>2009-06-21T09:37:14Z</time>
      </trkpt>
      <trkpt lat="44.4252" lon="1.14496">
        <ele>172.430008</ele>
        <time>2009-06-21T09:37:18Z</time>
      </trkpt>
      <trkpt lat="44.42487" lon="1.1451">
        <ele>169.214691</ele>
        <time>2009-06-21T09:37:21Z</time>
      </trkpt>
      <trkpt lat="44.42455" lon="1.14531">
        <ele>165.273758</ele>
        <time>2009-06-21T09:37:24Z</time>
      </trkpt>
      <trkpt lat="44.42432" lon="1.14551">
        <ele>162.202637</ele>
        <time>2009-06-21T09:37:27Z</time>
      </trkpt>
      <trkpt lat="44.42404" lon="1.14557">
        <ele>157.902206</ele>
        <time>2009-06-21T09:37:30Z</time>
      </trkpt>
      <trkpt lat="44.4236" lon="1.14556">
        <ele>153.372498</ele>
        <time>2009-06-21T09:37:34Z</time>
      </trkpt>
      <trkpt lat="44.42328" lon="1.14561">
        <ele>150.705002</ele>
        <time>2009-06-21T09:37:37Z</time>
      </trkpt>
      <trkpt lat="44.423" lon="1.14576">
        <ele>148.922501</ele>
        <time>2009-06-21T09:37:40Z</time>
      </trkpt>
      <trkpt lat="44.4228" lon="1.14604">
        <ele>148.892502</ele>
        <time>2009-06-21T09:37:43Z</time>
      </trkpt>
      <trkpt lat="44.42256" lon="1.14633">
        <ele>148.870331</ele>
        <time>2009-06-21T09:37:47Z</time>
      </trkpt>
      <trkpt lat="44.4224" lon="1.14658">
        <ele>149.503342</ele>
        <time>2009-06-21T09:37:51Z</time>
      </trkpt>
      <trkpt lat="44.42228" lon="1.14678">
        <ele>150.225082</ele>
        <time>2009-06-21T09:37:54Z</time>
      </trkpt>
      <trkpt lat="44.42216" lon="1.147">
        <ele>151.113754</ele>
        <time>2009-06-21T09:37:57Z</time>
      </trkpt>
      <trkpt lat="44.42203" lon="1.1472">
        <ele>151.764999</ele>
        <time>2009-06-21T09:38:00Z</time>
      </trkpt>
      <trkpt lat="44.42188" lon="1.14737">
        <ele>152.279999</ele>
        <time>2009-06-21T09:38:03Z</time>
      </trkpt>
      <trkpt lat="44.42155" lon="1.14744">
        <ele>152.491257</ele>
        <time>2009-06-21T09:38:08Z</time>
      </trkpt>
      <trkpt lat="44.4213" lon="1.14743">
        <ele>152.451248</ele>
        <time>2009-06-21T09:38:12Z</time>
      </trkpt>
      <trkpt lat="44.42113" lon="1.14743">
        <ele>152.519272</ele>
        <time>2009-06-21T09:38:15Z</time>
      </trkpt>
      <trkpt lat="44.42095" lon="1.14742">
        <ele>152.610168</ele>
        <time>2009-06-21T09:38:18Z</time>
      </trkpt>
      <trkpt lat="44.42077" lon="1.1474">
        <ele>152.65062</ele>
        <time>2009-06-21T09:38:21Z</time>
      </trkpt>
      <trkpt lat="44.42058" lon="1.1474">
        <ele>152.64563</ele>
        <time>2009-06-21T09:38:24Z</time>
      </trkpt>
      <trkpt lat="44.42038" lon="1.14741">
        <ele>152.658447</ele>
        <time>2009-06-21T09:38:27Z</time>
      </trkpt>
      <trkpt lat="44.42022" lon="1.14738">
        <ele>152.75116</ele>
        <time>2009-06-21T09:38:30Z</time>
      </trkpt>
      <trkpt lat="44.42009" lon="1.14735">
        <ele>152.851761</ele>
        <time>2009-06-21T09:38:33Z</time>
      </trkpt>
      <trkpt lat="44.42" lon="1.14729">
        <ele>152.926758</ele>
        <time>2009-06-21T09:38:36Z</time>
      </trkpt>
      <trkpt lat="44.41988" lon="1.14725">
        <ele>153.130005</ele>
        <time>2009-06-21T09:38:40Z</time>
      </trkpt>
      <trkpt lat="44.41976" lon="1.14722">
        <ele>153.399994</ele>
        <time>2009-06-21T09:38:44Z</time>
      </trkpt>
      <trkpt lat="44.41963" lon="1.14721">
        <ele>153.677505</ele>
        <time>2009-06-21T09:38:47Z</time>
      </trkpt>
      <trkpt lat="44.41953" lon="1.14714">
        <ele>153.899994</ele>
        <time>2009-06-21T09:38:50Z</time>
      </trkpt>
      <trkpt lat="44.41942" lon="1.14709">
        <ele>154.152969</ele>
        <time>2009-06-21T09:38:53Z</time>
      </trkpt>
      <trkpt lat="44.41936" lon="1.14686">
        <ele>153.757492</ele>
        <time>2009-06-21T09:38:57Z</time>
      </trkpt>
      <trkpt lat="44.41936" lon="1.14658">
        <ele>152.886246</ele>
        <time>2009-06-21T09:39:01Z</time>
      </trkpt>
      <trkpt lat="44.41935" lon="1.14636">
        <ele>152.235001</ele>
        <time>2009-06-21T09:39:04Z</time>
      </trkpt>
      <trkpt lat="44.41935" lon="1.14614">
        <ele>151.883743</ele>
        <time>2009-06-21T09:39:07Z</time>
      </trkpt>
      <trkpt lat="44.41933" lon="1.14591">
        <ele>151.539993</ele>
        <time>2009-06-21T09:39:10Z</time>
      </trkpt>
      <trkpt lat="44.41933" lon="1.14567">
        <ele>151.164383</ele>
        <time>2009-06-21T09:39:13Z</time>
      </trkpt>
      <trkpt lat="44.41931" lon="1.14543">
        <ele>150.810623</ele>
        <time>2009-06-21T09:39:16Z</time>
      </trkpt>
      <trkpt lat="44.4193" lon="1.14518">
        <ele>150.428741</ele>
        <time>2009-06-21T09:39:19Z</time>
      </trkpt>
      <trkpt lat="44.41929" lon="1.14496">
        <ele>150.372498</ele>
        <time>2009-06-21T09:39:22Z</time>
      </trkpt>
      <trkpt lat="44.41927" lon="1.14476">
        <ele>150.412506</ele>
        <time>2009-06-21T09:39:25Z</time>
      </trkpt>
      <trkpt lat="44.41927" lon="1.14456">
        <ele>150.425003</ele>
        <time>2009-06-21T09:39:28Z</time>
      </trkpt>
      <trkpt lat="44.41929" lon="1.14439">
        <ele>150.360001</ele>
        <time>2009-06-21T09:39:31Z</time>
      </trkpt>
      <trkpt lat="44.41938" lon="1.14422">
        <ele>150.157501</ele>
        <time>2009-06-21T09:39:35Z</time>
      </trkpt>
      <trkpt lat="44.41945" lon="1.1441">
        <ele>150</ele>
        <time>2009-06-21T09:39:38Z</time>
      </trkpt>
      <trkpt lat="44.41953" lon="1.14398">
        <ele>149.808701</ele>
        <time>2009-06-21T09:39:41Z</time>
      </trkpt>
      <trkpt lat="44.41959" lon="1.14386">
        <ele>149.738754</ele>
        <time>2009-06-21T09:39:44Z</time>
      </trkpt>
      <trkpt lat="44.41966" lon="1.14375">
        <ele>149.927505</ele>
        <time>2009-06-21T09:39:47Z</time>
      </trkpt>
      <trkpt lat="44.41972" lon="1.14365">
        <ele>150.09375</ele>
        <time>2009-06-21T09:39:50Z</time>
      </trkpt>
      <trkpt lat="44.4198" lon="1.14358">
        <ele>150.160004</ele>
        <time>2009-06-21T09:39:53Z</time>
      </trkpt>
      <trkpt lat="44.41989" lon="1.1435">
        <ele>150.184998</ele>
        <time>2009-06-21T09:39:56Z</time>
      </trkpt>
      <trkpt lat="44.42" lon="1.14345">
        <ele>150.087494</ele>
        <time>2009-06-21T09:39:59Z</time>
      </trkpt>
      <trkpt lat="44.42011" lon="1.14345">
        <ele>149.865005</ele>
        <time>2009-06-21T09:40:02Z</time>
      </trkpt>
      <trkpt lat="44.42024" lon="1.14347">
        <ele>149.467499</ele>
        <time>2009-06-21T09:40:06Z</time>
      </trkpt>
      <trkpt lat="44.42032" lon="1.14349">
        <ele>149.253754</ele>
        <time>2009-06-21T09:40:09Z</time>
      </trkpt>
      <trkpt lat="44.4204" lon="1.14351">
        <ele>148.928894</ele>
        <time>2009-06-21T09:40:12Z</time>
      </trkpt>
      <trkpt lat="44.42049" lon="1.14352">
        <ele>148.584396</ele>
        <time>2009-06-21T09:40:15Z</time>
      </trkpt>
      <trkpt lat="44.42058" lon="1.14354">
        <ele>148.239502</ele>
        <time>2009-06-21T09:40:18Z</time>
      </trkpt>
      <trkpt lat="44.42067" lon="1.14354">
        <ele>147.900238</ele>
        <time>2009-06-21T09:40:21Z</time>
      </trkpt>
      <trkpt lat="44.42077" lon="1.14355">
        <ele>147.569458</ele>
        <time>2009-06-21T09:40:24Z</time>
      </trkpt>
      <trkpt lat="44.42086" lon="1.14355">
        <ele>147.335007</ele>
        <time>2009-06-21T09:40:27Z</time>
      </trkpt>
      <trkpt lat="44.42096" lon="1.14357">
        <ele>147.084366</ele>
        <time>2009-06-21T09:40:30Z</time>
      </trkpt>
      <trkpt lat="44.42106" lon="1.14357">
        <ele>146.861252</ele>
        <time>2009-06-21T09:40:33Z</time>
      </trkpt>
      <trkpt lat="44.42114" lon="1.14355">
        <ele>146.713745</ele>
        <time>2009-06-21T09:40:37Z</time>
      </trkpt>
      <trkpt lat="44.42121" lon="1.14352">
        <ele>146.591248</ele>
        <time>2009-06-21T09:40:40Z</time>
      </trkpt>
      <trkpt lat="44.4213" lon="1.1435">
        <ele>146.357391</ele>
        <time>2009-06-21T09:40:43Z</time>
      </trkpt>
      <trkpt lat="44.42139" lon="1.14347">
        <ele>146.080612</ele>
        <time>2009-06-21T09:40:46Z</time>
      </trkpt>
      <trkpt lat="44.42146" lon="1.14345">
        <ele>145.828323</ele>
        <time>2009-06-21T09:40:49Z</time>
      </trkpt>
      <trkpt lat="44.42153" lon="1.14343">
        <ele>145.591217</ele>
        <time>2009-06-21T09:40:52Z</time>
      </trkpt>
      <trkpt lat="44.4216" lon="1.14338">
        <ele>145.34462</ele>
        <time>2009-06-21T09:40:55Z</time>
      </trkpt>
      <trkpt lat="44.42168" lon="1.14331">
        <ele>145.036575</ele>
        <time>2009-06-21T09:40:58Z</time>
      </trkpt>
      <trkpt lat="44.42176" lon="1.14325">
        <ele>144.852493</ele>
        <time>2009-06-21T09:41:01Z</time>
      </trkpt>
      <trkpt lat="44.42182" lon="1.14321">
        <ele>144.712494</ele>
        <time>2009-06-21T09:41:04Z</time>
      </trkpt>
      <trkpt lat="44.42189" lon="1.14316">
        <ele>144.7173</ele>
        <time>2009-06-21T09:41:07Z</time>
      </trkpt>
      <trkpt lat="44.42196" lon="1.14311">
        <ele>144.734192</ele>
        <time>2009-06-21T09:41:10Z</time>
      </trkpt>
      <trkpt lat="44.42203" lon="1.14307">
        <ele>144.698761</ele>
        <time>2009-06-21T09:41:13Z</time>
      </trkpt>
      <trkpt lat="44.42212" lon="1.14302">
        <ele>144.609924</ele>
        <time>2009-06-21T09:41:16Z</time>
      </trkpt>
      <trkpt lat="44.42221" lon="1.14298">
        <ele>144.529999</ele>
        <time>2009-06-21T09:41:19Z</time>
      </trkpt>
      <trkpt lat="44.4223" lon="1.14294">
        <ele>144.448746</ele>
        <time>2009-06-21T09:41:22Z</time>
      </trkpt>
      <trkpt lat="44.4224" lon="1.14288">
        <ele>144.417496</ele>
        <time>2009-06-21T09:41:25Z</time>
      </trkpt>
      <trkpt lat="44.4225" lon="1.1428">
        <ele>144.441254</ele>
        <time>2009-06-21T09:41:28Z</time>
      </trkpt>
      <trkpt lat="44.42252" lon="1.14263">
        <ele>144.918747</ele>
        <time>2009-06-21T09:41:31Z</time>
      </trkpt>
      <trkpt lat="44.42252" lon="1.14249">
        <ele>145.606323</ele>
        <time>2009-06-21T09:41:35Z</time>
      </trkpt>
      <trkpt lat="44.42251" lon="1.14239">
        <ele>146.286057</ele>
        <time>2009-06-21T09:41:38Z</time>
      </trkpt>
      <trkpt lat="44.42251" lon="1.14231">
        <ele>146.847397</ele>
        <time>2009-06-21T09:41:41Z</time>
      </trkpt>
      <trkpt lat="44.42252" lon="1.14222">
        <ele>147.371689</ele>
        <time>2009-06-21T09:41:44Z</time>
      </trkpt>
      <trkpt lat="44.42252" lon="1.14213">
        <ele>147.994019</ele>
        <time>2009-06-21T09:41:47Z</time>
      </trkpt>
      <trkpt lat="44.42252" lon="1.14204">
        <ele>148.558487</ele>
        <time>2009-06-21T09:41:50Z</time>
      </trkpt>
      <trkpt lat="44.42253" lon="1.14196">
        <ele>148.992935</ele>
        <time>2009-06-21T09:41:53Z</time>
      </trkpt>
      <trkpt lat="44.42258" lon="1.14189">
        <ele>149.24765</ele>
        <time>2009-06-21T09:41:56Z</time>
      </trkpt>
      <trkpt lat="44.42265" lon="1.14184">
        <ele>149.625885</ele>
        <time>2009-06-21T09:42:00Z</time>
      </trkpt>
      <trkpt lat="44.42275" lon="1.14179">
        <ele>149.94606</ele>
        <time>2009-06-21T09:42:04Z</time>
      </trkpt>
      <trkpt lat="44.42282" lon="1.14174">
        <ele>150.379776</ele>
        <time>2009-06-21T09:42:07Z</time>
      </trkpt>
      <trkpt lat="44.4229" lon="1.14165">
        <ele>151.049759</ele>
        <time>2009-06-21T09:42:11Z</time>
      </trkpt>
      <trkpt lat="44.42298" lon="1.14158">
        <ele>151.677658</ele>
        <time>2009-06-21T09:42:14Z</time>
      </trkpt>
      <trkpt lat="44.42307" lon="1.14152">
        <ele>152.235214</ele>
        <time>2009-06-21T09:42:17Z</time>
      </trkpt>
      <trkpt lat="44.42314" lon="1.14148">
        <ele>152.649551</ele>
        <time>2009-06-21T09:42:20Z</time>
      </trkpt>
      <trkpt lat="44.42323" lon="1.14143">
        <ele>153.188309</ele>
        <time>2009-06-21T09:42:23Z</time>
      </trkpt>
      <trkpt lat="44.42334" lon="1.14136">
        <ele>153.93158</ele>
        <time>2009-06-21T09:42:26Z</time>
      </trkpt>
      <trkpt lat="44.42343" lon="1.14133">
        <ele>154.46257</ele>
        <time>2009-06-21T09:42:29Z</time>
      </trkpt>
      <trkpt lat="44.42351" lon="1.1413">
        <ele>154.747757</ele>
        <time>2009-06-21T09:42:32Z</time>
      </trkpt>
      <trkpt lat="44.42357" lon="1.14129">
        <ele>154.670502</ele>
        <time>2009-06-21T09:42:35Z</time>
      </trkpt>
      <trkpt lat="44.42364" lon="1.14126">
        <ele>154.808304</ele>
        <time>2009-06-21T09:42:38Z</time>
      </trkpt>
      <trkpt lat="44.4237" lon="1.14122">
        <ele>155.057755</ele>
        <time>2009-06-21T09:42:41Z</time>
      </trkpt>
      <trkpt lat="44.42377" lon="1.1412">
        <ele>155.125732</ele>
        <time>2009-06-21T09:42:44Z</time>
      </trkpt>
      <trkpt lat="44.42383" lon="1.14116">
        <ele>155.39827</ele>
        <time>2009-06-21T09:42:47Z</time>
      </trkpt>
      <trkpt lat="44.42392" lon="1.14112">
        <ele>155.493744</ele>
        <time>2009-06-21T09:42:50Z</time>
      </trkpt>
      <trkpt lat="44.42407" lon="1.14109">
        <ele>155.289825</ele>
        <time>2009-06-21T09:42:53Z</time>
      </trkpt>
      <trkpt lat="44.42426" lon="1.14108">
        <ele>154.808807</ele>
        <time>2009-06-21T09:42:56Z</time>
      </trkpt>
      <trkpt lat="44.42445" lon="1.14109">
        <ele>154.243805</ele>
        <time>2009-06-21T09:42:59Z</time>
      </trkpt>
      <trkpt lat="44.4246" lon="1.14113">
        <ele>153.464493</ele>
        <time>2009-06-21T09:43:02Z</time>
      </trkpt>
      <trkpt lat="44.42476" lon="1.14115">
        <ele>152.739929</ele>
        <time>2009-06-21T09:43:05Z</time>
      </trkpt>
      <trkpt lat="44.42494" lon="1.14114">
        <ele>152.015625</ele>
        <time>2009-06-21T09:43:08Z</time>
      </trkpt>
      <trkpt lat="44.42514" lon="1.14112">
        <ele>151.46312</ele>
        <time>2009-06-21T09:43:11Z</time>
      </trkpt>
      <trkpt lat="44.42533" lon="1.14105">
        <ele>151.293121</ele>
        <time>2009-06-21T09:43:14Z</time>
      </trkpt>
      <trkpt lat="44.42553" lon="1.14101">
        <ele>150.618134</ele>
        <time>2009-06-21T09:43:17Z</time>
      </trkpt>
      <trkpt lat="44.4257" lon="1.14096">
        <ele>150.01062</ele>
        <time>2009-06-21T09:43:20Z</time>
      </trkpt>
      <trkpt lat="44.42585" lon="1.14095">
        <ele>149.029388</ele>
        <time>2009-06-21T09:43:23Z</time>
      </trkpt>
      <trkpt lat="44.42599" lon="1.14093">
        <ele>148.21817</ele>
        <time>2009-06-21T09:43:26Z</time>
      </trkpt>
      <trkpt lat="44.42612" lon="1.14089">
        <ele>147.60321</ele>
        <time>2009-06-21T09:43:29Z</time>
      </trkpt>
      <trkpt lat="44.42627" lon="1.14088">
        <ele>146.709991</ele>
        <time>2009-06-21T09:43:32Z</time>
      </trkpt>
      <trkpt lat="44.4264" lon="1.14086">
        <ele>146.080002</ele>
        <time>2009-06-21T09:43:35Z</time>
      </trkpt>
      <trkpt lat="44.42653" lon="1.14083">
        <ele>145.565002</ele>
        <time>2009-06-21T09:43:38Z</time>
      </trkpt>
      <trkpt lat="44.42664" lon="1.14077">
        <ele>145.562073</ele>
        <time>2009-06-21T09:43:41Z</time>
      </trkpt>
      <trkpt lat="44.42675" lon="1.14074">
        <ele>145.202454</ele>
        <time>2009-06-21T09:43:44Z</time>
      </trkpt>
      <trkpt lat="44.42688" lon="1.1407">
        <ele>144.863785</ele>
        <time>2009-06-21T09:43:47Z</time>
      </trkpt>
      <trkpt lat="44.427" lon="1.14066">
        <ele>144.556</ele>
        <time>2009-06-21T09:43:50Z</time>
      </trkpt>
      <trkpt lat="44.42712" lon="1.14061">
        <ele>144.101135</ele>
        <time>2009-06-21T09:43:53Z</time>
      </trkpt>
      <trkpt lat="44.42725" lon="1.14057">
        <ele>143.306946</ele>
        <time>2009-06-21T09:43:56Z</time>
      </trkpt>
      <trkpt lat="44.42739" lon="1.14054">
        <ele>142.332748</ele>
        <time>2009-06-21T09:43:59Z</time>
      </trkpt>
      <trkpt lat="44.42752" lon="1.14052">
        <ele>141.373108</ele>
        <time>2009-06-21T09:44:02Z</time>
      </trkpt>
      <trkpt lat="44.42768" lon="1.1405">
        <ele>140.405121</ele>
        <time>2009-06-21T09:44:06Z</time>
      </trkpt>
      <trkpt lat="44.42785" lon="1.14048">
        <ele>139.352798</ele>
        <time>2009-06-21T09:44:09Z</time>
      </trkpt>
      <trkpt lat="44.428" lon="1.14036">
        <ele>139.113617</ele>
        <time>2009-06-21T09:44:12Z</time>
      </trkpt>
      <trkpt lat="44.42811" lon="1.14022">
        <ele>139.470398</ele>
        <time>2009-06-21T09:44:15Z</time>
      </trkpt>
      <trkpt lat="44.4282" lon="1.14009">
        <ele>139.607895</ele>
        <time>2009-06-21T09:44:18Z</time>
      </trkpt>
      <trkpt lat="44.42828" lon="1.13997">
        <ele>139.63443</ele>
        <time>2009-06-21T09:44:21Z</time>
      </trkpt>
      <trkpt lat="44.42835" lon="1.13984">
        <ele>139.630417</ele>
        <time>2009-06-21T09:44:24Z</time>
      </trkpt>
      <trkpt lat="44.42842" lon="1.13972">
        <ele>139.467499</ele>
        <time>2009-06-21T09:44:27Z</time>
      </trkpt>
      <trkpt lat="44.42849" lon="1.13963">
        <ele>139.141006</ele>
        <time>2009-06-21T09:44:30Z</time>
      </trkpt>
      <trkpt lat="44.42854" lon="1.13956">
        <ele>138.802643</ele>
        <time>2009-06-21T09:44:33Z</time>
      </trkpt>
      <trkpt lat="44.4286" lon="1.13943">
        <ele>138.44899</ele>
        <time>2009-06-21T09:44:37Z</time>
      </trkpt>
      <trkpt lat="44.42869" lon="1.1393">
        <ele>137.742126</ele>
        <time>2009-06-21T09:44:41Z</time>
      </trkpt>
      <trkpt lat="44.42874" lon="1.1392">
        <ele>138.233902</ele>
        <time>2009-06-21T09:44:44Z</time>
      </trkpt>
      <trkpt lat="44.42881" lon="1.13911">
        <ele>138.494293</ele>
        <time>2009-06-21T09:44:47Z</time>
      </trkpt>
      <trkpt lat="44.42888" lon="1.13902">
        <ele>138.605957</ele>
        <time>2009-06-21T09:44:50Z</time>
      </trkpt>
      <trkpt lat="44.42897" lon="1.13891">
        <ele>138.603622</ele>
        <time>2009-06-21T09:44:53Z</time>
      </trkpt>
      <trkpt lat="44.42903" lon="1.13881">
        <ele>138.689316</ele>
        <time>2009-06-21T09:44:56Z</time>
      </trkpt>
      <trkpt lat="44.42911" lon="1.13872">
        <ele>138.323502</ele>
        <time>2009-06-21T09:44:59Z</time>
      </trkpt>
      <trkpt lat="44.42919" lon="1.13862">
        <ele>137.987793</ele>
        <time>2009-06-21T09:45:02Z</time>
      </trkpt>
      <trkpt lat="44.42927" lon="1.13851">
        <ele>138.082748</ele>
        <time>2009-06-21T09:45:05Z</time>
      </trkpt>
      <trkpt lat="44.42934" lon="1.13843">
        <ele>138.212326</ele>
        <time>2009-06-21T09:45:08Z</time>
      </trkpt>
      <trkpt lat="44.42942" lon="1.13836">
        <ele>138.209686</ele>
        <time>2009-06-21T09:45:11Z</time>
      </trkpt>
      <trkpt lat="44.4295" lon="1.1383">
        <ele>137.937622</ele>
        <time>2009-06-21T09:45:14Z</time>
      </trkpt>
      <trkpt lat="44.42956" lon="1.13826">
        <ele>137.5616</ele>
        <time>2009-06-21T09:45:17Z</time>
      </trkpt>
      <trkpt lat="44.42962" lon="1.13819">
        <ele>137.346878</ele>
        <time>2009-06-21T09:45:20Z</time>
      </trkpt>
      <trkpt lat="44.42969" lon="1.1381">
        <ele>137.052094</ele>
        <time>2009-06-21T09:45:23Z</time>
      </trkpt>
      <trkpt lat="44.42975" lon="1.13801">
        <ele>136.984253</ele>
        <time>2009-06-21T09:45:26Z</time>
      </trkpt>
      <trkpt lat="44.42981" lon="1.13791">
        <ele>138.494934</ele>
        <time>2009-06-21T09:45:29Z</time>
      </trkpt>
      <trkpt lat="44.42988" lon="1.1378">
        <ele>139.909271</ele>
        <time>2009-06-21T09:45:32Z</time>
      </trkpt>
      <trkpt lat="44.42996" lon="1.13771">
        <ele>140.758804</ele>
        <time>2009-06-21T09:45:35Z</time>
      </trkpt>
      <trkpt lat="44.43004" lon="1.13762">
        <ele>141.195892</ele>
        <time>2009-06-21T09:45:38Z</time>
      </trkpt>
      <trkpt lat="44.43012" lon="1.13757">
        <ele>141.189377</ele>
        <time>2009-06-21T09:45:41Z</time>
      </trkpt>
      <trkpt lat="44.4302" lon="1.13752">
        <ele>140.953079</ele>
        <time>2009-06-21T09:45:44Z</time>
      </trkpt>
      <trkpt lat="44.43029" lon="1.13747">
        <ele>140.696915</ele>
        <time>2009-06-21T09:45:47Z</time>
      </trkpt>
      <trkpt lat="44.43043" lon="1.13742">
        <ele>139.812744</ele>
        <time>2009-06-21T09:45:51Z</time>
      </trkpt>
      <trkpt lat="44.43064" lon="1.13735">
        <ele>138.198334</ele>
        <time>2009-06-21T09:45:55Z</time>
      </trkpt>
      <trkpt lat="44.4308" lon="1.13731">
        <ele>138.222412</ele>
        <time>2009-06-21T09:45:58Z</time>
      </trkpt>
      <trkpt lat="44.43093" lon="1.13728">
        <ele>137.965744</ele>
        <time>2009-06-21T09:46:01Z</time>
      </trkpt>
      <trkpt lat="44.43104" lon="1.13722">
        <ele>137.816605</ele>
        <time>2009-06-21T09:46:04Z</time>
      </trkpt>
      <trkpt lat="44.43114" lon="1.13711">
        <ele>137.928741</ele>
        <time>2009-06-21T09:46:08Z</time>
      </trkpt>
      <trkpt lat="44.4312" lon="1.13703">
        <ele>137.942337</ele>
        <time>2009-06-21T09:46:11Z</time>
      </trkpt>
      <trkpt lat="44.43126" lon="1.13693">
        <ele>137.836227</ele>
        <time>2009-06-21T09:46:14Z</time>
      </trkpt>
      <trkpt lat="44.43133" lon="1.13683">
        <ele>137.567795</ele>
        <time>2009-06-21T09:46:17Z</time>
      </trkpt>
      <trkpt lat="44.43139" lon="1.13672">
        <ele>137.137711</ele>
        <time>2009-06-21T09:46:20Z</time>
      </trkpt>
      <trkpt lat="44.43146" lon="1.1366">
        <ele>137.032806</ele>
        <time>2009-06-21T09:46:23Z</time>
      </trkpt>
      <trkpt lat="44.43152" lon="1.13649">
        <ele>136.669983</ele>
        <time>2009-06-21T09:46:26Z</time>
      </trkpt>
      <trkpt lat="44.43159" lon="1.13639">
        <ele>136.611374</ele>
        <time>2009-06-21T09:46:29Z</time>
      </trkpt>
      <trkpt lat="44.43166" lon="1.13628">
        <ele>136.345718</ele>
        <time>2009-06-21T09:46:32Z</time>
      </trkpt>
      <trkpt lat="44.43174" lon="1.13618">
        <ele>135.847824</ele>
        <time>2009-06-21T09:46:35Z</time>
      </trkpt>
      <trkpt lat="44.43183" lon="1.13607">
        <ele>135.303726</ele>
        <time>2009-06-21T09:46:38Z</time>
      </trkpt>
      <trkpt lat="44.43193" lon="1.13597">
        <ele>135.960495</ele>
        <time>2009-06-21T09:46:41Z</time>
      </trkpt>
      <trkpt lat="44.43202" lon="1.13587">
        <ele>136.814911</ele>
        <time>2009-06-21T09:46:44Z</time>
      </trkpt>
      <trkpt lat="44.43209" lon="1.1358">
        <ele>137.492004</ele>
        <time>2009-06-21T09:46:47Z</time>
      </trkpt>
      <trkpt lat="44.43217" lon="1.13573">
        <ele>137.928268</ele>
        <time>2009-06-21T09:46:50Z</time>
      </trkpt>
      <trkpt lat="44.43224" lon="1.13568">
        <ele>138.103821</ele>
        <time>2009-06-21T09:46:53Z</time>
      </trkpt>
      <trkpt lat="44.43232" lon="1.13561">
        <ele>138.259995</ele>
        <time>2009-06-21T09:46:56Z</time>
      </trkpt>
      <trkpt lat="44.43242" lon="1.13553">
        <ele>138.238937</ele>
        <time>2009-06-21T09:46:59Z</time>
      </trkpt>
      <trkpt lat="44.43251" lon="1.13549">
        <ele>138.198029</ele>
        <time>2009-06-21T09:47:02Z</time>
      </trkpt>
      <trkpt lat="44.4326" lon="1.13545">
        <ele>138.087448</ele>
        <time>2009-06-21T09:47:05Z</time>
      </trkpt>
      <trkpt lat="44.43269" lon="1.1354">
        <ele>138.240158</ele>
        <time>2009-06-21T09:47:08Z</time>
      </trkpt>
      <trkpt lat="44.43279" lon="1.13534">
        <ele>138.44397</ele>
        <time>2009-06-21T09:47:11Z</time>
      </trkpt>
      <trkpt lat="44.43288" lon="1.13529">
        <ele>138.540817</ele>
        <time>2009-06-21T09:47:14Z</time>
      </trkpt>
      <trkpt lat="44.43299" lon="1.13525">
        <ele>138.540207</ele>
        <time>2009-06-21T09:47:17Z</time>
      </trkpt>
      <trkpt lat="44.43307" lon="1.13522">
        <ele>138.582199</ele>
        <time>2009-06-21T09:47:20Z</time>
      </trkpt>
      <trkpt lat="44.43319" lon="1.13518">
        <ele>138.413818</ele>
        <time>2009-06-21T09:47:23Z</time>
      </trkpt>
      <trkpt lat="44.43333" lon="1.13514">
        <ele>138.208252</ele>
        <time>2009-06-21T09:47:26Z</time>
      </trkpt>
      <trkpt lat="44.43347" lon="1.13511">
        <ele>138.12822</ele>
        <time>2009-06-21T09:47:29Z</time>
      </trkpt>
      <trkpt lat="44.4336" lon="1.13509">
        <ele>137.931854</ele>
        <time>2009-06-21T09:47:32Z</time>
      </trkpt>
      <trkpt lat="44.43374" lon="1.13505">
        <ele>137.779266</ele>
        <time>2009-06-21T09:47:35Z</time>
      </trkpt>
      <trkpt lat="44.43387" lon="1.135">
        <ele>137.803558</ele>
        <time>2009-06-21T09:47:38Z</time>
      </trkpt>
      <trkpt lat="44.43399" lon="1.13493">
        <ele>137.881516</ele>
        <time>2009-06-21T09:47:41Z</time>
      </trkpt>
      <trkpt lat="44.43409" lon="1.13486">
        <ele>137.946274</ele>
        <time>2009-06-21T09:47:44Z</time>
      </trkpt>
      <trkpt lat="44.43417" lon="1.13479">
        <ele>138.000473</ele>
        <time>2009-06-21T09:47:47Z</time>
      </trkpt>
      <trkpt lat="44.43425" lon="1.13473">
        <ele>137.815033</ele>
        <time>2009-06-21T09:47:50Z</time>
      </trkpt>
      <trkpt lat="44.43431" lon="1.13466">
        <ele>137.578217</ele>
        <time>2009-06-21T09:47:53Z</time>
      </trkpt>
      <trkpt lat="44.43437" lon="1.13461">
        <ele>137.357498</ele>
        <time>2009-06-21T09:47:56Z</time>
      </trkpt>
      <trkpt lat="44.43441" lon="1.13456">
        <ele>137.183594</ele>
        <time>2009-06-21T09:47:59Z</time>
      </trkpt>
      <trkpt lat="44.43445" lon="1.13453">
        <ele>136.995224</ele>
        <time>2009-06-21T09:48:02Z</time>
      </trkpt>
      <trkpt lat="44.43449" lon="1.13447">
        <ele>136.818817</ele>
        <time>2009-06-21T09:48:05Z</time>
      </trkpt>
      <trkpt lat="44.4346" lon="1.13445">
        <ele>136.182388</ele>
        <time>2009-06-21T09:48:09Z</time>
      </trkpt>
      <trkpt lat="44.43471" lon="1.13449">
        <ele>135.762192</ele>
        <time>2009-06-21T09:48:12Z</time>
      </trkpt>
      <trkpt lat="44.43483" lon="1.13459">
        <ele>135.258804</ele>
        <time>2009-06-21T09:48:17Z</time>
      </trkpt>
      <trkpt lat="44.43493" lon="1.13445">
        <ele>135.02037</ele>
        <time>2009-06-21T09:48:20Z</time>
      </trkpt>
      <trkpt lat="44.43498" lon="1.13425">
        <ele>135.102249</ele>
        <time>2009-06-21T09:48:24Z</time>
      </trkpt>
      <trkpt lat="44.43502" lon="1.13415">
        <ele>135.122025</ele>
        <time>2009-06-21T09:48:27Z</time>
      </trkpt>
      <trkpt lat="44.43504" lon="1.13404">
        <ele>135.367462</ele>
        <time>2009-06-21T09:48:30Z</time>
      </trkpt>
      <trkpt lat="44.43508" lon="1.13391">
        <ele>135.709122</ele>
        <time>2009-06-21T09:48:33Z</time>
      </trkpt>
      <trkpt lat="44.43512" lon="1.13379">
        <ele>136.098755</ele>
        <time>2009-06-21T09:48:36Z</time>
      </trkpt>
      <trkpt lat="44.43516" lon="1.13369">
        <ele>136.425003</ele>
        <time>2009-06-21T09:48:39Z</time>
      </trkpt>
      <trkpt lat="44.43518" lon="1.13362">
        <ele>136.637497</ele>
        <time>2009-06-21T09:48:42Z</time>
      </trkpt>
      <trkpt lat="44.4352" lon="1.13356">
        <ele>136.811249</ele>
        <time>2009-06-21T09:48:45Z</time>
      </trkpt>
      <trkpt lat="44.43524" lon="1.13345">
        <ele>137.168747</ele>
        <time>2009-06-21T09:48:49Z</time>
      </trkpt>
      <trkpt lat="44.43527" lon="1.13332">
        <ele>137.574997</ele>
        <time>2009-06-21T09:48:53Z</time>
      </trkpt>
      <trkpt lat="44.43527" lon="1.13323">
        <ele>137.883743</ele>
        <time>2009-06-21T09:48:56Z</time>
      </trkpt>
      <trkpt lat="44.43524" lon="1.13314">
        <ele>138.149994</ele>
        <time>2009-06-21T09:48:59Z</time>
      </trkpt>
      <trkpt lat="44.43519" lon="1.13306">
        <ele>138.404999</ele>
        <time>2009-06-21T09:49:03Z</time>
      </trkpt>
      <trkpt lat="44.43512" lon="1.13303">
        <ele>138.508743</ele>
        <time>2009-06-21T09:49:07Z</time>
      </trkpt>
      <trkpt lat="44.43505" lon="1.13299">
        <ele>138.637497</ele>
        <time>2009-06-21T09:49:11Z</time>
      </trkpt>
      <trkpt lat="44.435" lon="1.13296">
        <ele>138.746246</ele>
        <time>2009-06-21T09:49:15Z</time>
      </trkpt>
      <trkpt lat="44.43495" lon="1.13294">
        <ele>138.807495</ele>
        <time>2009-06-21T09:49:18Z</time>
      </trkpt>
      <trkpt lat="44.4349" lon="1.13291">
        <ele>138.928757</ele>
        <time>2009-06-21T09:49:21Z</time>
      </trkpt>
      <trkpt lat="44.43484" lon="1.13289">
        <ele>138.986252</ele>
        <time>2009-06-21T09:49:24Z</time>
      </trkpt>
      <trkpt lat="44.43478" lon="1.13286">
        <ele>139.134995</ele>
        <time>2009-06-21T09:49:27Z</time>
      </trkpt>
      <trkpt lat="44.43472" lon="1.13281">
        <ele>139.350632</ele>
        <time>2009-06-21T09:49:30Z</time>
      </trkpt>
      <trkpt lat="44.43467" lon="1.13276">
        <ele>139.594376</ele>
        <time>2009-06-21T09:49:33Z</time>
      </trkpt>
      <trkpt lat="44.4346" lon="1.13272">
        <ele>139.792313</ele>
        <time>2009-06-21T09:49:37Z</time>
      </trkpt>
      <trkpt lat="44.43455" lon="1.13268">
        <ele>139.810318</ele>
        <time>2009-06-21T09:49:40Z</time>
      </trkpt>
      <trkpt lat="44.4345" lon="1.13264">
        <ele>139.830933</ele>
        <time>2009-06-21T09:49:43Z</time>
      </trkpt>
      <trkpt lat="44.43446" lon="1.1326">
        <ele>139.883606</ele>
        <time>2009-06-21T09:49:46Z</time>
      </trkpt>
      <trkpt lat="44.43441" lon="1.13257">
        <ele>139.88237</ele>
        <time>2009-06-21T09:49:49Z</time>
      </trkpt>
      <trkpt lat="44.43438" lon="1.13251">
        <ele>139.975464</ele>
        <time>2009-06-21T09:49:52Z</time>
      </trkpt>
      <trkpt lat="44.43434" lon="1.13246">
        <ele>140.044556</ele>
        <time>2009-06-21T09:49:56Z</time>
      </trkpt>
      <trkpt lat="44.43429" lon="1.13239">
        <ele>140.100922</ele>
        <time>2009-06-21T09:49:59Z</time>
      </trkpt>
      <trkpt lat="44.43424" lon="1.13231">
        <ele>140.220078</ele>
        <time>2009-06-21T09:50:03Z</time>
      </trkpt>
      <trkpt lat="44.43421" lon="1.13224">
        <ele>140.432495</ele>
        <time>2009-06-21T09:50:06Z</time>
      </trkpt>
      <trkpt lat="44.43417" lon="1.13218">
        <ele>140.746246</ele>
        <time>2009-06-21T09:50:09Z</time>
      </trkpt>
      <trkpt lat="44.43413" lon="1.13209">
        <ele>141.268219</ele>
        <time>2009-06-21T09:50:14Z</time>
      </trkpt>
      <trkpt lat="44.4341" lon="1.13202">
        <ele>141.600235</ele>
        <time>2009-06-21T09:50:17Z</time>
      </trkpt>
      <trkpt lat="44.43407" lon="1.13196">
        <ele>141.93692</ele>
        <time>2009-06-21T09:50:20Z</time>
      </trkpt>
      <trkpt lat="44.43403" lon="1.13189">
        <ele>142.083557</ele>
        <time>2009-06-21T09:50:24Z</time>
      </trkpt>
      <trkpt lat="44.434" lon="1.13183">
        <ele>142.294724</ele>
        <time>2009-06-21T09:50:27Z</time>
      </trkpt>
      <trkpt lat="44.43397" lon="1.13177">
        <ele>142.539993</ele>
        <time>2009-06-21T09:50:30Z</time>
      </trkpt>
      <trkpt lat="44.43394" lon="1.13171">
        <ele>142.682724</ele>
        <time>2009-06-21T09:50:33Z</time>
      </trkpt>
      <trkpt lat="44.43391" lon="1.13164">
        <ele>142.923737</ele>
        <time>2009-06-21T09:50:36Z</time>
      </trkpt>
      <trkpt lat="44.43389" lon="1.13159">
        <ele>143.341003</ele>
        <time>2009-06-21T09:50:39Z</time>
      </trkpt>
      <trkpt lat="44.43386" lon="1.13154">
        <ele>143.762665</ele>
        <time>2009-06-21T09:50:42Z</time>
      </trkpt>
      <trkpt lat="44.43383" lon="1.13148">
        <ele>144.24202</ele>
        <time>2009-06-21T09:50:45Z</time>
      </trkpt>
      <trkpt lat="44.43379" lon="1.13142">
        <ele>144.705505</ele>
        <time>2009-06-21T09:50:48Z</time>
      </trkpt>
      <trkpt lat="44.43374" lon="1.13136">
        <ele>145.025421</ele>
        <time>2009-06-21T09:50:51Z</time>
      </trkpt>
      <trkpt lat="44.43367" lon="1.13128">
        <ele>145.591995</ele>
        <time>2009-06-21T09:50:55Z</time>
      </trkpt>
      <trkpt lat="44.43361" lon="1.13123">
        <ele>145.838821</ele>
        <time>2009-06-21T09:50:58Z</time>
      </trkpt>
      <trkpt lat="44.43357" lon="1.13122">
        <ele>145.81601</ele>
        <time>2009-06-21T09:51:01Z</time>
      </trkpt>
      <trkpt lat="44.43352" lon="1.1312">
        <ele>145.726929</ele>
        <time>2009-06-21T09:51:04Z</time>
      </trkpt>
      <trkpt lat="44.43348" lon="1.1312">
        <ele>145.486923</ele>
        <time>2009-06-21T09:51:07Z</time>
      </trkpt>
      <trkpt lat="44.43343" lon="1.1312">
        <ele>145.167435</ele>
        <time>2009-06-21T09:51:11Z</time>
      </trkpt>
      <trkpt lat="44.43339" lon="1.13118">
        <ele>145.193756</ele>
        <time>2009-06-21T09:51:15Z</time>
      </trkpt>
      <trkpt lat="44.4334" lon="1.13112">
        <ele>146.047455</ele>
        <time>2009-06-21T09:51:18Z</time>
      </trkpt>
      <trkpt lat="44.43345" lon="1.13106">
        <ele>146.975555</ele>
        <time>2009-06-21T09:51:23Z</time>
      </trkpt>
      <trkpt lat="44.43351" lon="1.13101">
        <ele>147.862473</ele>
        <time>2009-06-21T09:51:27Z</time>
      </trkpt>
      <trkpt lat="44.43355" lon="1.13097">
        <ele>148.408569</ele>
        <time>2009-06-21T09:51:30Z</time>
      </trkpt>
      <trkpt lat="44.43354" lon="1.13096">
        <ele>148.467499</ele>
        <time>2009-06-21T09:51:34Z</time>
      </trkpt>
      <trkpt lat="44.43357" lon="1.1309">
        <ele>149.158066</ele>
        <time>2009-06-21T09:51:39Z</time>
      </trkpt>
      <trkpt lat="44.43361" lon="1.13086">
        <ele>149.861557</ele>
        <time>2009-06-21T09:51:43Z</time>
      </trkpt>
      <trkpt lat="44.43365" lon="1.13082">
        <ele>150.480469</ele>
        <time>2009-06-21T09:51:51Z</time>
      </trkpt>
      <trkpt lat="44.43367" lon="1.13079">
        <ele>151.00325</ele>
        <time>2009-06-21T09:51:54Z</time>
      </trkpt>
      <trkpt lat="44.43371" lon="1.13076">
        <ele>151.631134</ele>
        <time>2009-06-21T09:51:58Z</time>
      </trkpt>
      <trkpt lat="44.43374" lon="1.13073">
        <ele>152.256989</ele>
        <time>2009-06-21T09:52:02Z</time>
      </trkpt>
      <trkpt lat="44.43376" lon="1.13073">
        <ele>152.361801</ele>
        <time>2009-06-21T09:52:11Z</time>
      </trkpt>
      <trkpt lat="44.43378" lon="1.13072">
        <ele>152.678284</ele>
        <time>2009-06-21T09:52:15Z</time>
      </trkpt>
      <trkpt lat="44.43381" lon="1.13069">
        <ele>153.21936</ele>
        <time>2009-06-21T09:52:19Z</time>
      </trkpt>
      <trkpt lat="44.43384" lon="1.13066">
        <ele>153.815338</ele>
        <time>2009-06-21T09:52:23Z</time>
      </trkpt>
      <trkpt lat="44.43387" lon="1.13062">
        <ele>154.509201</ele>
        <time>2009-06-21T09:52:27Z</time>
      </trkpt>
      <trkpt lat="44.4339" lon="1.13058">
        <ele>155.286942</ele>
        <time>2009-06-21T09:52:31Z</time>
      </trkpt>
      <trkpt lat="44.43393" lon="1.13054">
        <ele>155.984558</ele>
        <time>2009-06-21T09:52:35Z</time>
      </trkpt>
      <trkpt lat="44.43396" lon="1.13051">
        <ele>156.546677</ele>
        <time>2009-06-21T09:52:39Z</time>
      </trkpt>
      <trkpt lat="44.43398" lon="1.13048">
        <ele>157.222626</ele>
        <time>2009-06-21T09:52:43Z</time>
      </trkpt>
      <trkpt lat="44.43401" lon="1.13042">
        <ele>158.19455</ele>
        <time>2009-06-21T09:52:48Z</time>
      </trkpt>
      <trkpt lat="44.43403" lon="1.13037">
        <ele>158.842346</ele>
        <time>2009-06-21T09:52:53Z</time>
      </trkpt>
      <trkpt lat="44.43404" lon="1.13035">
        <ele>159.092438</ele>
        <time>2009-06-21T09:52:57Z</time>
      </trkpt>
      <trkpt lat="44.43406" lon="1.13032">
        <ele>159.44368</ele>
        <time>2009-06-21T09:53:02Z</time>
      </trkpt>
      <trkpt lat="44.43407" lon="1.13027">
        <ele>159.889999</ele>
        <time>2009-06-21T09:53:06Z</time>
      </trkpt>
      <trkpt lat="44.43408" lon="1.13023">
        <ele>160.264877</ele>
        <time>2009-06-21T09:53:10Z</time>
      </trkpt>
      <trkpt lat="44.43408" lon="1.13019">
        <ele>160.487915</ele>
        <time>2009-06-21T09:53:15Z</time>
      </trkpt>
      <trkpt lat="44.43408" lon="1.13017">
        <ele>160.599365</ele>
        <time>2009-06-21T09:53:19Z</time>
      </trkpt>
      <trkpt lat="44.43408" lon="1.13013">
        <ele>160.820557</ele>
        <time>2009-06-21T09:53:22Z</time>
      </trkpt>
      <trkpt lat="44.43408" lon="1.13009">
        <ele>161.087921</ele>
        <time>2009-06-21T09:53:26Z</time>
      </trkpt>
      <trkpt lat="44.43409" lon="1.13007">
        <ele>161.341522</ele>
        <time>2009-06-21T09:53:33Z</time>
      </trkpt>
      <trkpt lat="44.43409" lon="1.13003">
        <ele>161.656494</ele>
        <time>2009-06-21T09:53:37Z</time>
      </trkpt>
      <trkpt lat="44.4341" lon="1.12998">
        <ele>162.043472</ele>
        <time>2009-06-21T09:53:42Z</time>
      </trkpt>
      <trkpt lat="44.43409" lon="1.12993">
        <ele>162.316315</ele>
        <time>2009-06-21T09:53:46Z</time>
      </trkpt>
      <trkpt lat="44.4341" lon="1.12989">
        <ele>162.636002</ele>
        <time>2009-06-21T09:53:49Z</time>
      </trkpt>
      <trkpt lat="44.43411" lon="1.12985">
        <ele>163.019821</ele>
        <time>2009-06-21T09:53:52Z</time>
      </trkpt>
      <trkpt lat="44.43411" lon="1.12981">
        <ele>163.364868</ele>
        <time>2009-06-21T09:53:55Z</time>
      </trkpt>
      <trkpt lat="44.43412" lon="1.12976">
        <ele>163.802567</ele>
        <time>2009-06-21T09:53:59Z</time>
      </trkpt>
      <trkpt lat="44.43412" lon="1.12973">
        <ele>163.981323</ele>
        <time>2009-06-21T09:54:02Z</time>
      </trkpt>
      <trkpt lat="44.43413" lon="1.12968">
        <ele>164.386246</ele>
        <time>2009-06-21T09:54:06Z</time>
      </trkpt>
      <trkpt lat="44.43414" lon="1.12964">
        <ele>164.627594</ele>
        <time>2009-06-21T09:54:09Z</time>
      </trkpt>
      <trkpt lat="44.43414" lon="1.1296">
        <ele>164.837692</ele>
        <time>2009-06-21T09:54:13Z</time>
      </trkpt>
      <trkpt lat="44.43414" lon="1.12956">
        <ele>165.148438</ele>
        <time>2009-06-21T09:54:17Z</time>
      </trkpt>
      <trkpt lat="44.43415" lon="1.12952">
        <ele>165.486786</ele>
        <time>2009-06-21T09:54:21Z</time>
      </trkpt>
      <trkpt lat="44.43416" lon="1.12948">
        <ele>165.853973</ele>
        <time>2009-06-21T09:54:25Z</time>
      </trkpt>
      <trkpt lat="44.43417" lon="1.12943">
        <ele>166.180756</ele>
        <time>2009-06-21T09:54:29Z</time>
      </trkpt>
      <trkpt lat="44.43417" lon="1.12937">
        <ele>166.610565</ele>
        <time>2009-06-21T09:54:34Z</time>
      </trkpt>
      <trkpt lat="44.43416" lon="1.12936">
        <ele>166.405807</ele>
        <time>2009-06-21T09:54:49Z</time>
      </trkpt>
      <trkpt lat="44.43415" lon="1.12935">
        <ele>166.266541</ele>
        <time>2009-06-21T09:55:04Z</time>
      </trkpt>
      <trkpt lat="44.43414" lon="1.12926">
        <ele>166.632813</ele>
        <time>2009-06-21T09:55:08Z</time>
      </trkpt>
      <trkpt lat="44.43415" lon="1.12917">
        <ele>167.321091</ele>
        <time>2009-06-21T09:55:11Z</time>
      </trkpt>
      <trkpt lat="44.43417" lon="1.1291">
        <ele>167.866791</ele>
        <time>2009-06-21T09:55:14Z</time>
      </trkpt>
      <trkpt lat="44.43419" lon="1.12904">
        <ele>168.412994</ele>
        <time>2009-06-21T09:55:18Z</time>
      </trkpt>
      <trkpt lat="44.43421" lon="1.12901">
        <ele>168.851547</ele>
        <time>2009-06-21T09:55:21Z</time>
      </trkpt>
      <trkpt lat="44.43424" lon="1.12898">
        <ele>169.417542</ele>
        <time>2009-06-21T09:55:26Z</time>
      </trkpt>
      <trkpt lat="44.43427" lon="1.12894">
        <ele>170.227676</ele>
        <time>2009-06-21T09:55:30Z</time>
      </trkpt>
      <trkpt lat="44.43428" lon="1.12892">
        <ele>170.632004</ele>
        <time>2009-06-21T09:55:33Z</time>
      </trkpt>
      <trkpt lat="44.43431" lon="1.1289">
        <ele>171.216751</ele>
        <time>2009-06-21T09:55:38Z</time>
      </trkpt>
      <trkpt lat="44.43433" lon="1.12888">
        <ele>171.962341</ele>
        <time>2009-06-21T09:55:43Z</time>
      </trkpt>
      <trkpt lat="44.43436" lon="1.12886">
        <ele>172.661697</ele>
        <time>2009-06-21T09:55:47Z</time>
      </trkpt>
      <trkpt lat="44.43438" lon="1.12884">
        <ele>173.310333</ele>
        <time>2009-06-21T09:55:56Z</time>
      </trkpt>
      <trkpt lat="44.4344" lon="1.12883">
        <ele>173.787598</ele>
        <time>2009-06-21T09:56:00Z</time>
      </trkpt>
      <trkpt lat="44.43442" lon="1.1288">
        <ele>174.39949</ele>
        <time>2009-06-21T09:56:04Z</time>
      </trkpt>
      <trkpt lat="44.43443" lon="1.12878">
        <ele>174.816788</ele>
        <time>2009-06-21T09:56:07Z</time>
      </trkpt>
      <trkpt lat="44.43446" lon="1.12874">
        <ele>175.754868</ele>
        <time>2009-06-21T09:56:11Z</time>
      </trkpt>
      <trkpt lat="44.4345" lon="1.12872">
        <ele>176.785156</ele>
        <time>2009-06-21T09:56:15Z</time>
      </trkpt>
      <trkpt lat="44.43453" lon="1.12868">
        <ele>177.765671</ele>
        <time>2009-06-21T09:56:19Z</time>
      </trkpt>
      <trkpt lat="44.43456" lon="1.12867">
        <ele>178.770004</ele>
        <time>2009-06-21T09:56:23Z</time>
      </trkpt>
      <trkpt lat="44.43457" lon="1.12869">
        <ele>179.00061</ele>
        <time>2009-06-21T09:56:27Z</time>
      </trkpt>
      <trkpt lat="44.43458" lon="1.12873">
        <ele>178.904343</ele>
        <time>2009-06-21T09:56:31Z</time>
      </trkpt>
      <trkpt lat="44.43459" lon="1.12877">
        <ele>178.832199</ele>
        <time>2009-06-21T09:56:35Z</time>
      </trkpt>
      <trkpt lat="44.43461" lon="1.1288">
        <ele>178.727631</ele>
        <time>2009-06-21T09:56:39Z</time>
      </trkpt>
      <trkpt lat="44.43464" lon="1.12881">
        <ele>178.835373</ele>
        <time>2009-06-21T09:56:43Z</time>
      </trkpt>
      <trkpt lat="44.43467" lon="1.12883">
        <ele>178.864822</ele>
        <time>2009-06-21T09:56:47Z</time>
      </trkpt>
      <trkpt lat="44.43469" lon="1.12888">
        <ele>178.684052</ele>
        <time>2009-06-21T09:56:52Z</time>
      </trkpt>
      <trkpt lat="44.43473" lon="1.12889">
        <ele>178.732666</ele>
        <time>2009-06-21T09:56:57Z</time>
      </trkpt>
      <trkpt lat="44.43476" lon="1.12888">
        <ele>178.963501</ele>
        <time>2009-06-21T09:57:01Z</time>
      </trkpt>
      <trkpt lat="44.43479" lon="1.12887">
        <ele>179.197128</ele>
        <time>2009-06-21T09:57:06Z</time>
      </trkpt>
      <trkpt lat="44.4348" lon="1.12885">
        <ele>179.36348</ele>
        <time>2009-06-21T09:57:20Z</time>
      </trkpt>
      <trkpt lat="44.43482" lon="1.12885">
        <ele>179.440308</ele>
        <time>2009-06-21T09:57:25Z</time>
      </trkpt>
      <trkpt lat="44.43486" lon="1.12888">
        <ele>179.307907</ele>
        <time>2009-06-21T09:57:29Z</time>
      </trkpt>
      <trkpt lat="44.43494" lon="1.12882">
        <ele>180.373596</ele>
        <time>2009-06-21T09:57:32Z</time>
      </trkpt>
      <trkpt lat="44.43503" lon="1.12872">
        <ele>181.932755</ele>
        <time>2009-06-21T09:57:36Z</time>
      </trkpt>
      <trkpt lat="44.43508" lon="1.12867">
        <ele>182.205292</ele>
        <time>2009-06-21T09:57:39Z</time>
      </trkpt>
      <trkpt lat="44.43513" lon="1.12863">
        <ele>182.499542</ele>
        <time>2009-06-21T09:57:43Z</time>
      </trkpt>
      <trkpt lat="44.43516" lon="1.1286">
        <ele>182.726349</ele>
        <time>2009-06-21T09:57:46Z</time>
      </trkpt>
      <trkpt lat="44.43521" lon="1.12856">
        <ele>183.022873</ele>
        <time>2009-06-21T09:57:50Z</time>
      </trkpt>
      <trkpt lat="44.43524" lon="1.12853">
        <ele>183.199127</ele>
        <time>2009-06-21T09:57:53Z</time>
      </trkpt>
      <trkpt lat="44.43528" lon="1.12852">
        <ele>183.284393</ele>
        <time>2009-06-21T09:57:57Z</time>
      </trkpt>
      <trkpt lat="44.43533" lon="1.12848">
        <ele>183.700607</ele>
        <time>2009-06-21T09:58:01Z</time>
      </trkpt>
      <trkpt lat="44.43536" lon="1.12846">
        <ele>183.886154</ele>
        <time>2009-06-21T09:58:04Z</time>
      </trkpt>
      <trkpt lat="44.4354" lon="1.12843">
        <ele>184.487228</ele>
        <time>2009-06-21T09:58:07Z</time>
      </trkpt>
      <trkpt lat="44.43544" lon="1.1284">
        <ele>184.916077</ele>
        <time>2009-06-21T09:58:11Z</time>
      </trkpt>
      <trkpt lat="44.43549" lon="1.12838">
        <ele>185.428314</ele>
        <time>2009-06-21T09:58:15Z</time>
      </trkpt>
      <trkpt lat="44.43553" lon="1.12837">
        <ele>186.115829</ele>
        <time>2009-06-21T09:58:18Z</time>
      </trkpt>
      <trkpt lat="44.43558" lon="1.12837">
        <ele>186.616562</ele>
        <time>2009-06-21T09:58:21Z</time>
      </trkpt>
      <trkpt lat="44.43562" lon="1.12836">
        <ele>187.156937</ele>
        <time>2009-06-21T09:58:24Z</time>
      </trkpt>
      <trkpt lat="44.43565" lon="1.12836">
        <ele>187.413803</ele>
        <time>2009-06-21T09:58:27Z</time>
      </trkpt>
      <trkpt lat="44.43569" lon="1.12835">
        <ele>187.924057</ele>
        <time>2009-06-21T09:58:30Z</time>
      </trkpt>
      <trkpt lat="44.43573" lon="1.12835">
        <ele>188.41954</ele>
        <time>2009-06-21T09:58:33Z</time>
      </trkpt>
      <trkpt lat="44.43576" lon="1.12836">
        <ele>188.407227</ele>
        <time>2009-06-21T09:58:37Z</time>
      </trkpt>
      <trkpt lat="44.43577" lon="1.12837">
        <ele>188.108261</ele>
        <time>2009-06-21T09:58:47Z</time>
      </trkpt>
      <trkpt lat="44.43577" lon="1.12839">
        <ele>187.757339</ele>
        <time>2009-06-21T09:58:52Z</time>
      </trkpt>
      <trkpt lat="44.43578" lon="1.12841">
        <ele>187.366867</ele>
        <time>2009-06-21T09:58:58Z</time>
      </trkpt>
      <trkpt lat="44.43578" lon="1.12842">
        <ele>186.976364</ele>
        <time>2009-06-21T09:59:03Z</time>
      </trkpt>
      <trkpt lat="44.43578" lon="1.12844">
        <ele>186.603668</ele>
        <time>2009-06-21T09:59:09Z</time>
      </trkpt>
      <trkpt lat="44.43578" lon="1.12845">
        <ele>186.210815</ele>
        <time>2009-06-21T09:59:17Z</time>
      </trkpt>
      <trkpt lat="44.43579" lon="1.12845">
        <ele>186.439499</ele>
        <time>2009-06-21T09:59:37Z</time>
      </trkpt>
      <trkpt lat="44.43581" lon="1.12844">
        <ele>186.75824</ele>
        <time>2009-06-21T09:59:51Z</time>
      </trkpt>
      <trkpt lat="44.43584" lon="1.12844">
        <ele>187.090775</ele>
        <time>2009-06-21T09:59:55Z</time>
      </trkpt>
      <trkpt lat="44.43584" lon="1.12842">
        <ele>187.486877</ele>
        <time>2009-06-21T10:00:01Z</time>
      </trkpt>
      <trkpt lat="44.43584" lon="1.12841">
        <ele>187.932678</ele>
        <time>2009-06-21T10:00:07Z</time>
      </trkpt>
      <trkpt lat="44.43584" lon="1.12839">
        <ele>188.368439</ele>
        <time>2009-06-21T10:00:22Z</time>
      </trkpt>
      <trkpt lat="44.43586" lon="1.12837">
        <ele>188.858658</ele>
        <time>2009-06-21T10:00:31Z</time>
      </trkpt>
      <trkpt lat="44.43584" lon="1.12839">
        <ele>188.368439</ele>
        <time>2009-06-21T10:00:46Z</time>
      </trkpt>
      <trkpt lat="44.43584" lon="1.12841">
        <ele>187.821732</ele>
        <time>2009-06-21T10:00:50Z</time>
      </trkpt>
      <trkpt lat="44.43585" lon="1.12844">
        <ele>187.142105</ele>
        <time>2009-06-21T10:01:00Z</time>
      </trkpt>
      <trkpt lat="44.43587" lon="1.12844">
        <ele>187.185333</ele>
        <time>2009-06-21T10:01:08Z</time>
      </trkpt>
      <trkpt lat="44.43592" lon="1.12845">
        <ele>187.539734</ele>
        <time>2009-06-21T10:01:12Z</time>
      </trkpt>
      <trkpt lat="44.43595" lon="1.12843">
        <ele>188.316666</ele>
        <time>2009-06-21T10:01:15Z</time>
      </trkpt>
      <trkpt lat="44.436" lon="1.12841">
        <ele>189.487839</ele>
        <time>2009-06-21T10:01:19Z</time>
      </trkpt>
      <trkpt lat="44.43603" lon="1.1284">
        <ele>190.045135</ele>
        <time>2009-06-21T10:01:23Z</time>
      </trkpt>
      <trkpt lat="44.43607" lon="1.12841">
        <ele>190.438324</ele>
        <time>2009-06-21T10:01:27Z</time>
      </trkpt>
      <trkpt lat="44.43611" lon="1.1284">
        <ele>191.059967</ele>
        <time>2009-06-21T10:01:31Z</time>
      </trkpt>
      <trkpt lat="44.43615" lon="1.1284">
        <ele>191.577637</ele>
        <time>2009-06-21T10:01:35Z</time>
      </trkpt>
      <trkpt lat="44.43618" lon="1.12841">
        <ele>191.765244</ele>
        <time>2009-06-21T10:01:39Z</time>
      </trkpt>
      <trkpt lat="44.43622" lon="1.12841">
        <ele>192.304413</ele>
        <time>2009-06-21T10:01:43Z</time>
      </trkpt>
      <trkpt lat="44.43625" lon="1.1284">
        <ele>192.857513</ele>
        <time>2009-06-21T10:01:46Z</time>
      </trkpt>
      <trkpt lat="44.43628" lon="1.1284">
        <ele>193.197052</ele>
        <time>2009-06-21T10:01:49Z</time>
      </trkpt>
      <trkpt lat="44.43633" lon="1.12839">
        <ele>194.025391</ele>
        <time>2009-06-21T10:01:54Z</time>
      </trkpt>
      <trkpt lat="44.43637" lon="1.12839">
        <ele>194.483093</ele>
        <time>2009-06-21T10:01:58Z</time>
      </trkpt>
      <trkpt lat="44.43642" lon="1.12838">
        <ele>194.453644</ele>
        <time>2009-06-21T10:02:02Z</time>
      </trkpt>
      <trkpt lat="44.43645" lon="1.12839">
        <ele>194.184341</ele>
        <time>2009-06-21T10:02:05Z</time>
      </trkpt>
      <trkpt lat="44.43647" lon="1.12839">
        <ele>194.030243</ele>
        <time>2009-06-21T10:02:08Z</time>
      </trkpt>
      <trkpt lat="44.4365" lon="1.12838">
        <ele>194.157745</ele>
        <time>2009-06-21T10:02:12Z</time>
      </trkpt>
      <trkpt lat="44.43654" lon="1.12837">
        <ele>194.136719</ele>
        <time>2009-06-21T10:02:15Z</time>
      </trkpt>
      <trkpt lat="44.43658" lon="1.12835">
        <ele>194.215744</ele>
        <time>2009-06-21T10:02:19Z</time>
      </trkpt>
      <trkpt lat="44.43663" lon="1.12833">
        <ele>194.338562</ele>
        <time>2009-06-21T10:02:23Z</time>
      </trkpt>
      <trkpt lat="44.43665" lon="1.12831">
        <ele>194.466705</ele>
        <time>2009-06-21T10:02:27Z</time>
      </trkpt>
      <trkpt lat="44.43668" lon="1.12829">
        <ele>194.687149</ele>
        <time>2009-06-21T10:02:31Z</time>
      </trkpt>
      <trkpt lat="44.4367" lon="1.12826">
        <ele>194.973434</ele>
        <time>2009-06-21T10:02:35Z</time>
      </trkpt>
      <trkpt lat="44.43673" lon="1.12821">
        <ele>195.361893</ele>
        <time>2009-06-21T10:02:39Z</time>
      </trkpt>
      <trkpt lat="44.43673" lon="1.12817">
        <ele>195.871155</ele>
        <time>2009-06-21T10:02:43Z</time>
      </trkpt>
      <trkpt lat="44.43675" lon="1.12814">
        <ele>196.185059</ele>
        <time>2009-06-21T10:02:48Z</time>
      </trkpt>
      <trkpt lat="44.43676" lon="1.12812">
        <ele>196.254456</ele>
        <time>2009-06-21T10:03:04Z</time>
      </trkpt>
      <trkpt lat="44.43677" lon="1.12809">
        <ele>196.482178</ele>
        <time>2009-06-21T10:03:17Z</time>
      </trkpt>
      <trkpt lat="44.43678" lon="1.12806">
        <ele>196.769974</ele>
        <time>2009-06-21T10:03:21Z</time>
      </trkpt>
      <trkpt lat="44.4368" lon="1.12801">
        <ele>197.18605</ele>
        <time>2009-06-21T10:03:26Z</time>
      </trkpt>
      <trkpt lat="44.43681" lon="1.12797">
        <ele>197.418549</ele>
        <time>2009-06-21T10:03:30Z</time>
      </trkpt>
      <trkpt lat="44.43681" lon="1.12795">
        <ele>197.648727</ele>
        <time>2009-06-21T10:03:33Z</time>
      </trkpt>
      <trkpt lat="44.43682" lon="1.12794">
        <ele>197.557632</ele>
        <time>2009-06-21T10:03:37Z</time>
      </trkpt>
      <trkpt lat="44.43683" lon="1.12792">
        <ele>197.580536</ele>
        <time>2009-06-21T10:03:41Z</time>
      </trkpt>
      <trkpt lat="44.43684" lon="1.12787">
        <ele>197.899078</ele>
        <time>2009-06-21T10:03:46Z</time>
      </trkpt>
      <trkpt lat="44.43686" lon="1.12782">
        <ele>198.094711</ele>
        <time>2009-06-21T10:03:50Z</time>
      </trkpt>
      <trkpt lat="44.43688" lon="1.12779">
        <ele>197.857178</ele>
        <time>2009-06-21T10:03:59Z</time>
      </trkpt>
      <trkpt lat="44.43689" lon="1.1278">
        <ele>197.567429</ele>
        <time>2009-06-21T10:04:02Z</time>
      </trkpt>
      <trkpt lat="44.43692" lon="1.1278">
        <ele>196.983963</ele>
        <time>2009-06-21T10:04:07Z</time>
      </trkpt>
      <trkpt lat="44.43692" lon="1.12779">
        <ele>197.077652</ele>
        <time>2009-06-21T10:04:12Z</time>
      </trkpt>
      <trkpt lat="44.43693" lon="1.12779">
        <ele>196.777527</ele>
        <time>2009-06-21T10:04:16Z</time>
      </trkpt>
      <trkpt lat="44.43692" lon="1.12777">
        <ele>197.098312</ele>
        <time>2009-06-21T10:04:32Z</time>
      </trkpt>
      <trkpt lat="44.43692" lon="1.12772">
        <ele>197.362503</ele>
        <time>2009-06-21T10:04:35Z</time>
      </trkpt>
      <trkpt lat="44.43692" lon="1.12767">
        <ele>197.787216</ele>
        <time>2009-06-21T10:04:39Z</time>
      </trkpt>
      <trkpt lat="44.43691" lon="1.1276">
        <ele>198.380951</ele>
        <time>2009-06-21T10:04:45Z</time>
      </trkpt>
      <trkpt lat="44.43691" lon="1.12755">
        <ele>198.627075</ele>
        <time>2009-06-21T10:04:48Z</time>
      </trkpt>
      <trkpt lat="44.43689" lon="1.12751">
        <ele>199.439117</ele>
        <time>2009-06-21T10:04:51Z</time>
      </trkpt>
      <trkpt lat="44.43688" lon="1.12747">
        <ele>199.914597</ele>
        <time>2009-06-21T10:04:55Z</time>
      </trkpt>
      <trkpt lat="44.43689" lon="1.12742">
        <ele>200.171631</ele>
        <time>2009-06-21T10:04:59Z</time>
      </trkpt>
      <trkpt lat="44.43688" lon="1.12736">
        <ele>200.650604</ele>
        <time>2009-06-21T10:05:04Z</time>
      </trkpt>
      <trkpt lat="44.43687" lon="1.12732">
        <ele>201.400269</ele>
        <time>2009-06-21T10:05:08Z</time>
      </trkpt>
      <trkpt lat="44.43686" lon="1.12727">
        <ele>202.017105</ele>
        <time>2009-06-21T10:05:12Z</time>
      </trkpt>
      <trkpt lat="44.43686" lon="1.12723">
        <ele>202.111526</ele>
        <time>2009-06-21T10:05:21Z</time>
      </trkpt>
      <trkpt lat="44.43686" lon="1.12722">
        <ele>202.144806</ele>
        <time>2009-06-21T10:05:37Z</time>
      </trkpt>
      <trkpt lat="44.43686" lon="1.12716">
        <ele>202.492493</ele>
        <time>2009-06-21T10:05:41Z</time>
      </trkpt>
      <trkpt lat="44.43683" lon="1.1271">
        <ele>203.440002</ele>
        <time>2009-06-21T10:05:45Z</time>
      </trkpt>
      <trkpt lat="44.43682" lon="1.12706">
        <ele>203.993744</ele>
        <time>2009-06-21T10:05:48Z</time>
      </trkpt>
      <trkpt lat="44.4368" lon="1.12701">
        <ele>204.541245</ele>
        <time>2009-06-21T10:05:51Z</time>
      </trkpt>
      <trkpt lat="44.4368" lon="1.12696">
        <ele>204.904968</ele>
        <time>2009-06-21T10:05:55Z</time>
      </trkpt>
      <trkpt lat="44.43678" lon="1.12692">
        <ele>205.589859</ele>
        <time>2009-06-21T10:05:58Z</time>
      </trkpt>
      <trkpt lat="44.43676" lon="1.12687">
        <ele>206.448761</ele>
        <time>2009-06-21T10:06:02Z</time>
      </trkpt>
      <trkpt lat="44.43675" lon="1.12682">
        <ele>206.946716</ele>
        <time>2009-06-21T10:06:06Z</time>
      </trkpt>
      <trkpt lat="44.43675" lon="1.12676">
        <ele>207.109985</ele>
        <time>2009-06-21T10:06:10Z</time>
      </trkpt>
      <trkpt lat="44.43675" lon="1.1267">
        <ele>207.053558</ele>
        <time>2009-06-21T10:06:15Z</time>
      </trkpt>
      <trkpt lat="44.43675" lon="1.12665">
        <ele>207.187073</ele>
        <time>2009-06-21T10:06:19Z</time>
      </trkpt>
      <trkpt lat="44.43677" lon="1.1266">
        <ele>206.906021</ele>
        <time>2009-06-21T10:06:22Z</time>
      </trkpt>
      <trkpt lat="44.43679" lon="1.12653">
        <ele>206.539612</ele>
        <time>2009-06-21T10:06:26Z</time>
      </trkpt>
      <trkpt lat="44.43681" lon="1.12648">
        <ele>206.147354</ele>
        <time>2009-06-21T10:06:30Z</time>
      </trkpt>
      <trkpt lat="44.43681" lon="1.12644">
        <ele>206.278473</ele>
        <time>2009-06-21T10:06:33Z</time>
      </trkpt>
      <trkpt lat="44.43681" lon="1.12636">
        <ele>206.539627</ele>
        <time>2009-06-21T10:06:38Z</time>
      </trkpt>
      <trkpt lat="44.4368" lon="1.12632">
        <ele>207.085052</ele>
        <time>2009-06-21T10:06:42Z</time>
      </trkpt>
      <trkpt lat="44.4368" lon="1.12624">
        <ele>207.426666</ele>
        <time>2009-06-21T10:06:47Z</time>
      </trkpt>
      <trkpt lat="44.43679" lon="1.12619">
        <ele>207.837616</ele>
        <time>2009-06-21T10:06:51Z</time>
      </trkpt>
      <trkpt lat="44.4368" lon="1.12614">
        <ele>207.776154</ele>
        <time>2009-06-21T10:06:55Z</time>
      </trkpt>
      <trkpt lat="44.43681" lon="1.12609">
        <ele>207.897034</ele>
        <time>2009-06-21T10:06:59Z</time>
      </trkpt>
      <trkpt lat="44.43684" lon="1.12608">
        <ele>207.259567</ele>
        <time>2009-06-21T10:07:04Z</time>
      </trkpt>
      <trkpt lat="44.43685" lon="1.12609">
        <ele>206.952652</ele>
        <time>2009-06-21T10:07:07Z</time>
      </trkpt>
      <trkpt lat="44.43686" lon="1.12608">
        <ele>206.712189</ele>
        <time>2009-06-21T10:07:18Z</time>
      </trkpt>
      <trkpt lat="44.43687" lon="1.12607">
        <ele>206.461105</ele>
        <time>2009-06-21T10:07:21Z</time>
      </trkpt>
      <trkpt lat="44.43688" lon="1.12607">
        <ele>206.2332</ele>
        <time>2009-06-21T10:07:25Z</time>
      </trkpt>
      <trkpt lat="44.43687" lon="1.12608">
        <ele>206.432388</ele>
        <time>2009-06-21T10:07:33Z</time>
      </trkpt>
      <trkpt lat="44.43686" lon="1.12607">
        <ele>206.810684</ele>
        <time>2009-06-21T10:07:36Z</time>
      </trkpt>
      <trkpt lat="44.43686" lon="1.12605">
        <ele>206.786652</ele>
        <time>2009-06-21T10:07:50Z</time>
      </trkpt>
      <trkpt lat="44.43687" lon="1.12603">
        <ele>206.775696</ele>
        <time>2009-06-21T10:07:53Z</time>
      </trkpt>
      <trkpt lat="44.43689" lon="1.12599">
        <ele>206.572632</ele>
        <time>2009-06-21T10:07:57Z</time>
      </trkpt>
      <trkpt lat="44.43689" lon="1.12594">
        <ele>206.759033</ele>
        <time>2009-06-21T10:08:01Z</time>
      </trkpt>
      <trkpt lat="44.43689" lon="1.12586">
        <ele>207.726974</ele>
        <time>2009-06-21T10:08:05Z</time>
      </trkpt>
      <trkpt lat="44.43689" lon="1.1258">
        <ele>208.33876</ele>
        <time>2009-06-21T10:08:08Z</time>
      </trkpt>
      <trkpt lat="44.4369" lon="1.12574">
        <ele>208.797546</ele>
        <time>2009-06-21T10:08:11Z</time>
      </trkpt>
      <trkpt lat="44.43691" lon="1.12568">
        <ele>209.281967</ele>
        <time>2009-06-21T10:08:14Z</time>
      </trkpt>
      <trkpt lat="44.43692" lon="1.12562">
        <ele>209.640884</ele>
        <time>2009-06-21T10:08:17Z</time>
      </trkpt>
      <trkpt lat="44.43694" lon="1.12555">
        <ele>210.03862</ele>
        <time>2009-06-21T10:08:21Z</time>
      </trkpt>
      <trkpt lat="44.43695" lon="1.12547">
        <ele>210.707611</ele>
        <time>2009-06-21T10:08:25Z</time>
      </trkpt>
      <trkpt lat="44.43697" lon="1.1254">
        <ele>211.336517</ele>
        <time>2009-06-21T10:08:29Z</time>
      </trkpt>
      <trkpt lat="44.43701" lon="1.12532">
        <ele>211.375504</ele>
        <time>2009-06-21T10:08:33Z</time>
      </trkpt>
      <trkpt lat="44.43705" lon="1.12524">
        <ele>211.909836</ele>
        <time>2009-06-21T10:08:37Z</time>
      </trkpt>
      <trkpt lat="44.4371" lon="1.12515">
        <ele>212.495621</ele>
        <time>2009-06-21T10:08:42Z</time>
      </trkpt>
      <trkpt lat="44.43712" lon="1.12508">
        <ele>213.211121</ele>
        <time>2009-06-21T10:08:47Z</time>
      </trkpt>
      <trkpt lat="44.43714" lon="1.12504">
        <ele>213.688721</ele>
        <time>2009-06-21T10:08:50Z</time>
      </trkpt>
      <trkpt lat="44.43717" lon="1.12497">
        <ele>214.502716</ele>
        <time>2009-06-21T10:08:54Z</time>
      </trkpt>
      <trkpt lat="44.4372" lon="1.1249">
        <ele>215.141739</ele>
        <time>2009-06-21T10:08:57Z</time>
      </trkpt>
      <trkpt lat="44.43723" lon="1.12484">
        <ele>215.926926</ele>
        <time>2009-06-21T10:09:00Z</time>
      </trkpt>
      <trkpt lat="44.43725" lon="1.12478">
        <ele>216.559814</ele>
        <time>2009-06-21T10:09:03Z</time>
      </trkpt>
      <trkpt lat="44.43729" lon="1.12473">
        <ele>216.930405</ele>
        <time>2009-06-21T10:09:06Z</time>
      </trkpt>
      <trkpt lat="44.43732" lon="1.12468">
        <ele>217.401993</ele>
        <time>2009-06-21T10:09:09Z</time>
      </trkpt>
      <trkpt lat="44.43736" lon="1.12462">
        <ele>217.553619</ele>
        <time>2009-06-21T10:09:12Z</time>
      </trkpt>
      <trkpt lat="44.43739" lon="1.12458">
        <ele>217.650085</ele>
        <time>2009-06-21T10:09:15Z</time>
      </trkpt>
      <trkpt lat="44.43743" lon="1.12453">
        <ele>217.860504</ele>
        <time>2009-06-21T10:09:18Z</time>
      </trkpt>
      <trkpt lat="44.43744" lon="1.12448">
        <ele>218.31163</ele>
        <time>2009-06-21T10:09:21Z</time>
      </trkpt>
      <trkpt lat="44.43748" lon="1.12443">
        <ele>218.625854</ele>
        <time>2009-06-21T10:09:25Z</time>
      </trkpt>
      <trkpt lat="44.4375" lon="1.1244">
        <ele>218.768707</ele>
        <time>2009-06-21T10:09:34Z</time>
      </trkpt>
      <trkpt lat="44.43751" lon="1.12437">
        <ele>219.095367</ele>
        <time>2009-06-21T10:09:37Z</time>
      </trkpt>
      <trkpt lat="44.43755" lon="1.1243">
        <ele>219.672516</ele>
        <time>2009-06-21T10:09:41Z</time>
      </trkpt>
      <trkpt lat="44.43758" lon="1.12425">
        <ele>220.294342</ele>
        <time>2009-06-21T10:09:44Z</time>
      </trkpt>
      <trkpt lat="44.43761" lon="1.12419">
        <ele>220.809296</ele>
        <time>2009-06-21T10:09:47Z</time>
      </trkpt>
      <trkpt lat="44.43765" lon="1.12414">
        <ele>221.297531</ele>
        <time>2009-06-21T10:09:50Z</time>
      </trkpt>
      <trkpt lat="44.43768" lon="1.12409">
        <ele>222.025635</ele>
        <time>2009-06-21T10:09:53Z</time>
      </trkpt>
      <trkpt lat="44.43771" lon="1.12404">
        <ele>222.672501</ele>
        <time>2009-06-21T10:09:56Z</time>
      </trkpt>
      <trkpt lat="44.43774" lon="1.12401">
        <ele>222.869003</ele>
        <time>2009-06-21T10:09:59Z</time>
      </trkpt>
      <trkpt lat="44.43778" lon="1.12397">
        <ele>222.932541</ele>
        <time>2009-06-21T10:10:03Z</time>
      </trkpt>
      <trkpt lat="44.43782" lon="1.12396">
        <ele>222.89769</ele>
        <time>2009-06-21T10:10:08Z</time>
      </trkpt>
      <trkpt lat="44.43786" lon="1.12392">
        <ele>222.980301</ele>
        <time>2009-06-21T10:10:12Z</time>
      </trkpt>
      <trkpt lat="44.43791" lon="1.12389">
        <ele>223.055634</ele>
        <time>2009-06-21T10:10:16Z</time>
      </trkpt>
      <trkpt lat="44.43794" lon="1.12388">
        <ele>223.064423</ele>
        <time>2009-06-21T10:10:20Z</time>
      </trkpt>
      <trkpt lat="44.43797" lon="1.12387">
        <ele>223.035049</ele>
        <time>2009-06-21T10:10:23Z</time>
      </trkpt>
      <trkpt lat="44.43802" lon="1.12384">
        <ele>223.121902</ele>
        <time>2009-06-21T10:10:28Z</time>
      </trkpt>
      <trkpt lat="44.43806" lon="1.12382">
        <ele>223.13942</ele>
        <time>2009-06-21T10:10:31Z</time>
      </trkpt>
      <trkpt lat="44.4381" lon="1.1238">
        <ele>223.254089</ele>
        <time>2009-06-21T10:10:35Z</time>
      </trkpt>
      <trkpt lat="44.43813" lon="1.12378">
        <ele>223.381256</ele>
        <time>2009-06-21T10:10:39Z</time>
      </trkpt>
      <trkpt lat="44.43816" lon="1.12376">
        <ele>223.587494</ele>
        <time>2009-06-21T10:10:43Z</time>
      </trkpt>
      <trkpt lat="44.4382" lon="1.12372">
        <ele>223.932495</ele>
        <time>2009-06-21T10:10:48Z</time>
      </trkpt>
      <trkpt lat="44.43824" lon="1.12368">
        <ele>224.315002</ele>
        <time>2009-06-21T10:10:52Z</time>
      </trkpt>
      <trkpt lat="44.43827" lon="1.12364">
        <ele>224.645004</ele>
        <time>2009-06-21T10:10:56Z</time>
      </trkpt>
      <trkpt lat="44.4383" lon="1.1236">
        <ele>225.038757</ele>
        <time>2009-06-21T10:11:01Z</time>
      </trkpt>
      <trkpt lat="44.43833" lon="1.12357">
        <ele>225.368744</ele>
        <time>2009-06-21T10:11:05Z</time>
      </trkpt>
      <trkpt lat="44.43836" lon="1.12352">
        <ele>225.773743</ele>
        <time>2009-06-21T10:11:09Z</time>
      </trkpt>
      <trkpt lat="44.43839" lon="1.12349">
        <ele>226.054993</ele>
        <time>2009-06-21T10:11:13Z</time>
      </trkpt>
      <trkpt lat="44.43842" lon="1.12345">
        <ele>226.497498</ele>
        <time>2009-06-21T10:11:17Z</time>
      </trkpt>
      <trkpt lat="44.43845" lon="1.1234">
        <ele>226.921249</ele>
        <time>2009-06-21T10:11:22Z</time>
      </trkpt>
      <trkpt lat="44.43847" lon="1.12337">
        <ele>226.95224</ele>
        <time>2009-06-21T10:11:25Z</time>
      </trkpt>
      <trkpt lat="44.43849" lon="1.12334">
        <ele>226.880692</ele>
        <time>2009-06-21T10:11:29Z</time>
      </trkpt>
      <trkpt lat="44.43851" lon="1.1233">
        <ele>226.817032</ele>
        <time>2009-06-21T10:11:33Z</time>
      </trkpt>
      <trkpt lat="44.43854" lon="1.12325">
        <ele>226.755432</ele>
        <time>2009-06-21T10:11:37Z</time>
      </trkpt>
      <trkpt lat="44.43858" lon="1.12322">
        <ele>226.731247</ele>
        <time>2009-06-21T10:11:40Z</time>
      </trkpt>
      <trkpt lat="44.43863" lon="1.12318">
        <ele>226.718307</ele>
        <time>2009-06-21T10:11:43Z</time>
      </trkpt>
      <trkpt lat="44.43867" lon="1.12314">
        <ele>226.747223</ele>
        <time>2009-06-21T10:11:46Z</time>
      </trkpt>
      <trkpt lat="44.43872" lon="1.1231">
        <ele>226.838455</ele>
        <time>2009-06-21T10:11:49Z</time>
      </trkpt>
      <trkpt lat="44.43876" lon="1.12305">
        <ele>226.978577</ele>
        <time>2009-06-21T10:11:52Z</time>
      </trkpt>
      <trkpt lat="44.43881" lon="1.12301">
        <ele>227.182449</ele>
        <time>2009-06-21T10:11:55Z</time>
      </trkpt>
      <trkpt lat="44.43885" lon="1.12297">
        <ele>227.411133</ele>
        <time>2009-06-21T10:11:58Z</time>
      </trkpt>
      <trkpt lat="44.43889" lon="1.12294">
        <ele>227.660431</ele>
        <time>2009-06-21T10:12:01Z</time>
      </trkpt>
      <trkpt lat="44.43894" lon="1.12291">
        <ele>227.965912</ele>
        <time>2009-06-21T10:12:04Z</time>
      </trkpt>
      <trkpt lat="44.43898" lon="1.12287">
        <ele>228.306793</ele>
        <time>2009-06-21T10:12:07Z</time>
      </trkpt>
      <trkpt lat="44.43904" lon="1.12283">
        <ele>228.524948</ele>
        <time>2009-06-21T10:12:10Z</time>
      </trkpt>
      <trkpt lat="44.4391" lon="1.12279">
        <ele>228.59108</ele>
        <time>2009-06-21T10:12:13Z</time>
      </trkpt>
      <trkpt lat="44.43915" lon="1.12275">
        <ele>228.680466</ele>
        <time>2009-06-21T10:12:16Z</time>
      </trkpt>
      <trkpt lat="44.4392" lon="1.12271">
        <ele>228.738953</ele>
        <time>2009-06-21T10:12:19Z</time>
      </trkpt>
      <trkpt lat="44.43925" lon="1.12267">
        <ele>228.921631</ele>
        <time>2009-06-21T10:12:22Z</time>
      </trkpt>
      <trkpt lat="44.43931" lon="1.12263">
        <ele>229.230759</ele>
        <time>2009-06-21T10:12:25Z</time>
      </trkpt>
      <trkpt lat="44.43935" lon="1.12258">
        <ele>229.61792</ele>
        <time>2009-06-21T10:12:28Z</time>
      </trkpt>
      <trkpt lat="44.43938" lon="1.12253">
        <ele>230.202927</ele>
        <time>2009-06-21T10:12:31Z</time>
      </trkpt>
      <trkpt lat="44.43939" lon="1.12245">
        <ele>231.032379</ele>
        <time>2009-06-21T10:12:35Z</time>
      </trkpt>
      <trkpt lat="44.4394" lon="1.12238">
        <ele>231.746765</ele>
        <time>2009-06-21T10:12:38Z</time>
      </trkpt>
      <trkpt lat="44.43942" lon="1.12231">
        <ele>232.542755</ele>
        <time>2009-06-21T10:12:41Z</time>
      </trkpt>
      <trkpt lat="44.43944" lon="1.12226">
        <ele>233.338272</ele>
        <time>2009-06-21T10:12:44Z</time>
      </trkpt>
      <trkpt lat="44.43948" lon="1.12221">
        <ele>234.036621</ele>
        <time>2009-06-21T10:12:47Z</time>
      </trkpt>
      <trkpt lat="44.43953" lon="1.12214">
        <ele>235.077255</ele>
        <time>2009-06-21T10:12:51Z</time>
      </trkpt>
      <trkpt lat="44.43957" lon="1.12208">
        <ele>235.629135</ele>
        <time>2009-06-21T10:12:54Z</time>
      </trkpt>
      <trkpt lat="44.4396" lon="1.12203">
        <ele>235.960617</ele>
        <time>2009-06-21T10:12:57Z</time>
      </trkpt>
      <trkpt lat="44.43963" lon="1.12198">
        <ele>236.34874</ele>
        <time>2009-06-21T10:13:00Z</time>
      </trkpt>
      <trkpt lat="44.43966" lon="1.12193">
        <ele>236.7995</ele>
        <time>2009-06-21T10:13:03Z</time>
      </trkpt>
      <trkpt lat="44.43969" lon="1.12188">
        <ele>237.277252</ele>
        <time>2009-06-21T10:13:06Z</time>
      </trkpt>
      <trkpt lat="44.43974" lon="1.1218">
        <ele>238.139404</ele>
        <time>2009-06-21T10:13:10Z</time>
      </trkpt>
      <trkpt lat="44.43978" lon="1.12175">
        <ele>238.771042</ele>
        <time>2009-06-21T10:13:13Z</time>
      </trkpt>
      <trkpt lat="44.43981" lon="1.12169">
        <ele>239.496902</ele>
        <time>2009-06-21T10:13:16Z</time>
      </trkpt>
      <trkpt lat="44.43985" lon="1.12163">
        <ele>240.326096</ele>
        <time>2009-06-21T10:13:19Z</time>
      </trkpt>
      <trkpt lat="44.43989" lon="1.12158">
        <ele>241.21846</ele>
        <time>2009-06-21T10:13:22Z</time>
      </trkpt>
      <trkpt lat="44.43993" lon="1.12151">
        <ele>241.621399</ele>
        <time>2009-06-21T10:13:25Z</time>
      </trkpt>
      <trkpt lat="44.43997" lon="1.12145">
        <ele>241.804276</ele>
        <time>2009-06-21T10:13:28Z</time>
      </trkpt>
      <trkpt lat="44.44001" lon="1.1214">
        <ele>241.740631</ele>
        <time>2009-06-21T10:13:31Z</time>
      </trkpt>
      <trkpt lat="44.44004" lon="1.12135">
        <ele>241.732193</ele>
        <time>2009-06-21T10:13:34Z</time>
      </trkpt>
      <trkpt lat="44.44008" lon="1.1213">
        <ele>241.770996</ele>
        <time>2009-06-21T10:13:37Z</time>
      </trkpt>
      <trkpt lat="44.44011" lon="1.12125">
        <ele>241.865387</ele>
        <time>2009-06-21T10:13:40Z</time>
      </trkpt>
      <trkpt lat="44.44015" lon="1.1212">
        <ele>241.990707</ele>
        <time>2009-06-21T10:13:43Z</time>
      </trkpt>
      <trkpt lat="44.44017" lon="1.12115">
        <ele>242.163651</ele>
        <time>2009-06-21T10:13:46Z</time>
      </trkpt>
      <trkpt lat="44.44021" lon="1.1211">
        <ele>242.39978</ele>
        <time>2009-06-21T10:13:49Z</time>
      </trkpt>
      <trkpt lat="44.44027" lon="1.12101">
        <ele>242.89122</ele>
        <time>2009-06-21T10:13:53Z</time>
      </trkpt>
      <trkpt lat="44.44032" lon="1.12094">
        <ele>243.445129</ele>
        <time>2009-06-21T10:13:56Z</time>
      </trkpt>
      <trkpt lat="44.44037" lon="1.12086">
        <ele>243.921021</ele>
        <time>2009-06-21T10:13:59Z</time>
      </trkpt>
      <trkpt lat="44.44042" lon="1.12077">
        <ele>243.76828</ele>
        <time>2009-06-21T10:14:02Z</time>
      </trkpt>
      <trkpt lat="44.44047" lon="1.1207">
        <ele>243.610626</ele>
        <time>2009-06-21T10:14:05Z</time>
      </trkpt>
      <trkpt lat="44.44051" lon="1.12064">
        <ele>243.577866</ele>
        <time>2009-06-21T10:14:08Z</time>
      </trkpt>
      <trkpt lat="44.44056" lon="1.12059">
        <ele>243.616608</ele>
        <time>2009-06-21T10:14:11Z</time>
      </trkpt>
      <trkpt lat="44.44061" lon="1.12052">
        <ele>243.737732</ele>
        <time>2009-06-21T10:14:14Z</time>
      </trkpt>
      <trkpt lat="44.44066" lon="1.12045">
        <ele>243.9505</ele>
        <time>2009-06-21T10:14:17Z</time>
      </trkpt>
      <trkpt lat="44.44071" lon="1.12037">
        <ele>244.28714</ele>
        <time>2009-06-21T10:14:20Z</time>
      </trkpt>
      <trkpt lat="44.44076" lon="1.12029">
        <ele>244.713394</ele>
        <time>2009-06-21T10:14:23Z</time>
      </trkpt>
      <trkpt lat="44.44081" lon="1.1202">
        <ele>245.300842</ele>
        <time>2009-06-21T10:14:26Z</time>
      </trkpt>
      <trkpt lat="44.44085" lon="1.1201">
        <ele>245.777969</ele>
        <time>2009-06-21T10:14:29Z</time>
      </trkpt>
      <trkpt lat="44.44089" lon="1.11998">
        <ele>246.272751</ele>
        <time>2009-06-21T10:14:32Z</time>
      </trkpt>
      <trkpt lat="44.44091" lon="1.11988">
        <ele>246.721863</ele>
        <time>2009-06-21T10:14:35Z</time>
      </trkpt>
      <trkpt lat="44.44094" lon="1.11972">
        <ele>247.364838</ele>
        <time>2009-06-21T10:14:39Z</time>
      </trkpt>
      <trkpt lat="44.44095" lon="1.1196">
        <ele>247.715378</ele>
        <time>2009-06-21T10:14:42Z</time>
      </trkpt>
      <trkpt lat="44.44095" lon="1.11949">
        <ele>248.302353</ele>
        <time>2009-06-21T10:14:45Z</time>
      </trkpt>
      <trkpt lat="44.44095" lon="1.11937">
        <ele>248.945251</ele>
        <time>2009-06-21T10:14:48Z</time>
      </trkpt>
      <trkpt lat="44.44094" lon="1.11926">
        <ele>249.502502</ele>
        <time>2009-06-21T10:14:51Z</time>
      </trkpt>
      <trkpt lat="44.44094" lon="1.11916">
        <ele>250.083206</ele>
        <time>2009-06-21T10:14:54Z</time>
      </trkpt>
      <trkpt lat="44.44094" lon="1.11906">
        <ele>250.709534</ele>
        <time>2009-06-21T10:14:57Z</time>
      </trkpt>
      <trkpt lat="44.44094" lon="1.11896">
        <ele>251.309998</ele>
        <time>2009-06-21T10:15:00Z</time>
      </trkpt>
      <trkpt lat="44.44094" lon="1.11887">
        <ele>251.759338</ele>
        <time>2009-06-21T10:15:03Z</time>
      </trkpt>
      <trkpt lat="44.44095" lon="1.11878">
        <ele>252.264267</ele>
        <time>2009-06-21T10:15:06Z</time>
      </trkpt>
      <trkpt lat="44.44096" lon="1.11869">
        <ele>252.781067</ele>
        <time>2009-06-21T10:15:09Z</time>
      </trkpt>
      <trkpt lat="44.44098" lon="1.1186">
        <ele>253.373886</ele>
        <time>2009-06-21T10:15:12Z</time>
      </trkpt>
      <trkpt lat="44.441" lon="1.1185">
        <ele>253.968155</ele>
        <time>2009-06-21T10:15:15Z</time>
      </trkpt>
      <trkpt lat="44.44102" lon="1.11842">
        <ele>254.52803</ele>
        <time>2009-06-21T10:15:18Z</time>
      </trkpt>
      <trkpt lat="44.44103" lon="1.11834">
        <ele>255.015915</ele>
        <time>2009-06-21T10:15:21Z</time>
      </trkpt>
      <trkpt lat="44.44106" lon="1.11827">
        <ele>255.545792</ele>
        <time>2009-06-21T10:15:24Z</time>
      </trkpt>
      <trkpt lat="44.4411" lon="1.11819">
        <ele>256.134857</ele>
        <time>2009-06-21T10:15:27Z</time>
      </trkpt>
      <trkpt lat="44.44115" lon="1.11812">
        <ele>256.78656</ele>
        <time>2009-06-21T10:15:30Z</time>
      </trkpt>
      <trkpt lat="44.44119" lon="1.11805">
        <ele>257.343689</ele>
        <time>2009-06-21T10:15:33Z</time>
      </trkpt>
      <trkpt lat="44.44124" lon="1.11799">
        <ele>257.67569</ele>
        <time>2009-06-21T10:15:36Z</time>
      </trkpt>
      <trkpt lat="44.44128" lon="1.11792">
        <ele>257.945587</ele>
        <time>2009-06-21T10:15:39Z</time>
      </trkpt>
      <trkpt lat="44.44133" lon="1.11787">
        <ele>258.16452</ele>
        <time>2009-06-21T10:15:42Z</time>
      </trkpt>
      <trkpt lat="44.44138" lon="1.11789">
        <ele>258.321411</ele>
        <time>2009-06-21T10:15:46Z</time>
      </trkpt>
      <trkpt lat="44.44142" lon="1.11794">
        <ele>258.47699</ele>
        <time>2009-06-21T10:15:50Z</time>
      </trkpt>
      <trkpt lat="44.44146" lon="1.118">
        <ele>258.675995</ele>
        <time>2009-06-21T10:15:54Z</time>
      </trkpt>
      <trkpt lat="44.4415" lon="1.11805">
        <ele>258.867859</ele>
        <time>2009-06-21T10:15:57Z</time>
      </trkpt>
      <trkpt lat="44.44156" lon="1.11812">
        <ele>259.208008</ele>
        <time>2009-06-21T10:16:00Z</time>
      </trkpt>
      <trkpt lat="44.4416" lon="1.11815">
        <ele>259.461975</ele>
        <time>2009-06-21T10:16:04Z</time>
      </trkpt>
      <trkpt lat="44.44163" lon="1.11818">
        <ele>259.680115</ele>
        <time>2009-06-21T10:16:07Z</time>
      </trkpt>
      <trkpt lat="44.44169" lon="1.11826">
        <ele>260.015625</ele>
        <time>2009-06-21T10:16:12Z</time>
      </trkpt>
      <trkpt lat="44.44175" lon="1.11834">
        <ele>260.148132</ele>
        <time>2009-06-21T10:16:16Z</time>
      </trkpt>
      <trkpt lat="44.44181" lon="1.11842">
        <ele>260.160614</ele>
        <time>2009-06-21T10:16:20Z</time>
      </trkpt>
      <trkpt lat="44.44189" lon="1.11849">
        <ele>260.20874</ele>
        <time>2009-06-21T10:16:24Z</time>
      </trkpt>
      <trkpt lat="44.44194" lon="1.11854">
        <ele>260.251862</ele>
        <time>2009-06-21T10:16:27Z</time>
      </trkpt>
      <trkpt lat="44.44199" lon="1.11857">
        <ele>260.308136</ele>
        <time>2009-06-21T10:16:30Z</time>
      </trkpt>
      <trkpt lat="44.44203" lon="1.1186">
        <ele>260.350616</ele>
        <time>2009-06-21T10:16:33Z</time>
      </trkpt>
      <trkpt lat="44.44207" lon="1.11862">
        <ele>260.408112</ele>
        <time>2009-06-21T10:16:36Z</time>
      </trkpt>
      <trkpt lat="44.44211" lon="1.11864">
        <ele>260.43277</ele>
        <time>2009-06-21T10:16:39Z</time>
      </trkpt>
      <trkpt lat="44.44215" lon="1.11868">
        <ele>260.340485</ele>
        <time>2009-06-21T10:16:42Z</time>
      </trkpt>
      <trkpt lat="44.44222" lon="1.11874">
        <ele>260.21991</ele>
        <time>2009-06-21T10:16:46Z</time>
      </trkpt>
      <trkpt lat="44.44228" lon="1.11878">
        <ele>260.138336</ele>
        <time>2009-06-21T10:16:49Z</time>
      </trkpt>
      <trkpt lat="44.44234" lon="1.11882">
        <ele>260.074097</ele>
        <time>2009-06-21T10:16:52Z</time>
      </trkpt>
      <trkpt lat="44.44244" lon="1.11891">
        <ele>259.998596</ele>
        <time>2009-06-21T10:16:56Z</time>
      </trkpt>
      <trkpt lat="44.44253" lon="1.11899">
        <ele>259.742554</ele>
        <time>2009-06-21T10:16:59Z</time>
      </trkpt>
      <trkpt lat="44.44261" lon="1.11908">
        <ele>259.405975</ele>
        <time>2009-06-21T10:17:02Z</time>
      </trkpt>
      <trkpt lat="44.44269" lon="1.11918">
        <ele>259.0867</ele>
        <time>2009-06-21T10:17:05Z</time>
      </trkpt>
      <trkpt lat="44.44277" lon="1.11929">
        <ele>258.871429</ele>
        <time>2009-06-21T10:17:08Z</time>
      </trkpt>
      <trkpt lat="44.44283" lon="1.11943">
        <ele>258.717438</ele>
        <time>2009-06-21T10:17:11Z</time>
      </trkpt>
      <trkpt lat="44.44289" lon="1.11961">
        <ele>258.571991</ele>
        <time>2009-06-21T10:17:14Z</time>
      </trkpt>
      <trkpt lat="44.44293" lon="1.11977">
        <ele>258.3526</ele>
        <time>2009-06-21T10:17:17Z</time>
      </trkpt>
      <trkpt lat="44.44297" lon="1.11994">
        <ele>258.143555</ele>
        <time>2009-06-21T10:17:20Z</time>
      </trkpt>
      <trkpt lat="44.44306" lon="1.12005">
        <ele>258.303284</ele>
        <time>2009-06-21T10:17:24Z</time>
      </trkpt>
      <trkpt lat="44.44312" lon="1.11997">
        <ele>258.597443</ele>
        <time>2009-06-21T10:17:27Z</time>
      </trkpt>
      <trkpt lat="44.44318" lon="1.11985">
        <ele>258.860443</ele>
        <time>2009-06-21T10:17:30Z</time>
      </trkpt>
      <trkpt lat="44.44318" lon="1.11979">
        <ele>258.889526</ele>
        <time>2009-06-21T10:17:35Z</time>
      </trkpt>
      <trkpt lat="44.44318" lon="1.11977">
        <ele>258.889038</ele>
        <time>2009-06-21T10:17:43Z</time>
      </trkpt>
      <trkpt lat="44.44319" lon="1.11975">
        <ele>258.910278</ele>
        <time>2009-06-21T10:17:53Z</time>
      </trkpt>
      <trkpt lat="44.4432" lon="1.11974">
        <ele>258.92807</ele>
        <time>2009-06-21T10:18:05Z</time>
      </trkpt>
      <trkpt lat="44.44321" lon="1.11972">
        <ele>258.957977</ele>
        <time>2009-06-21T10:18:20Z</time>
      </trkpt>
      <trkpt lat="44.44322" lon="1.1197">
        <ele>258.969818</ele>
        <time>2009-06-21T10:18:24Z</time>
      </trkpt>
      <trkpt lat="44.44323" lon="1.11969">
        <ele>258.98642</ele>
        <time>2009-06-21T10:18:36Z</time>
      </trkpt>
      <trkpt lat="44.44331" lon="1.11965">
        <ele>259.056458</ele>
        <time>2009-06-21T10:18:40Z</time>
      </trkpt>
      <trkpt lat="44.44343" lon="1.11955">
        <ele>259.047852</ele>
        <time>2009-06-21T10:18:43Z</time>
      </trkpt>
      <trkpt lat="44.44358" lon="1.11953">
        <ele>259.02063</ele>
        <time>2009-06-21T10:18:47Z</time>
      </trkpt>
      <trkpt lat="44.44378" lon="1.11951">
        <ele>258.985138</ele>
        <time>2009-06-21T10:18:50Z</time>
      </trkpt>
      <trkpt lat="44.44394" lon="1.1195">
        <ele>258.910004</ele>
        <time>2009-06-21T10:18:53Z</time>
      </trkpt>
      <trkpt lat="44.44408" lon="1.11948">
        <ele>258.575012</ele>
        <time>2009-06-21T10:18:56Z</time>
      </trkpt>
      <trkpt lat="44.44423" lon="1.11947">
        <ele>258.186249</ele>
        <time>2009-06-21T10:18:59Z</time>
      </trkpt>
      <trkpt lat="44.44437" lon="1.11944">
        <ele>257.782562</ele>
        <time>2009-06-21T10:19:02Z</time>
      </trkpt>
      <trkpt lat="44.44449" lon="1.11942">
        <ele>256.94104</ele>
        <time>2009-06-21T10:19:05Z</time>
      </trkpt>
      <trkpt lat="44.4446" lon="1.1194">
        <ele>256.227905</ele>
        <time>2009-06-21T10:19:08Z</time>
      </trkpt>
      <trkpt lat="44.44467" lon="1.11952">
        <ele>255.974487</ele>
        <time>2009-06-21T10:19:12Z</time>
      </trkpt>
      <trkpt lat="44.44468" lon="1.11969">
        <ele>255.76416</ele>
        <time>2009-06-21T10:19:15Z</time>
      </trkpt>
      <trkpt lat="44.44469" lon="1.11992">
        <ele>255.541351</ele>
        <time>2009-06-21T10:19:19Z</time>
      </trkpt>
      <trkpt lat="44.44468" lon="1.12008">
        <ele>255.608261</ele>
        <time>2009-06-21T10:19:22Z</time>
      </trkpt>
      <trkpt lat="44.44463" lon="1.12024">
        <ele>256.162506</ele>
        <time>2009-06-21T10:19:25Z</time>
      </trkpt>
      <trkpt lat="44.44453" lon="1.12041">
        <ele>257.237488</ele>
        <time>2009-06-21T10:19:28Z</time>
      </trkpt>
      <trkpt lat="44.44447" lon="1.12054">
        <ele>257.975006</ele>
        <time>2009-06-21T10:19:31Z</time>
      </trkpt>
      <trkpt lat="44.4444" lon="1.12067">
        <ele>258.799988</ele>
        <time>2009-06-21T10:19:34Z</time>
      </trkpt>
      <trkpt lat="44.44432" lon="1.1208">
        <ele>259.096985</ele>
        <time>2009-06-21T10:19:37Z</time>
      </trkpt>
      <trkpt lat="44.44427" lon="1.12097">
        <ele>258.57608</ele>
        <time>2009-06-21T10:19:41Z</time>
      </trkpt>
      <trkpt lat="44.44431" lon="1.12111">
        <ele>257.925018</ele>
        <time>2009-06-21T10:19:44Z</time>
      </trkpt>
      <trkpt lat="44.44437" lon="1.12111">
        <ele>257.866791</ele>
        <time>2009-06-21T10:19:54Z</time>
      </trkpt>
      <trkpt lat="44.44437" lon="1.1211">
        <ele>257.910858</ele>
        <time>2009-06-21T10:19:59Z</time>
      </trkpt>
      <trkpt lat="44.44439" lon="1.12109">
        <ele>257.892456</ele>
        <time>2009-06-21T10:20:07Z</time>
      </trkpt>
      <trkpt lat="44.4444" lon="1.12108">
        <ele>257.795868</ele>
        <time>2009-06-21T10:20:10Z</time>
      </trkpt>
      <trkpt lat="44.44442" lon="1.12107">
        <ele>257.674194</ele>
        <time>2009-06-21T10:20:14Z</time>
      </trkpt>
      <trkpt lat="44.44445" lon="1.12108">
        <ele>257.469788</ele>
        <time>2009-06-21T10:20:20Z</time>
      </trkpt>
      <trkpt lat="44.44444" lon="1.1211">
        <ele>257.452728</ele>
        <time>2009-06-21T10:20:26Z</time>
      </trkpt>
      <trkpt lat="44.44445" lon="1.12112">
        <ele>257.315094</ele>
        <time>2009-06-21T10:20:30Z</time>
      </trkpt>
      <trkpt lat="44.44445" lon="1.12115">
        <ele>257.278351</ele>
        <time>2009-06-21T10:20:35Z</time>
      </trkpt>
      <trkpt lat="44.44442" lon="1.12118">
        <ele>257.399902</ele>
        <time>2009-06-21T10:20:39Z</time>
      </trkpt>
      <trkpt lat="44.44443" lon="1.12115">
        <ele>257.431702</ele>
        <time>2009-06-21T10:20:42Z</time>
      </trkpt>
      <trkpt lat="44.44442" lon="1.12109">
        <ele>257.660583</ele>
        <time>2009-06-21T10:20:47Z</time>
      </trkpt>
      <trkpt lat="44.44441" lon="1.1211">
        <ele>257.691376</ele>
        <time>2009-06-21T10:20:50Z</time>
      </trkpt>
      <trkpt lat="44.44441" lon="1.12112">
        <ele>257.664246</ele>
        <time>2009-06-21T10:20:59Z</time>
      </trkpt>
      <trkpt lat="44.44441" lon="1.1211">
        <ele>257.658142</ele>
        <time>2009-06-21T10:21:12Z</time>
      </trkpt>
      <trkpt lat="44.44442" lon="1.12109">
        <ele>257.675385</ele>
        <time>2009-06-21T10:21:23Z</time>
      </trkpt>
      <trkpt lat="44.44442" lon="1.12107">
        <ele>257.656891</ele>
        <time>2009-06-21T10:21:51Z</time>
      </trkpt>
      <trkpt lat="44.44442" lon="1.1211">
        <ele>257.591187</ele>
        <time>2009-06-21T10:22:30Z</time>
      </trkpt>
      <trkpt lat="44.44442" lon="1.12112">
        <ele>257.566162</ele>
        <time>2009-06-21T10:22:34Z</time>
      </trkpt>
      <trkpt lat="44.44442" lon="1.12113">
        <ele>257.54071</ele>
        <time>2009-06-21T10:22:41Z</time>
      </trkpt>
      <trkpt lat="44.44442" lon="1.12112">
        <ele>257.549835</ele>
        <time>2009-06-21T10:22:52Z</time>
      </trkpt>
      <trkpt lat="44.44443" lon="1.1211">
        <ele>257.549225</ele>
        <time>2009-06-21T10:23:11Z</time>
      </trkpt>
      <trkpt lat="44.44443" lon="1.12112">
        <ele>257.509033</ele>
        <time>2009-06-21T10:23:46Z</time>
      </trkpt>
      <trkpt lat="44.44443" lon="1.12113">
        <ele>257.475769</ele>
        <time>2009-06-21T10:24:32Z</time>
      </trkpt>
      <trkpt lat="44.44442" lon="1.12115">
        <ele>257.466583</ele>
        <time>2009-06-21T10:24:36Z</time>
      </trkpt>
      <trkpt lat="44.44443" lon="1.12113">
        <ele>257.475769</ele>
        <time>2009-06-21T10:24:48Z</time>
      </trkpt>
      <trkpt lat="44.44443" lon="1.12115">
        <ele>257.445618</ele>
        <time>2009-06-21T10:25:14Z</time>
      </trkpt>
      <trkpt lat="44.44442" lon="1.12117">
        <ele>257.418945</ele>
        <time>2009-06-21T10:25:18Z</time>
      </trkpt>
      <trkpt lat="44.44442" lon="1.12115">
        <ele>257.444977</ele>
        <time>2009-06-21T10:25:49Z</time>
      </trkpt>
      <trkpt lat="44.44443" lon="1.12114">
        <ele>257.457672</ele>
        <time>2009-06-21T10:26:19Z</time>
      </trkpt>
      <trkpt lat="44.44443" lon="1.12112">
        <ele>257.473816</ele>
        <time>2009-06-21T10:26:36Z</time>
      </trkpt>
      <trkpt lat="44.44443" lon="1.12111">
        <ele>257.494049</ele>
        <time>2009-06-21T10:27:38Z</time>
      </trkpt>
      <trkpt lat="44.44444" lon="1.12109">
        <ele>257.516449</ele>
        <time>2009-06-21T10:27:52Z</time>
      </trkpt>
      <trkpt lat="44.44444" lon="1.12108">
        <ele>257.520844</ele>
        <time>2009-06-21T10:28:37Z</time>
      </trkpt>
      <trkpt lat="44.44444" lon="1.12106">
        <ele>257.532623</ele>
        <time>2009-06-21T10:28:58Z</time>
      </trkpt>
      <trkpt lat="44.44445" lon="1.12105">
        <ele>257.534363</ele>
        <time>2009-06-21T10:29:18Z</time>
      </trkpt>
      <trkpt lat="44.44444" lon="1.12107">
        <ele>257.519745</ele>
        <time>2009-06-21T10:29:45Z</time>
      </trkpt>
      <trkpt lat="44.44444" lon="1.12108">
        <ele>257.482635</ele>
        <time>2009-06-21T10:30:20Z</time>
      </trkpt>
      <trkpt lat="44.44444" lon="1.1211">
        <ele>257.468048</ele>
        <time>2009-06-21T10:30:24Z</time>
      </trkpt>
      <trkpt lat="44.44444" lon="1.12112">
        <ele>257.453857</ele>
        <time>2009-06-21T10:30:33Z</time>
      </trkpt>
      <trkpt lat="44.44444" lon="1.12113">
        <ele>257.414734</ele>
        <time>2009-06-21T10:30:53Z</time>
      </trkpt>
      <trkpt lat="44.44444" lon="1.12112">
        <ele>257.459015</ele>
        <time>2009-06-21T10:31:20Z</time>
      </trkpt>
      <trkpt lat="44.44444" lon="1.1211">
        <ele>257.481476</ele>
        <time>2009-06-21T10:31:29Z</time>
      </trkpt>
      <trkpt lat="44.44444" lon="1.12108">
        <ele>257.499725</ele>
        <time>2009-06-21T10:31:37Z</time>
      </trkpt>
      <trkpt lat="44.44443" lon="1.12112">
        <ele>257.467163</ele>
        <time>2009-06-21T10:31:44Z</time>
      </trkpt>
      <trkpt lat="44.44443" lon="1.12115">
        <ele>257.435364</ele>
        <time>2009-06-21T10:31:48Z</time>
      </trkpt>
      <trkpt lat="44.44442" lon="1.12118">
        <ele>257.386414</ele>
        <time>2009-06-21T10:31:55Z</time>
      </trkpt>
      <trkpt lat="44.44442" lon="1.12119">
        <ele>257.35965</ele>
        <time>2009-06-21T10:32:02Z</time>
      </trkpt>
      <trkpt lat="44.44442" lon="1.12121">
        <ele>257.316925</ele>
        <time>2009-06-21T10:32:13Z</time>
      </trkpt>
      <trkpt lat="44.44443" lon="1.12119">
        <ele>257.322357</ele>
        <time>2009-06-21T10:32:37Z</time>
      </trkpt>
      <trkpt lat="44.44443" lon="1.12118">
        <ele>257.34082</ele>
        <time>2009-06-21T10:32:53Z</time>
      </trkpt>
      <trkpt lat="44.44443" lon="1.12116">
        <ele>257.37735</ele>
        <time>2009-06-21T10:33:20Z</time>
      </trkpt>
      <trkpt lat="44.44443" lon="1.12114">
        <ele>257.409882</ele>
        <time>2009-06-21T10:33:24Z</time>
      </trkpt>
      <trkpt lat="44.44443" lon="1.12113">
        <ele>257.441315</ele>
        <time>2009-06-21T10:33:39Z</time>
      </trkpt>
      <trkpt lat="44.44443" lon="1.12111">
        <ele>257.480621</ele>
        <time>2009-06-21T10:34:01Z</time>
      </trkpt>
      <trkpt lat="44.44443" lon="1.1211">
        <ele>257.50647</ele>
        <time>2009-06-21T10:34:07Z</time>
      </trkpt>
    </trkseg>
  </trk>
</gpx>